<?xml version="1.0" encoding="UTF-8" standalone="no" ?>
<gpx xmlns="http://www.topografix.com/GPX/1/1" xmlns:xsi="http://www.w3.org/2001/XMLSchema-instance" xsi:schemaLocation="http://www.topografix.com/GPX/1/1 http://www.topografix.com/GPX/1/1/gpx.xsd" version="1.1" creator="VisuGPX - https://www.visugpx.com">
  <metadata>
    <name>Sortie VTT Départ Bois St Pierre</name>
  </metadata>
  <trk>
    <name><![CDATA[Sortie VTT Départ Bois St Pierre_1]]></name>
    <trkseg>
      <trkpt lat="46.50641" lon="0.36804">
        <ele>136.4</ele>
        <time>2024-08-18T06:13:06Z</time>
      </trkpt>
      <trkpt lat="46.50644" lon="0.36795">
        <ele>136.4</ele>
        <time>2024-08-18T06:13:12Z</time>
      </trkpt>
      <trkpt lat="46.50644" lon="0.36786">
        <ele>136.2</ele>
        <time>2024-08-18T06:13:14Z</time>
      </trkpt>
      <trkpt lat="46.50641" lon="0.36761">
        <ele>135.6</ele>
        <time>2024-08-18T06:13:19Z</time>
      </trkpt>
      <trkpt lat="46.5064" lon="0.36756">
        <ele>135.2</ele>
        <time>2024-08-18T06:13:20Z</time>
      </trkpt>
      <trkpt lat="46.5064" lon="0.36751">
        <ele>135.2</ele>
        <time>2024-08-18T06:13:21Z</time>
      </trkpt>
      <trkpt lat="46.5064" lon="0.36737">
        <ele>135</ele>
        <time>2024-08-18T06:13:23Z</time>
      </trkpt>
      <trkpt lat="46.50641" lon="0.3673">
        <ele>134.8</ele>
        <time>2024-08-18T06:13:24Z</time>
      </trkpt>
      <trkpt lat="46.50644" lon="0.36708">
        <ele>134</ele>
        <time>2024-08-18T06:13:27Z</time>
      </trkpt>
      <trkpt lat="46.50646" lon="0.36677">
        <ele>132.6</ele>
        <time>2024-08-18T06:13:31Z</time>
      </trkpt>
      <trkpt lat="46.50652" lon="0.36639">
        <ele>131.4</ele>
        <time>2024-08-18T06:13:35Z</time>
      </trkpt>
      <trkpt lat="46.50658" lon="0.3663">
        <ele>131</ele>
        <time>2024-08-18T06:13:36Z</time>
      </trkpt>
      <trkpt lat="46.50664" lon="0.36622">
        <ele>130.4</ele>
        <time>2024-08-18T06:13:37Z</time>
      </trkpt>
      <trkpt lat="46.50671" lon="0.36615">
        <ele>130.2</ele>
        <time>2024-08-18T06:13:38Z</time>
      </trkpt>
      <trkpt lat="46.50683" lon="0.366">
        <ele>129.4</ele>
        <time>2024-08-18T06:13:40Z</time>
      </trkpt>
      <trkpt lat="46.50688" lon="0.36591">
        <ele>128.6</ele>
        <time>2024-08-18T06:13:41Z</time>
      </trkpt>
      <trkpt lat="46.50692" lon="0.36581">
        <ele>128.2</ele>
        <time>2024-08-18T06:13:42Z</time>
      </trkpt>
      <trkpt lat="46.50695" lon="0.3657">
        <ele>128</ele>
        <time>2024-08-18T06:13:43Z</time>
      </trkpt>
      <trkpt lat="46.50696" lon="0.36559">
        <ele>127.6</ele>
        <time>2024-08-18T06:13:44Z</time>
      </trkpt>
      <trkpt lat="46.50697" lon="0.36549">
        <ele>127.4</ele>
        <time>2024-08-18T06:13:45Z</time>
      </trkpt>
      <trkpt lat="46.50699" lon="0.3653">
        <ele>127</ele>
        <time>2024-08-18T06:13:47Z</time>
      </trkpt>
      <trkpt lat="46.50703" lon="0.36494">
        <ele>127</ele>
        <time>2024-08-18T06:13:52Z</time>
      </trkpt>
      <trkpt lat="46.5071" lon="0.36449">
        <ele>128</ele>
        <time>2024-08-18T06:13:58Z</time>
      </trkpt>
      <trkpt lat="46.50716" lon="0.36416">
        <ele>128.8</ele>
        <time>2024-08-18T06:14:03Z</time>
      </trkpt>
      <trkpt lat="46.50722" lon="0.36377">
        <ele>130</ele>
        <time>2024-08-18T06:14:09Z</time>
      </trkpt>
      <trkpt lat="46.50727" lon="0.36341">
        <ele>131.4</ele>
        <time>2024-08-18T06:14:14Z</time>
      </trkpt>
      <trkpt lat="46.50729" lon="0.36326">
        <ele>131.8</ele>
        <time>2024-08-18T06:14:16Z</time>
      </trkpt>
      <trkpt lat="46.50732" lon="0.36303">
        <ele>132.4</ele>
        <time>2024-08-18T06:14:19Z</time>
      </trkpt>
      <trkpt lat="46.50738" lon="0.36254">
        <ele>133</ele>
        <time>2024-08-18T06:14:26Z</time>
      </trkpt>
      <trkpt lat="46.50741" lon="0.36234">
        <ele>133.4</ele>
        <time>2024-08-18T06:14:29Z</time>
      </trkpt>
      <trkpt lat="46.50743" lon="0.36221">
        <ele>133.6</ele>
        <time>2024-08-18T06:14:31Z</time>
      </trkpt>
      <trkpt lat="46.50749" lon="0.36183">
        <ele>134.6</ele>
        <time>2024-08-18T06:14:37Z</time>
      </trkpt>
      <trkpt lat="46.50761" lon="0.36132">
        <ele>135.2</ele>
        <time>2024-08-18T06:14:46Z</time>
      </trkpt>
      <trkpt lat="46.5077" lon="0.3612">
        <ele>134.8</ele>
        <time>2024-08-18T06:14:49Z</time>
      </trkpt>
      <trkpt lat="46.50776" lon="0.36109">
        <ele>134.6</ele>
        <time>2024-08-18T06:14:51Z</time>
      </trkpt>
      <trkpt lat="46.5078" lon="0.36095">
        <ele>134.4</ele>
        <time>2024-08-18T06:14:53Z</time>
      </trkpt>
      <trkpt lat="46.50783" lon="0.36075">
        <ele>133.4</ele>
        <time>2024-08-18T06:14:56Z</time>
      </trkpt>
      <trkpt lat="46.50783" lon="0.36063">
        <ele>132.8</ele>
        <time>2024-08-18T06:14:58Z</time>
      </trkpt>
      <trkpt lat="46.50778" lon="0.36034">
        <ele>133.2</ele>
        <time>2024-08-18T06:15:03Z</time>
      </trkpt>
      <trkpt lat="46.50777" lon="0.36016">
        <ele>134.6</ele>
        <time>2024-08-18T06:15:06Z</time>
      </trkpt>
      <trkpt lat="46.50775" lon="0.35998">
        <ele>135.6</ele>
        <time>2024-08-18T06:15:09Z</time>
      </trkpt>
      <trkpt lat="46.50775" lon="0.35992">
        <ele>136</ele>
        <time>2024-08-18T06:15:10Z</time>
      </trkpt>
      <trkpt lat="46.50772" lon="0.35969">
        <ele>137.2</ele>
        <time>2024-08-18T06:15:14Z</time>
      </trkpt>
      <trkpt lat="46.50771" lon="0.35951">
        <ele>137.6</ele>
        <time>2024-08-18T06:15:17Z</time>
      </trkpt>
      <trkpt lat="46.50769" lon="0.35939">
        <ele>138.2</ele>
        <time>2024-08-18T06:15:19Z</time>
      </trkpt>
      <trkpt lat="46.50761" lon="0.35901">
        <ele>138.6</ele>
        <time>2024-08-18T06:15:25Z</time>
      </trkpt>
      <trkpt lat="46.50756" lon="0.35871">
        <ele>139.2</ele>
        <time>2024-08-18T06:15:30Z</time>
      </trkpt>
      <trkpt lat="46.50755" lon="0.35866">
        <ele>139.4</ele>
        <time>2024-08-18T06:15:31Z</time>
      </trkpt>
      <trkpt lat="46.50755" lon="0.3586">
        <ele>139.4</ele>
        <time>2024-08-18T06:15:32Z</time>
      </trkpt>
      <trkpt lat="46.50756" lon="0.35854">
        <ele>139.8</ele>
        <time>2024-08-18T06:15:33Z</time>
      </trkpt>
      <trkpt lat="46.50758" lon="0.35842">
        <ele>140.2</ele>
        <time>2024-08-18T06:15:35Z</time>
      </trkpt>
      <trkpt lat="46.5076" lon="0.35836">
        <ele>140.4</ele>
        <time>2024-08-18T06:15:36Z</time>
      </trkpt>
      <trkpt lat="46.50776" lon="0.35792">
        <ele>141</ele>
        <time>2024-08-18T06:15:44Z</time>
      </trkpt>
      <trkpt lat="46.50801" lon="0.35754">
        <ele>140.2</ele>
        <time>2024-08-18T06:15:52Z</time>
      </trkpt>
      <trkpt lat="46.50804" lon="0.3575">
        <ele>140.2</ele>
        <time>2024-08-18T06:15:53Z</time>
      </trkpt>
      <trkpt lat="46.50809" lon="0.35742">
        <ele>140</ele>
        <time>2024-08-18T06:15:55Z</time>
      </trkpt>
      <trkpt lat="46.50815" lon="0.35736">
        <ele>139.8</ele>
        <time>2024-08-18T06:15:57Z</time>
      </trkpt>
      <trkpt lat="46.5083" lon="0.35716">
        <ele>139.8</ele>
        <time>2024-08-18T06:16:02Z</time>
      </trkpt>
      <trkpt lat="46.50843" lon="0.35689">
        <ele>140</ele>
        <time>2024-08-18T06:16:07Z</time>
      </trkpt>
      <trkpt lat="46.50851" lon="0.35682">
        <ele>139.8</ele>
        <time>2024-08-18T06:16:09Z</time>
      </trkpt>
      <trkpt lat="46.50858" lon="0.35674">
        <ele>139.6</ele>
        <time>2024-08-18T06:16:11Z</time>
      </trkpt>
      <trkpt lat="46.50867" lon="0.3566">
        <ele>139.8</ele>
        <time>2024-08-18T06:16:14Z</time>
      </trkpt>
      <trkpt lat="46.50888" lon="0.35628">
        <ele>139.2</ele>
        <time>2024-08-18T06:16:20Z</time>
      </trkpt>
      <trkpt lat="46.50908" lon="0.35593">
        <ele>138</ele>
        <time>2024-08-18T06:16:26Z</time>
      </trkpt>
      <trkpt lat="46.50912" lon="0.35587">
        <ele>137.8</ele>
        <time>2024-08-18T06:16:27Z</time>
      </trkpt>
      <trkpt lat="46.50939" lon="0.35543">
        <ele>136.8</ele>
        <time>2024-08-18T06:16:34Z</time>
      </trkpt>
      <trkpt lat="46.50942" lon="0.35536">
        <ele>136.8</ele>
        <time>2024-08-18T06:16:35Z</time>
      </trkpt>
      <trkpt lat="46.5096" lon="0.355">
        <ele>135.8</ele>
        <time>2024-08-18T06:16:40Z</time>
      </trkpt>
      <trkpt lat="46.50985" lon="0.35465">
        <ele>135</ele>
        <time>2024-08-18T06:16:46Z</time>
      </trkpt>
      <trkpt lat="46.51009" lon="0.35433">
        <ele>135</ele>
        <time>2024-08-18T06:16:52Z</time>
      </trkpt>
      <trkpt lat="46.51013" lon="0.35429">
        <ele>135</ele>
        <time>2024-08-18T06:16:53Z</time>
      </trkpt>
      <trkpt lat="46.51023" lon="0.35425">
        <ele>134.8</ele>
        <time>2024-08-18T06:16:55Z</time>
      </trkpt>
      <trkpt lat="46.51027" lon="0.35423">
        <ele>134.8</ele>
        <time>2024-08-18T06:16:56Z</time>
      </trkpt>
      <trkpt lat="46.51032" lon="0.3542">
        <ele>134.8</ele>
        <time>2024-08-18T06:16:57Z</time>
      </trkpt>
      <trkpt lat="46.51039" lon="0.3541">
        <ele>134.8</ele>
        <time>2024-08-18T06:16:59Z</time>
      </trkpt>
      <trkpt lat="46.51042" lon="0.35397">
        <ele>134.8</ele>
        <time>2024-08-18T06:17:01Z</time>
      </trkpt>
      <trkpt lat="46.51041" lon="0.35386">
        <ele>134.4</ele>
        <time>2024-08-18T06:17:03Z</time>
      </trkpt>
      <trkpt lat="46.51038" lon="0.35377">
        <ele>134.2</ele>
        <time>2024-08-18T06:17:05Z</time>
      </trkpt>
      <trkpt lat="46.51035" lon="0.35369">
        <ele>134.2</ele>
        <time>2024-08-18T06:17:07Z</time>
      </trkpt>
      <trkpt lat="46.51035" lon="0.35364">
        <ele>134.2</ele>
        <time>2024-08-18T06:17:08Z</time>
      </trkpt>
      <trkpt lat="46.51036" lon="0.3535">
        <ele>134.2</ele>
        <time>2024-08-18T06:17:11Z</time>
      </trkpt>
      <trkpt lat="46.51042" lon="0.35317">
        <ele>134</ele>
        <time>2024-08-18T06:17:17Z</time>
      </trkpt>
      <trkpt lat="46.51044" lon="0.35293">
        <ele>133.6</ele>
        <time>2024-08-18T06:17:20Z</time>
      </trkpt>
      <trkpt lat="46.51048" lon="0.35268">
        <ele>133</ele>
        <time>2024-08-18T06:17:23Z</time>
      </trkpt>
      <trkpt lat="46.51052" lon="0.35241">
        <ele>132.6</ele>
        <time>2024-08-18T06:17:26Z</time>
      </trkpt>
      <trkpt lat="46.51057" lon="0.35206">
        <ele>131.4</ele>
        <time>2024-08-18T06:17:30Z</time>
      </trkpt>
      <trkpt lat="46.51062" lon="0.3516">
        <ele>130.4</ele>
        <time>2024-08-18T06:17:35Z</time>
      </trkpt>
      <trkpt lat="46.51065" lon="0.35131">
        <ele>129.4</ele>
        <time>2024-08-18T06:17:38Z</time>
      </trkpt>
      <trkpt lat="46.51066" lon="0.35121">
        <ele>129.2</ele>
        <time>2024-08-18T06:17:39Z</time>
      </trkpt>
      <trkpt lat="46.5107" lon="0.35092">
        <ele>128</ele>
        <time>2024-08-18T06:17:42Z</time>
      </trkpt>
      <trkpt lat="46.51074" lon="0.35075">
        <ele>127.2</ele>
        <time>2024-08-18T06:17:44Z</time>
      </trkpt>
      <trkpt lat="46.51077" lon="0.35067">
        <ele>126.6</ele>
        <time>2024-08-18T06:17:45Z</time>
      </trkpt>
      <trkpt lat="46.5108" lon="0.35054">
        <ele>124.8</ele>
        <time>2024-08-18T06:17:47Z</time>
      </trkpt>
      <trkpt lat="46.51081" lon="0.35048">
        <ele>124</ele>
        <time>2024-08-18T06:17:48Z</time>
      </trkpt>
      <trkpt lat="46.51081" lon="0.35044">
        <ele>123.6</ele>
        <time>2024-08-18T06:17:49Z</time>
      </trkpt>
      <trkpt lat="46.51082" lon="0.35027">
        <ele>122.4</ele>
        <time>2024-08-18T06:17:53Z</time>
      </trkpt>
      <trkpt lat="46.51085" lon="0.35008">
        <ele>121.4</ele>
        <time>2024-08-18T06:17:57Z</time>
      </trkpt>
      <trkpt lat="46.51089" lon="0.35006">
        <ele>121.4</ele>
        <time>2024-08-18T06:17:58Z</time>
      </trkpt>
      <trkpt lat="46.51108" lon="0.35009">
        <ele>120.6</ele>
        <time>2024-08-18T06:18:03Z</time>
      </trkpt>
      <trkpt lat="46.51117" lon="0.35007">
        <ele>120.2</ele>
        <time>2024-08-18T06:18:05Z</time>
      </trkpt>
      <trkpt lat="46.51121" lon="0.35003">
        <ele>119.8</ele>
        <time>2024-08-18T06:18:06Z</time>
      </trkpt>
      <trkpt lat="46.51124" lon="0.34998">
        <ele>119.6</ele>
        <time>2024-08-18T06:18:07Z</time>
      </trkpt>
      <trkpt lat="46.51131" lon="0.34981">
        <ele>119.6</ele>
        <time>2024-08-18T06:18:10Z</time>
      </trkpt>
      <trkpt lat="46.51137" lon="0.34973">
        <ele>120</ele>
        <time>2024-08-18T06:18:12Z</time>
      </trkpt>
      <trkpt lat="46.51143" lon="0.34964">
        <ele>120.8</ele>
        <time>2024-08-18T06:18:14Z</time>
      </trkpt>
      <trkpt lat="46.51144" lon="0.34952">
        <ele>121.4</ele>
        <time>2024-08-18T06:18:16Z</time>
      </trkpt>
      <trkpt lat="46.51145" lon="0.34946">
        <ele>122.2</ele>
        <time>2024-08-18T06:18:17Z</time>
      </trkpt>
      <trkpt lat="46.51145" lon="0.34939">
        <ele>122.6</ele>
        <time>2024-08-18T06:18:18Z</time>
      </trkpt>
      <trkpt lat="46.51144" lon="0.34916">
        <ele>123.6</ele>
        <time>2024-08-18T06:18:22Z</time>
      </trkpt>
      <trkpt lat="46.51145" lon="0.34911">
        <ele>123.8</ele>
        <time>2024-08-18T06:18:23Z</time>
      </trkpt>
      <trkpt lat="46.51146" lon="0.34892">
        <ele>125</ele>
        <time>2024-08-18T06:18:27Z</time>
      </trkpt>
      <trkpt lat="46.51146" lon="0.34888">
        <ele>125.2</ele>
        <time>2024-08-18T06:18:28Z</time>
      </trkpt>
      <trkpt lat="46.5115" lon="0.34884">
        <ele>125.6</ele>
        <time>2024-08-18T06:18:30Z</time>
      </trkpt>
      <trkpt lat="46.51152" lon="0.34883">
        <ele>125.8</ele>
        <time>2024-08-18T06:18:31Z</time>
      </trkpt>
      <trkpt lat="46.5116" lon="0.34881">
        <ele>126</ele>
        <time>2024-08-18T06:18:33Z</time>
      </trkpt>
      <trkpt lat="46.51168" lon="0.34877">
        <ele>126.4</ele>
        <time>2024-08-18T06:18:35Z</time>
      </trkpt>
      <trkpt lat="46.51185" lon="0.3487">
        <ele>126.4</ele>
        <time>2024-08-18T06:18:41Z</time>
      </trkpt>
      <trkpt lat="46.51202" lon="0.34859">
        <ele>126.4</ele>
        <time>2024-08-18T06:18:47Z</time>
      </trkpt>
      <trkpt lat="46.51218" lon="0.3485">
        <ele>126.4</ele>
        <time>2024-08-18T06:18:52Z</time>
      </trkpt>
      <trkpt lat="46.51231" lon="0.34848">
        <ele>126.4</ele>
        <time>2024-08-18T06:18:55Z</time>
      </trkpt>
      <trkpt lat="46.51236" lon="0.34848">
        <ele>126.2</ele>
        <time>2024-08-18T06:18:56Z</time>
      </trkpt>
      <trkpt lat="46.5125" lon="0.34848">
        <ele>125.4</ele>
        <time>2024-08-18T06:18:59Z</time>
      </trkpt>
      <trkpt lat="46.51257" lon="0.34842">
        <ele>125.2</ele>
        <time>2024-08-18T06:19:01Z</time>
      </trkpt>
      <trkpt lat="46.51264" lon="0.3484">
        <ele>125.2</ele>
        <time>2024-08-18T06:19:03Z</time>
      </trkpt>
      <trkpt lat="46.51271" lon="0.34842">
        <ele>125.2</ele>
        <time>2024-08-18T06:19:05Z</time>
      </trkpt>
      <trkpt lat="46.51276" lon="0.3484">
        <ele>125.2</ele>
        <time>2024-08-18T06:19:07Z</time>
      </trkpt>
      <trkpt lat="46.51278" lon="0.34838">
        <ele>125.2</ele>
        <time>2024-08-18T06:19:08Z</time>
      </trkpt>
      <trkpt lat="46.51283" lon="0.3482">
        <ele>125</ele>
        <time>2024-08-18T06:19:13Z</time>
      </trkpt>
      <trkpt lat="46.51286" lon="0.34809">
        <ele>125</ele>
        <time>2024-08-18T06:19:16Z</time>
      </trkpt>
      <trkpt lat="46.51286" lon="0.34803">
        <ele>125</ele>
        <time>2024-08-18T06:19:18Z</time>
      </trkpt>
      <trkpt lat="46.51287" lon="0.34793">
        <ele>125.8</ele>
        <time>2024-08-18T06:19:23Z</time>
      </trkpt>
      <trkpt lat="46.51288" lon="0.34793">
        <ele>126</ele>
        <time>2024-08-18T06:19:25Z</time>
      </trkpt>
      <trkpt lat="46.51292" lon="0.34798">
        <ele>125.8</ele>
        <time>2024-08-18T06:19:28Z</time>
      </trkpt>
      <trkpt lat="46.51293" lon="0.34807">
        <ele>125.2</ele>
        <time>2024-08-18T06:19:32Z</time>
      </trkpt>
      <trkpt lat="46.51294" lon="0.34808">
        <ele>125.2</ele>
        <time>2024-08-18T06:19:33Z</time>
      </trkpt>
      <trkpt lat="46.51296" lon="0.34808">
        <ele>125</ele>
        <time>2024-08-18T06:19:34Z</time>
      </trkpt>
      <trkpt lat="46.51302" lon="0.34805">
        <ele>124.6</ele>
        <time>2024-08-18T06:19:38Z</time>
      </trkpt>
      <trkpt lat="46.51308" lon="0.34807">
        <ele>124.4</ele>
        <time>2024-08-18T06:19:43Z</time>
      </trkpt>
      <trkpt lat="46.51309" lon="0.3481">
        <ele>124.2</ele>
        <time>2024-08-18T06:19:44Z</time>
      </trkpt>
      <trkpt lat="46.51311" lon="0.34815">
        <ele>124</ele>
        <time>2024-08-18T06:19:47Z</time>
      </trkpt>
      <trkpt lat="46.51313" lon="0.34816">
        <ele>123.8</ele>
        <time>2024-08-18T06:19:48Z</time>
      </trkpt>
      <trkpt lat="46.51314" lon="0.34817">
        <ele>123.8</ele>
        <time>2024-08-18T06:19:49Z</time>
      </trkpt>
      <trkpt lat="46.51322" lon="0.34818">
        <ele>123.2</ele>
        <time>2024-08-18T06:19:54Z</time>
      </trkpt>
      <trkpt lat="46.51328" lon="0.34818">
        <ele>123</ele>
        <time>2024-08-18T06:19:57Z</time>
      </trkpt>
      <trkpt lat="46.51331" lon="0.34821">
        <ele>123</ele>
        <time>2024-08-18T06:19:59Z</time>
      </trkpt>
      <trkpt lat="46.51333" lon="0.34822">
        <ele>122.8</ele>
        <time>2024-08-18T06:20:00Z</time>
      </trkpt>
      <trkpt lat="46.51343" lon="0.34829">
        <ele>121.8</ele>
        <time>2024-08-18T06:20:04Z</time>
      </trkpt>
      <trkpt lat="46.51345" lon="0.3483">
        <ele>121.4</ele>
        <time>2024-08-18T06:20:05Z</time>
      </trkpt>
      <trkpt lat="46.51349" lon="0.34834">
        <ele>120.8</ele>
        <time>2024-08-18T06:20:07Z</time>
      </trkpt>
      <trkpt lat="46.51354" lon="0.34837">
        <ele>119.2</ele>
        <time>2024-08-18T06:20:10Z</time>
      </trkpt>
      <trkpt lat="46.51357" lon="0.34837">
        <ele>118.2</ele>
        <time>2024-08-18T06:20:12Z</time>
      </trkpt>
      <trkpt lat="46.51359" lon="0.34838">
        <ele>117.2</ele>
        <time>2024-08-18T06:20:13Z</time>
      </trkpt>
      <trkpt lat="46.51364" lon="0.34838">
        <ele>115.6</ele>
        <time>2024-08-18T06:20:15Z</time>
      </trkpt>
      <trkpt lat="46.51369" lon="0.34835">
        <ele>115.2</ele>
        <time>2024-08-18T06:20:17Z</time>
      </trkpt>
      <trkpt lat="46.5138" lon="0.34827">
        <ele>115.6</ele>
        <time>2024-08-18T06:20:22Z</time>
      </trkpt>
      <trkpt lat="46.51382" lon="0.34825">
        <ele>116</ele>
        <time>2024-08-18T06:20:24Z</time>
      </trkpt>
      <trkpt lat="46.51387" lon="0.34824">
        <ele>115.8</ele>
        <time>2024-08-18T06:20:27Z</time>
      </trkpt>
      <trkpt lat="46.51389" lon="0.34821">
        <ele>115.6</ele>
        <time>2024-08-18T06:20:31Z</time>
      </trkpt>
      <trkpt lat="46.51396" lon="0.34814">
        <ele>115.4</ele>
        <time>2024-08-18T06:20:37Z</time>
      </trkpt>
      <trkpt lat="46.51398" lon="0.3481">
        <ele>115.6</ele>
        <time>2024-08-18T06:20:39Z</time>
      </trkpt>
      <trkpt lat="46.51407" lon="0.34792">
        <ele>115.2</ele>
        <time>2024-08-18T06:20:47Z</time>
      </trkpt>
      <trkpt lat="46.51409" lon="0.34785">
        <ele>114.6</ele>
        <time>2024-08-18T06:20:49Z</time>
      </trkpt>
      <trkpt lat="46.51413" lon="0.34775">
        <ele>113.6</ele>
        <time>2024-08-18T06:20:53Z</time>
      </trkpt>
      <trkpt lat="46.51414" lon="0.34775">
        <ele>113.4</ele>
        <time>2024-08-18T06:20:54Z</time>
      </trkpt>
      <trkpt lat="46.51418" lon="0.34769">
        <ele>112.4</ele>
        <time>2024-08-18T06:20:59Z</time>
      </trkpt>
      <trkpt lat="46.51419" lon="0.34767">
        <ele>112</ele>
        <time>2024-08-18T06:21:00Z</time>
      </trkpt>
      <trkpt lat="46.51422" lon="0.3476">
        <ele>111.2</ele>
        <time>2024-08-18T06:21:04Z</time>
      </trkpt>
      <trkpt lat="46.51423" lon="0.34758">
        <ele>111</ele>
        <time>2024-08-18T06:21:05Z</time>
      </trkpt>
      <trkpt lat="46.51424" lon="0.34757">
        <ele>110.8</ele>
        <time>2024-08-18T06:21:06Z</time>
      </trkpt>
      <trkpt lat="46.51424" lon="0.34755">
        <ele>110.4</ele>
        <time>2024-08-18T06:21:08Z</time>
      </trkpt>
      <trkpt lat="46.51426" lon="0.34751">
        <ele>110.2</ele>
        <time>2024-08-18T06:21:11Z</time>
      </trkpt>
      <trkpt lat="46.51427" lon="0.34748">
        <ele>110</ele>
        <time>2024-08-18T06:21:13Z</time>
      </trkpt>
      <trkpt lat="46.51431" lon="0.34742">
        <ele>110</ele>
        <time>2024-08-18T06:21:16Z</time>
      </trkpt>
      <trkpt lat="46.51434" lon="0.34735">
        <ele>109.8</ele>
        <time>2024-08-18T06:21:20Z</time>
      </trkpt>
      <trkpt lat="46.51437" lon="0.34724">
        <ele>109</ele>
        <time>2024-08-18T06:21:25Z</time>
      </trkpt>
      <trkpt lat="46.51437" lon="0.34722">
        <ele>109</ele>
        <time>2024-08-18T06:21:26Z</time>
      </trkpt>
      <trkpt lat="46.51438" lon="0.34713">
        <ele>109.4</ele>
        <time>2024-08-18T06:21:31Z</time>
      </trkpt>
      <trkpt lat="46.51439" lon="0.34708">
        <ele>110</ele>
        <time>2024-08-18T06:21:34Z</time>
      </trkpt>
      <trkpt lat="46.51439" lon="0.34707">
        <ele>110.2</ele>
        <time>2024-08-18T06:21:35Z</time>
      </trkpt>
      <trkpt lat="46.51439" lon="0.34703">
        <ele>110.2</ele>
        <time>2024-08-18T06:21:38Z</time>
      </trkpt>
      <trkpt lat="46.51441" lon="0.34694">
        <ele>110</ele>
        <time>2024-08-18T06:21:46Z</time>
      </trkpt>
      <trkpt lat="46.51443" lon="0.34686">
        <ele>110</ele>
        <time>2024-08-18T06:21:57Z</time>
      </trkpt>
      <trkpt lat="46.51443" lon="0.34681">
        <ele>110</ele>
        <time>2024-08-18T06:22:03Z</time>
      </trkpt>
      <trkpt lat="46.51443" lon="0.34671">
        <ele>110</ele>
        <time>2024-08-18T06:22:10Z</time>
      </trkpt>
      <trkpt lat="46.51443" lon="0.3467">
        <ele>110</ele>
        <time>2024-08-18T06:22:11Z</time>
      </trkpt>
      <trkpt lat="46.51446" lon="0.34667">
        <ele>109.8</ele>
        <time>2024-08-18T06:22:15Z</time>
      </trkpt>
      <trkpt lat="46.5145" lon="0.34665">
        <ele>108</ele>
        <time>2024-08-18T06:22:18Z</time>
      </trkpt>
      <trkpt lat="46.51451" lon="0.34663">
        <ele>107</ele>
        <time>2024-08-18T06:22:19Z</time>
      </trkpt>
      <trkpt lat="46.51452" lon="0.34661">
        <ele>106</ele>
        <time>2024-08-18T06:22:20Z</time>
      </trkpt>
      <trkpt lat="46.51454" lon="0.34655">
        <ele>104.4</ele>
        <time>2024-08-18T06:22:22Z</time>
      </trkpt>
      <trkpt lat="46.51455" lon="0.34652">
        <ele>104</ele>
        <time>2024-08-18T06:22:23Z</time>
      </trkpt>
      <trkpt lat="46.51458" lon="0.34646">
        <ele>103.6</ele>
        <time>2024-08-18T06:22:25Z</time>
      </trkpt>
      <trkpt lat="46.51461" lon="0.3464">
        <ele>103.4</ele>
        <time>2024-08-18T06:22:27Z</time>
      </trkpt>
      <trkpt lat="46.51463" lon="0.34636">
        <ele>103.2</ele>
        <time>2024-08-18T06:22:29Z</time>
      </trkpt>
      <trkpt lat="46.5147" lon="0.34619">
        <ele>103.2</ele>
        <time>2024-08-18T06:22:37Z</time>
      </trkpt>
      <trkpt lat="46.51478" lon="0.34603">
        <ele>102.8</ele>
        <time>2024-08-18T06:22:43Z</time>
      </trkpt>
      <trkpt lat="46.51483" lon="0.3459">
        <ele>102.4</ele>
        <time>2024-08-18T06:22:46Z</time>
      </trkpt>
      <trkpt lat="46.51489" lon="0.34575">
        <ele>101.8</ele>
        <time>2024-08-18T06:22:49Z</time>
      </trkpt>
      <trkpt lat="46.51491" lon="0.34568">
        <ele>101.8</ele>
        <time>2024-08-18T06:22:51Z</time>
      </trkpt>
      <trkpt lat="46.51493" lon="0.34563">
        <ele>101.8</ele>
        <time>2024-08-18T06:22:53Z</time>
      </trkpt>
      <trkpt lat="46.51498" lon="0.34542">
        <ele>102.4</ele>
        <time>2024-08-18T06:23:00Z</time>
      </trkpt>
      <trkpt lat="46.51499" lon="0.34536">
        <ele>102.6</ele>
        <time>2024-08-18T06:23:02Z</time>
      </trkpt>
      <trkpt lat="46.51498" lon="0.34532">
        <ele>102.8</ele>
        <time>2024-08-18T06:23:04Z</time>
      </trkpt>
      <trkpt lat="46.51497" lon="0.34531">
        <ele>103</ele>
        <time>2024-08-18T06:23:05Z</time>
      </trkpt>
      <trkpt lat="46.51495" lon="0.34526">
        <ele>103.4</ele>
        <time>2024-08-18T06:23:10Z</time>
      </trkpt>
      <trkpt lat="46.51494" lon="0.34524">
        <ele>103.6</ele>
        <time>2024-08-18T06:23:12Z</time>
      </trkpt>
      <trkpt lat="46.51493" lon="0.34523">
        <ele>103.8</ele>
        <time>2024-08-18T06:23:13Z</time>
      </trkpt>
      <trkpt lat="46.51488" lon="0.34518">
        <ele>104.4</ele>
        <time>2024-08-18T06:23:18Z</time>
      </trkpt>
      <trkpt lat="46.51481" lon="0.34513">
        <ele>105.6</ele>
        <time>2024-08-18T06:23:24Z</time>
      </trkpt>
      <trkpt lat="46.51478" lon="0.3451">
        <ele>106</ele>
        <time>2024-08-18T06:23:26Z</time>
      </trkpt>
      <trkpt lat="46.51474" lon="0.34509">
        <ele>106.6</ele>
        <time>2024-08-18T06:23:29Z</time>
      </trkpt>
      <trkpt lat="46.51468" lon="0.34508">
        <ele>107</ele>
        <time>2024-08-18T06:23:32Z</time>
      </trkpt>
      <trkpt lat="46.51465" lon="0.34507">
        <ele>107.8</ele>
        <time>2024-08-18T06:23:34Z</time>
      </trkpt>
      <trkpt lat="46.51457" lon="0.34505">
        <ele>108.8</ele>
        <time>2024-08-18T06:23:39Z</time>
      </trkpt>
      <trkpt lat="46.51445" lon="0.34502">
        <ele>110</ele>
        <time>2024-08-18T06:23:45Z</time>
      </trkpt>
      <trkpt lat="46.51443" lon="0.34502">
        <ele>110.2</ele>
        <time>2024-08-18T06:23:46Z</time>
      </trkpt>
      <trkpt lat="46.51435" lon="0.34501">
        <ele>111</ele>
        <time>2024-08-18T06:23:50Z</time>
      </trkpt>
      <trkpt lat="46.51428" lon="0.34501">
        <ele>112</ele>
        <time>2024-08-18T06:23:54Z</time>
      </trkpt>
      <trkpt lat="46.51426" lon="0.34501">
        <ele>112.2</ele>
        <time>2024-08-18T06:23:55Z</time>
      </trkpt>
      <trkpt lat="46.51414" lon="0.34506">
        <ele>113.4</ele>
        <time>2024-08-18T06:24:01Z</time>
      </trkpt>
      <trkpt lat="46.5141" lon="0.34512">
        <ele>114.4</ele>
        <time>2024-08-18T06:24:04Z</time>
      </trkpt>
      <trkpt lat="46.51406" lon="0.34515">
        <ele>115.8</ele>
        <time>2024-08-18T06:24:07Z</time>
      </trkpt>
      <trkpt lat="46.51397" lon="0.34523">
        <ele>117</ele>
        <time>2024-08-18T06:24:12Z</time>
      </trkpt>
      <trkpt lat="46.51393" lon="0.34528">
        <ele>117.4</ele>
        <time>2024-08-18T06:24:14Z</time>
      </trkpt>
      <trkpt lat="46.51383" lon="0.34536">
        <ele>118.2</ele>
        <time>2024-08-18T06:24:18Z</time>
      </trkpt>
      <trkpt lat="46.51376" lon="0.34542">
        <ele>118.8</ele>
        <time>2024-08-18T06:24:21Z</time>
      </trkpt>
      <trkpt lat="46.51371" lon="0.34545">
        <ele>119.4</ele>
        <time>2024-08-18T06:24:23Z</time>
      </trkpt>
      <trkpt lat="46.51356" lon="0.34552">
        <ele>120.2</ele>
        <time>2024-08-18T06:24:29Z</time>
      </trkpt>
      <trkpt lat="46.51348" lon="0.34557">
        <ele>120.4</ele>
        <time>2024-08-18T06:24:32Z</time>
      </trkpt>
      <trkpt lat="46.51334" lon="0.34565">
        <ele>121</ele>
        <time>2024-08-18T06:24:37Z</time>
      </trkpt>
      <trkpt lat="46.51324" lon="0.34572">
        <ele>121.4</ele>
        <time>2024-08-18T06:24:41Z</time>
      </trkpt>
      <trkpt lat="46.51313" lon="0.34579">
        <ele>122</ele>
        <time>2024-08-18T06:24:45Z</time>
      </trkpt>
      <trkpt lat="46.513" lon="0.34592">
        <ele>122.6</ele>
        <time>2024-08-18T06:24:50Z</time>
      </trkpt>
      <trkpt lat="46.51292" lon="0.34598">
        <ele>122.8</ele>
        <time>2024-08-18T06:24:53Z</time>
      </trkpt>
      <trkpt lat="46.51274" lon="0.34609">
        <ele>123.6</ele>
        <time>2024-08-18T06:25:00Z</time>
      </trkpt>
      <trkpt lat="46.51271" lon="0.34609">
        <ele>123.6</ele>
        <time>2024-08-18T06:25:01Z</time>
      </trkpt>
      <trkpt lat="46.51255" lon="0.34605">
        <ele>124.2</ele>
        <time>2024-08-18T06:25:06Z</time>
      </trkpt>
      <trkpt lat="46.51243" lon="0.34604">
        <ele>124.6</ele>
        <time>2024-08-18T06:25:10Z</time>
      </trkpt>
      <trkpt lat="46.51227" lon="0.34604">
        <ele>125</ele>
        <time>2024-08-18T06:25:15Z</time>
      </trkpt>
      <trkpt lat="46.51206" lon="0.34608">
        <ele>125.6</ele>
        <time>2024-08-18T06:25:22Z</time>
      </trkpt>
      <trkpt lat="46.51187" lon="0.34608">
        <ele>125.8</ele>
        <time>2024-08-18T06:25:29Z</time>
      </trkpt>
      <trkpt lat="46.51185" lon="0.34593">
        <ele>126</ele>
        <time>2024-08-18T06:25:33Z</time>
      </trkpt>
      <trkpt lat="46.51189" lon="0.34568">
        <ele>125.4</ele>
        <time>2024-08-18T06:25:38Z</time>
      </trkpt>
      <trkpt lat="46.51191" lon="0.34536">
        <ele>124.8</ele>
        <time>2024-08-18T06:25:44Z</time>
      </trkpt>
      <trkpt lat="46.5119" lon="0.34524">
        <ele>124.8</ele>
        <time>2024-08-18T06:25:46Z</time>
      </trkpt>
      <trkpt lat="46.51183" lon="0.34477">
        <ele>124.8</ele>
        <time>2024-08-18T06:25:54Z</time>
      </trkpt>
      <trkpt lat="46.5117" lon="0.34426">
        <ele>125</ele>
        <time>2024-08-18T06:26:02Z</time>
      </trkpt>
      <trkpt lat="46.51157" lon="0.34369">
        <ele>126</ele>
        <time>2024-08-18T06:26:11Z</time>
      </trkpt>
      <trkpt lat="46.51153" lon="0.3433">
        <ele>126.6</ele>
        <time>2024-08-18T06:26:17Z</time>
      </trkpt>
      <trkpt lat="46.51153" lon="0.34323">
        <ele>126.6</ele>
        <time>2024-08-18T06:26:18Z</time>
      </trkpt>
      <trkpt lat="46.51153" lon="0.34317">
        <ele>126.6</ele>
        <time>2024-08-18T06:26:19Z</time>
      </trkpt>
      <trkpt lat="46.51153" lon="0.34317">
        <ele>126.6</ele>
        <time>2024-08-18T06:26:20Z</time>
      </trkpt>
      <trkpt lat="46.51156" lon="0.34304">
        <ele>126.6</ele>
        <time>2024-08-18T06:26:21Z</time>
      </trkpt>
      <trkpt lat="46.5116" lon="0.34285">
        <ele>126.6</ele>
        <time>2024-08-18T06:26:24Z</time>
      </trkpt>
      <trkpt lat="46.51173" lon="0.34244">
        <ele>126.6</ele>
        <time>2024-08-18T06:26:31Z</time>
      </trkpt>
      <trkpt lat="46.51179" lon="0.34216">
        <ele>126.6</ele>
        <time>2024-08-18T06:26:37Z</time>
      </trkpt>
      <trkpt lat="46.51184" lon="0.34189">
        <ele>126.6</ele>
        <time>2024-08-18T06:26:44Z</time>
      </trkpt>
      <trkpt lat="46.51198" lon="0.34173">
        <ele>126.4</ele>
        <time>2024-08-18T06:26:51Z</time>
      </trkpt>
      <trkpt lat="46.512" lon="0.3417">
        <ele>126</ele>
        <time>2024-08-18T06:26:52Z</time>
      </trkpt>
      <trkpt lat="46.51203" lon="0.34167">
        <ele>125.4</ele>
        <time>2024-08-18T06:26:53Z</time>
      </trkpt>
      <trkpt lat="46.51205" lon="0.34165">
        <ele>125</ele>
        <time>2024-08-18T06:26:54Z</time>
      </trkpt>
      <trkpt lat="46.51208" lon="0.34164">
        <ele>124.2</ele>
        <time>2024-08-18T06:26:55Z</time>
      </trkpt>
      <trkpt lat="46.51214" lon="0.34162">
        <ele>123</ele>
        <time>2024-08-18T06:26:58Z</time>
      </trkpt>
      <trkpt lat="46.51215" lon="0.34162">
        <ele>123</ele>
        <time>2024-08-18T06:26:59Z</time>
      </trkpt>
      <trkpt lat="46.51215" lon="0.3416">
        <ele>122.8</ele>
        <time>2024-08-18T06:27:00Z</time>
      </trkpt>
      <trkpt lat="46.51216" lon="0.34157">
        <ele>122</ele>
        <time>2024-08-18T06:27:02Z</time>
      </trkpt>
      <trkpt lat="46.51218" lon="0.34153">
        <ele>120.4</ele>
        <time>2024-08-18T06:27:05Z</time>
      </trkpt>
      <trkpt lat="46.51218" lon="0.34152">
        <ele>119.8</ele>
        <time>2024-08-18T06:27:06Z</time>
      </trkpt>
      <trkpt lat="46.51219" lon="0.34151">
        <ele>119.2</ele>
        <time>2024-08-18T06:27:07Z</time>
      </trkpt>
      <trkpt lat="46.5122" lon="0.34149">
        <ele>118.8</ele>
        <time>2024-08-18T06:27:08Z</time>
      </trkpt>
      <trkpt lat="46.51221" lon="0.34147">
        <ele>118</ele>
        <time>2024-08-18T06:27:10Z</time>
      </trkpt>
      <trkpt lat="46.51222" lon="0.34146">
        <ele>117.6</ele>
        <time>2024-08-18T06:27:11Z</time>
      </trkpt>
      <trkpt lat="46.51222" lon="0.34145">
        <ele>116.6</ele>
        <time>2024-08-18T06:27:12Z</time>
      </trkpt>
      <trkpt lat="46.51223" lon="0.34144">
        <ele>115.2</ele>
        <time>2024-08-18T06:27:14Z</time>
      </trkpt>
      <trkpt lat="46.51225" lon="0.3414">
        <ele>114</ele>
        <time>2024-08-18T06:27:17Z</time>
      </trkpt>
      <trkpt lat="46.51226" lon="0.34138">
        <ele>113.8</ele>
        <time>2024-08-18T06:27:20Z</time>
      </trkpt>
      <trkpt lat="46.51228" lon="0.34136">
        <ele>113</ele>
        <time>2024-08-18T06:27:26Z</time>
      </trkpt>
      <trkpt lat="46.51229" lon="0.34133">
        <ele>112.6</ele>
        <time>2024-08-18T06:27:27Z</time>
      </trkpt>
      <trkpt lat="46.51231" lon="0.34131">
        <ele>111.8</ele>
        <time>2024-08-18T06:27:29Z</time>
      </trkpt>
      <trkpt lat="46.51232" lon="0.34129">
        <ele>111</ele>
        <time>2024-08-18T06:27:31Z</time>
      </trkpt>
      <trkpt lat="46.51234" lon="0.34127">
        <ele>110.6</ele>
        <time>2024-08-18T06:27:33Z</time>
      </trkpt>
      <trkpt lat="46.51235" lon="0.34125">
        <ele>110.2</ele>
        <time>2024-08-18T06:27:36Z</time>
      </trkpt>
      <trkpt lat="46.51237" lon="0.34122">
        <ele>109.8</ele>
        <time>2024-08-18T06:27:43Z</time>
      </trkpt>
      <trkpt lat="46.51238" lon="0.3412">
        <ele>109.6</ele>
        <time>2024-08-18T06:27:46Z</time>
      </trkpt>
      <trkpt lat="46.5124" lon="0.34118">
        <ele>109</ele>
        <time>2024-08-18T06:27:54Z</time>
      </trkpt>
      <trkpt lat="46.51241" lon="0.34116">
        <ele>107.4</ele>
        <time>2024-08-18T06:28:01Z</time>
      </trkpt>
      <trkpt lat="46.51243" lon="0.34114">
        <ele>105.6</ele>
        <time>2024-08-18T06:28:02Z</time>
      </trkpt>
      <trkpt lat="46.51244" lon="0.3411">
        <ele>103.2</ele>
        <time>2024-08-18T06:28:03Z</time>
      </trkpt>
      <trkpt lat="46.51245" lon="0.34105">
        <ele>101.2</ele>
        <time>2024-08-18T06:28:04Z</time>
      </trkpt>
      <trkpt lat="46.51246" lon="0.34102">
        <ele>99.4</ele>
        <time>2024-08-18T06:28:05Z</time>
      </trkpt>
      <trkpt lat="46.51247" lon="0.34099">
        <ele>97.8</ele>
        <time>2024-08-18T06:28:06Z</time>
      </trkpt>
      <trkpt lat="46.51247" lon="0.34097">
        <ele>96.4</ele>
        <time>2024-08-18T06:28:07Z</time>
      </trkpt>
      <trkpt lat="46.51248" lon="0.34095">
        <ele>95.4</ele>
        <time>2024-08-18T06:28:08Z</time>
      </trkpt>
      <trkpt lat="46.51248" lon="0.34091">
        <ele>94.6</ele>
        <time>2024-08-18T06:28:10Z</time>
      </trkpt>
      <trkpt lat="46.51248" lon="0.34088">
        <ele>94.4</ele>
        <time>2024-08-18T06:28:11Z</time>
      </trkpt>
      <trkpt lat="46.51247" lon="0.3408">
        <ele>94</ele>
        <time>2024-08-18T06:28:14Z</time>
      </trkpt>
      <trkpt lat="46.51247" lon="0.34074">
        <ele>93.6</ele>
        <time>2024-08-18T06:28:17Z</time>
      </trkpt>
      <trkpt lat="46.51246" lon="0.34069">
        <ele>93.2</ele>
        <time>2024-08-18T06:28:19Z</time>
      </trkpt>
      <trkpt lat="46.51245" lon="0.34063">
        <ele>92.4</ele>
        <time>2024-08-18T06:28:21Z</time>
      </trkpt>
      <trkpt lat="46.51245" lon="0.3406">
        <ele>91.8</ele>
        <time>2024-08-18T06:28:22Z</time>
      </trkpt>
      <trkpt lat="46.51245" lon="0.34052">
        <ele>90.4</ele>
        <time>2024-08-18T06:28:24Z</time>
      </trkpt>
      <trkpt lat="46.51243" lon="0.34041">
        <ele>89.2</ele>
        <time>2024-08-18T06:28:27Z</time>
      </trkpt>
      <trkpt lat="46.51242" lon="0.34038">
        <ele>88.4</ele>
        <time>2024-08-18T06:28:28Z</time>
      </trkpt>
      <trkpt lat="46.51241" lon="0.34035">
        <ele>87.4</ele>
        <time>2024-08-18T06:28:29Z</time>
      </trkpt>
      <trkpt lat="46.51239" lon="0.34029">
        <ele>85.2</ele>
        <time>2024-08-18T06:28:31Z</time>
      </trkpt>
      <trkpt lat="46.51239" lon="0.34025">
        <ele>83.8</ele>
        <time>2024-08-18T06:28:32Z</time>
      </trkpt>
      <trkpt lat="46.51239" lon="0.34015">
        <ele>81.8</ele>
        <time>2024-08-18T06:28:34Z</time>
      </trkpt>
      <trkpt lat="46.5124" lon="0.34005">
        <ele>80.2</ele>
        <time>2024-08-18T06:28:36Z</time>
      </trkpt>
      <trkpt lat="46.51245" lon="0.34004">
        <ele>79.2</ele>
        <time>2024-08-18T06:28:38Z</time>
      </trkpt>
      <trkpt lat="46.51249" lon="0.34002">
        <ele>78.8</ele>
        <time>2024-08-18T06:28:39Z</time>
      </trkpt>
      <trkpt lat="46.5126" lon="0.34007">
        <ele>78</ele>
        <time>2024-08-18T06:28:43Z</time>
      </trkpt>
      <trkpt lat="46.51276" lon="0.34017">
        <ele>78.2</ele>
        <time>2024-08-18T06:28:51Z</time>
      </trkpt>
      <trkpt lat="46.5129" lon="0.34023">
        <ele>78.4</ele>
        <time>2024-08-18T06:28:57Z</time>
      </trkpt>
      <trkpt lat="46.51302" lon="0.34027">
        <ele>78.2</ele>
        <time>2024-08-18T06:29:02Z</time>
      </trkpt>
      <trkpt lat="46.51322" lon="0.34032">
        <ele>77.8</ele>
        <time>2024-08-18T06:29:09Z</time>
      </trkpt>
      <trkpt lat="46.51343" lon="0.34039">
        <ele>77.4</ele>
        <time>2024-08-18T06:29:16Z</time>
      </trkpt>
      <trkpt lat="46.51363" lon="0.34049">
        <ele>77</ele>
        <time>2024-08-18T06:29:22Z</time>
      </trkpt>
      <trkpt lat="46.51375" lon="0.34063">
        <ele>77.2</ele>
        <time>2024-08-18T06:29:28Z</time>
      </trkpt>
      <trkpt lat="46.51385" lon="0.34074">
        <ele>77.6</ele>
        <time>2024-08-18T06:29:32Z</time>
      </trkpt>
      <trkpt lat="46.51386" lon="0.34077">
        <ele>77.8</ele>
        <time>2024-08-18T06:29:33Z</time>
      </trkpt>
      <trkpt lat="46.51403" lon="0.34092">
        <ele>78.4</ele>
        <time>2024-08-18T06:29:38Z</time>
      </trkpt>
      <trkpt lat="46.5141" lon="0.34097">
        <ele>78.8</ele>
        <time>2024-08-18T06:29:41Z</time>
      </trkpt>
      <trkpt lat="46.51415" lon="0.34101">
        <ele>79.2</ele>
        <time>2024-08-18T06:29:43Z</time>
      </trkpt>
      <trkpt lat="46.51425" lon="0.3411">
        <ele>79.8</ele>
        <time>2024-08-18T06:29:51Z</time>
      </trkpt>
      <trkpt lat="46.51426" lon="0.34112">
        <ele>79.8</ele>
        <time>2024-08-18T06:29:56Z</time>
      </trkpt>
      <trkpt lat="46.51425" lon="0.34113">
        <ele>79.8</ele>
        <time>2024-08-18T06:30:01Z</time>
      </trkpt>
      <trkpt lat="46.51443" lon="0.34108">
        <ele>79.6</ele>
        <time>2024-08-18T06:30:09Z</time>
      </trkpt>
      <trkpt lat="46.51449" lon="0.34104">
        <ele>78.8</ele>
        <time>2024-08-18T06:30:13Z</time>
      </trkpt>
      <trkpt lat="46.51455" lon="0.34104">
        <ele>78.4</ele>
        <time>2024-08-18T06:30:14Z</time>
      </trkpt>
      <trkpt lat="46.51468" lon="0.34102">
        <ele>77.4</ele>
        <time>2024-08-18T06:30:16Z</time>
      </trkpt>
      <trkpt lat="46.51476" lon="0.341">
        <ele>77</ele>
        <time>2024-08-18T06:30:17Z</time>
      </trkpt>
      <trkpt lat="46.51487" lon="0.341">
        <ele>76.2</ele>
        <time>2024-08-18T06:30:19Z</time>
      </trkpt>
      <trkpt lat="46.51502" lon="0.34105">
        <ele>75.6</ele>
        <time>2024-08-18T06:30:22Z</time>
      </trkpt>
      <trkpt lat="46.51528" lon="0.34116">
        <ele>75.6</ele>
        <time>2024-08-18T06:30:29Z</time>
      </trkpt>
      <trkpt lat="46.51535" lon="0.34119">
        <ele>75.6</ele>
        <time>2024-08-18T06:30:31Z</time>
      </trkpt>
      <trkpt lat="46.51553" lon="0.34122">
        <ele>75.2</ele>
        <time>2024-08-18T06:30:36Z</time>
      </trkpt>
      <trkpt lat="46.51556" lon="0.34122">
        <ele>75.2</ele>
        <time>2024-08-18T06:30:37Z</time>
      </trkpt>
      <trkpt lat="46.51579" lon="0.34125">
        <ele>75.2</ele>
        <time>2024-08-18T06:30:42Z</time>
      </trkpt>
      <trkpt lat="46.51609" lon="0.3413">
        <ele>75.2</ele>
        <time>2024-08-18T06:30:48Z</time>
      </trkpt>
      <trkpt lat="46.51618" lon="0.34134">
        <ele>75.2</ele>
        <time>2024-08-18T06:30:50Z</time>
      </trkpt>
      <trkpt lat="46.51623" lon="0.34136">
        <ele>75.2</ele>
        <time>2024-08-18T06:30:51Z</time>
      </trkpt>
      <trkpt lat="46.51637" lon="0.34145">
        <ele>75</ele>
        <time>2024-08-18T06:30:55Z</time>
      </trkpt>
      <trkpt lat="46.51639" lon="0.34148">
        <ele>75</ele>
        <time>2024-08-18T06:30:56Z</time>
      </trkpt>
      <trkpt lat="46.51641" lon="0.34156">
        <ele>75</ele>
        <time>2024-08-18T06:30:58Z</time>
      </trkpt>
      <trkpt lat="46.5164" lon="0.34174">
        <ele>76.4</ele>
        <time>2024-08-18T06:31:03Z</time>
      </trkpt>
      <trkpt lat="46.51642" lon="0.34182">
        <ele>77.6</ele>
        <time>2024-08-18T06:31:06Z</time>
      </trkpt>
      <trkpt lat="46.51643" lon="0.34185">
        <ele>78.6</ele>
        <time>2024-08-18T06:31:08Z</time>
      </trkpt>
      <trkpt lat="46.51644" lon="0.34189">
        <ele>79.8</ele>
        <time>2024-08-18T06:31:10Z</time>
      </trkpt>
      <trkpt lat="46.51648" lon="0.34197">
        <ele>81</ele>
        <time>2024-08-18T06:31:13Z</time>
      </trkpt>
      <trkpt lat="46.51653" lon="0.34201">
        <ele>81.2</ele>
        <time>2024-08-18T06:31:15Z</time>
      </trkpt>
      <trkpt lat="46.51674" lon="0.34209">
        <ele>80.2</ele>
        <time>2024-08-18T06:31:21Z</time>
      </trkpt>
      <trkpt lat="46.5168" lon="0.3421">
        <ele>80</ele>
        <time>2024-08-18T06:31:23Z</time>
      </trkpt>
      <trkpt lat="46.51684" lon="0.34209">
        <ele>79.6</ele>
        <time>2024-08-18T06:31:25Z</time>
      </trkpt>
      <trkpt lat="46.51693" lon="0.34197">
        <ele>79.4</ele>
        <time>2024-08-18T06:31:29Z</time>
      </trkpt>
      <trkpt lat="46.51702" lon="0.34178">
        <ele>78.8</ele>
        <time>2024-08-18T06:31:32Z</time>
      </trkpt>
      <trkpt lat="46.5171" lon="0.34159">
        <ele>78.4</ele>
        <time>2024-08-18T06:31:35Z</time>
      </trkpt>
      <trkpt lat="46.51721" lon="0.34129">
        <ele>77.8</ele>
        <time>2024-08-18T06:31:39Z</time>
      </trkpt>
      <trkpt lat="46.51729" lon="0.34104">
        <ele>77.2</ele>
        <time>2024-08-18T06:31:42Z</time>
      </trkpt>
      <trkpt lat="46.51734" lon="0.34062">
        <ele>76.8</ele>
        <time>2024-08-18T06:31:47Z</time>
      </trkpt>
      <trkpt lat="46.51734" lon="0.34047">
        <ele>76.6</ele>
        <time>2024-08-18T06:31:49Z</time>
      </trkpt>
      <trkpt lat="46.51735" lon="0.34036">
        <ele>76.4</ele>
        <time>2024-08-18T06:31:51Z</time>
      </trkpt>
      <trkpt lat="46.51736" lon="0.34032">
        <ele>76.2</ele>
        <time>2024-08-18T06:31:52Z</time>
      </trkpt>
      <trkpt lat="46.51739" lon="0.34027">
        <ele>75.8</ele>
        <time>2024-08-18T06:31:56Z</time>
      </trkpt>
      <trkpt lat="46.51739" lon="0.34026">
        <ele>75.6</ele>
        <time>2024-08-18T06:31:57Z</time>
      </trkpt>
      <trkpt lat="46.5174" lon="0.34026">
        <ele>75.2</ele>
        <time>2024-08-18T06:31:59Z</time>
      </trkpt>
      <trkpt lat="46.51738" lon="0.34027">
        <ele>75</ele>
        <time>2024-08-18T06:32:02Z</time>
      </trkpt>
      <trkpt lat="46.51742" lon="0.34027">
        <ele>75</ele>
        <time>2024-08-18T06:32:15Z</time>
      </trkpt>
      <trkpt lat="46.5175" lon="0.34035">
        <ele>75</ele>
        <time>2024-08-18T06:32:23Z</time>
      </trkpt>
      <trkpt lat="46.51765" lon="0.34046">
        <ele>75</ele>
        <time>2024-08-18T06:32:32Z</time>
      </trkpt>
      <trkpt lat="46.51779" lon="0.34052">
        <ele>75</ele>
        <time>2024-08-18T06:32:39Z</time>
      </trkpt>
      <trkpt lat="46.51797" lon="0.34048">
        <ele>75</ele>
        <time>2024-08-18T06:32:45Z</time>
      </trkpt>
      <trkpt lat="46.51824" lon="0.34047">
        <ele>75.2</ele>
        <time>2024-08-18T06:32:50Z</time>
      </trkpt>
      <trkpt lat="46.51838" lon="0.34053">
        <ele>75.4</ele>
        <time>2024-08-18T06:32:53Z</time>
      </trkpt>
      <trkpt lat="46.51849" lon="0.34061">
        <ele>75.4</ele>
        <time>2024-08-18T06:32:56Z</time>
      </trkpt>
      <trkpt lat="46.51858" lon="0.34062">
        <ele>75.4</ele>
        <time>2024-08-18T06:32:58Z</time>
      </trkpt>
      <trkpt lat="46.51866" lon="0.3406">
        <ele>75.2</ele>
        <time>2024-08-18T06:33:00Z</time>
      </trkpt>
      <trkpt lat="46.51902" lon="0.34051">
        <ele>75</ele>
        <time>2024-08-18T06:33:06Z</time>
      </trkpt>
      <trkpt lat="46.51907" lon="0.34049">
        <ele>75</ele>
        <time>2024-08-18T06:33:07Z</time>
      </trkpt>
      <trkpt lat="46.51947" lon="0.34037">
        <ele>75</ele>
        <time>2024-08-18T06:33:14Z</time>
      </trkpt>
      <trkpt lat="46.51971" lon="0.34028">
        <ele>74.8</ele>
        <time>2024-08-18T06:33:19Z</time>
      </trkpt>
      <trkpt lat="46.51974" lon="0.34024">
        <ele>75</ele>
        <time>2024-08-18T06:33:20Z</time>
      </trkpt>
      <trkpt lat="46.51975" lon="0.34018">
        <ele>75</ele>
        <time>2024-08-18T06:33:21Z</time>
      </trkpt>
      <trkpt lat="46.51973" lon="0.34005">
        <ele>75.2</ele>
        <time>2024-08-18T06:33:23Z</time>
      </trkpt>
      <trkpt lat="46.51968" lon="0.33958">
        <ele>74.8</ele>
        <time>2024-08-18T06:33:30Z</time>
      </trkpt>
      <trkpt lat="46.51968" lon="0.33952">
        <ele>74.8</ele>
        <time>2024-08-18T06:33:31Z</time>
      </trkpt>
      <trkpt lat="46.51968" lon="0.33946">
        <ele>74.6</ele>
        <time>2024-08-18T06:33:32Z</time>
      </trkpt>
      <trkpt lat="46.51973" lon="0.33927">
        <ele>74.4</ele>
        <time>2024-08-18T06:33:35Z</time>
      </trkpt>
      <trkpt lat="46.51975" lon="0.33921">
        <ele>74.2</ele>
        <time>2024-08-18T06:33:36Z</time>
      </trkpt>
      <trkpt lat="46.51976" lon="0.33887">
        <ele>74.2</ele>
        <time>2024-08-18T06:33:41Z</time>
      </trkpt>
      <trkpt lat="46.51976" lon="0.3384">
        <ele>74.2</ele>
        <time>2024-08-18T06:33:48Z</time>
      </trkpt>
      <trkpt lat="46.51977" lon="0.33801">
        <ele>74</ele>
        <time>2024-08-18T06:33:54Z</time>
      </trkpt>
      <trkpt lat="46.51979" lon="0.33782">
        <ele>74</ele>
        <time>2024-08-18T06:33:57Z</time>
      </trkpt>
      <trkpt lat="46.51985" lon="0.33762">
        <ele>74</ele>
        <time>2024-08-18T06:34:00Z</time>
      </trkpt>
      <trkpt lat="46.51993" lon="0.33734">
        <ele>74.2</ele>
        <time>2024-08-18T06:34:05Z</time>
      </trkpt>
      <trkpt lat="46.51996" lon="0.33731">
        <ele>74.2</ele>
        <time>2024-08-18T06:34:06Z</time>
      </trkpt>
      <trkpt lat="46.51997" lon="0.33728">
        <ele>74.2</ele>
        <time>2024-08-18T06:34:07Z</time>
      </trkpt>
      <trkpt lat="46.52002" lon="0.33724">
        <ele>74.2</ele>
        <time>2024-08-18T06:34:10Z</time>
      </trkpt>
      <trkpt lat="46.52004" lon="0.33724">
        <ele>74.2</ele>
        <time>2024-08-18T06:34:11Z</time>
      </trkpt>
      <trkpt lat="46.52011" lon="0.33727">
        <ele>74.4</ele>
        <time>2024-08-18T06:34:14Z</time>
      </trkpt>
      <trkpt lat="46.52017" lon="0.33729">
        <ele>74.4</ele>
        <time>2024-08-18T06:34:16Z</time>
      </trkpt>
      <trkpt lat="46.52023" lon="0.33731">
        <ele>74.4</ele>
        <time>2024-08-18T06:34:18Z</time>
      </trkpt>
      <trkpt lat="46.52031" lon="0.33733">
        <ele>74.4</ele>
        <time>2024-08-18T06:34:20Z</time>
      </trkpt>
      <trkpt lat="46.52042" lon="0.33736">
        <ele>74.6</ele>
        <time>2024-08-18T06:34:23Z</time>
      </trkpt>
      <trkpt lat="46.52045" lon="0.33738">
        <ele>74.6</ele>
        <time>2024-08-18T06:34:24Z</time>
      </trkpt>
      <trkpt lat="46.52049" lon="0.33741">
        <ele>74.8</ele>
        <time>2024-08-18T06:34:25Z</time>
      </trkpt>
      <trkpt lat="46.52056" lon="0.33754">
        <ele>75.2</ele>
        <time>2024-08-18T06:34:28Z</time>
      </trkpt>
      <trkpt lat="46.52059" lon="0.33765">
        <ele>75.4</ele>
        <time>2024-08-18T06:34:30Z</time>
      </trkpt>
      <trkpt lat="46.52059" lon="0.33771">
        <ele>75.4</ele>
        <time>2024-08-18T06:34:31Z</time>
      </trkpt>
      <trkpt lat="46.52058" lon="0.33783">
        <ele>75.4</ele>
        <time>2024-08-18T06:34:33Z</time>
      </trkpt>
      <trkpt lat="46.52058" lon="0.33789">
        <ele>75.6</ele>
        <time>2024-08-18T06:34:34Z</time>
      </trkpt>
      <trkpt lat="46.5206" lon="0.33803">
        <ele>75.4</ele>
        <time>2024-08-18T06:34:36Z</time>
      </trkpt>
      <trkpt lat="46.52062" lon="0.33818">
        <ele>75.2</ele>
        <time>2024-08-18T06:34:38Z</time>
      </trkpt>
      <trkpt lat="46.52064" lon="0.33825">
        <ele>75</ele>
        <time>2024-08-18T06:34:39Z</time>
      </trkpt>
      <trkpt lat="46.5207" lon="0.33878">
        <ele>75.2</ele>
        <time>2024-08-18T06:34:46Z</time>
      </trkpt>
      <trkpt lat="46.52071" lon="0.33885">
        <ele>75.2</ele>
        <time>2024-08-18T06:34:47Z</time>
      </trkpt>
      <trkpt lat="46.52077" lon="0.33911">
        <ele>75.2</ele>
        <time>2024-08-18T06:34:51Z</time>
      </trkpt>
      <trkpt lat="46.52079" lon="0.33917">
        <ele>75.2</ele>
        <time>2024-08-18T06:34:52Z</time>
      </trkpt>
      <trkpt lat="46.52089" lon="0.33949">
        <ele>74.6</ele>
        <time>2024-08-18T06:34:57Z</time>
      </trkpt>
      <trkpt lat="46.52091" lon="0.33954">
        <ele>74.8</ele>
        <time>2024-08-18T06:34:58Z</time>
      </trkpt>
      <trkpt lat="46.52094" lon="0.33958">
        <ele>74.6</ele>
        <time>2024-08-18T06:34:59Z</time>
      </trkpt>
      <trkpt lat="46.52102" lon="0.33962">
        <ele>74.8</ele>
        <time>2024-08-18T06:35:01Z</time>
      </trkpt>
      <trkpt lat="46.52107" lon="0.33964">
        <ele>74.8</ele>
        <time>2024-08-18T06:35:02Z</time>
      </trkpt>
      <trkpt lat="46.52124" lon="0.33968">
        <ele>74.6</ele>
        <time>2024-08-18T06:35:05Z</time>
      </trkpt>
      <trkpt lat="46.5214" lon="0.33972">
        <ele>74.6</ele>
        <time>2024-08-18T06:35:08Z</time>
      </trkpt>
      <trkpt lat="46.52159" lon="0.33978">
        <ele>74.6</ele>
        <time>2024-08-18T06:35:12Z</time>
      </trkpt>
      <trkpt lat="46.52167" lon="0.33979">
        <ele>74.6</ele>
        <time>2024-08-18T06:35:14Z</time>
      </trkpt>
      <trkpt lat="46.52171" lon="0.33979">
        <ele>74.4</ele>
        <time>2024-08-18T06:35:15Z</time>
      </trkpt>
      <trkpt lat="46.52187" lon="0.33977">
        <ele>74</ele>
        <time>2024-08-18T06:35:19Z</time>
      </trkpt>
      <trkpt lat="46.52191" lon="0.33976">
        <ele>74</ele>
        <time>2024-08-18T06:35:20Z</time>
      </trkpt>
      <trkpt lat="46.52201" lon="0.33976">
        <ele>74</ele>
        <time>2024-08-18T06:35:22Z</time>
      </trkpt>
      <trkpt lat="46.52214" lon="0.33971">
        <ele>74</ele>
        <time>2024-08-18T06:35:24Z</time>
      </trkpt>
      <trkpt lat="46.52226" lon="0.33961">
        <ele>74.2</ele>
        <time>2024-08-18T06:35:26Z</time>
      </trkpt>
      <trkpt lat="46.52256" lon="0.33936">
        <ele>74.4</ele>
        <time>2024-08-18T06:35:31Z</time>
      </trkpt>
      <trkpt lat="46.52297" lon="0.33905">
        <ele>74.8</ele>
        <time>2024-08-18T06:35:39Z</time>
      </trkpt>
      <trkpt lat="46.52326" lon="0.33883">
        <ele>75</ele>
        <time>2024-08-18T06:35:45Z</time>
      </trkpt>
      <trkpt lat="46.52341" lon="0.33873">
        <ele>74.8</ele>
        <time>2024-08-18T06:35:48Z</time>
      </trkpt>
      <trkpt lat="46.52346" lon="0.33869">
        <ele>74.8</ele>
        <time>2024-08-18T06:35:49Z</time>
      </trkpt>
      <trkpt lat="46.5238" lon="0.33847">
        <ele>74.6</ele>
        <time>2024-08-18T06:35:56Z</time>
      </trkpt>
      <trkpt lat="46.52408" lon="0.33825">
        <ele>75</ele>
        <time>2024-08-18T06:36:02Z</time>
      </trkpt>
      <trkpt lat="46.52445" lon="0.33789">
        <ele>73.8</ele>
        <time>2024-08-18T06:36:10Z</time>
      </trkpt>
      <trkpt lat="46.52478" lon="0.33749">
        <ele>73.4</ele>
        <time>2024-08-18T06:36:18Z</time>
      </trkpt>
      <trkpt lat="46.52481" lon="0.33744">
        <ele>73.4</ele>
        <time>2024-08-18T06:36:19Z</time>
      </trkpt>
      <trkpt lat="46.525" lon="0.33711">
        <ele>73.6</ele>
        <time>2024-08-18T06:36:25Z</time>
      </trkpt>
      <trkpt lat="46.52502" lon="0.33705">
        <ele>74</ele>
        <time>2024-08-18T06:36:26Z</time>
      </trkpt>
      <trkpt lat="46.52506" lon="0.33691">
        <ele>74.4</ele>
        <time>2024-08-18T06:36:28Z</time>
      </trkpt>
      <trkpt lat="46.52506" lon="0.33684">
        <ele>74.4</ele>
        <time>2024-08-18T06:36:29Z</time>
      </trkpt>
      <trkpt lat="46.52506" lon="0.33664">
        <ele>75.2</ele>
        <time>2024-08-18T06:36:32Z</time>
      </trkpt>
      <trkpt lat="46.52507" lon="0.33658">
        <ele>75.6</ele>
        <time>2024-08-18T06:36:33Z</time>
      </trkpt>
      <trkpt lat="46.52508" lon="0.33652">
        <ele>76</ele>
        <time>2024-08-18T06:36:34Z</time>
      </trkpt>
      <trkpt lat="46.52511" lon="0.33643">
        <ele>76.6</ele>
        <time>2024-08-18T06:36:36Z</time>
      </trkpt>
      <trkpt lat="46.52515" lon="0.33635">
        <ele>77.8</ele>
        <time>2024-08-18T06:36:38Z</time>
      </trkpt>
      <trkpt lat="46.52519" lon="0.33626">
        <ele>79</ele>
        <time>2024-08-18T06:36:40Z</time>
      </trkpt>
      <trkpt lat="46.52524" lon="0.33615">
        <ele>80</ele>
        <time>2024-08-18T06:36:43Z</time>
      </trkpt>
      <trkpt lat="46.52529" lon="0.33609">
        <ele>80.8</ele>
        <time>2024-08-18T06:36:46Z</time>
      </trkpt>
      <trkpt lat="46.52537" lon="0.33617">
        <ele>81</ele>
        <time>2024-08-18T06:36:50Z</time>
      </trkpt>
      <trkpt lat="46.5255" lon="0.33621">
        <ele>80</ele>
        <time>2024-08-18T06:36:54Z</time>
      </trkpt>
      <trkpt lat="46.52569" lon="0.33619">
        <ele>79.2</ele>
        <time>2024-08-18T06:36:58Z</time>
      </trkpt>
      <trkpt lat="46.52581" lon="0.33617">
        <ele>79</ele>
        <time>2024-08-18T06:37:00Z</time>
      </trkpt>
      <trkpt lat="46.52608" lon="0.33612">
        <ele>77.6</ele>
        <time>2024-08-18T06:37:04Z</time>
      </trkpt>
      <trkpt lat="46.52621" lon="0.33612">
        <ele>76.8</ele>
        <time>2024-08-18T06:37:06Z</time>
      </trkpt>
      <trkpt lat="46.52628" lon="0.33614">
        <ele>76.2</ele>
        <time>2024-08-18T06:37:07Z</time>
      </trkpt>
      <trkpt lat="46.52635" lon="0.33618">
        <ele>75.8</ele>
        <time>2024-08-18T06:37:08Z</time>
      </trkpt>
      <trkpt lat="46.52643" lon="0.3362">
        <ele>75.6</ele>
        <time>2024-08-18T06:37:09Z</time>
      </trkpt>
      <trkpt lat="46.5265" lon="0.33621">
        <ele>75</ele>
        <time>2024-08-18T06:37:10Z</time>
      </trkpt>
      <trkpt lat="46.52657" lon="0.3362">
        <ele>74.8</ele>
        <time>2024-08-18T06:37:11Z</time>
      </trkpt>
      <trkpt lat="46.52664" lon="0.33619">
        <ele>74.4</ele>
        <time>2024-08-18T06:37:12Z</time>
      </trkpt>
      <trkpt lat="46.52678" lon="0.33615">
        <ele>74</ele>
        <time>2024-08-18T06:37:14Z</time>
      </trkpt>
      <trkpt lat="46.5269" lon="0.33613">
        <ele>73.2</ele>
        <time>2024-08-18T06:37:16Z</time>
      </trkpt>
      <trkpt lat="46.52697" lon="0.33612">
        <ele>73</ele>
        <time>2024-08-18T06:37:17Z</time>
      </trkpt>
      <trkpt lat="46.52719" lon="0.33615">
        <ele>72.4</ele>
        <time>2024-08-18T06:37:21Z</time>
      </trkpt>
      <trkpt lat="46.52733" lon="0.33621">
        <ele>72.4</ele>
        <time>2024-08-18T06:37:24Z</time>
      </trkpt>
      <trkpt lat="46.52742" lon="0.33626">
        <ele>72.4</ele>
        <time>2024-08-18T06:37:26Z</time>
      </trkpt>
      <trkpt lat="46.52767" lon="0.33633">
        <ele>72.8</ele>
        <time>2024-08-18T06:37:30Z</time>
      </trkpt>
      <trkpt lat="46.52773" lon="0.33633">
        <ele>72.8</ele>
        <time>2024-08-18T06:37:31Z</time>
      </trkpt>
      <trkpt lat="46.52811" lon="0.33628">
        <ele>73</ele>
        <time>2024-08-18T06:37:37Z</time>
      </trkpt>
      <trkpt lat="46.52845" lon="0.33638">
        <ele>72.2</ele>
        <time>2024-08-18T06:37:42Z</time>
      </trkpt>
      <trkpt lat="46.52881" lon="0.33652">
        <ele>72.6</ele>
        <time>2024-08-18T06:37:48Z</time>
      </trkpt>
      <trkpt lat="46.52923" lon="0.33664">
        <ele>72.4</ele>
        <time>2024-08-18T06:37:55Z</time>
      </trkpt>
      <trkpt lat="46.52957" lon="0.33676">
        <ele>72</ele>
        <time>2024-08-18T06:38:01Z</time>
      </trkpt>
      <trkpt lat="46.52962" lon="0.33677">
        <ele>72.2</ele>
        <time>2024-08-18T06:38:02Z</time>
      </trkpt>
      <trkpt lat="46.52972" lon="0.3368">
        <ele>72.4</ele>
        <time>2024-08-18T06:38:04Z</time>
      </trkpt>
      <trkpt lat="46.52986" lon="0.33679">
        <ele>72.2</ele>
        <time>2024-08-18T06:38:07Z</time>
      </trkpt>
      <trkpt lat="46.53013" lon="0.33676">
        <ele>72</ele>
        <time>2024-08-18T06:38:12Z</time>
      </trkpt>
      <trkpt lat="46.53018" lon="0.33675">
        <ele>71.8</ele>
        <time>2024-08-18T06:38:13Z</time>
      </trkpt>
      <trkpt lat="46.53046" lon="0.33664">
        <ele>71.8</ele>
        <time>2024-08-18T06:38:19Z</time>
      </trkpt>
      <trkpt lat="46.53051" lon="0.33661">
        <ele>71.8</ele>
        <time>2024-08-18T06:38:21Z</time>
      </trkpt>
      <trkpt lat="46.53053" lon="0.33655">
        <ele>71.6</ele>
        <time>2024-08-18T06:38:23Z</time>
      </trkpt>
      <trkpt lat="46.53057" lon="0.33639">
        <ele>71.6</ele>
        <time>2024-08-18T06:38:28Z</time>
      </trkpt>
      <trkpt lat="46.53059" lon="0.33638">
        <ele>71.8</ele>
        <time>2024-08-18T06:38:30Z</time>
      </trkpt>
      <trkpt lat="46.53063" lon="0.33638">
        <ele>72</ele>
        <time>2024-08-18T06:38:32Z</time>
      </trkpt>
      <trkpt lat="46.53081" lon="0.33644">
        <ele>71.8</ele>
        <time>2024-08-18T06:38:38Z</time>
      </trkpt>
      <trkpt lat="46.53091" lon="0.33648">
        <ele>72</ele>
        <time>2024-08-18T06:38:40Z</time>
      </trkpt>
      <trkpt lat="46.53101" lon="0.33649">
        <ele>72</ele>
        <time>2024-08-18T06:38:42Z</time>
      </trkpt>
      <trkpt lat="46.53105" lon="0.33651">
        <ele>71.8</ele>
        <time>2024-08-18T06:38:43Z</time>
      </trkpt>
      <trkpt lat="46.53119" lon="0.33654">
        <ele>71.8</ele>
        <time>2024-08-18T06:38:46Z</time>
      </trkpt>
      <trkpt lat="46.53135" lon="0.33658">
        <ele>71.6</ele>
        <time>2024-08-18T06:38:49Z</time>
      </trkpt>
      <trkpt lat="46.53146" lon="0.3366">
        <ele>71.4</ele>
        <time>2024-08-18T06:38:51Z</time>
      </trkpt>
      <trkpt lat="46.53161" lon="0.33665">
        <ele>71.8</ele>
        <time>2024-08-18T06:38:54Z</time>
      </trkpt>
      <trkpt lat="46.53177" lon="0.33672">
        <ele>71.8</ele>
        <time>2024-08-18T06:38:57Z</time>
      </trkpt>
      <trkpt lat="46.53186" lon="0.33677">
        <ele>71.8</ele>
        <time>2024-08-18T06:38:59Z</time>
      </trkpt>
      <trkpt lat="46.53196" lon="0.33681">
        <ele>71.8</ele>
        <time>2024-08-18T06:39:01Z</time>
      </trkpt>
      <trkpt lat="46.53209" lon="0.3369">
        <ele>71.8</ele>
        <time>2024-08-18T06:39:04Z</time>
      </trkpt>
      <trkpt lat="46.53228" lon="0.337">
        <ele>71.8</ele>
        <time>2024-08-18T06:39:08Z</time>
      </trkpt>
      <trkpt lat="46.53242" lon="0.33708">
        <ele>72</ele>
        <time>2024-08-18T06:39:11Z</time>
      </trkpt>
      <trkpt lat="46.53264" lon="0.33717">
        <ele>72</ele>
        <time>2024-08-18T06:39:15Z</time>
      </trkpt>
      <trkpt lat="46.53273" lon="0.33721">
        <ele>71.8</ele>
        <time>2024-08-18T06:39:17Z</time>
      </trkpt>
      <trkpt lat="46.5328" lon="0.33725">
        <ele>71.8</ele>
        <time>2024-08-18T06:39:19Z</time>
      </trkpt>
      <trkpt lat="46.53283" lon="0.33726">
        <ele>71.8</ele>
        <time>2024-08-18T06:39:20Z</time>
      </trkpt>
      <trkpt lat="46.53309" lon="0.33742">
        <ele>71.4</ele>
        <time>2024-08-18T06:39:27Z</time>
      </trkpt>
      <trkpt lat="46.53328" lon="0.33752">
        <ele>71</ele>
        <time>2024-08-18T06:39:33Z</time>
      </trkpt>
      <trkpt lat="46.53335" lon="0.33756">
        <ele>71.2</ele>
        <time>2024-08-18T06:39:35Z</time>
      </trkpt>
      <trkpt lat="46.53348" lon="0.33763">
        <ele>71.2</ele>
        <time>2024-08-18T06:39:38Z</time>
      </trkpt>
      <trkpt lat="46.5338" lon="0.33776">
        <ele>71</ele>
        <time>2024-08-18T06:39:45Z</time>
      </trkpt>
      <trkpt lat="46.53407" lon="0.33788">
        <ele>71.4</ele>
        <time>2024-08-18T06:39:50Z</time>
      </trkpt>
      <trkpt lat="46.53441" lon="0.33802">
        <ele>71.4</ele>
        <time>2024-08-18T06:39:56Z</time>
      </trkpt>
      <trkpt lat="46.53447" lon="0.33805">
        <ele>71.4</ele>
        <time>2024-08-18T06:39:57Z</time>
      </trkpt>
      <trkpt lat="46.53458" lon="0.33814">
        <ele>71.4</ele>
        <time>2024-08-18T06:40:00Z</time>
      </trkpt>
      <trkpt lat="46.53465" lon="0.33824">
        <ele>71.4</ele>
        <time>2024-08-18T06:40:05Z</time>
      </trkpt>
      <trkpt lat="46.53466" lon="0.33824">
        <ele>71.4</ele>
        <time>2024-08-18T06:40:07Z</time>
      </trkpt>
      <trkpt lat="46.53465" lon="0.33825">
        <ele>71.6</ele>
        <time>2024-08-18T06:40:09Z</time>
      </trkpt>
      <trkpt lat="46.53464" lon="0.33825">
        <ele>71.6</ele>
        <time>2024-08-18T06:40:10Z</time>
      </trkpt>
      <trkpt lat="46.53465" lon="0.33822">
        <ele>71.6</ele>
        <time>2024-08-18T06:40:13Z</time>
      </trkpt>
      <trkpt lat="46.53474" lon="0.33814">
        <ele>73</ele>
        <time>2024-08-18T06:40:20Z</time>
      </trkpt>
      <trkpt lat="46.53483" lon="0.33814">
        <ele>74.6</ele>
        <time>2024-08-18T06:40:25Z</time>
      </trkpt>
      <trkpt lat="46.53488" lon="0.33813">
        <ele>75.6</ele>
        <time>2024-08-18T06:40:28Z</time>
      </trkpt>
      <trkpt lat="46.5349" lon="0.33814">
        <ele>76</ele>
        <time>2024-08-18T06:40:29Z</time>
      </trkpt>
      <trkpt lat="46.53493" lon="0.33815">
        <ele>76.6</ele>
        <time>2024-08-18T06:40:31Z</time>
      </trkpt>
      <trkpt lat="46.53497" lon="0.33818">
        <ele>77.8</ele>
        <time>2024-08-18T06:40:35Z</time>
      </trkpt>
      <trkpt lat="46.535" lon="0.33821">
        <ele>79</ele>
        <time>2024-08-18T06:40:37Z</time>
      </trkpt>
      <trkpt lat="46.53504" lon="0.33824">
        <ele>80</ele>
        <time>2024-08-18T06:40:40Z</time>
      </trkpt>
      <trkpt lat="46.53509" lon="0.33826">
        <ele>81.2</ele>
        <time>2024-08-18T06:40:43Z</time>
      </trkpt>
      <trkpt lat="46.53519" lon="0.33829">
        <ele>82.4</ele>
        <time>2024-08-18T06:40:48Z</time>
      </trkpt>
      <trkpt lat="46.53521" lon="0.3383">
        <ele>82.6</ele>
        <time>2024-08-18T06:40:49Z</time>
      </trkpt>
      <trkpt lat="46.53524" lon="0.33834">
        <ele>83.4</ele>
        <time>2024-08-18T06:40:52Z</time>
      </trkpt>
      <trkpt lat="46.53528" lon="0.33836">
        <ele>84</ele>
        <time>2024-08-18T06:40:55Z</time>
      </trkpt>
      <trkpt lat="46.53533" lon="0.33839">
        <ele>84.8</ele>
        <time>2024-08-18T06:40:58Z</time>
      </trkpt>
      <trkpt lat="46.53537" lon="0.33841">
        <ele>86</ele>
        <time>2024-08-18T06:41:01Z</time>
      </trkpt>
      <trkpt lat="46.53542" lon="0.33842">
        <ele>87</ele>
        <time>2024-08-18T06:41:04Z</time>
      </trkpt>
      <trkpt lat="46.53543" lon="0.33842">
        <ele>87.2</ele>
        <time>2024-08-18T06:41:05Z</time>
      </trkpt>
      <trkpt lat="46.53551" lon="0.33844">
        <ele>88.4</ele>
        <time>2024-08-18T06:41:10Z</time>
      </trkpt>
      <trkpt lat="46.53558" lon="0.33844">
        <ele>89.6</ele>
        <time>2024-08-18T06:41:14Z</time>
      </trkpt>
      <trkpt lat="46.5356" lon="0.33844">
        <ele>90</ele>
        <time>2024-08-18T06:41:16Z</time>
      </trkpt>
      <trkpt lat="46.53563" lon="0.33844">
        <ele>90.8</ele>
        <time>2024-08-18T06:41:18Z</time>
      </trkpt>
      <trkpt lat="46.5357" lon="0.3384">
        <ele>92</ele>
        <time>2024-08-18T06:41:24Z</time>
      </trkpt>
      <trkpt lat="46.53575" lon="0.33835">
        <ele>92.6</ele>
        <time>2024-08-18T06:41:27Z</time>
      </trkpt>
      <trkpt lat="46.53578" lon="0.33831">
        <ele>92.8</ele>
        <time>2024-08-18T06:41:29Z</time>
      </trkpt>
      <trkpt lat="46.53579" lon="0.33828">
        <ele>93</ele>
        <time>2024-08-18T06:41:30Z</time>
      </trkpt>
      <trkpt lat="46.53581" lon="0.33823">
        <ele>93.2</ele>
        <time>2024-08-18T06:41:32Z</time>
      </trkpt>
      <trkpt lat="46.53584" lon="0.33811">
        <ele>94</ele>
        <time>2024-08-18T06:41:36Z</time>
      </trkpt>
      <trkpt lat="46.53586" lon="0.33792">
        <ele>95</ele>
        <time>2024-08-18T06:41:43Z</time>
      </trkpt>
      <trkpt lat="46.53586" lon="0.3379">
        <ele>95.2</ele>
        <time>2024-08-18T06:41:44Z</time>
      </trkpt>
      <trkpt lat="46.5359" lon="0.33782">
        <ele>95.6</ele>
        <time>2024-08-18T06:41:48Z</time>
      </trkpt>
      <trkpt lat="46.53591" lon="0.33782">
        <ele>95.8</ele>
        <time>2024-08-18T06:41:49Z</time>
      </trkpt>
      <trkpt lat="46.53604" lon="0.33782">
        <ele>95.8</ele>
        <time>2024-08-18T06:41:55Z</time>
      </trkpt>
      <trkpt lat="46.5362" lon="0.33773">
        <ele>94.6</ele>
        <time>2024-08-18T06:42:01Z</time>
      </trkpt>
      <trkpt lat="46.53624" lon="0.33768">
        <ele>94</ele>
        <time>2024-08-18T06:42:04Z</time>
      </trkpt>
      <trkpt lat="46.53629" lon="0.33763">
        <ele>93.6</ele>
        <time>2024-08-18T06:42:07Z</time>
      </trkpt>
      <trkpt lat="46.53636" lon="0.33754">
        <ele>93</ele>
        <time>2024-08-18T06:42:14Z</time>
      </trkpt>
      <trkpt lat="46.53644" lon="0.33741">
        <ele>92</ele>
        <time>2024-08-18T06:42:21Z</time>
      </trkpt>
      <trkpt lat="46.53645" lon="0.33739">
        <ele>91.8</ele>
        <time>2024-08-18T06:42:22Z</time>
      </trkpt>
      <trkpt lat="46.53653" lon="0.33719">
        <ele>90.8</ele>
        <time>2024-08-18T06:42:28Z</time>
      </trkpt>
      <trkpt lat="46.53656" lon="0.33704">
        <ele>89.8</ele>
        <time>2024-08-18T06:42:33Z</time>
      </trkpt>
      <trkpt lat="46.53656" lon="0.33701">
        <ele>89.8</ele>
        <time>2024-08-18T06:42:34Z</time>
      </trkpt>
      <trkpt lat="46.53659" lon="0.33691">
        <ele>89.6</ele>
        <time>2024-08-18T06:42:38Z</time>
      </trkpt>
      <trkpt lat="46.53665" lon="0.33679">
        <ele>90.2</ele>
        <time>2024-08-18T06:42:45Z</time>
      </trkpt>
      <trkpt lat="46.53667" lon="0.33675">
        <ele>90.4</ele>
        <time>2024-08-18T06:42:48Z</time>
      </trkpt>
      <trkpt lat="46.53668" lon="0.33675">
        <ele>90.6</ele>
        <time>2024-08-18T06:42:51Z</time>
      </trkpt>
      <trkpt lat="46.53664" lon="0.33688">
        <ele>90.4</ele>
        <time>2024-08-18T06:42:55Z</time>
      </trkpt>
      <trkpt lat="46.5366" lon="0.33697">
        <ele>90</ele>
        <time>2024-08-18T06:42:58Z</time>
      </trkpt>
      <trkpt lat="46.53658" lon="0.33704">
        <ele>90</ele>
        <time>2024-08-18T06:43:01Z</time>
      </trkpt>
      <trkpt lat="46.53653" lon="0.3372">
        <ele>90.6</ele>
        <time>2024-08-18T06:43:08Z</time>
      </trkpt>
      <trkpt lat="46.53653" lon="0.33723">
        <ele>90.8</ele>
        <time>2024-08-18T06:43:09Z</time>
      </trkpt>
      <trkpt lat="46.53649" lon="0.33738">
        <ele>92</ele>
        <time>2024-08-18T06:43:16Z</time>
      </trkpt>
      <trkpt lat="46.53636" lon="0.33753">
        <ele>93</ele>
        <time>2024-08-18T06:43:23Z</time>
      </trkpt>
      <trkpt lat="46.53626" lon="0.33767">
        <ele>93.8</ele>
        <time>2024-08-18T06:43:30Z</time>
      </trkpt>
      <trkpt lat="46.53623" lon="0.3377">
        <ele>94</ele>
        <time>2024-08-18T06:43:32Z</time>
      </trkpt>
      <trkpt lat="46.5362" lon="0.33771">
        <ele>94.2</ele>
        <time>2024-08-18T06:43:34Z</time>
      </trkpt>
      <trkpt lat="46.53617" lon="0.33773">
        <ele>94.2</ele>
        <time>2024-08-18T06:43:36Z</time>
      </trkpt>
      <trkpt lat="46.5361" lon="0.33775">
        <ele>94.8</ele>
        <time>2024-08-18T06:43:42Z</time>
      </trkpt>
      <trkpt lat="46.53603" lon="0.33774">
        <ele>95.2</ele>
        <time>2024-08-18T06:43:46Z</time>
      </trkpt>
      <trkpt lat="46.53598" lon="0.33774">
        <ele>95.4</ele>
        <time>2024-08-18T06:43:49Z</time>
      </trkpt>
      <trkpt lat="46.53596" lon="0.33775">
        <ele>95.4</ele>
        <time>2024-08-18T06:43:50Z</time>
      </trkpt>
      <trkpt lat="46.53594" lon="0.33777">
        <ele>95.6</ele>
        <time>2024-08-18T06:43:52Z</time>
      </trkpt>
      <trkpt lat="46.53595" lon="0.33779">
        <ele>95.6</ele>
        <time>2024-08-18T06:43:54Z</time>
      </trkpt>
      <trkpt lat="46.53598" lon="0.33777">
        <ele>95.6</ele>
        <time>2024-08-18T06:43:58Z</time>
      </trkpt>
      <trkpt lat="46.53603" lon="0.33776">
        <ele>95.6</ele>
        <time>2024-08-18T06:44:01Z</time>
      </trkpt>
      <trkpt lat="46.5361" lon="0.33775">
        <ele>95.2</ele>
        <time>2024-08-18T06:44:04Z</time>
      </trkpt>
      <trkpt lat="46.53617" lon="0.33773">
        <ele>94.8</ele>
        <time>2024-08-18T06:44:07Z</time>
      </trkpt>
      <trkpt lat="46.53631" lon="0.33757">
        <ele>94.2</ele>
        <time>2024-08-18T06:44:12Z</time>
      </trkpt>
      <trkpt lat="46.53641" lon="0.33736">
        <ele>92.8</ele>
        <time>2024-08-18T06:44:16Z</time>
      </trkpt>
      <trkpt lat="46.53644" lon="0.33729">
        <ele>92.4</ele>
        <time>2024-08-18T06:44:17Z</time>
      </trkpt>
      <trkpt lat="46.53648" lon="0.33714">
        <ele>91.6</ele>
        <time>2024-08-18T06:44:19Z</time>
      </trkpt>
      <trkpt lat="46.53658" lon="0.33688">
        <ele>90.6</ele>
        <time>2024-08-18T06:44:23Z</time>
      </trkpt>
      <trkpt lat="46.5366" lon="0.33684">
        <ele>90.6</ele>
        <time>2024-08-18T06:44:24Z</time>
      </trkpt>
      <trkpt lat="46.53661" lon="0.33681">
        <ele>90.4</ele>
        <time>2024-08-18T06:44:25Z</time>
      </trkpt>
      <trkpt lat="46.53664" lon="0.33677">
        <ele>90.6</ele>
        <time>2024-08-18T06:44:27Z</time>
      </trkpt>
      <trkpt lat="46.5367" lon="0.33669">
        <ele>90.8</ele>
        <time>2024-08-18T06:44:30Z</time>
      </trkpt>
      <trkpt lat="46.53675" lon="0.33661">
        <ele>90.6</ele>
        <time>2024-08-18T06:44:32Z</time>
      </trkpt>
      <trkpt lat="46.53683" lon="0.33643">
        <ele>89.2</ele>
        <time>2024-08-18T06:44:35Z</time>
      </trkpt>
      <trkpt lat="46.53688" lon="0.33629">
        <ele>87.8</ele>
        <time>2024-08-18T06:44:37Z</time>
      </trkpt>
      <trkpt lat="46.53701" lon="0.33605">
        <ele>86.8</ele>
        <time>2024-08-18T06:44:40Z</time>
      </trkpt>
      <trkpt lat="46.53707" lon="0.33587">
        <ele>86</ele>
        <time>2024-08-18T06:44:43Z</time>
      </trkpt>
      <trkpt lat="46.53711" lon="0.33581">
        <ele>85.8</ele>
        <time>2024-08-18T06:44:44Z</time>
      </trkpt>
      <trkpt lat="46.53713" lon="0.33577">
        <ele>85.6</ele>
        <time>2024-08-18T06:44:45Z</time>
      </trkpt>
      <trkpt lat="46.53719" lon="0.33565">
        <ele>85.4</ele>
        <time>2024-08-18T06:44:47Z</time>
      </trkpt>
      <trkpt lat="46.53725" lon="0.33553">
        <ele>85.4</ele>
        <time>2024-08-18T06:44:49Z</time>
      </trkpt>
      <trkpt lat="46.53739" lon="0.33517">
        <ele>85.2</ele>
        <time>2024-08-18T06:44:56Z</time>
      </trkpt>
      <trkpt lat="46.53746" lon="0.33496">
        <ele>84.8</ele>
        <time>2024-08-18T06:45:01Z</time>
      </trkpt>
      <trkpt lat="46.53747" lon="0.33492">
        <ele>84.8</ele>
        <time>2024-08-18T06:45:02Z</time>
      </trkpt>
      <trkpt lat="46.53746" lon="0.33487">
        <ele>84.8</ele>
        <time>2024-08-18T06:45:03Z</time>
      </trkpt>
      <trkpt lat="46.5375" lon="0.33475">
        <ele>84.6</ele>
        <time>2024-08-18T06:45:05Z</time>
      </trkpt>
      <trkpt lat="46.53753" lon="0.33462">
        <ele>84.6</ele>
        <time>2024-08-18T06:45:07Z</time>
      </trkpt>
      <trkpt lat="46.53759" lon="0.3345">
        <ele>83.8</ele>
        <time>2024-08-18T06:45:09Z</time>
      </trkpt>
      <trkpt lat="46.53764" lon="0.33439">
        <ele>83.4</ele>
        <time>2024-08-18T06:45:11Z</time>
      </trkpt>
      <trkpt lat="46.53767" lon="0.33433">
        <ele>83.2</ele>
        <time>2024-08-18T06:45:12Z</time>
      </trkpt>
      <trkpt lat="46.53768" lon="0.33428">
        <ele>83</ele>
        <time>2024-08-18T06:45:13Z</time>
      </trkpt>
      <trkpt lat="46.5377" lon="0.33421">
        <ele>83</ele>
        <time>2024-08-18T06:45:14Z</time>
      </trkpt>
      <trkpt lat="46.53775" lon="0.33409">
        <ele>82.4</ele>
        <time>2024-08-18T06:45:16Z</time>
      </trkpt>
      <trkpt lat="46.53776" lon="0.33397">
        <ele>82.2</ele>
        <time>2024-08-18T06:45:18Z</time>
      </trkpt>
      <trkpt lat="46.53779" lon="0.33379">
        <ele>82</ele>
        <time>2024-08-18T06:45:21Z</time>
      </trkpt>
      <trkpt lat="46.53786" lon="0.33358">
        <ele>81.6</ele>
        <time>2024-08-18T06:45:24Z</time>
      </trkpt>
      <trkpt lat="46.53789" lon="0.3335">
        <ele>81.2</ele>
        <time>2024-08-18T06:45:25Z</time>
      </trkpt>
      <trkpt lat="46.53797" lon="0.33317">
        <ele>80.2</ele>
        <time>2024-08-18T06:45:30Z</time>
      </trkpt>
      <trkpt lat="46.53801" lon="0.33305">
        <ele>79.6</ele>
        <time>2024-08-18T06:45:32Z</time>
      </trkpt>
      <trkpt lat="46.53803" lon="0.33294">
        <ele>78.8</ele>
        <time>2024-08-18T06:45:34Z</time>
      </trkpt>
      <trkpt lat="46.53808" lon="0.33283">
        <ele>78.2</ele>
        <time>2024-08-18T06:45:36Z</time>
      </trkpt>
      <trkpt lat="46.53808" lon="0.33279">
        <ele>77.8</ele>
        <time>2024-08-18T06:45:37Z</time>
      </trkpt>
      <trkpt lat="46.53826" lon="0.33253">
        <ele>77</ele>
        <time>2024-08-18T06:45:43Z</time>
      </trkpt>
      <trkpt lat="46.53827" lon="0.33246">
        <ele>77</ele>
        <time>2024-08-18T06:45:46Z</time>
      </trkpt>
      <trkpt lat="46.53827" lon="0.33243">
        <ele>77</ele>
        <time>2024-08-18T06:45:48Z</time>
      </trkpt>
      <trkpt lat="46.53828" lon="0.33241">
        <ele>77.4</ele>
        <time>2024-08-18T06:45:49Z</time>
      </trkpt>
      <trkpt lat="46.53826" lon="0.3324">
        <ele>77.6</ele>
        <time>2024-08-18T06:45:50Z</time>
      </trkpt>
      <trkpt lat="46.53824" lon="0.33234">
        <ele>78.4</ele>
        <time>2024-08-18T06:45:55Z</time>
      </trkpt>
      <trkpt lat="46.53823" lon="0.33232">
        <ele>78.4</ele>
        <time>2024-08-18T06:45:56Z</time>
      </trkpt>
      <trkpt lat="46.53819" lon="0.33227">
        <ele>79</ele>
        <time>2024-08-18T06:45:59Z</time>
      </trkpt>
      <trkpt lat="46.53816" lon="0.33225">
        <ele>79.6</ele>
        <time>2024-08-18T06:46:01Z</time>
      </trkpt>
      <trkpt lat="46.53814" lon="0.33223">
        <ele>80.4</ele>
        <time>2024-08-18T06:46:02Z</time>
      </trkpt>
      <trkpt lat="46.5381" lon="0.3322">
        <ele>81.4</ele>
        <time>2024-08-18T06:46:05Z</time>
      </trkpt>
      <trkpt lat="46.53807" lon="0.33217">
        <ele>82.8</ele>
        <time>2024-08-18T06:46:08Z</time>
      </trkpt>
      <trkpt lat="46.53807" lon="0.33216">
        <ele>83.2</ele>
        <time>2024-08-18T06:46:09Z</time>
      </trkpt>
      <trkpt lat="46.53806" lon="0.33214">
        <ele>83.8</ele>
        <time>2024-08-18T06:46:11Z</time>
      </trkpt>
      <trkpt lat="46.53806" lon="0.33213">
        <ele>84.4</ele>
        <time>2024-08-18T06:46:13Z</time>
      </trkpt>
      <trkpt lat="46.53805" lon="0.33212">
        <ele>85.2</ele>
        <time>2024-08-18T06:46:14Z</time>
      </trkpt>
      <trkpt lat="46.53804" lon="0.3321">
        <ele>86</ele>
        <time>2024-08-18T06:46:16Z</time>
      </trkpt>
      <trkpt lat="46.53803" lon="0.33209">
        <ele>86.2</ele>
        <time>2024-08-18T06:46:17Z</time>
      </trkpt>
      <trkpt lat="46.53803" lon="0.33209">
        <ele>86.6</ele>
        <time>2024-08-18T06:46:18Z</time>
      </trkpt>
      <trkpt lat="46.53801" lon="0.33207">
        <ele>87.4</ele>
        <time>2024-08-18T06:46:20Z</time>
      </trkpt>
      <trkpt lat="46.53799" lon="0.33206">
        <ele>88.6</ele>
        <time>2024-08-18T06:46:23Z</time>
      </trkpt>
      <trkpt lat="46.53798" lon="0.33206">
        <ele>89</ele>
        <time>2024-08-18T06:46:26Z</time>
      </trkpt>
      <trkpt lat="46.53797" lon="0.33204">
        <ele>89.2</ele>
        <time>2024-08-18T06:46:39Z</time>
      </trkpt>
      <trkpt lat="46.53795" lon="0.33203">
        <ele>89.6</ele>
        <time>2024-08-18T06:46:42Z</time>
      </trkpt>
      <trkpt lat="46.5379" lon="0.33201">
        <ele>91</ele>
        <time>2024-08-18T06:46:47Z</time>
      </trkpt>
      <trkpt lat="46.53789" lon="0.33201">
        <ele>91.2</ele>
        <time>2024-08-18T06:46:48Z</time>
      </trkpt>
      <trkpt lat="46.53786" lon="0.332">
        <ele>92</ele>
        <time>2024-08-18T06:46:51Z</time>
      </trkpt>
      <trkpt lat="46.53786" lon="0.33199">
        <ele>92.2</ele>
        <time>2024-08-18T06:46:52Z</time>
      </trkpt>
      <trkpt lat="46.5378" lon="0.33198">
        <ele>93.4</ele>
        <time>2024-08-18T06:46:59Z</time>
      </trkpt>
      <trkpt lat="46.53778" lon="0.33197">
        <ele>94.6</ele>
        <time>2024-08-18T06:47:03Z</time>
      </trkpt>
      <trkpt lat="46.53775" lon="0.33198">
        <ele>95.6</ele>
        <time>2024-08-18T06:47:07Z</time>
      </trkpt>
      <trkpt lat="46.53772" lon="0.33197">
        <ele>96.6</ele>
        <time>2024-08-18T06:47:12Z</time>
      </trkpt>
      <trkpt lat="46.53769" lon="0.33196">
        <ele>97.2</ele>
        <time>2024-08-18T06:47:16Z</time>
      </trkpt>
      <trkpt lat="46.53766" lon="0.33196">
        <ele>97.8</ele>
        <time>2024-08-18T06:47:19Z</time>
      </trkpt>
      <trkpt lat="46.5376" lon="0.33193">
        <ele>99</ele>
        <time>2024-08-18T06:47:27Z</time>
      </trkpt>
      <trkpt lat="46.53758" lon="0.33193">
        <ele>99</ele>
        <time>2024-08-18T06:47:29Z</time>
      </trkpt>
      <trkpt lat="46.53756" lon="0.33192">
        <ele>99.4</ele>
        <time>2024-08-18T06:47:31Z</time>
      </trkpt>
      <trkpt lat="46.53754" lon="0.33188">
        <ele>100.2</ele>
        <time>2024-08-18T06:47:34Z</time>
      </trkpt>
      <trkpt lat="46.53753" lon="0.33187">
        <ele>100.6</ele>
        <time>2024-08-18T06:47:35Z</time>
      </trkpt>
      <trkpt lat="46.53751" lon="0.33182">
        <ele>101.2</ele>
        <time>2024-08-18T06:47:39Z</time>
      </trkpt>
      <trkpt lat="46.5375" lon="0.33181">
        <ele>101.4</ele>
        <time>2024-08-18T06:47:40Z</time>
      </trkpt>
      <trkpt lat="46.53747" lon="0.33176">
        <ele>102.6</ele>
        <time>2024-08-18T06:47:44Z</time>
      </trkpt>
      <trkpt lat="46.53747" lon="0.33174">
        <ele>103.2</ele>
        <time>2024-08-18T06:47:46Z</time>
      </trkpt>
      <trkpt lat="46.53747" lon="0.3317">
        <ele>103.6</ele>
        <time>2024-08-18T06:47:49Z</time>
      </trkpt>
      <trkpt lat="46.53746" lon="0.33167">
        <ele>103.8</ele>
        <time>2024-08-18T06:47:51Z</time>
      </trkpt>
      <trkpt lat="46.53747" lon="0.33163">
        <ele>104</ele>
        <time>2024-08-18T06:47:55Z</time>
      </trkpt>
      <trkpt lat="46.53748" lon="0.33159">
        <ele>104.2</ele>
        <time>2024-08-18T06:48:00Z</time>
      </trkpt>
      <trkpt lat="46.53747" lon="0.33161">
        <ele>104</ele>
        <time>2024-08-18T06:48:03Z</time>
      </trkpt>
      <trkpt lat="46.53747" lon="0.33162">
        <ele>104</ele>
        <time>2024-08-18T06:48:05Z</time>
      </trkpt>
      <trkpt lat="46.53747" lon="0.33164">
        <ele>104</ele>
        <time>2024-08-18T06:48:08Z</time>
      </trkpt>
      <trkpt lat="46.53747" lon="0.33163">
        <ele>104</ele>
        <time>2024-08-18T06:48:09Z</time>
      </trkpt>
      <trkpt lat="46.53748" lon="0.33162">
        <ele>104</ele>
        <time>2024-08-18T06:48:12Z</time>
      </trkpt>
      <trkpt lat="46.53751" lon="0.33158">
        <ele>104</ele>
        <time>2024-08-18T06:48:17Z</time>
      </trkpt>
      <trkpt lat="46.53752" lon="0.33155">
        <ele>104</ele>
        <time>2024-08-18T06:48:19Z</time>
      </trkpt>
      <trkpt lat="46.53752" lon="0.33154">
        <ele>104</ele>
        <time>2024-08-18T06:48:20Z</time>
      </trkpt>
      <trkpt lat="46.53752" lon="0.33153">
        <ele>104</ele>
        <time>2024-08-18T06:48:22Z</time>
      </trkpt>
      <trkpt lat="46.53751" lon="0.33155">
        <ele>104</ele>
        <time>2024-08-18T06:48:25Z</time>
      </trkpt>
      <trkpt lat="46.5375" lon="0.33156">
        <ele>104.2</ele>
        <time>2024-08-18T06:48:26Z</time>
      </trkpt>
      <trkpt lat="46.53749" lon="0.33158">
        <ele>104.2</ele>
        <time>2024-08-18T06:48:28Z</time>
      </trkpt>
      <trkpt lat="46.53742" lon="0.33168">
        <ele>104.2</ele>
        <time>2024-08-18T06:48:35Z</time>
      </trkpt>
      <trkpt lat="46.53731" lon="0.33185">
        <ele>104.6</ele>
        <time>2024-08-18T06:48:46Z</time>
      </trkpt>
      <trkpt lat="46.53731" lon="0.33185">
        <ele>104.8</ele>
        <time>2024-08-18T06:48:47Z</time>
      </trkpt>
      <trkpt lat="46.53728" lon="0.33194">
        <ele>104.8</ele>
        <time>2024-08-18T06:48:54Z</time>
      </trkpt>
      <trkpt lat="46.5373" lon="0.33196">
        <ele>104.6</ele>
        <time>2024-08-18T06:48:56Z</time>
      </trkpt>
      <trkpt lat="46.53732" lon="0.33198">
        <ele>104.6</ele>
        <time>2024-08-18T06:48:58Z</time>
      </trkpt>
      <trkpt lat="46.53743" lon="0.33214">
        <ele>104.2</ele>
        <time>2024-08-18T06:49:06Z</time>
      </trkpt>
      <trkpt lat="46.53746" lon="0.33216">
        <ele>103.8</ele>
        <time>2024-08-18T06:49:08Z</time>
      </trkpt>
      <trkpt lat="46.53747" lon="0.33217">
        <ele>103.2</ele>
        <time>2024-08-18T06:49:09Z</time>
      </trkpt>
      <trkpt lat="46.53748" lon="0.33219">
        <ele>102.6</ele>
        <time>2024-08-18T06:49:11Z</time>
      </trkpt>
      <trkpt lat="46.53748" lon="0.33221">
        <ele>102.4</ele>
        <time>2024-08-18T06:49:12Z</time>
      </trkpt>
      <trkpt lat="46.53752" lon="0.33228">
        <ele>101.8</ele>
        <time>2024-08-18T06:49:19Z</time>
      </trkpt>
      <trkpt lat="46.53758" lon="0.33236">
        <ele>101.6</ele>
        <time>2024-08-18T06:49:29Z</time>
      </trkpt>
      <trkpt lat="46.53759" lon="0.33238">
        <ele>101.2</ele>
        <time>2024-08-18T06:49:32Z</time>
      </trkpt>
      <trkpt lat="46.53762" lon="0.33246">
        <ele>100.6</ele>
        <time>2024-08-18T06:49:36Z</time>
      </trkpt>
      <trkpt lat="46.53762" lon="0.3325">
        <ele>100.2</ele>
        <time>2024-08-18T06:49:39Z</time>
      </trkpt>
      <trkpt lat="46.53762" lon="0.33259">
        <ele>100</ele>
        <time>2024-08-18T06:49:43Z</time>
      </trkpt>
      <trkpt lat="46.53764" lon="0.33276">
        <ele>99.8</ele>
        <time>2024-08-18T06:49:49Z</time>
      </trkpt>
      <trkpt lat="46.53765" lon="0.33283">
        <ele>99.2</ele>
        <time>2024-08-18T06:49:51Z</time>
      </trkpt>
      <trkpt lat="46.53765" lon="0.33291">
        <ele>98.2</ele>
        <time>2024-08-18T06:49:54Z</time>
      </trkpt>
      <trkpt lat="46.53765" lon="0.33298">
        <ele>98.2</ele>
        <time>2024-08-18T06:49:56Z</time>
      </trkpt>
      <trkpt lat="46.53767" lon="0.33314">
        <ele>97</ele>
        <time>2024-08-18T06:50:02Z</time>
      </trkpt>
      <trkpt lat="46.53767" lon="0.33321">
        <ele>96</ele>
        <time>2024-08-18T06:50:04Z</time>
      </trkpt>
      <trkpt lat="46.53768" lon="0.33329">
        <ele>94.8</ele>
        <time>2024-08-18T06:50:06Z</time>
      </trkpt>
      <trkpt lat="46.53767" lon="0.33333">
        <ele>94.4</ele>
        <time>2024-08-18T06:50:07Z</time>
      </trkpt>
      <trkpt lat="46.53763" lon="0.33351">
        <ele>93.8</ele>
        <time>2024-08-18T06:50:13Z</time>
      </trkpt>
      <trkpt lat="46.53763" lon="0.33355">
        <ele>93.6</ele>
        <time>2024-08-18T06:50:14Z</time>
      </trkpt>
      <trkpt lat="46.5376" lon="0.33369">
        <ele>92.6</ele>
        <time>2024-08-18T06:50:18Z</time>
      </trkpt>
      <trkpt lat="46.53751" lon="0.33401">
        <ele>92.2</ele>
        <time>2024-08-18T06:50:25Z</time>
      </trkpt>
      <trkpt lat="46.53753" lon="0.33418">
        <ele>91.4</ele>
        <time>2024-08-18T06:50:30Z</time>
      </trkpt>
      <trkpt lat="46.53753" lon="0.33417">
        <ele>90.4</ele>
        <time>2024-08-18T06:50:33Z</time>
      </trkpt>
      <trkpt lat="46.53753" lon="0.33417">
        <ele>90.2</ele>
        <time>2024-08-18T06:50:34Z</time>
      </trkpt>
      <trkpt lat="46.53752" lon="0.33416">
        <ele>90.2</ele>
        <time>2024-08-18T06:50:36Z</time>
      </trkpt>
      <trkpt lat="46.53752" lon="0.33404">
        <ele>89.8</ele>
        <time>2024-08-18T06:50:42Z</time>
      </trkpt>
      <trkpt lat="46.53755" lon="0.33392">
        <ele>89.6</ele>
        <time>2024-08-18T06:50:48Z</time>
      </trkpt>
      <trkpt lat="46.53757" lon="0.33391">
        <ele>89.6</ele>
        <time>2024-08-18T06:50:49Z</time>
      </trkpt>
      <trkpt lat="46.53762" lon="0.33385">
        <ele>89.6</ele>
        <time>2024-08-18T06:50:55Z</time>
      </trkpt>
      <trkpt lat="46.53765" lon="0.33378">
        <ele>89.6</ele>
        <time>2024-08-18T06:51:07Z</time>
      </trkpt>
      <trkpt lat="46.53769" lon="0.33377">
        <ele>89.2</ele>
        <time>2024-08-18T06:51:10Z</time>
      </trkpt>
      <trkpt lat="46.53772" lon="0.33377">
        <ele>88</ele>
        <time>2024-08-18T06:51:12Z</time>
      </trkpt>
      <trkpt lat="46.53772" lon="0.33376">
        <ele>86.8</ele>
        <time>2024-08-18T06:51:14Z</time>
      </trkpt>
      <trkpt lat="46.53776" lon="0.33372">
        <ele>85.8</ele>
        <time>2024-08-18T06:51:18Z</time>
      </trkpt>
      <trkpt lat="46.53777" lon="0.33372">
        <ele>85.8</ele>
        <time>2024-08-18T06:51:19Z</time>
      </trkpt>
      <trkpt lat="46.53783" lon="0.33366">
        <ele>84.6</ele>
        <time>2024-08-18T06:51:28Z</time>
      </trkpt>
      <trkpt lat="46.53782" lon="0.33365">
        <ele>84.6</ele>
        <time>2024-08-18T06:51:29Z</time>
      </trkpt>
      <trkpt lat="46.53782" lon="0.33361">
        <ele>84.2</ele>
        <time>2024-08-18T06:51:31Z</time>
      </trkpt>
      <trkpt lat="46.53783" lon="0.33358">
        <ele>83.6</ele>
        <time>2024-08-18T06:51:33Z</time>
      </trkpt>
      <trkpt lat="46.53786" lon="0.33353">
        <ele>82</ele>
        <time>2024-08-18T06:51:36Z</time>
      </trkpt>
      <trkpt lat="46.53786" lon="0.33351">
        <ele>81.4</ele>
        <time>2024-08-18T06:51:37Z</time>
      </trkpt>
      <trkpt lat="46.53787" lon="0.33346">
        <ele>80.8</ele>
        <time>2024-08-18T06:51:39Z</time>
      </trkpt>
      <trkpt lat="46.53794" lon="0.33324">
        <ele>79.6</ele>
        <time>2024-08-18T06:51:45Z</time>
      </trkpt>
      <trkpt lat="46.53799" lon="0.33299">
        <ele>79</ele>
        <time>2024-08-18T06:51:51Z</time>
      </trkpt>
      <trkpt lat="46.53799" lon="0.33288">
        <ele>78.4</ele>
        <time>2024-08-18T06:51:54Z</time>
      </trkpt>
      <trkpt lat="46.53801" lon="0.33285">
        <ele>78</ele>
        <time>2024-08-18T06:51:55Z</time>
      </trkpt>
      <trkpt lat="46.53801" lon="0.3328">
        <ele>77.8</ele>
        <time>2024-08-18T06:51:56Z</time>
      </trkpt>
      <trkpt lat="46.53801" lon="0.33275">
        <ele>77.6</ele>
        <time>2024-08-18T06:51:57Z</time>
      </trkpt>
      <trkpt lat="46.53802" lon="0.3327">
        <ele>77.4</ele>
        <time>2024-08-18T06:51:58Z</time>
      </trkpt>
      <trkpt lat="46.53802" lon="0.3326">
        <ele>76.6</ele>
        <time>2024-08-18T06:52:00Z</time>
      </trkpt>
      <trkpt lat="46.53803" lon="0.33254">
        <ele>76.2</ele>
        <time>2024-08-18T06:52:01Z</time>
      </trkpt>
      <trkpt lat="46.53803" lon="0.33249">
        <ele>76</ele>
        <time>2024-08-18T06:52:02Z</time>
      </trkpt>
      <trkpt lat="46.53807" lon="0.33229">
        <ele>75.2</ele>
        <time>2024-08-18T06:52:05Z</time>
      </trkpt>
      <trkpt lat="46.53808" lon="0.33206">
        <ele>74.2</ele>
        <time>2024-08-18T06:52:08Z</time>
      </trkpt>
      <trkpt lat="46.53812" lon="0.33199">
        <ele>73.8</ele>
        <time>2024-08-18T06:52:09Z</time>
      </trkpt>
      <trkpt lat="46.53819" lon="0.33186">
        <ele>72.8</ele>
        <time>2024-08-18T06:52:11Z</time>
      </trkpt>
      <trkpt lat="46.53821" lon="0.33181">
        <ele>72.4</ele>
        <time>2024-08-18T06:52:12Z</time>
      </trkpt>
      <trkpt lat="46.53843" lon="0.33158">
        <ele>71.6</ele>
        <time>2024-08-18T06:52:15Z</time>
      </trkpt>
      <trkpt lat="46.53846" lon="0.33148">
        <ele>71.2</ele>
        <time>2024-08-18T06:52:17Z</time>
      </trkpt>
      <trkpt lat="46.53855" lon="0.33118">
        <ele>70.8</ele>
        <time>2024-08-18T06:52:23Z</time>
      </trkpt>
      <trkpt lat="46.53865" lon="0.33103">
        <ele>71.2</ele>
        <time>2024-08-18T06:52:28Z</time>
      </trkpt>
      <trkpt lat="46.53865" lon="0.33101">
        <ele>71.2</ele>
        <time>2024-08-18T06:52:29Z</time>
      </trkpt>
      <trkpt lat="46.53864" lon="0.3309">
        <ele>72.4</ele>
        <time>2024-08-18T06:52:36Z</time>
      </trkpt>
      <trkpt lat="46.53864" lon="0.33089">
        <ele>72.8</ele>
        <time>2024-08-18T06:52:38Z</time>
      </trkpt>
      <trkpt lat="46.53867" lon="0.33089">
        <ele>73.8</ele>
        <time>2024-08-18T06:52:44Z</time>
      </trkpt>
      <trkpt lat="46.53868" lon="0.33089">
        <ele>74</ele>
        <time>2024-08-18T06:52:45Z</time>
      </trkpt>
      <trkpt lat="46.53871" lon="0.3309">
        <ele>74.2</ele>
        <time>2024-08-18T06:52:48Z</time>
      </trkpt>
      <trkpt lat="46.5387" lon="0.33092">
        <ele>74.8</ele>
        <time>2024-08-18T06:53:00Z</time>
      </trkpt>
      <trkpt lat="46.5387" lon="0.33092">
        <ele>75</ele>
        <time>2024-08-18T06:53:01Z</time>
      </trkpt>
      <trkpt lat="46.5387" lon="0.33092">
        <ele>75.2</ele>
        <time>2024-08-18T06:53:02Z</time>
      </trkpt>
      <trkpt lat="46.53869" lon="0.33092">
        <ele>75.2</ele>
        <time>2024-08-18T06:53:03Z</time>
      </trkpt>
      <trkpt lat="46.53865" lon="0.33094">
        <ele>76.2</ele>
        <time>2024-08-18T06:53:07Z</time>
      </trkpt>
      <trkpt lat="46.53864" lon="0.33096">
        <ele>76.2</ele>
        <time>2024-08-18T06:53:08Z</time>
      </trkpt>
      <trkpt lat="46.53862" lon="0.33098">
        <ele>77</ele>
        <time>2024-08-18T06:53:10Z</time>
      </trkpt>
      <trkpt lat="46.5386" lon="0.331">
        <ele>77.4</ele>
        <time>2024-08-18T06:53:11Z</time>
      </trkpt>
      <trkpt lat="46.53858" lon="0.33103">
        <ele>77.6</ele>
        <time>2024-08-18T06:53:13Z</time>
      </trkpt>
      <trkpt lat="46.53855" lon="0.33107">
        <ele>78.6</ele>
        <time>2024-08-18T06:53:16Z</time>
      </trkpt>
      <trkpt lat="46.5385" lon="0.33113">
        <ele>79.8</ele>
        <time>2024-08-18T06:53:20Z</time>
      </trkpt>
      <trkpt lat="46.53846" lon="0.33116">
        <ele>80.8</ele>
        <time>2024-08-18T06:53:22Z</time>
      </trkpt>
      <trkpt lat="46.53842" lon="0.3312">
        <ele>82.2</ele>
        <time>2024-08-18T06:53:25Z</time>
      </trkpt>
      <trkpt lat="46.53838" lon="0.33124">
        <ele>83.2</ele>
        <time>2024-08-18T06:53:28Z</time>
      </trkpt>
      <trkpt lat="46.53836" lon="0.33125">
        <ele>83.4</ele>
        <time>2024-08-18T06:53:29Z</time>
      </trkpt>
      <trkpt lat="46.53829" lon="0.33133">
        <ele>84.6</ele>
        <time>2024-08-18T06:53:34Z</time>
      </trkpt>
      <trkpt lat="46.53823" lon="0.33144">
        <ele>85.8</ele>
        <time>2024-08-18T06:53:40Z</time>
      </trkpt>
      <trkpt lat="46.53821" lon="0.33147">
        <ele>86.4</ele>
        <time>2024-08-18T06:53:42Z</time>
      </trkpt>
      <trkpt lat="46.53819" lon="0.3315">
        <ele>87</ele>
        <time>2024-08-18T06:53:45Z</time>
      </trkpt>
      <trkpt lat="46.53816" lon="0.33157">
        <ele>88.2</ele>
        <time>2024-08-18T06:53:51Z</time>
      </trkpt>
      <trkpt lat="46.53813" lon="0.33161">
        <ele>89</ele>
        <time>2024-08-18T06:53:54Z</time>
      </trkpt>
      <trkpt lat="46.53812" lon="0.33162">
        <ele>89.4</ele>
        <time>2024-08-18T06:53:55Z</time>
      </trkpt>
      <trkpt lat="46.53808" lon="0.33167">
        <ele>90.6</ele>
        <time>2024-08-18T06:53:59Z</time>
      </trkpt>
      <trkpt lat="46.538" lon="0.33174">
        <ele>91.8</ele>
        <time>2024-08-18T06:54:05Z</time>
      </trkpt>
      <trkpt lat="46.53799" lon="0.33174">
        <ele>92</ele>
        <time>2024-08-18T06:54:06Z</time>
      </trkpt>
      <trkpt lat="46.53794" lon="0.33177">
        <ele>92.8</ele>
        <time>2024-08-18T06:54:09Z</time>
      </trkpt>
      <trkpt lat="46.53789" lon="0.3318">
        <ele>93.8</ele>
        <time>2024-08-18T06:54:12Z</time>
      </trkpt>
      <trkpt lat="46.53782" lon="0.33183">
        <ele>94.8</ele>
        <time>2024-08-18T06:54:17Z</time>
      </trkpt>
      <trkpt lat="46.53779" lon="0.33185">
        <ele>95.4</ele>
        <time>2024-08-18T06:54:20Z</time>
      </trkpt>
      <trkpt lat="46.53773" lon="0.33187">
        <ele>96</ele>
        <time>2024-08-18T06:54:24Z</time>
      </trkpt>
      <trkpt lat="46.53766" lon="0.3319">
        <ele>97</ele>
        <time>2024-08-18T06:54:31Z</time>
      </trkpt>
      <trkpt lat="46.53764" lon="0.33191">
        <ele>98</ele>
        <time>2024-08-18T06:54:33Z</time>
      </trkpt>
      <trkpt lat="46.53759" lon="0.3319">
        <ele>99.2</ele>
        <time>2024-08-18T06:54:37Z</time>
      </trkpt>
      <trkpt lat="46.53755" lon="0.33183">
        <ele>99.8</ele>
        <time>2024-08-18T06:54:43Z</time>
      </trkpt>
      <trkpt lat="46.53753" lon="0.33181">
        <ele>100.2</ele>
        <time>2024-08-18T06:54:45Z</time>
      </trkpt>
      <trkpt lat="46.53753" lon="0.3318">
        <ele>100.4</ele>
        <time>2024-08-18T06:54:46Z</time>
      </trkpt>
      <trkpt lat="46.53749" lon="0.33178">
        <ele>101</ele>
        <time>2024-08-18T06:54:49Z</time>
      </trkpt>
      <trkpt lat="46.53748" lon="0.33177">
        <ele>101.2</ele>
        <time>2024-08-18T06:54:50Z</time>
      </trkpt>
      <trkpt lat="46.53748" lon="0.33177">
        <ele>101.4</ele>
        <time>2024-08-18T06:54:51Z</time>
      </trkpt>
      <trkpt lat="46.53745" lon="0.33176">
        <ele>102.2</ele>
        <time>2024-08-18T06:54:54Z</time>
      </trkpt>
      <trkpt lat="46.53742" lon="0.33175">
        <ele>102.4</ele>
        <time>2024-08-18T06:54:56Z</time>
      </trkpt>
      <trkpt lat="46.53734" lon="0.33181">
        <ele>102.8</ele>
        <time>2024-08-18T06:55:06Z</time>
      </trkpt>
      <trkpt lat="46.53731" lon="0.33184">
        <ele>102.8</ele>
        <time>2024-08-18T06:55:09Z</time>
      </trkpt>
      <trkpt lat="46.53726" lon="0.33191">
        <ele>103.4</ele>
        <time>2024-08-18T06:55:13Z</time>
      </trkpt>
      <trkpt lat="46.53722" lon="0.332">
        <ele>104</ele>
        <time>2024-08-18T06:55:17Z</time>
      </trkpt>
      <trkpt lat="46.53719" lon="0.33204">
        <ele>104.4</ele>
        <time>2024-08-18T06:55:19Z</time>
      </trkpt>
      <trkpt lat="46.53712" lon="0.33212">
        <ele>104.8</ele>
        <time>2024-08-18T06:55:23Z</time>
      </trkpt>
      <trkpt lat="46.53706" lon="0.33218">
        <ele>105.6</ele>
        <time>2024-08-18T06:55:26Z</time>
      </trkpt>
      <trkpt lat="46.53699" lon="0.33229">
        <ele>106.6</ele>
        <time>2024-08-18T06:55:31Z</time>
      </trkpt>
      <trkpt lat="46.53685" lon="0.33243">
        <ele>106.6</ele>
        <time>2024-08-18T06:55:38Z</time>
      </trkpt>
      <trkpt lat="46.53673" lon="0.33258">
        <ele>107.6</ele>
        <time>2024-08-18T06:55:44Z</time>
      </trkpt>
      <trkpt lat="46.53671" lon="0.33259">
        <ele>107.8</ele>
        <time>2024-08-18T06:55:45Z</time>
      </trkpt>
      <trkpt lat="46.53661" lon="0.33272">
        <ele>108</ele>
        <time>2024-08-18T06:55:51Z</time>
      </trkpt>
      <trkpt lat="46.53649" lon="0.33285">
        <ele>108.6</ele>
        <time>2024-08-18T06:55:57Z</time>
      </trkpt>
      <trkpt lat="46.53647" lon="0.33288">
        <ele>108.8</ele>
        <time>2024-08-18T06:55:58Z</time>
      </trkpt>
      <trkpt lat="46.53637" lon="0.33301">
        <ele>109.2</ele>
        <time>2024-08-18T06:56:04Z</time>
      </trkpt>
      <trkpt lat="46.53623" lon="0.33316">
        <ele>109.4</ele>
        <time>2024-08-18T06:56:11Z</time>
      </trkpt>
      <trkpt lat="46.5361" lon="0.33318">
        <ele>109.6</ele>
        <time>2024-08-18T06:56:17Z</time>
      </trkpt>
      <trkpt lat="46.53607" lon="0.33318">
        <ele>109.6</ele>
        <time>2024-08-18T06:56:18Z</time>
      </trkpt>
      <trkpt lat="46.53601" lon="0.33317">
        <ele>109.8</ele>
        <time>2024-08-18T06:56:20Z</time>
      </trkpt>
      <trkpt lat="46.53584" lon="0.33314">
        <ele>110</ele>
        <time>2024-08-18T06:56:26Z</time>
      </trkpt>
      <trkpt lat="46.53568" lon="0.33307">
        <ele>110.4</ele>
        <time>2024-08-18T06:56:33Z</time>
      </trkpt>
      <trkpt lat="46.53559" lon="0.33294">
        <ele>110.4</ele>
        <time>2024-08-18T06:56:39Z</time>
      </trkpt>
      <trkpt lat="46.53555" lon="0.33288">
        <ele>110.4</ele>
        <time>2024-08-18T06:56:41Z</time>
      </trkpt>
      <trkpt lat="46.53551" lon="0.33283">
        <ele>110.4</ele>
        <time>2024-08-18T06:56:43Z</time>
      </trkpt>
      <trkpt lat="46.53545" lon="0.33275">
        <ele>110.4</ele>
        <time>2024-08-18T06:56:46Z</time>
      </trkpt>
      <trkpt lat="46.5353" lon="0.33263">
        <ele>110.4</ele>
        <time>2024-08-18T06:56:51Z</time>
      </trkpt>
      <trkpt lat="46.53514" lon="0.33247">
        <ele>110.8</ele>
        <time>2024-08-18T06:56:58Z</time>
      </trkpt>
      <trkpt lat="46.53512" lon="0.33245">
        <ele>111</ele>
        <time>2024-08-18T06:56:59Z</time>
      </trkpt>
      <trkpt lat="46.53491" lon="0.33228">
        <ele>111</ele>
        <time>2024-08-18T06:57:05Z</time>
      </trkpt>
      <trkpt lat="46.53485" lon="0.33223">
        <ele>111</ele>
        <time>2024-08-18T06:57:06Z</time>
      </trkpt>
      <trkpt lat="46.53477" lon="0.33213">
        <ele>111.2</ele>
        <time>2024-08-18T06:57:08Z</time>
      </trkpt>
      <trkpt lat="46.53476" lon="0.33207">
        <ele>111.2</ele>
        <time>2024-08-18T06:57:09Z</time>
      </trkpt>
      <trkpt lat="46.53475" lon="0.33202">
        <ele>111.2</ele>
        <time>2024-08-18T06:57:10Z</time>
      </trkpt>
      <trkpt lat="46.53472" lon="0.33191">
        <ele>111.2</ele>
        <time>2024-08-18T06:57:12Z</time>
      </trkpt>
      <trkpt lat="46.53469" lon="0.33182">
        <ele>111.2</ele>
        <time>2024-08-18T06:57:14Z</time>
      </trkpt>
      <trkpt lat="46.53465" lon="0.33172">
        <ele>111</ele>
        <time>2024-08-18T06:57:16Z</time>
      </trkpt>
      <trkpt lat="46.53462" lon="0.33162">
        <ele>111</ele>
        <time>2024-08-18T06:57:18Z</time>
      </trkpt>
      <trkpt lat="46.53457" lon="0.33154">
        <ele>109.6</ele>
        <time>2024-08-18T06:57:20Z</time>
      </trkpt>
      <trkpt lat="46.53449" lon="0.33133">
        <ele>108.6</ele>
        <time>2024-08-18T06:57:24Z</time>
      </trkpt>
      <trkpt lat="46.53448" lon="0.33127">
        <ele>108.4</ele>
        <time>2024-08-18T06:57:25Z</time>
      </trkpt>
      <trkpt lat="46.53446" lon="0.33117">
        <ele>108.2</ele>
        <time>2024-08-18T06:57:27Z</time>
      </trkpt>
      <trkpt lat="46.53441" lon="0.33108">
        <ele>108</ele>
        <time>2024-08-18T06:57:29Z</time>
      </trkpt>
      <trkpt lat="46.53434" lon="0.331">
        <ele>108.2</ele>
        <time>2024-08-18T06:57:31Z</time>
      </trkpt>
      <trkpt lat="46.53421" lon="0.33089">
        <ele>109.4</ele>
        <time>2024-08-18T06:57:36Z</time>
      </trkpt>
      <trkpt lat="46.53417" lon="0.33088">
        <ele>110</ele>
        <time>2024-08-18T06:57:37Z</time>
      </trkpt>
      <trkpt lat="46.53406" lon="0.33084">
        <ele>111.2</ele>
        <time>2024-08-18T06:57:40Z</time>
      </trkpt>
      <trkpt lat="46.53404" lon="0.33082">
        <ele>111.4</ele>
        <time>2024-08-18T06:57:41Z</time>
      </trkpt>
      <trkpt lat="46.53397" lon="0.33076">
        <ele>112.4</ele>
        <time>2024-08-18T06:57:43Z</time>
      </trkpt>
      <trkpt lat="46.53393" lon="0.33066">
        <ele>113.6</ele>
        <time>2024-08-18T06:57:46Z</time>
      </trkpt>
      <trkpt lat="46.53392" lon="0.33062">
        <ele>114</ele>
        <time>2024-08-18T06:57:47Z</time>
      </trkpt>
      <trkpt lat="46.53392" lon="0.33052">
        <ele>114.8</ele>
        <time>2024-08-18T06:57:50Z</time>
      </trkpt>
      <trkpt lat="46.53389" lon="0.3304">
        <ele>115.6</ele>
        <time>2024-08-18T06:57:53Z</time>
      </trkpt>
      <trkpt lat="46.53386" lon="0.33033">
        <ele>116</ele>
        <time>2024-08-18T06:57:55Z</time>
      </trkpt>
      <trkpt lat="46.53385" lon="0.33028">
        <ele>116.2</ele>
        <time>2024-08-18T06:57:56Z</time>
      </trkpt>
      <trkpt lat="46.53384" lon="0.33025">
        <ele>116.4</ele>
        <time>2024-08-18T06:57:57Z</time>
      </trkpt>
      <trkpt lat="46.53383" lon="0.33015">
        <ele>117</ele>
        <time>2024-08-18T06:58:00Z</time>
      </trkpt>
      <trkpt lat="46.53382" lon="0.33">
        <ele>117.6</ele>
        <time>2024-08-18T06:58:04Z</time>
      </trkpt>
      <trkpt lat="46.53383" lon="0.32995">
        <ele>118.2</ele>
        <time>2024-08-18T06:58:06Z</time>
      </trkpt>
      <trkpt lat="46.53373" lon="0.32979">
        <ele>118.6</ele>
        <time>2024-08-18T06:58:11Z</time>
      </trkpt>
      <trkpt lat="46.53365" lon="0.32976">
        <ele>118.8</ele>
        <time>2024-08-18T06:58:14Z</time>
      </trkpt>
      <trkpt lat="46.53354" lon="0.32976">
        <ele>118.8</ele>
        <time>2024-08-18T06:58:17Z</time>
      </trkpt>
      <trkpt lat="46.53336" lon="0.32984">
        <ele>119</ele>
        <time>2024-08-18T06:58:23Z</time>
      </trkpt>
      <trkpt lat="46.53315" lon="0.32998">
        <ele>118.8</ele>
        <time>2024-08-18T06:58:29Z</time>
      </trkpt>
      <trkpt lat="46.53304" lon="0.33005">
        <ele>119</ele>
        <time>2024-08-18T06:58:32Z</time>
      </trkpt>
      <trkpt lat="46.53298" lon="0.33006">
        <ele>118.8</ele>
        <time>2024-08-18T06:58:34Z</time>
      </trkpt>
      <trkpt lat="46.53292" lon="0.33007">
        <ele>118.8</ele>
        <time>2024-08-18T06:58:36Z</time>
      </trkpt>
      <trkpt lat="46.53285" lon="0.33007">
        <ele>118.8</ele>
        <time>2024-08-18T06:58:38Z</time>
      </trkpt>
      <trkpt lat="46.53281" lon="0.33005">
        <ele>118.8</ele>
        <time>2024-08-18T06:58:39Z</time>
      </trkpt>
      <trkpt lat="46.53278" lon="0.33003">
        <ele>118.8</ele>
        <time>2024-08-18T06:58:40Z</time>
      </trkpt>
      <trkpt lat="46.53274" lon="0.32997">
        <ele>119.2</ele>
        <time>2024-08-18T06:58:42Z</time>
      </trkpt>
      <trkpt lat="46.53272" lon="0.32996">
        <ele>119.2</ele>
        <time>2024-08-18T06:58:43Z</time>
      </trkpt>
      <trkpt lat="46.53264" lon="0.32994">
        <ele>119.6</ele>
        <time>2024-08-18T06:58:45Z</time>
      </trkpt>
      <trkpt lat="46.53261" lon="0.32995">
        <ele>119.8</ele>
        <time>2024-08-18T06:58:46Z</time>
      </trkpt>
      <trkpt lat="46.53256" lon="0.32997">
        <ele>119.8</ele>
        <time>2024-08-18T06:58:47Z</time>
      </trkpt>
      <trkpt lat="46.53248" lon="0.33">
        <ele>119.4</ele>
        <time>2024-08-18T06:58:49Z</time>
      </trkpt>
      <trkpt lat="46.53238" lon="0.33002">
        <ele>119</ele>
        <time>2024-08-18T06:58:51Z</time>
      </trkpt>
      <trkpt lat="46.53227" lon="0.33005">
        <ele>119</ele>
        <time>2024-08-18T06:58:54Z</time>
      </trkpt>
      <trkpt lat="46.53218" lon="0.33008">
        <ele>119.2</ele>
        <time>2024-08-18T06:58:56Z</time>
      </trkpt>
      <trkpt lat="46.53214" lon="0.33008">
        <ele>119.2</ele>
        <time>2024-08-18T06:58:57Z</time>
      </trkpt>
      <trkpt lat="46.53212" lon="0.33008">
        <ele>119.2</ele>
        <time>2024-08-18T06:58:58Z</time>
      </trkpt>
      <trkpt lat="46.53206" lon="0.32999">
        <ele>119.2</ele>
        <time>2024-08-18T06:59:01Z</time>
      </trkpt>
      <trkpt lat="46.53204" lon="0.32989">
        <ele>119.2</ele>
        <time>2024-08-18T06:59:03Z</time>
      </trkpt>
      <trkpt lat="46.53202" lon="0.32979">
        <ele>119.2</ele>
        <time>2024-08-18T06:59:05Z</time>
      </trkpt>
      <trkpt lat="46.53198" lon="0.32966">
        <ele>118.6</ele>
        <time>2024-08-18T06:59:08Z</time>
      </trkpt>
      <trkpt lat="46.53192" lon="0.32949">
        <ele>118</ele>
        <time>2024-08-18T06:59:11Z</time>
      </trkpt>
      <trkpt lat="46.53191" lon="0.32938">
        <ele>117.8</ele>
        <time>2024-08-18T06:59:13Z</time>
      </trkpt>
      <trkpt lat="46.53191" lon="0.32925">
        <ele>117.2</ele>
        <time>2024-08-18T06:59:16Z</time>
      </trkpt>
      <trkpt lat="46.53193" lon="0.32922">
        <ele>117</ele>
        <time>2024-08-18T06:59:17Z</time>
      </trkpt>
      <trkpt lat="46.53202" lon="0.32908">
        <ele>116.6</ele>
        <time>2024-08-18T06:59:21Z</time>
      </trkpt>
      <trkpt lat="46.53206" lon="0.32905">
        <ele>116.6</ele>
        <time>2024-08-18T06:59:22Z</time>
      </trkpt>
      <trkpt lat="46.53214" lon="0.32894">
        <ele>117.6</ele>
        <time>2024-08-18T06:59:27Z</time>
      </trkpt>
      <trkpt lat="46.53217" lon="0.3289">
        <ele>118.2</ele>
        <time>2024-08-18T06:59:29Z</time>
      </trkpt>
      <trkpt lat="46.53222" lon="0.32884">
        <ele>118.4</ele>
        <time>2024-08-18T06:59:31Z</time>
      </trkpt>
      <trkpt lat="46.53228" lon="0.3288">
        <ele>118.8</ele>
        <time>2024-08-18T06:59:33Z</time>
      </trkpt>
      <trkpt lat="46.53238" lon="0.32874">
        <ele>119.2</ele>
        <time>2024-08-18T06:59:36Z</time>
      </trkpt>
      <trkpt lat="46.53252" lon="0.32864">
        <ele>119.4</ele>
        <time>2024-08-18T06:59:39Z</time>
      </trkpt>
      <trkpt lat="46.53265" lon="0.32856">
        <ele>119.4</ele>
        <time>2024-08-18T06:59:42Z</time>
      </trkpt>
      <trkpt lat="46.53276" lon="0.32848">
        <ele>119.4</ele>
        <time>2024-08-18T06:59:45Z</time>
      </trkpt>
      <trkpt lat="46.53281" lon="0.32842">
        <ele>119.4</ele>
        <time>2024-08-18T06:59:47Z</time>
      </trkpt>
      <trkpt lat="46.53286" lon="0.32832">
        <ele>119.6</ele>
        <time>2024-08-18T06:59:49Z</time>
      </trkpt>
      <trkpt lat="46.53292" lon="0.32819">
        <ele>119.8</ele>
        <time>2024-08-18T06:59:51Z</time>
      </trkpt>
      <trkpt lat="46.53301" lon="0.32801">
        <ele>119.4</ele>
        <time>2024-08-18T06:59:54Z</time>
      </trkpt>
      <trkpt lat="46.53303" lon="0.32796">
        <ele>119.4</ele>
        <time>2024-08-18T06:59:55Z</time>
      </trkpt>
      <trkpt lat="46.53315" lon="0.32775">
        <ele>119.2</ele>
        <time>2024-08-18T06:59:59Z</time>
      </trkpt>
      <trkpt lat="46.53317" lon="0.32764">
        <ele>119</ele>
        <time>2024-08-18T07:00:01Z</time>
      </trkpt>
      <trkpt lat="46.53315" lon="0.32759">
        <ele>119</ele>
        <time>2024-08-18T07:00:02Z</time>
      </trkpt>
      <trkpt lat="46.53315" lon="0.32749">
        <ele>118.8</ele>
        <time>2024-08-18T07:00:04Z</time>
      </trkpt>
      <trkpt lat="46.53312" lon="0.32745">
        <ele>118.6</ele>
        <time>2024-08-18T07:00:05Z</time>
      </trkpt>
      <trkpt lat="46.53306" lon="0.32742">
        <ele>118</ele>
        <time>2024-08-18T07:00:07Z</time>
      </trkpt>
      <trkpt lat="46.53299" lon="0.32741">
        <ele>118.2</ele>
        <time>2024-08-18T07:00:09Z</time>
      </trkpt>
      <trkpt lat="46.53279" lon="0.32744">
        <ele>118.8</ele>
        <time>2024-08-18T07:00:14Z</time>
      </trkpt>
      <trkpt lat="46.53273" lon="0.32742">
        <ele>118.8</ele>
        <time>2024-08-18T07:00:15Z</time>
      </trkpt>
      <trkpt lat="46.53266" lon="0.32739">
        <ele>118.6</ele>
        <time>2024-08-18T07:00:17Z</time>
      </trkpt>
      <trkpt lat="46.53261" lon="0.32737">
        <ele>118.8</ele>
        <time>2024-08-18T07:00:18Z</time>
      </trkpt>
      <trkpt lat="46.53247" lon="0.32737">
        <ele>118.6</ele>
        <time>2024-08-18T07:00:21Z</time>
      </trkpt>
      <trkpt lat="46.53233" lon="0.32739">
        <ele>118.6</ele>
        <time>2024-08-18T07:00:24Z</time>
      </trkpt>
      <trkpt lat="46.53224" lon="0.3274">
        <ele>118.4</ele>
        <time>2024-08-18T07:00:26Z</time>
      </trkpt>
      <trkpt lat="46.53215" lon="0.32742">
        <ele>118.4</ele>
        <time>2024-08-18T07:00:28Z</time>
      </trkpt>
      <trkpt lat="46.53202" lon="0.32745">
        <ele>118.2</ele>
        <time>2024-08-18T07:00:31Z</time>
      </trkpt>
      <trkpt lat="46.53196" lon="0.32748">
        <ele>118.4</ele>
        <time>2024-08-18T07:00:33Z</time>
      </trkpt>
      <trkpt lat="46.53172" lon="0.32758">
        <ele>118.8</ele>
        <time>2024-08-18T07:00:39Z</time>
      </trkpt>
      <trkpt lat="46.53161" lon="0.32764">
        <ele>119.2</ele>
        <time>2024-08-18T07:00:42Z</time>
      </trkpt>
      <trkpt lat="46.53144" lon="0.32772">
        <ele>119.4</ele>
        <time>2024-08-18T07:00:46Z</time>
      </trkpt>
      <trkpt lat="46.53138" lon="0.32775">
        <ele>119.4</ele>
        <time>2024-08-18T07:00:47Z</time>
      </trkpt>
      <trkpt lat="46.5313" lon="0.32777">
        <ele>119.2</ele>
        <time>2024-08-18T07:00:49Z</time>
      </trkpt>
      <trkpt lat="46.53123" lon="0.32781">
        <ele>119.6</ele>
        <time>2024-08-18T07:00:51Z</time>
      </trkpt>
      <trkpt lat="46.53115" lon="0.32787">
        <ele>119.8</ele>
        <time>2024-08-18T07:00:53Z</time>
      </trkpt>
      <trkpt lat="46.53108" lon="0.32793">
        <ele>119.8</ele>
        <time>2024-08-18T07:00:55Z</time>
      </trkpt>
      <trkpt lat="46.53102" lon="0.32796">
        <ele>119.8</ele>
        <time>2024-08-18T07:00:56Z</time>
      </trkpt>
      <trkpt lat="46.53085" lon="0.32808">
        <ele>120.2</ele>
        <time>2024-08-18T07:01:00Z</time>
      </trkpt>
      <trkpt lat="46.53082" lon="0.3281">
        <ele>120.2</ele>
        <time>2024-08-18T07:01:01Z</time>
      </trkpt>
      <trkpt lat="46.53077" lon="0.32812">
        <ele>120.4</ele>
        <time>2024-08-18T07:01:02Z</time>
      </trkpt>
      <trkpt lat="46.53048" lon="0.32823">
        <ele>120.6</ele>
        <time>2024-08-18T07:01:08Z</time>
      </trkpt>
      <trkpt lat="46.53026" lon="0.32833">
        <ele>120.2</ele>
        <time>2024-08-18T07:01:12Z</time>
      </trkpt>
      <trkpt lat="46.53014" lon="0.32837">
        <ele>120.2</ele>
        <time>2024-08-18T07:01:14Z</time>
      </trkpt>
      <trkpt lat="46.5298" lon="0.3285">
        <ele>120.2</ele>
        <time>2024-08-18T07:01:20Z</time>
      </trkpt>
      <trkpt lat="46.5296" lon="0.32859">
        <ele>120</ele>
        <time>2024-08-18T07:01:24Z</time>
      </trkpt>
      <trkpt lat="46.52948" lon="0.32864">
        <ele>119.6</ele>
        <time>2024-08-18T07:01:26Z</time>
      </trkpt>
      <trkpt lat="46.52925" lon="0.32875">
        <ele>119.4</ele>
        <time>2024-08-18T07:01:30Z</time>
      </trkpt>
      <trkpt lat="46.5292" lon="0.32877">
        <ele>119.2</ele>
        <time>2024-08-18T07:01:31Z</time>
      </trkpt>
      <trkpt lat="46.52914" lon="0.32881">
        <ele>119.2</ele>
        <time>2024-08-18T07:01:32Z</time>
      </trkpt>
      <trkpt lat="46.52896" lon="0.3289">
        <ele>118</ele>
        <time>2024-08-18T07:01:35Z</time>
      </trkpt>
      <trkpt lat="46.52892" lon="0.32893">
        <ele>117.8</ele>
        <time>2024-08-18T07:01:36Z</time>
      </trkpt>
      <trkpt lat="46.52887" lon="0.32895">
        <ele>117.2</ele>
        <time>2024-08-18T07:01:37Z</time>
      </trkpt>
      <trkpt lat="46.5288" lon="0.32893">
        <ele>117</ele>
        <time>2024-08-18T07:01:39Z</time>
      </trkpt>
      <trkpt lat="46.52877" lon="0.32888">
        <ele>116.8</ele>
        <time>2024-08-18T07:01:41Z</time>
      </trkpt>
      <trkpt lat="46.52875" lon="0.32882">
        <ele>116.8</ele>
        <time>2024-08-18T07:01:43Z</time>
      </trkpt>
      <trkpt lat="46.5287" lon="0.32853">
        <ele>117.2</ele>
        <time>2024-08-18T07:01:49Z</time>
      </trkpt>
      <trkpt lat="46.52863" lon="0.32825">
        <ele>117.8</ele>
        <time>2024-08-18T07:01:53Z</time>
      </trkpt>
      <trkpt lat="46.52862" lon="0.32818">
        <ele>118</ele>
        <time>2024-08-18T07:01:54Z</time>
      </trkpt>
      <trkpt lat="46.5286" lon="0.32794">
        <ele>118.6</ele>
        <time>2024-08-18T07:01:58Z</time>
      </trkpt>
      <trkpt lat="46.52859" lon="0.32788">
        <ele>118.8</ele>
        <time>2024-08-18T07:01:59Z</time>
      </trkpt>
      <trkpt lat="46.52855" lon="0.32782">
        <ele>118.8</ele>
        <time>2024-08-18T07:02:00Z</time>
      </trkpt>
      <trkpt lat="46.52844" lon="0.32774">
        <ele>118.8</ele>
        <time>2024-08-18T07:02:02Z</time>
      </trkpt>
      <trkpt lat="46.52836" lon="0.32768">
        <ele>118.8</ele>
        <time>2024-08-18T07:02:04Z</time>
      </trkpt>
      <trkpt lat="46.52822" lon="0.32764">
        <ele>118.8</ele>
        <time>2024-08-18T07:02:07Z</time>
      </trkpt>
      <trkpt lat="46.52813" lon="0.32757">
        <ele>118.6</ele>
        <time>2024-08-18T07:02:09Z</time>
      </trkpt>
      <trkpt lat="46.52805" lon="0.3275">
        <ele>118.2</ele>
        <time>2024-08-18T07:02:11Z</time>
      </trkpt>
      <trkpt lat="46.52801" lon="0.32747">
        <ele>118.2</ele>
        <time>2024-08-18T07:02:12Z</time>
      </trkpt>
      <trkpt lat="46.52792" lon="0.32739">
        <ele>117.6</ele>
        <time>2024-08-18T07:02:14Z</time>
      </trkpt>
      <trkpt lat="46.52785" lon="0.32729">
        <ele>117.2</ele>
        <time>2024-08-18T07:02:16Z</time>
      </trkpt>
      <trkpt lat="46.52783" lon="0.32723">
        <ele>117</ele>
        <time>2024-08-18T07:02:17Z</time>
      </trkpt>
      <trkpt lat="46.52782" lon="0.32717">
        <ele>116.8</ele>
        <time>2024-08-18T07:02:18Z</time>
      </trkpt>
      <trkpt lat="46.52779" lon="0.32702">
        <ele>116.8</ele>
        <time>2024-08-18T07:02:20Z</time>
      </trkpt>
      <trkpt lat="46.52778" lon="0.32696">
        <ele>116.6</ele>
        <time>2024-08-18T07:02:21Z</time>
      </trkpt>
      <trkpt lat="46.52776" lon="0.32682">
        <ele>116.6</ele>
        <time>2024-08-18T07:02:23Z</time>
      </trkpt>
      <trkpt lat="46.52773" lon="0.32655">
        <ele>116.2</ele>
        <time>2024-08-18T07:02:27Z</time>
      </trkpt>
      <trkpt lat="46.52762" lon="0.32613">
        <ele>116.2</ele>
        <time>2024-08-18T07:02:33Z</time>
      </trkpt>
      <trkpt lat="46.52755" lon="0.3261">
        <ele>115.8</ele>
        <time>2024-08-18T07:02:35Z</time>
      </trkpt>
      <trkpt lat="46.52751" lon="0.32611">
        <ele>115.8</ele>
        <time>2024-08-18T07:02:36Z</time>
      </trkpt>
      <trkpt lat="46.52743" lon="0.3261">
        <ele>115.6</ele>
        <time>2024-08-18T07:02:38Z</time>
      </trkpt>
      <trkpt lat="46.52734" lon="0.32605">
        <ele>115.4</ele>
        <time>2024-08-18T07:02:40Z</time>
      </trkpt>
      <trkpt lat="46.5273" lon="0.32602">
        <ele>115.2</ele>
        <time>2024-08-18T07:02:41Z</time>
      </trkpt>
      <trkpt lat="46.52722" lon="0.32593">
        <ele>115</ele>
        <time>2024-08-18T07:02:43Z</time>
      </trkpt>
      <trkpt lat="46.52715" lon="0.32585">
        <ele>115</ele>
        <time>2024-08-18T07:02:45Z</time>
      </trkpt>
      <trkpt lat="46.5271" lon="0.32582">
        <ele>115</ele>
        <time>2024-08-18T07:02:46Z</time>
      </trkpt>
      <trkpt lat="46.52692" lon="0.32573">
        <ele>115.2</ele>
        <time>2024-08-18T07:02:49Z</time>
      </trkpt>
      <trkpt lat="46.52681" lon="0.3257">
        <ele>115</ele>
        <time>2024-08-18T07:02:51Z</time>
      </trkpt>
      <trkpt lat="46.52669" lon="0.32557">
        <ele>114.8</ele>
        <time>2024-08-18T07:02:54Z</time>
      </trkpt>
      <trkpt lat="46.52666" lon="0.32554">
        <ele>114.6</ele>
        <time>2024-08-18T07:02:55Z</time>
      </trkpt>
      <trkpt lat="46.52659" lon="0.32548">
        <ele>114.6</ele>
        <time>2024-08-18T07:02:57Z</time>
      </trkpt>
      <trkpt lat="46.52644" lon="0.3254">
        <ele>114.4</ele>
        <time>2024-08-18T07:02:59Z</time>
      </trkpt>
      <trkpt lat="46.52637" lon="0.32536">
        <ele>114.4</ele>
        <time>2024-08-18T07:03:00Z</time>
      </trkpt>
      <trkpt lat="46.52625" lon="0.32523">
        <ele>114</ele>
        <time>2024-08-18T07:03:03Z</time>
      </trkpt>
      <trkpt lat="46.52614" lon="0.3251">
        <ele>113.8</ele>
        <time>2024-08-18T07:03:06Z</time>
      </trkpt>
      <trkpt lat="46.52606" lon="0.325">
        <ele>113.6</ele>
        <time>2024-08-18T07:03:08Z</time>
      </trkpt>
      <trkpt lat="46.52603" lon="0.32496">
        <ele>113.6</ele>
        <time>2024-08-18T07:03:09Z</time>
      </trkpt>
      <trkpt lat="46.52591" lon="0.32471">
        <ele>113.8</ele>
        <time>2024-08-18T07:03:13Z</time>
      </trkpt>
      <trkpt lat="46.52577" lon="0.32445">
        <ele>114.2</ele>
        <time>2024-08-18T07:03:18Z</time>
      </trkpt>
      <trkpt lat="46.52572" lon="0.32438">
        <ele>114.4</ele>
        <time>2024-08-18T07:03:20Z</time>
      </trkpt>
      <trkpt lat="46.52564" lon="0.32429">
        <ele>114.8</ele>
        <time>2024-08-18T07:03:22Z</time>
      </trkpt>
      <trkpt lat="46.5256" lon="0.32423">
        <ele>114.8</ele>
        <time>2024-08-18T07:03:23Z</time>
      </trkpt>
      <trkpt lat="46.5255" lon="0.32411">
        <ele>115.2</ele>
        <time>2024-08-18T07:03:25Z</time>
      </trkpt>
      <trkpt lat="46.5254" lon="0.324">
        <ele>115.8</ele>
        <time>2024-08-18T07:03:28Z</time>
      </trkpt>
      <trkpt lat="46.52537" lon="0.32396">
        <ele>116</ele>
        <time>2024-08-18T07:03:29Z</time>
      </trkpt>
      <trkpt lat="46.52529" lon="0.3238">
        <ele>116.8</ele>
        <time>2024-08-18T07:03:33Z</time>
      </trkpt>
      <trkpt lat="46.52528" lon="0.32371">
        <ele>117.6</ele>
        <time>2024-08-18T07:03:35Z</time>
      </trkpt>
      <trkpt lat="46.52528" lon="0.32367">
        <ele>118</ele>
        <time>2024-08-18T07:03:36Z</time>
      </trkpt>
      <trkpt lat="46.52526" lon="0.32359">
        <ele>118.8</ele>
        <time>2024-08-18T07:03:38Z</time>
      </trkpt>
      <trkpt lat="46.52516" lon="0.32346">
        <ele>119.2</ele>
        <time>2024-08-18T07:03:40Z</time>
      </trkpt>
      <trkpt lat="46.52505" lon="0.32324">
        <ele>120.2</ele>
        <time>2024-08-18T07:03:45Z</time>
      </trkpt>
      <trkpt lat="46.52503" lon="0.32318">
        <ele>120.4</ele>
        <time>2024-08-18T07:03:46Z</time>
      </trkpt>
      <trkpt lat="46.52494" lon="0.32298">
        <ele>120.6</ele>
        <time>2024-08-18T07:03:50Z</time>
      </trkpt>
      <trkpt lat="46.52486" lon="0.32289">
        <ele>120.6</ele>
        <time>2024-08-18T07:03:52Z</time>
      </trkpt>
      <trkpt lat="46.52484" lon="0.32285">
        <ele>120.6</ele>
        <time>2024-08-18T07:03:53Z</time>
      </trkpt>
      <trkpt lat="46.52475" lon="0.32274">
        <ele>120.6</ele>
        <time>2024-08-18T07:03:55Z</time>
      </trkpt>
      <trkpt lat="46.52471" lon="0.32264">
        <ele>120.6</ele>
        <time>2024-08-18T07:03:57Z</time>
      </trkpt>
      <trkpt lat="46.52475" lon="0.32238">
        <ele>120.8</ele>
        <time>2024-08-18T07:04:02Z</time>
      </trkpt>
      <trkpt lat="46.52485" lon="0.32207">
        <ele>121</ele>
        <time>2024-08-18T07:04:08Z</time>
      </trkpt>
      <trkpt lat="46.52491" lon="0.32199">
        <ele>121.4</ele>
        <time>2024-08-18T07:04:10Z</time>
      </trkpt>
      <trkpt lat="46.52497" lon="0.32193">
        <ele>121.4</ele>
        <time>2024-08-18T07:04:12Z</time>
      </trkpt>
      <trkpt lat="46.52501" lon="0.32191">
        <ele>121.4</ele>
        <time>2024-08-18T07:04:13Z</time>
      </trkpt>
      <trkpt lat="46.52504" lon="0.32191">
        <ele>121.4</ele>
        <time>2024-08-18T07:04:14Z</time>
      </trkpt>
      <trkpt lat="46.52512" lon="0.32195">
        <ele>121.6</ele>
        <time>2024-08-18T07:04:16Z</time>
      </trkpt>
      <trkpt lat="46.52512" lon="0.32195">
        <ele>121.6</ele>
        <time>2024-08-18T07:04:17Z</time>
      </trkpt>
      <trkpt lat="46.52519" lon="0.32191">
        <ele>121.6</ele>
        <time>2024-08-18T07:04:18Z</time>
      </trkpt>
      <trkpt lat="46.52521" lon="0.32187">
        <ele>121.8</ele>
        <time>2024-08-18T07:04:19Z</time>
      </trkpt>
      <trkpt lat="46.52523" lon="0.32183">
        <ele>121.8</ele>
        <time>2024-08-18T07:04:20Z</time>
      </trkpt>
      <trkpt lat="46.52531" lon="0.32166">
        <ele>121.8</ele>
        <time>2024-08-18T07:04:24Z</time>
      </trkpt>
      <trkpt lat="46.52545" lon="0.32134">
        <ele>122.2</ele>
        <time>2024-08-18T07:04:32Z</time>
      </trkpt>
      <trkpt lat="46.52548" lon="0.32113">
        <ele>122</ele>
        <time>2024-08-18T07:04:36Z</time>
      </trkpt>
      <trkpt lat="46.52551" lon="0.32104">
        <ele>122</ele>
        <time>2024-08-18T07:04:38Z</time>
      </trkpt>
      <trkpt lat="46.52554" lon="0.32103">
        <ele>122</ele>
        <time>2024-08-18T07:04:39Z</time>
      </trkpt>
      <trkpt lat="46.52558" lon="0.32102">
        <ele>122</ele>
        <time>2024-08-18T07:04:40Z</time>
      </trkpt>
      <trkpt lat="46.52574" lon="0.32103">
        <ele>121.8</ele>
        <time>2024-08-18T07:04:44Z</time>
      </trkpt>
      <trkpt lat="46.52599" lon="0.32106">
        <ele>121</ele>
        <time>2024-08-18T07:04:50Z</time>
      </trkpt>
      <trkpt lat="46.52602" lon="0.32106">
        <ele>120.8</ele>
        <time>2024-08-18T07:04:51Z</time>
      </trkpt>
      <trkpt lat="46.52605" lon="0.32102">
        <ele>120.6</ele>
        <time>2024-08-18T07:04:53Z</time>
      </trkpt>
      <trkpt lat="46.52608" lon="0.3209">
        <ele>120.2</ele>
        <time>2024-08-18T07:04:57Z</time>
      </trkpt>
      <trkpt lat="46.52608" lon="0.32084">
        <ele>120.2</ele>
        <time>2024-08-18T07:04:58Z</time>
      </trkpt>
      <trkpt lat="46.5261" lon="0.32078">
        <ele>120.2</ele>
        <time>2024-08-18T07:04:59Z</time>
      </trkpt>
      <trkpt lat="46.52614" lon="0.32066">
        <ele>120.4</ele>
        <time>2024-08-18T07:05:01Z</time>
      </trkpt>
      <trkpt lat="46.52615" lon="0.3206">
        <ele>120.4</ele>
        <time>2024-08-18T07:05:02Z</time>
      </trkpt>
      <trkpt lat="46.52615" lon="0.32053">
        <ele>120.4</ele>
        <time>2024-08-18T07:05:03Z</time>
      </trkpt>
      <trkpt lat="46.52618" lon="0.32026">
        <ele>119.4</ele>
        <time>2024-08-18T07:05:07Z</time>
      </trkpt>
      <trkpt lat="46.52618" lon="0.32018">
        <ele>119.2</ele>
        <time>2024-08-18T07:05:08Z</time>
      </trkpt>
      <trkpt lat="46.52619" lon="0.3201">
        <ele>119</ele>
        <time>2024-08-18T07:05:09Z</time>
      </trkpt>
      <trkpt lat="46.52622" lon="0.31998">
        <ele>118.6</ele>
        <time>2024-08-18T07:05:11Z</time>
      </trkpt>
      <trkpt lat="46.52624" lon="0.31993">
        <ele>118</ele>
        <time>2024-08-18T07:05:12Z</time>
      </trkpt>
      <trkpt lat="46.52633" lon="0.31973">
        <ele>117.2</ele>
        <time>2024-08-18T07:05:15Z</time>
      </trkpt>
      <trkpt lat="46.52637" lon="0.31967">
        <ele>116.8</ele>
        <time>2024-08-18T07:05:16Z</time>
      </trkpt>
      <trkpt lat="46.52648" lon="0.31949">
        <ele>116</ele>
        <time>2024-08-18T07:05:19Z</time>
      </trkpt>
      <trkpt lat="46.52651" lon="0.31944">
        <ele>115.6</ele>
        <time>2024-08-18T07:05:20Z</time>
      </trkpt>
      <trkpt lat="46.52662" lon="0.31934">
        <ele>114.8</ele>
        <time>2024-08-18T07:05:22Z</time>
      </trkpt>
      <trkpt lat="46.52669" lon="0.31928">
        <ele>114</ele>
        <time>2024-08-18T07:05:23Z</time>
      </trkpt>
      <trkpt lat="46.5268" lon="0.31919">
        <ele>113.2</ele>
        <time>2024-08-18T07:05:25Z</time>
      </trkpt>
      <trkpt lat="46.52686" lon="0.31913">
        <ele>112.8</ele>
        <time>2024-08-18T07:05:26Z</time>
      </trkpt>
      <trkpt lat="46.52695" lon="0.31901">
        <ele>111.6</ele>
        <time>2024-08-18T07:05:28Z</time>
      </trkpt>
      <trkpt lat="46.52701" lon="0.31896">
        <ele>110.6</ele>
        <time>2024-08-18T07:05:29Z</time>
      </trkpt>
      <trkpt lat="46.52707" lon="0.3189">
        <ele>110</ele>
        <time>2024-08-18T07:05:30Z</time>
      </trkpt>
      <trkpt lat="46.52714" lon="0.31884">
        <ele>109.6</ele>
        <time>2024-08-18T07:05:31Z</time>
      </trkpt>
      <trkpt lat="46.5272" lon="0.31878">
        <ele>108.2</ele>
        <time>2024-08-18T07:05:32Z</time>
      </trkpt>
      <trkpt lat="46.52726" lon="0.31874">
        <ele>107.2</ele>
        <time>2024-08-18T07:05:33Z</time>
      </trkpt>
      <trkpt lat="46.52732" lon="0.3187">
        <ele>106.2</ele>
        <time>2024-08-18T07:05:34Z</time>
      </trkpt>
      <trkpt lat="46.52737" lon="0.31867">
        <ele>104.8</ele>
        <time>2024-08-18T07:05:35Z</time>
      </trkpt>
      <trkpt lat="46.5274" lon="0.31864">
        <ele>103.6</ele>
        <time>2024-08-18T07:05:36Z</time>
      </trkpt>
      <trkpt lat="46.52743" lon="0.3186">
        <ele>102.8</ele>
        <time>2024-08-18T07:05:37Z</time>
      </trkpt>
      <trkpt lat="46.52745" lon="0.31856">
        <ele>101.8</ele>
        <time>2024-08-18T07:05:38Z</time>
      </trkpt>
      <trkpt lat="46.52747" lon="0.31852">
        <ele>100.6</ele>
        <time>2024-08-18T07:05:39Z</time>
      </trkpt>
      <trkpt lat="46.5275" lon="0.31848">
        <ele>99.8</ele>
        <time>2024-08-18T07:05:40Z</time>
      </trkpt>
      <trkpt lat="46.52752" lon="0.31845">
        <ele>99</ele>
        <time>2024-08-18T07:05:41Z</time>
      </trkpt>
      <trkpt lat="46.52757" lon="0.31838">
        <ele>97.6</ele>
        <time>2024-08-18T07:05:43Z</time>
      </trkpt>
      <trkpt lat="46.52765" lon="0.31828">
        <ele>96.2</ele>
        <time>2024-08-18T07:05:45Z</time>
      </trkpt>
      <trkpt lat="46.52767" lon="0.31822">
        <ele>95.6</ele>
        <time>2024-08-18T07:05:46Z</time>
      </trkpt>
      <trkpt lat="46.52768" lon="0.31813">
        <ele>95</ele>
        <time>2024-08-18T07:05:48Z</time>
      </trkpt>
      <trkpt lat="46.52771" lon="0.31809">
        <ele>94.8</ele>
        <time>2024-08-18T07:05:49Z</time>
      </trkpt>
      <trkpt lat="46.52776" lon="0.31805">
        <ele>94.8</ele>
        <time>2024-08-18T07:05:50Z</time>
      </trkpt>
      <trkpt lat="46.52778" lon="0.31795">
        <ele>95</ele>
        <time>2024-08-18T07:05:53Z</time>
      </trkpt>
      <trkpt lat="46.52778" lon="0.31787">
        <ele>96.4</ele>
        <time>2024-08-18T07:05:56Z</time>
      </trkpt>
      <trkpt lat="46.52774" lon="0.31782">
        <ele>97</ele>
        <time>2024-08-18T07:05:58Z</time>
      </trkpt>
      <trkpt lat="46.52768" lon="0.31772">
        <ele>97.4</ele>
        <time>2024-08-18T07:06:01Z</time>
      </trkpt>
      <trkpt lat="46.52766" lon="0.31759">
        <ele>98.6</ele>
        <time>2024-08-18T07:06:05Z</time>
      </trkpt>
      <trkpt lat="46.52766" lon="0.31756">
        <ele>98.8</ele>
        <time>2024-08-18T07:06:06Z</time>
      </trkpt>
      <trkpt lat="46.52763" lon="0.31751">
        <ele>99.6</ele>
        <time>2024-08-18T07:06:08Z</time>
      </trkpt>
      <trkpt lat="46.52763" lon="0.31745">
        <ele>100.2</ele>
        <time>2024-08-18T07:06:10Z</time>
      </trkpt>
      <trkpt lat="46.52763" lon="0.31743">
        <ele>100.4</ele>
        <time>2024-08-18T07:06:11Z</time>
      </trkpt>
      <trkpt lat="46.52764" lon="0.3174">
        <ele>100.8</ele>
        <time>2024-08-18T07:06:12Z</time>
      </trkpt>
      <trkpt lat="46.52764" lon="0.31734">
        <ele>101.8</ele>
        <time>2024-08-18T07:06:15Z</time>
      </trkpt>
      <trkpt lat="46.52762" lon="0.31723">
        <ele>102.6</ele>
        <time>2024-08-18T07:06:19Z</time>
      </trkpt>
      <trkpt lat="46.52762" lon="0.31721">
        <ele>102.8</ele>
        <time>2024-08-18T07:06:20Z</time>
      </trkpt>
      <trkpt lat="46.52763" lon="0.31714">
        <ele>104.2</ele>
        <time>2024-08-18T07:06:23Z</time>
      </trkpt>
      <trkpt lat="46.52764" lon="0.31707">
        <ele>104.8</ele>
        <time>2024-08-18T07:06:26Z</time>
      </trkpt>
      <trkpt lat="46.52763" lon="0.317">
        <ele>105</ele>
        <time>2024-08-18T07:06:28Z</time>
      </trkpt>
      <trkpt lat="46.52765" lon="0.31697">
        <ele>105.6</ele>
        <time>2024-08-18T07:06:30Z</time>
      </trkpt>
      <trkpt lat="46.52764" lon="0.3169">
        <ele>106.2</ele>
        <time>2024-08-18T07:06:32Z</time>
      </trkpt>
      <trkpt lat="46.52762" lon="0.31682">
        <ele>106.6</ele>
        <time>2024-08-18T07:06:35Z</time>
      </trkpt>
      <trkpt lat="46.52763" lon="0.31676">
        <ele>107.8</ele>
        <time>2024-08-18T07:06:38Z</time>
      </trkpt>
      <trkpt lat="46.52763" lon="0.31672">
        <ele>108.2</ele>
        <time>2024-08-18T07:06:40Z</time>
      </trkpt>
      <trkpt lat="46.52766" lon="0.31665">
        <ele>108.8</ele>
        <time>2024-08-18T07:06:43Z</time>
      </trkpt>
      <trkpt lat="46.52771" lon="0.31658">
        <ele>109.4</ele>
        <time>2024-08-18T07:06:46Z</time>
      </trkpt>
      <trkpt lat="46.52772" lon="0.31652">
        <ele>110</ele>
        <time>2024-08-18T07:06:49Z</time>
      </trkpt>
      <trkpt lat="46.52775" lon="0.31642">
        <ele>110.8</ele>
        <time>2024-08-18T07:06:53Z</time>
      </trkpt>
      <trkpt lat="46.52776" lon="0.3164">
        <ele>111</ele>
        <time>2024-08-18T07:06:54Z</time>
      </trkpt>
      <trkpt lat="46.52783" lon="0.31626">
        <ele>112</ele>
        <time>2024-08-18T07:06:59Z</time>
      </trkpt>
      <trkpt lat="46.52784" lon="0.31624">
        <ele>112.2</ele>
        <time>2024-08-18T07:07:00Z</time>
      </trkpt>
      <trkpt lat="46.52788" lon="0.31607">
        <ele>113.2</ele>
        <time>2024-08-18T07:07:07Z</time>
      </trkpt>
      <trkpt lat="46.52788" lon="0.31586">
        <ele>114</ele>
        <time>2024-08-18T07:07:13Z</time>
      </trkpt>
      <trkpt lat="46.5279" lon="0.3158">
        <ele>114.2</ele>
        <time>2024-08-18T07:07:15Z</time>
      </trkpt>
      <trkpt lat="46.52791" lon="0.31567">
        <ele>115.2</ele>
        <time>2024-08-18T07:07:21Z</time>
      </trkpt>
      <trkpt lat="46.52789" lon="0.31563">
        <ele>115.4</ele>
        <time>2024-08-18T07:07:23Z</time>
      </trkpt>
      <trkpt lat="46.52788" lon="0.31555">
        <ele>115.6</ele>
        <time>2024-08-18T07:07:27Z</time>
      </trkpt>
      <trkpt lat="46.52785" lon="0.31547">
        <ele>116</ele>
        <time>2024-08-18T07:07:31Z</time>
      </trkpt>
      <trkpt lat="46.52781" lon="0.31537">
        <ele>116.4</ele>
        <time>2024-08-18T07:07:36Z</time>
      </trkpt>
      <trkpt lat="46.52781" lon="0.31534">
        <ele>116.6</ele>
        <time>2024-08-18T07:07:37Z</time>
      </trkpt>
      <trkpt lat="46.52779" lon="0.31526">
        <ele>117.2</ele>
        <time>2024-08-18T07:07:40Z</time>
      </trkpt>
      <trkpt lat="46.52778" lon="0.31523">
        <ele>117.4</ele>
        <time>2024-08-18T07:07:41Z</time>
      </trkpt>
      <trkpt lat="46.52775" lon="0.31518">
        <ele>117.8</ele>
        <time>2024-08-18T07:07:43Z</time>
      </trkpt>
      <trkpt lat="46.52764" lon="0.31496">
        <ele>118.4</ele>
        <time>2024-08-18T07:07:50Z</time>
      </trkpt>
      <trkpt lat="46.52755" lon="0.31477">
        <ele>119.6</ele>
        <time>2024-08-18T07:07:57Z</time>
      </trkpt>
      <trkpt lat="46.52753" lon="0.31473">
        <ele>119.8</ele>
        <time>2024-08-18T07:07:58Z</time>
      </trkpt>
      <trkpt lat="46.5275" lon="0.31464">
        <ele>120.2</ele>
        <time>2024-08-18T07:08:01Z</time>
      </trkpt>
      <trkpt lat="46.52747" lon="0.3145">
        <ele>120.8</ele>
        <time>2024-08-18T07:08:04Z</time>
      </trkpt>
      <trkpt lat="46.52753" lon="0.31424">
        <ele>121.4</ele>
        <time>2024-08-18T07:08:11Z</time>
      </trkpt>
      <trkpt lat="46.5276" lon="0.31412">
        <ele>121.6</ele>
        <time>2024-08-18T07:08:16Z</time>
      </trkpt>
      <trkpt lat="46.52764" lon="0.31408">
        <ele>121.4</ele>
        <time>2024-08-18T07:08:18Z</time>
      </trkpt>
      <trkpt lat="46.52775" lon="0.31402">
        <ele>121</ele>
        <time>2024-08-18T07:08:22Z</time>
      </trkpt>
      <trkpt lat="46.52777" lon="0.314">
        <ele>120.8</ele>
        <time>2024-08-18T07:08:23Z</time>
      </trkpt>
      <trkpt lat="46.52781" lon="0.31393">
        <ele>120.8</ele>
        <time>2024-08-18T07:08:25Z</time>
      </trkpt>
      <trkpt lat="46.52782" lon="0.31389">
        <ele>120.8</ele>
        <time>2024-08-18T07:08:26Z</time>
      </trkpt>
      <trkpt lat="46.52783" lon="0.31384">
        <ele>120.8</ele>
        <time>2024-08-18T07:08:27Z</time>
      </trkpt>
      <trkpt lat="46.52786" lon="0.31369">
        <ele>120.8</ele>
        <time>2024-08-18T07:08:30Z</time>
      </trkpt>
      <trkpt lat="46.5279" lon="0.31355">
        <ele>121</ele>
        <time>2024-08-18T07:08:33Z</time>
      </trkpt>
      <trkpt lat="46.52789" lon="0.31344">
        <ele>121.2</ele>
        <time>2024-08-18T07:08:35Z</time>
      </trkpt>
      <trkpt lat="46.52788" lon="0.31337">
        <ele>121.2</ele>
        <time>2024-08-18T07:08:36Z</time>
      </trkpt>
      <trkpt lat="46.5279" lon="0.31311">
        <ele>120.6</ele>
        <time>2024-08-18T07:08:40Z</time>
      </trkpt>
      <trkpt lat="46.52792" lon="0.31306">
        <ele>120.4</ele>
        <time>2024-08-18T07:08:41Z</time>
      </trkpt>
      <trkpt lat="46.52792" lon="0.313">
        <ele>120.2</ele>
        <time>2024-08-18T07:08:42Z</time>
      </trkpt>
      <trkpt lat="46.52794" lon="0.31291">
        <ele>119.6</ele>
        <time>2024-08-18T07:08:44Z</time>
      </trkpt>
      <trkpt lat="46.52793" lon="0.31285">
        <ele>119.4</ele>
        <time>2024-08-18T07:08:45Z</time>
      </trkpt>
      <trkpt lat="46.52792" lon="0.31271">
        <ele>119</ele>
        <time>2024-08-18T07:08:47Z</time>
      </trkpt>
      <trkpt lat="46.52796" lon="0.31256">
        <ele>118.2</ele>
        <time>2024-08-18T07:08:49Z</time>
      </trkpt>
      <trkpt lat="46.52797" lon="0.31243">
        <ele>117.6</ele>
        <time>2024-08-18T07:08:51Z</time>
      </trkpt>
      <trkpt lat="46.52794" lon="0.3123">
        <ele>117</ele>
        <time>2024-08-18T07:08:53Z</time>
      </trkpt>
      <trkpt lat="46.5279" lon="0.31212">
        <ele>116.4</ele>
        <time>2024-08-18T07:08:56Z</time>
      </trkpt>
      <trkpt lat="46.52787" lon="0.31203">
        <ele>116.2</ele>
        <time>2024-08-18T07:08:58Z</time>
      </trkpt>
      <trkpt lat="46.52782" lon="0.31191">
        <ele>116</ele>
        <time>2024-08-18T07:09:00Z</time>
      </trkpt>
      <trkpt lat="46.52778" lon="0.31184">
        <ele>116</ele>
        <time>2024-08-18T07:09:01Z</time>
      </trkpt>
      <trkpt lat="46.52775" lon="0.31179">
        <ele>115.6</ele>
        <time>2024-08-18T07:09:02Z</time>
      </trkpt>
      <trkpt lat="46.52773" lon="0.31166">
        <ele>114.6</ele>
        <time>2024-08-18T07:09:05Z</time>
      </trkpt>
      <trkpt lat="46.52773" lon="0.31155">
        <ele>113.6</ele>
        <time>2024-08-18T07:09:08Z</time>
      </trkpt>
      <trkpt lat="46.52774" lon="0.31151">
        <ele>113.4</ele>
        <time>2024-08-18T07:09:09Z</time>
      </trkpt>
      <trkpt lat="46.52774" lon="0.31134">
        <ele>112.2</ele>
        <time>2024-08-18T07:09:13Z</time>
      </trkpt>
      <trkpt lat="46.52773" lon="0.3113">
        <ele>112</ele>
        <time>2024-08-18T07:09:14Z</time>
      </trkpt>
      <trkpt lat="46.52775" lon="0.31106">
        <ele>111</ele>
        <time>2024-08-18T07:09:18Z</time>
      </trkpt>
      <trkpt lat="46.52777" lon="0.31093">
        <ele>110.6</ele>
        <time>2024-08-18T07:09:20Z</time>
      </trkpt>
      <trkpt lat="46.52773" lon="0.31079">
        <ele>110</ele>
        <time>2024-08-18T07:09:22Z</time>
      </trkpt>
      <trkpt lat="46.52772" lon="0.31074">
        <ele>109.6</ele>
        <time>2024-08-18T07:09:23Z</time>
      </trkpt>
      <trkpt lat="46.5277" lon="0.31064">
        <ele>109.2</ele>
        <time>2024-08-18T07:09:25Z</time>
      </trkpt>
      <trkpt lat="46.52767" lon="0.3105">
        <ele>109</ele>
        <time>2024-08-18T07:09:28Z</time>
      </trkpt>
      <trkpt lat="46.52768" lon="0.31046">
        <ele>109.2</ele>
        <time>2024-08-18T07:09:29Z</time>
      </trkpt>
      <trkpt lat="46.52766" lon="0.31036">
        <ele>109</ele>
        <time>2024-08-18T07:09:31Z</time>
      </trkpt>
      <trkpt lat="46.52767" lon="0.31025">
        <ele>109.2</ele>
        <time>2024-08-18T07:09:33Z</time>
      </trkpt>
      <trkpt lat="46.52767" lon="0.31007">
        <ele>109.2</ele>
        <time>2024-08-18T07:09:36Z</time>
      </trkpt>
      <trkpt lat="46.52767" lon="0.30959">
        <ele>110</ele>
        <time>2024-08-18T07:09:44Z</time>
      </trkpt>
      <trkpt lat="46.52766" lon="0.30923">
        <ele>110.4</ele>
        <time>2024-08-18T07:09:50Z</time>
      </trkpt>
      <trkpt lat="46.52762" lon="0.30911">
        <ele>111</ele>
        <time>2024-08-18T07:09:52Z</time>
      </trkpt>
      <trkpt lat="46.52749" lon="0.30886">
        <ele>112.2</ele>
        <time>2024-08-18T07:09:55Z</time>
      </trkpt>
      <trkpt lat="46.52741" lon="0.30871">
        <ele>113.2</ele>
        <time>2024-08-18T07:09:58Z</time>
      </trkpt>
      <trkpt lat="46.52736" lon="0.30858">
        <ele>113.6</ele>
        <time>2024-08-18T07:10:01Z</time>
      </trkpt>
      <trkpt lat="46.52725" lon="0.30838">
        <ele>114.4</ele>
        <time>2024-08-18T07:10:07Z</time>
      </trkpt>
      <trkpt lat="46.52711" lon="0.30824">
        <ele>115.4</ele>
        <time>2024-08-18T07:10:12Z</time>
      </trkpt>
      <trkpt lat="46.52708" lon="0.30822">
        <ele>115.6</ele>
        <time>2024-08-18T07:10:13Z</time>
      </trkpt>
      <trkpt lat="46.52704" lon="0.30817">
        <ele>116.8</ele>
        <time>2024-08-18T07:10:16Z</time>
      </trkpt>
      <trkpt lat="46.52699" lon="0.30809">
        <ele>117.6</ele>
        <time>2024-08-18T07:10:21Z</time>
      </trkpt>
      <trkpt lat="46.52697" lon="0.30806">
        <ele>117.8</ele>
        <time>2024-08-18T07:10:22Z</time>
      </trkpt>
      <trkpt lat="46.52688" lon="0.30796">
        <ele>119</ele>
        <time>2024-08-18T07:10:26Z</time>
      </trkpt>
      <trkpt lat="46.52686" lon="0.30794">
        <ele>119.2</ele>
        <time>2024-08-18T07:10:27Z</time>
      </trkpt>
      <trkpt lat="46.52679" lon="0.30785">
        <ele>120</ele>
        <time>2024-08-18T07:10:32Z</time>
      </trkpt>
      <trkpt lat="46.52677" lon="0.30783">
        <ele>120.2</ele>
        <time>2024-08-18T07:10:33Z</time>
      </trkpt>
      <trkpt lat="46.52673" lon="0.30779">
        <ele>120.8</ele>
        <time>2024-08-18T07:10:36Z</time>
      </trkpt>
      <trkpt lat="46.52671" lon="0.30777">
        <ele>120.8</ele>
        <time>2024-08-18T07:10:37Z</time>
      </trkpt>
      <trkpt lat="46.5267" lon="0.30772">
        <ele>121</ele>
        <time>2024-08-18T07:10:39Z</time>
      </trkpt>
      <trkpt lat="46.5267" lon="0.3077">
        <ele>121.2</ele>
        <time>2024-08-18T07:10:40Z</time>
      </trkpt>
      <trkpt lat="46.52668" lon="0.3075">
        <ele>121.4</ele>
        <time>2024-08-18T07:10:46Z</time>
      </trkpt>
      <trkpt lat="46.52666" lon="0.30739">
        <ele>121</ele>
        <time>2024-08-18T07:10:49Z</time>
      </trkpt>
      <trkpt lat="46.52667" lon="0.30736">
        <ele>121</ele>
        <time>2024-08-18T07:10:51Z</time>
      </trkpt>
      <trkpt lat="46.52672" lon="0.30736">
        <ele>120.2</ele>
        <time>2024-08-18T07:10:54Z</time>
      </trkpt>
      <trkpt lat="46.52675" lon="0.30738">
        <ele>119.8</ele>
        <time>2024-08-18T07:10:55Z</time>
      </trkpt>
      <trkpt lat="46.52683" lon="0.30742">
        <ele>118.8</ele>
        <time>2024-08-18T07:10:57Z</time>
      </trkpt>
      <trkpt lat="46.52687" lon="0.30743">
        <ele>118.2</ele>
        <time>2024-08-18T07:10:58Z</time>
      </trkpt>
      <trkpt lat="46.5269" lon="0.30744">
        <ele>117.8</ele>
        <time>2024-08-18T07:10:59Z</time>
      </trkpt>
      <trkpt lat="46.52693" lon="0.30745">
        <ele>117.2</ele>
        <time>2024-08-18T07:11:00Z</time>
      </trkpt>
      <trkpt lat="46.52698" lon="0.30748">
        <ele>116.2</ele>
        <time>2024-08-18T07:11:02Z</time>
      </trkpt>
      <trkpt lat="46.527" lon="0.30748">
        <ele>115</ele>
        <time>2024-08-18T07:11:04Z</time>
      </trkpt>
      <trkpt lat="46.52705" lon="0.3075">
        <ele>113.6</ele>
        <time>2024-08-18T07:11:07Z</time>
      </trkpt>
      <trkpt lat="46.52709" lon="0.30755">
        <ele>112.6</ele>
        <time>2024-08-18T07:11:11Z</time>
      </trkpt>
      <trkpt lat="46.52709" lon="0.30755">
        <ele>112.6</ele>
        <time>2024-08-18T07:11:12Z</time>
      </trkpt>
      <trkpt lat="46.52709" lon="0.30759">
        <ele>112</ele>
        <time>2024-08-18T07:11:26Z</time>
      </trkpt>
      <trkpt lat="46.52708" lon="0.30759">
        <ele>112</ele>
        <time>2024-08-18T07:11:41Z</time>
      </trkpt>
      <trkpt lat="46.52712" lon="0.30757">
        <ele>111.8</ele>
        <time>2024-08-18T07:11:55Z</time>
      </trkpt>
      <trkpt lat="46.52713" lon="0.30755">
        <ele>111.8</ele>
        <time>2024-08-18T07:11:59Z</time>
      </trkpt>
      <trkpt lat="46.52712" lon="0.30755">
        <ele>111.6</ele>
        <time>2024-08-18T07:12:03Z</time>
      </trkpt>
      <trkpt lat="46.52712" lon="0.30755">
        <ele>111</ele>
        <time>2024-08-18T07:12:05Z</time>
      </trkpt>
      <trkpt lat="46.52713" lon="0.30757">
        <ele>110.8</ele>
        <time>2024-08-18T07:12:20Z</time>
      </trkpt>
      <trkpt lat="46.52714" lon="0.30758">
        <ele>111</ele>
        <time>2024-08-18T07:12:37Z</time>
      </trkpt>
      <trkpt lat="46.52714" lon="0.30757">
        <ele>110.8</ele>
        <time>2024-08-18T07:12:56Z</time>
      </trkpt>
      <trkpt lat="46.52713" lon="0.30759">
        <ele>110.8</ele>
        <time>2024-08-18T07:13:15Z</time>
      </trkpt>
      <trkpt lat="46.52712" lon="0.3076">
        <ele>110.6</ele>
        <time>2024-08-18T07:13:28Z</time>
      </trkpt>
      <trkpt lat="46.52712" lon="0.30763">
        <ele>110.6</ele>
        <time>2024-08-18T07:13:30Z</time>
      </trkpt>
      <trkpt lat="46.52715" lon="0.30769">
        <ele>110.4</ele>
        <time>2024-08-18T07:13:33Z</time>
      </trkpt>
      <trkpt lat="46.52719" lon="0.30776">
        <ele>110</ele>
        <time>2024-08-18T07:13:35Z</time>
      </trkpt>
      <trkpt lat="46.52727" lon="0.3079">
        <ele>109</ele>
        <time>2024-08-18T07:13:38Z</time>
      </trkpt>
      <trkpt lat="46.52731" lon="0.30796">
        <ele>107.8</ele>
        <time>2024-08-18T07:13:40Z</time>
      </trkpt>
      <trkpt lat="46.52733" lon="0.30799">
        <ele>106.6</ele>
        <time>2024-08-18T07:13:41Z</time>
      </trkpt>
      <trkpt lat="46.52735" lon="0.30803">
        <ele>105.2</ele>
        <time>2024-08-18T07:13:42Z</time>
      </trkpt>
      <trkpt lat="46.52736" lon="0.30808">
        <ele>104.6</ele>
        <time>2024-08-18T07:13:43Z</time>
      </trkpt>
      <trkpt lat="46.52737" lon="0.30813">
        <ele>104.2</ele>
        <time>2024-08-18T07:13:44Z</time>
      </trkpt>
      <trkpt lat="46.52741" lon="0.30825">
        <ele>102.8</ele>
        <time>2024-08-18T07:13:46Z</time>
      </trkpt>
      <trkpt lat="46.52746" lon="0.30841">
        <ele>101.4</ele>
        <time>2024-08-18T07:13:48Z</time>
      </trkpt>
      <trkpt lat="46.52752" lon="0.30856">
        <ele>101</ele>
        <time>2024-08-18T07:13:50Z</time>
      </trkpt>
      <trkpt lat="46.52755" lon="0.30862">
        <ele>100.8</ele>
        <time>2024-08-18T07:13:51Z</time>
      </trkpt>
      <trkpt lat="46.52762" lon="0.30876">
        <ele>99.6</ele>
        <time>2024-08-18T07:13:53Z</time>
      </trkpt>
      <trkpt lat="46.52765" lon="0.30883">
        <ele>98</ele>
        <time>2024-08-18T07:13:54Z</time>
      </trkpt>
      <trkpt lat="46.52768" lon="0.30888">
        <ele>97</ele>
        <time>2024-08-18T07:13:55Z</time>
      </trkpt>
      <trkpt lat="46.5277" lon="0.30893">
        <ele>96.4</ele>
        <time>2024-08-18T07:13:56Z</time>
      </trkpt>
      <trkpt lat="46.52772" lon="0.309">
        <ele>95.8</ele>
        <time>2024-08-18T07:13:57Z</time>
      </trkpt>
      <trkpt lat="46.52776" lon="0.30912">
        <ele>94.6</ele>
        <time>2024-08-18T07:13:59Z</time>
      </trkpt>
      <trkpt lat="46.52777" lon="0.30918">
        <ele>93.2</ele>
        <time>2024-08-18T07:14:00Z</time>
      </trkpt>
      <trkpt lat="46.52779" lon="0.30925">
        <ele>92.4</ele>
        <time>2024-08-18T07:14:01Z</time>
      </trkpt>
      <trkpt lat="46.52781" lon="0.30932">
        <ele>92</ele>
        <time>2024-08-18T07:14:02Z</time>
      </trkpt>
      <trkpt lat="46.52786" lon="0.30945">
        <ele>90.4</ele>
        <time>2024-08-18T07:14:04Z</time>
      </trkpt>
      <trkpt lat="46.52789" lon="0.3095">
        <ele>90</ele>
        <time>2024-08-18T07:14:05Z</time>
      </trkpt>
      <trkpt lat="46.52789" lon="0.3095">
        <ele>88.6</ele>
        <time>2024-08-18T07:14:06Z</time>
      </trkpt>
      <trkpt lat="46.52795" lon="0.30958">
        <ele>88.6</ele>
        <time>2024-08-18T07:14:07Z</time>
      </trkpt>
      <trkpt lat="46.52797" lon="0.30962">
        <ele>88</ele>
        <time>2024-08-18T07:14:08Z</time>
      </trkpt>
      <trkpt lat="46.528" lon="0.30972">
        <ele>86.8</ele>
        <time>2024-08-18T07:14:10Z</time>
      </trkpt>
      <trkpt lat="46.52803" lon="0.30978">
        <ele>86.4</ele>
        <time>2024-08-18T07:14:11Z</time>
      </trkpt>
      <trkpt lat="46.52807" lon="0.30984">
        <ele>85.8</ele>
        <time>2024-08-18T07:14:12Z</time>
      </trkpt>
      <trkpt lat="46.52812" lon="0.30996">
        <ele>84.4</ele>
        <time>2024-08-18T07:14:14Z</time>
      </trkpt>
      <trkpt lat="46.52818" lon="0.31009">
        <ele>83.4</ele>
        <time>2024-08-18T07:14:16Z</time>
      </trkpt>
      <trkpt lat="46.52825" lon="0.31022">
        <ele>82.2</ele>
        <time>2024-08-18T07:14:18Z</time>
      </trkpt>
      <trkpt lat="46.52827" lon="0.31029">
        <ele>82</ele>
        <time>2024-08-18T07:14:19Z</time>
      </trkpt>
      <trkpt lat="46.52832" lon="0.31044">
        <ele>81.4</ele>
        <time>2024-08-18T07:14:21Z</time>
      </trkpt>
      <trkpt lat="46.52835" lon="0.31052">
        <ele>81.2</ele>
        <time>2024-08-18T07:14:22Z</time>
      </trkpt>
      <trkpt lat="46.52847" lon="0.31089">
        <ele>79.8</ele>
        <time>2024-08-18T07:14:27Z</time>
      </trkpt>
      <trkpt lat="46.52852" lon="0.31109">
        <ele>80</ele>
        <time>2024-08-18T07:14:30Z</time>
      </trkpt>
      <trkpt lat="46.52858" lon="0.31121">
        <ele>80.2</ele>
        <time>2024-08-18T07:14:32Z</time>
      </trkpt>
      <trkpt lat="46.5288" lon="0.31159">
        <ele>80</ele>
        <time>2024-08-18T07:14:37Z</time>
      </trkpt>
      <trkpt lat="46.52891" lon="0.31176">
        <ele>79.6</ele>
        <time>2024-08-18T07:14:40Z</time>
      </trkpt>
      <trkpt lat="46.52893" lon="0.31179">
        <ele>79.4</ele>
        <time>2024-08-18T07:14:41Z</time>
      </trkpt>
      <trkpt lat="46.52895" lon="0.31185">
        <ele>78.8</ele>
        <time>2024-08-18T07:14:44Z</time>
      </trkpt>
      <trkpt lat="46.52895" lon="0.31186">
        <ele>78.6</ele>
        <time>2024-08-18T07:14:45Z</time>
      </trkpt>
      <trkpt lat="46.52898" lon="0.31203">
        <ele>78.4</ele>
        <time>2024-08-18T07:14:57Z</time>
      </trkpt>
      <trkpt lat="46.52899" lon="0.31212">
        <ele>78.4</ele>
        <time>2024-08-18T07:15:07Z</time>
      </trkpt>
      <trkpt lat="46.52896" lon="0.31219">
        <ele>78.2</ele>
        <time>2024-08-18T07:15:18Z</time>
      </trkpt>
      <trkpt lat="46.52896" lon="0.31223">
        <ele>78.4</ele>
        <time>2024-08-18T07:15:24Z</time>
      </trkpt>
      <trkpt lat="46.52897" lon="0.31225">
        <ele>78.4</ele>
        <time>2024-08-18T07:15:26Z</time>
      </trkpt>
      <trkpt lat="46.52898" lon="0.31225">
        <ele>78.4</ele>
        <time>2024-08-18T07:15:28Z</time>
      </trkpt>
      <trkpt lat="46.52898" lon="0.31222">
        <ele>78.2</ele>
        <time>2024-08-18T07:15:30Z</time>
      </trkpt>
      <trkpt lat="46.52898" lon="0.31222">
        <ele>78.2</ele>
        <time>2024-08-18T07:15:32Z</time>
      </trkpt>
      <trkpt lat="46.52896" lon="0.31222">
        <ele>78.2</ele>
        <time>2024-08-18T07:15:35Z</time>
      </trkpt>
      <trkpt lat="46.52896" lon="0.31222">
        <ele>78.4</ele>
        <time>2024-08-18T07:15:36Z</time>
      </trkpt>
      <trkpt lat="46.52895" lon="0.31225">
        <ele>79.4</ele>
        <time>2024-08-18T07:15:39Z</time>
      </trkpt>
      <trkpt lat="46.52896" lon="0.31228">
        <ele>80</ele>
        <time>2024-08-18T07:15:41Z</time>
      </trkpt>
      <trkpt lat="46.52897" lon="0.31231">
        <ele>81.2</ele>
        <time>2024-08-18T07:15:44Z</time>
      </trkpt>
      <trkpt lat="46.52898" lon="0.31232">
        <ele>81.6</ele>
        <time>2024-08-18T07:15:45Z</time>
      </trkpt>
      <trkpt lat="46.52901" lon="0.31235">
        <ele>82</ele>
        <time>2024-08-18T07:15:49Z</time>
      </trkpt>
      <trkpt lat="46.52901" lon="0.31236">
        <ele>82.2</ele>
        <time>2024-08-18T07:15:50Z</time>
      </trkpt>
      <trkpt lat="46.52905" lon="0.31244">
        <ele>83.2</ele>
        <time>2024-08-18T07:15:58Z</time>
      </trkpt>
      <trkpt lat="46.52906" lon="0.31248">
        <ele>84.4</ele>
        <time>2024-08-18T07:16:02Z</time>
      </trkpt>
      <trkpt lat="46.52907" lon="0.3125">
        <ele>85.6</ele>
        <time>2024-08-18T07:16:04Z</time>
      </trkpt>
      <trkpt lat="46.52911" lon="0.31259">
        <ele>86.6</ele>
        <time>2024-08-18T07:16:10Z</time>
      </trkpt>
      <trkpt lat="46.52913" lon="0.31265">
        <ele>87.4</ele>
        <time>2024-08-18T07:16:13Z</time>
      </trkpt>
      <trkpt lat="46.52914" lon="0.31266">
        <ele>88.2</ele>
        <time>2024-08-18T07:16:14Z</time>
      </trkpt>
      <trkpt lat="46.52915" lon="0.31272">
        <ele>89.2</ele>
        <time>2024-08-18T07:16:18Z</time>
      </trkpt>
      <trkpt lat="46.52915" lon="0.31275">
        <ele>89.8</ele>
        <time>2024-08-18T07:16:20Z</time>
      </trkpt>
      <trkpt lat="46.52917" lon="0.31279">
        <ele>90.4</ele>
        <time>2024-08-18T07:16:23Z</time>
      </trkpt>
      <trkpt lat="46.52919" lon="0.31285">
        <ele>91.6</ele>
        <time>2024-08-18T07:16:27Z</time>
      </trkpt>
      <trkpt lat="46.5292" lon="0.31288">
        <ele>91.8</ele>
        <time>2024-08-18T07:16:29Z</time>
      </trkpt>
      <trkpt lat="46.52922" lon="0.31294">
        <ele>92.8</ele>
        <time>2024-08-18T07:16:33Z</time>
      </trkpt>
      <trkpt lat="46.52923" lon="0.31301">
        <ele>93.8</ele>
        <time>2024-08-18T07:16:38Z</time>
      </trkpt>
      <trkpt lat="46.52923" lon="0.31302">
        <ele>94</ele>
        <time>2024-08-18T07:16:39Z</time>
      </trkpt>
      <trkpt lat="46.52925" lon="0.31309">
        <ele>95.2</ele>
        <time>2024-08-18T07:16:43Z</time>
      </trkpt>
      <trkpt lat="46.52926" lon="0.31312">
        <ele>95.8</ele>
        <time>2024-08-18T07:16:45Z</time>
      </trkpt>
      <trkpt lat="46.52926" lon="0.31313">
        <ele>96</ele>
        <time>2024-08-18T07:16:46Z</time>
      </trkpt>
      <trkpt lat="46.52927" lon="0.3132">
        <ele>96.4</ele>
        <time>2024-08-18T07:16:49Z</time>
      </trkpt>
      <trkpt lat="46.52928" lon="0.31323">
        <ele>97</ele>
        <time>2024-08-18T07:16:51Z</time>
      </trkpt>
      <trkpt lat="46.52929" lon="0.31326">
        <ele>97.4</ele>
        <time>2024-08-18T07:16:53Z</time>
      </trkpt>
      <trkpt lat="46.52929" lon="0.31327">
        <ele>97.6</ele>
        <time>2024-08-18T07:16:54Z</time>
      </trkpt>
      <trkpt lat="46.52931" lon="0.31337">
        <ele>98.2</ele>
        <time>2024-08-18T07:17:00Z</time>
      </trkpt>
      <trkpt lat="46.52933" lon="0.31345">
        <ele>98.6</ele>
        <time>2024-08-18T07:17:03Z</time>
      </trkpt>
      <trkpt lat="46.52935" lon="0.31352">
        <ele>99</ele>
        <time>2024-08-18T07:17:06Z</time>
      </trkpt>
      <trkpt lat="46.52938" lon="0.31369">
        <ele>99.4</ele>
        <time>2024-08-18T07:17:13Z</time>
      </trkpt>
      <trkpt lat="46.52938" lon="0.31372">
        <ele>99.6</ele>
        <time>2024-08-18T07:17:14Z</time>
      </trkpt>
      <trkpt lat="46.52938" lon="0.31375">
        <ele>100</ele>
        <time>2024-08-18T07:17:15Z</time>
      </trkpt>
      <trkpt lat="46.52939" lon="0.31383">
        <ele>101</ele>
        <time>2024-08-18T07:17:19Z</time>
      </trkpt>
      <trkpt lat="46.52939" lon="0.31385">
        <ele>101.4</ele>
        <time>2024-08-18T07:17:20Z</time>
      </trkpt>
      <trkpt lat="46.52939" lon="0.31391">
        <ele>102.2</ele>
        <time>2024-08-18T07:17:23Z</time>
      </trkpt>
      <trkpt lat="46.52939" lon="0.31401">
        <ele>103.2</ele>
        <time>2024-08-18T07:17:28Z</time>
      </trkpt>
      <trkpt lat="46.5294" lon="0.31408">
        <ele>103.6</ele>
        <time>2024-08-18T07:17:31Z</time>
      </trkpt>
      <trkpt lat="46.52942" lon="0.31417">
        <ele>104.2</ele>
        <time>2024-08-18T07:17:35Z</time>
      </trkpt>
      <trkpt lat="46.52944" lon="0.3142">
        <ele>104.4</ele>
        <time>2024-08-18T07:17:36Z</time>
      </trkpt>
      <trkpt lat="46.52945" lon="0.31428">
        <ele>105</ele>
        <time>2024-08-18T07:17:40Z</time>
      </trkpt>
      <trkpt lat="46.52948" lon="0.31437">
        <ele>105.2</ele>
        <time>2024-08-18T07:17:48Z</time>
      </trkpt>
      <trkpt lat="46.52954" lon="0.31447">
        <ele>104.6</ele>
        <time>2024-08-18T07:17:58Z</time>
      </trkpt>
      <trkpt lat="46.52959" lon="0.31465">
        <ele>104.4</ele>
        <time>2024-08-18T07:18:05Z</time>
      </trkpt>
      <trkpt lat="46.52966" lon="0.31488">
        <ele>104</ele>
        <time>2024-08-18T07:18:11Z</time>
      </trkpt>
      <trkpt lat="46.52972" lon="0.31512">
        <ele>104.8</ele>
        <time>2024-08-18T07:18:17Z</time>
      </trkpt>
      <trkpt lat="46.52974" lon="0.31523">
        <ele>105</ele>
        <time>2024-08-18T07:18:20Z</time>
      </trkpt>
      <trkpt lat="46.52977" lon="0.3153">
        <ele>105</ele>
        <time>2024-08-18T07:18:22Z</time>
      </trkpt>
      <trkpt lat="46.52983" lon="0.31555">
        <ele>104.4</ele>
        <time>2024-08-18T07:18:28Z</time>
      </trkpt>
      <trkpt lat="46.52986" lon="0.31577">
        <ele>104.2</ele>
        <time>2024-08-18T07:18:34Z</time>
      </trkpt>
      <trkpt lat="46.52989" lon="0.31586">
        <ele>103.8</ele>
        <time>2024-08-18T07:18:36Z</time>
      </trkpt>
      <trkpt lat="46.52992" lon="0.31595">
        <ele>103.2</ele>
        <time>2024-08-18T07:18:38Z</time>
      </trkpt>
      <trkpt lat="46.52992" lon="0.316">
        <ele>102.8</ele>
        <time>2024-08-18T07:18:39Z</time>
      </trkpt>
      <trkpt lat="46.52996" lon="0.31614">
        <ele>102</ele>
        <time>2024-08-18T07:18:42Z</time>
      </trkpt>
      <trkpt lat="46.52999" lon="0.31623">
        <ele>101.4</ele>
        <time>2024-08-18T07:18:44Z</time>
      </trkpt>
      <trkpt lat="46.53" lon="0.31624">
        <ele>101.2</ele>
        <time>2024-08-18T07:18:45Z</time>
      </trkpt>
      <trkpt lat="46.53002" lon="0.31625">
        <ele>100.6</ele>
        <time>2024-08-18T07:18:46Z</time>
      </trkpt>
      <trkpt lat="46.53005" lon="0.31628">
        <ele>100</ele>
        <time>2024-08-18T07:18:47Z</time>
      </trkpt>
      <trkpt lat="46.53007" lon="0.31631">
        <ele>99.6</ele>
        <time>2024-08-18T07:18:48Z</time>
      </trkpt>
      <trkpt lat="46.5301" lon="0.31635">
        <ele>98.6</ele>
        <time>2024-08-18T07:18:49Z</time>
      </trkpt>
      <trkpt lat="46.53012" lon="0.31639">
        <ele>98.2</ele>
        <time>2024-08-18T07:18:50Z</time>
      </trkpt>
      <trkpt lat="46.53014" lon="0.31645">
        <ele>96.8</ele>
        <time>2024-08-18T07:18:52Z</time>
      </trkpt>
      <trkpt lat="46.53016" lon="0.3165">
        <ele>95</ele>
        <time>2024-08-18T07:18:54Z</time>
      </trkpt>
      <trkpt lat="46.53016" lon="0.31652">
        <ele>94</ele>
        <time>2024-08-18T07:18:55Z</time>
      </trkpt>
      <trkpt lat="46.53016" lon="0.31654">
        <ele>93.4</ele>
        <time>2024-08-18T07:18:56Z</time>
      </trkpt>
      <trkpt lat="46.53017" lon="0.31661">
        <ele>92.4</ele>
        <time>2024-08-18T07:18:58Z</time>
      </trkpt>
      <trkpt lat="46.53019" lon="0.31671">
        <ele>91.8</ele>
        <time>2024-08-18T07:19:00Z</time>
      </trkpt>
      <trkpt lat="46.5302" lon="0.31677">
        <ele>90.8</ele>
        <time>2024-08-18T07:19:01Z</time>
      </trkpt>
      <trkpt lat="46.5302" lon="0.31683">
        <ele>89.6</ele>
        <time>2024-08-18T07:19:02Z</time>
      </trkpt>
      <trkpt lat="46.53021" lon="0.31691">
        <ele>88.2</ele>
        <time>2024-08-18T07:19:04Z</time>
      </trkpt>
      <trkpt lat="46.53022" lon="0.31696">
        <ele>88</ele>
        <time>2024-08-18T07:19:05Z</time>
      </trkpt>
      <trkpt lat="46.5303" lon="0.31716">
        <ele>87.4</ele>
        <time>2024-08-18T07:19:09Z</time>
      </trkpt>
      <trkpt lat="46.5303" lon="0.3172">
        <ele>86.2</ele>
        <time>2024-08-18T07:19:10Z</time>
      </trkpt>
      <trkpt lat="46.53029" lon="0.31724">
        <ele>85.4</ele>
        <time>2024-08-18T07:19:11Z</time>
      </trkpt>
      <trkpt lat="46.5303" lon="0.31729">
        <ele>84.8</ele>
        <time>2024-08-18T07:19:12Z</time>
      </trkpt>
      <trkpt lat="46.53032" lon="0.31734">
        <ele>84.4</ele>
        <time>2024-08-18T07:19:13Z</time>
      </trkpt>
      <trkpt lat="46.53033" lon="0.31738">
        <ele>83.6</ele>
        <time>2024-08-18T07:19:14Z</time>
      </trkpt>
      <trkpt lat="46.53037" lon="0.31753">
        <ele>82.6</ele>
        <time>2024-08-18T07:19:17Z</time>
      </trkpt>
      <trkpt lat="46.53038" lon="0.31764">
        <ele>82</ele>
        <time>2024-08-18T07:19:19Z</time>
      </trkpt>
      <trkpt lat="46.5304" lon="0.3178">
        <ele>81</ele>
        <time>2024-08-18T07:19:22Z</time>
      </trkpt>
      <trkpt lat="46.53039" lon="0.31783">
        <ele>80.4</ele>
        <time>2024-08-18T07:19:23Z</time>
      </trkpt>
      <trkpt lat="46.53039" lon="0.31785">
        <ele>80</ele>
        <time>2024-08-18T07:19:24Z</time>
      </trkpt>
      <trkpt lat="46.53041" lon="0.31791">
        <ele>79.6</ele>
        <time>2024-08-18T07:19:25Z</time>
      </trkpt>
      <trkpt lat="46.53044" lon="0.31802">
        <ele>78.8</ele>
        <time>2024-08-18T07:19:28Z</time>
      </trkpt>
      <trkpt lat="46.53045" lon="0.31806">
        <ele>77.8</ele>
        <time>2024-08-18T07:19:30Z</time>
      </trkpt>
      <trkpt lat="46.53045" lon="0.31807">
        <ele>77.4</ele>
        <time>2024-08-18T07:19:31Z</time>
      </trkpt>
      <trkpt lat="46.53045" lon="0.31812">
        <ele>76.8</ele>
        <time>2024-08-18T07:19:40Z</time>
      </trkpt>
      <trkpt lat="46.53045" lon="0.31827">
        <ele>76.2</ele>
        <time>2024-08-18T07:19:54Z</time>
      </trkpt>
      <trkpt lat="46.53044" lon="0.31829">
        <ele>76.2</ele>
        <time>2024-08-18T07:19:55Z</time>
      </trkpt>
      <trkpt lat="46.53043" lon="0.31834">
        <ele>76.2</ele>
        <time>2024-08-18T07:19:58Z</time>
      </trkpt>
      <trkpt lat="46.53042" lon="0.31837">
        <ele>76.4</ele>
        <time>2024-08-18T07:20:00Z</time>
      </trkpt>
      <trkpt lat="46.53041" lon="0.3184">
        <ele>77.2</ele>
        <time>2024-08-18T07:20:02Z</time>
      </trkpt>
      <trkpt lat="46.53041" lon="0.31842">
        <ele>77.8</ele>
        <time>2024-08-18T07:20:03Z</time>
      </trkpt>
      <trkpt lat="46.5304" lon="0.31845">
        <ele>78.4</ele>
        <time>2024-08-18T07:20:05Z</time>
      </trkpt>
      <trkpt lat="46.53041" lon="0.31846">
        <ele>78.6</ele>
        <time>2024-08-18T07:20:06Z</time>
      </trkpt>
      <trkpt lat="46.5304" lon="0.31848">
        <ele>78.8</ele>
        <time>2024-08-18T07:20:07Z</time>
      </trkpt>
      <trkpt lat="46.53038" lon="0.3185">
        <ele>79.4</ele>
        <time>2024-08-18T07:20:09Z</time>
      </trkpt>
      <trkpt lat="46.53037" lon="0.31853">
        <ele>79.8</ele>
        <time>2024-08-18T07:20:11Z</time>
      </trkpt>
      <trkpt lat="46.53036" lon="0.31856">
        <ele>80.4</ele>
        <time>2024-08-18T07:20:13Z</time>
      </trkpt>
      <trkpt lat="46.53036" lon="0.31857">
        <ele>81</ele>
        <time>2024-08-18T07:20:14Z</time>
      </trkpt>
      <trkpt lat="46.53034" lon="0.31863">
        <ele>81.8</ele>
        <time>2024-08-18T07:20:17Z</time>
      </trkpt>
      <trkpt lat="46.53033" lon="0.31864">
        <ele>82.2</ele>
        <time>2024-08-18T07:20:18Z</time>
      </trkpt>
      <trkpt lat="46.53032" lon="0.31872">
        <ele>83.2</ele>
        <time>2024-08-18T07:20:22Z</time>
      </trkpt>
      <trkpt lat="46.5303" lon="0.31877">
        <ele>84.2</ele>
        <time>2024-08-18T07:20:25Z</time>
      </trkpt>
      <trkpt lat="46.53028" lon="0.31884">
        <ele>85.6</ele>
        <time>2024-08-18T07:20:30Z</time>
      </trkpt>
      <trkpt lat="46.53025" lon="0.31887">
        <ele>86.4</ele>
        <time>2024-08-18T07:20:32Z</time>
      </trkpt>
      <trkpt lat="46.53025" lon="0.31888">
        <ele>86.8</ele>
        <time>2024-08-18T07:20:33Z</time>
      </trkpt>
      <trkpt lat="46.53023" lon="0.31889">
        <ele>87</ele>
        <time>2024-08-18T07:20:35Z</time>
      </trkpt>
      <trkpt lat="46.53021" lon="0.3189">
        <ele>87.8</ele>
        <time>2024-08-18T07:20:38Z</time>
      </trkpt>
      <trkpt lat="46.5302" lon="0.31894">
        <ele>88.4</ele>
        <time>2024-08-18T07:20:43Z</time>
      </trkpt>
      <trkpt lat="46.53015" lon="0.31906">
        <ele>89</ele>
        <time>2024-08-18T07:20:56Z</time>
      </trkpt>
      <trkpt lat="46.53014" lon="0.31908">
        <ele>89.2</ele>
        <time>2024-08-18T07:20:57Z</time>
      </trkpt>
      <trkpt lat="46.53013" lon="0.31914">
        <ele>90</ele>
        <time>2024-08-18T07:21:01Z</time>
      </trkpt>
      <trkpt lat="46.53012" lon="0.31915">
        <ele>90.4</ele>
        <time>2024-08-18T07:21:02Z</time>
      </trkpt>
      <trkpt lat="46.53009" lon="0.31917">
        <ele>91.4</ele>
        <time>2024-08-18T07:21:05Z</time>
      </trkpt>
      <trkpt lat="46.53005" lon="0.31919">
        <ele>92.4</ele>
        <time>2024-08-18T07:21:09Z</time>
      </trkpt>
      <trkpt lat="46.53004" lon="0.31919">
        <ele>92.6</ele>
        <time>2024-08-18T07:21:10Z</time>
      </trkpt>
      <trkpt lat="46.53002" lon="0.3192">
        <ele>93.2</ele>
        <time>2024-08-18T07:21:12Z</time>
      </trkpt>
      <trkpt lat="46.53" lon="0.31922">
        <ele>93.8</ele>
        <time>2024-08-18T07:21:14Z</time>
      </trkpt>
      <trkpt lat="46.52997" lon="0.31925">
        <ele>94.4</ele>
        <time>2024-08-18T07:21:17Z</time>
      </trkpt>
      <trkpt lat="46.52996" lon="0.31927">
        <ele>94.8</ele>
        <time>2024-08-18T07:21:19Z</time>
      </trkpt>
      <trkpt lat="46.52995" lon="0.31927">
        <ele>95.2</ele>
        <time>2024-08-18T07:21:20Z</time>
      </trkpt>
      <trkpt lat="46.52995" lon="0.31928">
        <ele>95.4</ele>
        <time>2024-08-18T07:21:21Z</time>
      </trkpt>
      <trkpt lat="46.52993" lon="0.31932">
        <ele>96.2</ele>
        <time>2024-08-18T07:21:25Z</time>
      </trkpt>
      <trkpt lat="46.52992" lon="0.31933">
        <ele>96.2</ele>
        <time>2024-08-18T07:21:26Z</time>
      </trkpt>
      <trkpt lat="46.52989" lon="0.31936">
        <ele>97</ele>
        <time>2024-08-18T07:21:30Z</time>
      </trkpt>
      <trkpt lat="46.52987" lon="0.31937">
        <ele>97.2</ele>
        <time>2024-08-18T07:21:32Z</time>
      </trkpt>
      <trkpt lat="46.52987" lon="0.31938">
        <ele>97.6</ele>
        <time>2024-08-18T07:21:33Z</time>
      </trkpt>
      <trkpt lat="46.52986" lon="0.31939">
        <ele>97.8</ele>
        <time>2024-08-18T07:21:34Z</time>
      </trkpt>
      <trkpt lat="46.52984" lon="0.31942">
        <ele>98</ele>
        <time>2024-08-18T07:21:36Z</time>
      </trkpt>
      <trkpt lat="46.52982" lon="0.31945">
        <ele>98.8</ele>
        <time>2024-08-18T07:21:38Z</time>
      </trkpt>
      <trkpt lat="46.52979" lon="0.31954">
        <ele>99.8</ele>
        <time>2024-08-18T07:21:44Z</time>
      </trkpt>
      <trkpt lat="46.52975" lon="0.31968">
        <ele>101</ele>
        <time>2024-08-18T07:21:53Z</time>
      </trkpt>
      <trkpt lat="46.5297" lon="0.31973">
        <ele>101.8</ele>
        <time>2024-08-18T07:21:58Z</time>
      </trkpt>
      <trkpt lat="46.52969" lon="0.31974">
        <ele>102</ele>
        <time>2024-08-18T07:21:59Z</time>
      </trkpt>
      <trkpt lat="46.52968" lon="0.31975">
        <ele>102.4</ele>
        <time>2024-08-18T07:22:00Z</time>
      </trkpt>
      <trkpt lat="46.52959" lon="0.31982">
        <ele>103.4</ele>
        <time>2024-08-18T07:22:07Z</time>
      </trkpt>
      <trkpt lat="46.52955" lon="0.31987">
        <ele>104.6</ele>
        <time>2024-08-18T07:22:11Z</time>
      </trkpt>
      <trkpt lat="46.52946" lon="0.31994">
        <ele>105.6</ele>
        <time>2024-08-18T07:22:19Z</time>
      </trkpt>
      <trkpt lat="46.52938" lon="0.31999">
        <ele>106.6</ele>
        <time>2024-08-18T07:22:24Z</time>
      </trkpt>
      <trkpt lat="46.52927" lon="0.32003">
        <ele>107.6</ele>
        <time>2024-08-18T07:22:30Z</time>
      </trkpt>
      <trkpt lat="46.52918" lon="0.32006">
        <ele>108.6</ele>
        <time>2024-08-18T07:22:36Z</time>
      </trkpt>
      <trkpt lat="46.52917" lon="0.32007">
        <ele>108.8</ele>
        <time>2024-08-18T07:22:37Z</time>
      </trkpt>
      <trkpt lat="46.52917" lon="0.32011">
        <ele>109.2</ele>
        <time>2024-08-18T07:22:41Z</time>
      </trkpt>
      <trkpt lat="46.52918" lon="0.32011">
        <ele>109.2</ele>
        <time>2024-08-18T07:22:42Z</time>
      </trkpt>
      <trkpt lat="46.52924" lon="0.32008">
        <ele>109</ele>
        <time>2024-08-18T07:22:46Z</time>
      </trkpt>
      <trkpt lat="46.52939" lon="0.32">
        <ele>107.8</ele>
        <time>2024-08-18T07:22:51Z</time>
      </trkpt>
      <trkpt lat="46.52942" lon="0.31998">
        <ele>107.8</ele>
        <time>2024-08-18T07:22:52Z</time>
      </trkpt>
      <trkpt lat="46.52944" lon="0.31997">
        <ele>107.4</ele>
        <time>2024-08-18T07:22:53Z</time>
      </trkpt>
      <trkpt lat="46.52946" lon="0.31994">
        <ele>106.8</ele>
        <time>2024-08-18T07:22:54Z</time>
      </trkpt>
      <trkpt lat="46.52948" lon="0.31988">
        <ele>105.8</ele>
        <time>2024-08-18T07:22:56Z</time>
      </trkpt>
      <trkpt lat="46.52949" lon="0.31985">
        <ele>105.2</ele>
        <time>2024-08-18T07:22:58Z</time>
      </trkpt>
      <trkpt lat="46.5295" lon="0.31983">
        <ele>104.6</ele>
        <time>2024-08-18T07:22:59Z</time>
      </trkpt>
      <trkpt lat="46.52951" lon="0.31982">
        <ele>103.6</ele>
        <time>2024-08-18T07:23:02Z</time>
      </trkpt>
      <trkpt lat="46.52953" lon="0.31978">
        <ele>103.6</ele>
        <time>2024-08-18T07:23:08Z</time>
      </trkpt>
      <trkpt lat="46.52957" lon="0.31978">
        <ele>103.6</ele>
        <time>2024-08-18T07:23:23Z</time>
      </trkpt>
      <trkpt lat="46.52957" lon="0.31976">
        <ele>103.6</ele>
        <time>2024-08-18T07:23:38Z</time>
      </trkpt>
      <trkpt lat="46.52955" lon="0.31975">
        <ele>103.4</ele>
        <time>2024-08-18T07:23:56Z</time>
      </trkpt>
      <trkpt lat="46.52954" lon="0.31973">
        <ele>103.6</ele>
        <time>2024-08-18T07:24:14Z</time>
      </trkpt>
      <trkpt lat="46.52954" lon="0.31974">
        <ele>103.4</ele>
        <time>2024-08-18T07:24:27Z</time>
      </trkpt>
      <trkpt lat="46.5295" lon="0.31981">
        <ele>103.8</ele>
        <time>2024-08-18T07:24:34Z</time>
      </trkpt>
      <trkpt lat="46.52945" lon="0.31988">
        <ele>105</ele>
        <time>2024-08-18T07:24:38Z</time>
      </trkpt>
      <trkpt lat="46.52936" lon="0.31995">
        <ele>106.4</ele>
        <time>2024-08-18T07:24:42Z</time>
      </trkpt>
      <trkpt lat="46.52933" lon="0.31997">
        <ele>107</ele>
        <time>2024-08-18T07:24:44Z</time>
      </trkpt>
      <trkpt lat="46.52928" lon="0.32">
        <ele>107.4</ele>
        <time>2024-08-18T07:24:46Z</time>
      </trkpt>
      <trkpt lat="46.52921" lon="0.32005">
        <ele>108</ele>
        <time>2024-08-18T07:24:49Z</time>
      </trkpt>
      <trkpt lat="46.52918" lon="0.32005">
        <ele>108.8</ele>
        <time>2024-08-18T07:24:51Z</time>
      </trkpt>
      <trkpt lat="46.5292" lon="0.32003">
        <ele>109</ele>
        <time>2024-08-18T07:24:53Z</time>
      </trkpt>
      <trkpt lat="46.52928" lon="0.32007">
        <ele>109</ele>
        <time>2024-08-18T07:24:57Z</time>
      </trkpt>
      <trkpt lat="46.5293" lon="0.3201">
        <ele>108.8</ele>
        <time>2024-08-18T07:24:58Z</time>
      </trkpt>
      <trkpt lat="46.52938" lon="0.32022">
        <ele>108.6</ele>
        <time>2024-08-18T07:25:01Z</time>
      </trkpt>
      <trkpt lat="46.52942" lon="0.32025">
        <ele>108.4</ele>
        <time>2024-08-18T07:25:02Z</time>
      </trkpt>
      <trkpt lat="46.52955" lon="0.32032">
        <ele>108.2</ele>
        <time>2024-08-18T07:25:05Z</time>
      </trkpt>
      <trkpt lat="46.52968" lon="0.32041">
        <ele>107.2</ele>
        <time>2024-08-18T07:25:08Z</time>
      </trkpt>
      <trkpt lat="46.52975" lon="0.32048">
        <ele>105.8</ele>
        <time>2024-08-18T07:25:10Z</time>
      </trkpt>
      <trkpt lat="46.52979" lon="0.3205">
        <ele>105</ele>
        <time>2024-08-18T07:25:11Z</time>
      </trkpt>
      <trkpt lat="46.52981" lon="0.32052">
        <ele>104.4</ele>
        <time>2024-08-18T07:25:12Z</time>
      </trkpt>
      <trkpt lat="46.52984" lon="0.32055">
        <ele>103.8</ele>
        <time>2024-08-18T07:25:13Z</time>
      </trkpt>
      <trkpt lat="46.52985" lon="0.32057">
        <ele>103.4</ele>
        <time>2024-08-18T07:25:14Z</time>
      </trkpt>
      <trkpt lat="46.52987" lon="0.3206">
        <ele>103.2</ele>
        <time>2024-08-18T07:25:15Z</time>
      </trkpt>
      <trkpt lat="46.53002" lon="0.32071">
        <ele>102.4</ele>
        <time>2024-08-18T07:25:20Z</time>
      </trkpt>
      <trkpt lat="46.53004" lon="0.32072">
        <ele>102.2</ele>
        <time>2024-08-18T07:25:21Z</time>
      </trkpt>
      <trkpt lat="46.53019" lon="0.32079">
        <ele>100.6</ele>
        <time>2024-08-18T07:25:25Z</time>
      </trkpt>
      <trkpt lat="46.53026" lon="0.32084">
        <ele>99.4</ele>
        <time>2024-08-18T07:25:27Z</time>
      </trkpt>
      <trkpt lat="46.53032" lon="0.32089">
        <ele>98.2</ele>
        <time>2024-08-18T07:25:29Z</time>
      </trkpt>
      <trkpt lat="46.53035" lon="0.32091">
        <ele>97.2</ele>
        <time>2024-08-18T07:25:30Z</time>
      </trkpt>
      <trkpt lat="46.53038" lon="0.32094">
        <ele>96</ele>
        <time>2024-08-18T07:25:32Z</time>
      </trkpt>
      <trkpt lat="46.53039" lon="0.32096">
        <ele>95.6</ele>
        <time>2024-08-18T07:25:34Z</time>
      </trkpt>
      <trkpt lat="46.53041" lon="0.321">
        <ele>95.2</ele>
        <time>2024-08-18T07:25:42Z</time>
      </trkpt>
      <trkpt lat="46.53042" lon="0.321">
        <ele>95</ele>
        <time>2024-08-18T07:25:52Z</time>
      </trkpt>
      <trkpt lat="46.53043" lon="0.32101">
        <ele>94.8</ele>
        <time>2024-08-18T07:25:58Z</time>
      </trkpt>
      <trkpt lat="46.53047" lon="0.32102">
        <ele>94.6</ele>
        <time>2024-08-18T07:26:16Z</time>
      </trkpt>
      <trkpt lat="46.53049" lon="0.32104">
        <ele>94.6</ele>
        <time>2024-08-18T07:26:31Z</time>
      </trkpt>
      <trkpt lat="46.53045" lon="0.32099">
        <ele>94.6</ele>
        <time>2024-08-18T07:26:47Z</time>
      </trkpt>
      <trkpt lat="46.53041" lon="0.32098">
        <ele>94.4</ele>
        <time>2024-08-18T07:27:02Z</time>
      </trkpt>
      <trkpt lat="46.53039" lon="0.32098">
        <ele>94.4</ele>
        <time>2024-08-18T07:27:16Z</time>
      </trkpt>
      <trkpt lat="46.53039" lon="0.32098">
        <ele>94.4</ele>
        <time>2024-08-18T07:27:35Z</time>
      </trkpt>
      <trkpt lat="46.53044" lon="0.321">
        <ele>94.4</ele>
        <time>2024-08-18T07:27:53Z</time>
      </trkpt>
      <trkpt lat="46.53047" lon="0.32102">
        <ele>94.4</ele>
        <time>2024-08-18T07:28:11Z</time>
      </trkpt>
      <trkpt lat="46.5305" lon="0.32102">
        <ele>94.4</ele>
        <time>2024-08-18T07:28:25Z</time>
      </trkpt>
      <trkpt lat="46.53051" lon="0.32104">
        <ele>94.4</ele>
        <time>2024-08-18T07:28:40Z</time>
      </trkpt>
      <trkpt lat="46.53047" lon="0.32103">
        <ele>94.4</ele>
        <time>2024-08-18T07:28:53Z</time>
      </trkpt>
      <trkpt lat="46.53045" lon="0.32102">
        <ele>94.4</ele>
        <time>2024-08-18T07:28:55Z</time>
      </trkpt>
      <trkpt lat="46.53043" lon="0.32101">
        <ele>94.4</ele>
        <time>2024-08-18T07:28:57Z</time>
      </trkpt>
      <trkpt lat="46.53041" lon="0.32099">
        <ele>94.4</ele>
        <time>2024-08-18T07:28:59Z</time>
      </trkpt>
      <trkpt lat="46.53037" lon="0.32096">
        <ele>95</ele>
        <time>2024-08-18T07:29:01Z</time>
      </trkpt>
      <trkpt lat="46.5303" lon="0.32094">
        <ele>96.6</ele>
        <time>2024-08-18T07:29:05Z</time>
      </trkpt>
      <trkpt lat="46.53024" lon="0.32091">
        <ele>97.6</ele>
        <time>2024-08-18T07:29:09Z</time>
      </trkpt>
      <trkpt lat="46.53021" lon="0.3209">
        <ele>98.4</ele>
        <time>2024-08-18T07:29:11Z</time>
      </trkpt>
      <trkpt lat="46.53018" lon="0.32089">
        <ele>98.6</ele>
        <time>2024-08-18T07:29:12Z</time>
      </trkpt>
      <trkpt lat="46.53012" lon="0.32084">
        <ele>100</ele>
        <time>2024-08-18T07:29:16Z</time>
      </trkpt>
      <trkpt lat="46.53012" lon="0.32083">
        <ele>100.2</ele>
        <time>2024-08-18T07:29:17Z</time>
      </trkpt>
      <trkpt lat="46.53008" lon="0.32079">
        <ele>100.8</ele>
        <time>2024-08-18T07:29:21Z</time>
      </trkpt>
      <trkpt lat="46.53007" lon="0.32077">
        <ele>101</ele>
        <time>2024-08-18T07:29:23Z</time>
      </trkpt>
      <trkpt lat="46.53005" lon="0.32075">
        <ele>101.2</ele>
        <time>2024-08-18T07:29:24Z</time>
      </trkpt>
      <trkpt lat="46.52995" lon="0.32068">
        <ele>102</ele>
        <time>2024-08-18T07:29:29Z</time>
      </trkpt>
      <trkpt lat="46.52992" lon="0.32064">
        <ele>102.6</ele>
        <time>2024-08-18T07:29:31Z</time>
      </trkpt>
      <trkpt lat="46.52982" lon="0.32057">
        <ele>103.2</ele>
        <time>2024-08-18T07:29:36Z</time>
      </trkpt>
      <trkpt lat="46.52968" lon="0.32048">
        <ele>104.2</ele>
        <time>2024-08-18T07:29:41Z</time>
      </trkpt>
      <trkpt lat="46.52961" lon="0.32044">
        <ele>104.8</ele>
        <time>2024-08-18T07:29:44Z</time>
      </trkpt>
      <trkpt lat="46.52956" lon="0.32041">
        <ele>105.4</ele>
        <time>2024-08-18T07:29:46Z</time>
      </trkpt>
      <trkpt lat="46.5295" lon="0.32032">
        <ele>105.6</ele>
        <time>2024-08-18T07:29:50Z</time>
      </trkpt>
      <trkpt lat="46.52939" lon="0.32023">
        <ele>105.8</ele>
        <time>2024-08-18T07:29:57Z</time>
      </trkpt>
      <trkpt lat="46.52927" lon="0.32021">
        <ele>106.2</ele>
        <time>2024-08-18T07:30:02Z</time>
      </trkpt>
      <trkpt lat="46.52926" lon="0.32024">
        <ele>106.4</ele>
        <time>2024-08-18T07:30:04Z</time>
      </trkpt>
      <trkpt lat="46.52927" lon="0.32028">
        <ele>106.8</ele>
        <time>2024-08-18T07:30:06Z</time>
      </trkpt>
      <trkpt lat="46.52926" lon="0.32034">
        <ele>107.2</ele>
        <time>2024-08-18T07:30:11Z</time>
      </trkpt>
      <trkpt lat="46.52925" lon="0.32035">
        <ele>107.6</ele>
        <time>2024-08-18T07:30:14Z</time>
      </trkpt>
      <trkpt lat="46.52923" lon="0.32037">
        <ele>107.6</ele>
        <time>2024-08-18T07:30:18Z</time>
      </trkpt>
      <trkpt lat="46.52922" lon="0.32039">
        <ele>107.4</ele>
        <time>2024-08-18T07:30:38Z</time>
      </trkpt>
      <trkpt lat="46.5292" lon="0.32038">
        <ele>107.2</ele>
        <time>2024-08-18T07:30:51Z</time>
      </trkpt>
      <trkpt lat="46.52917" lon="0.32037">
        <ele>107.4</ele>
        <time>2024-08-18T07:31:09Z</time>
      </trkpt>
      <trkpt lat="46.52917" lon="0.32037">
        <ele>107.4</ele>
        <time>2024-08-18T07:31:10Z</time>
      </trkpt>
      <trkpt lat="46.52917" lon="0.32037">
        <ele>107.2</ele>
        <time>2024-08-18T07:31:27Z</time>
      </trkpt>
      <trkpt lat="46.52917" lon="0.32034">
        <ele>107.2</ele>
        <time>2024-08-18T07:31:45Z</time>
      </trkpt>
      <trkpt lat="46.52917" lon="0.32034">
        <ele>107.2</ele>
        <time>2024-08-18T07:32:02Z</time>
      </trkpt>
      <trkpt lat="46.52918" lon="0.32035">
        <ele>107.2</ele>
        <time>2024-08-18T07:32:20Z</time>
      </trkpt>
      <trkpt lat="46.52918" lon="0.32037">
        <ele>107.2</ele>
        <time>2024-08-18T07:32:37Z</time>
      </trkpt>
      <trkpt lat="46.52919" lon="0.32038">
        <ele>107.2</ele>
        <time>2024-08-18T07:32:52Z</time>
      </trkpt>
      <trkpt lat="46.52919" lon="0.32039">
        <ele>107.2</ele>
        <time>2024-08-18T07:33:07Z</time>
      </trkpt>
      <trkpt lat="46.52918" lon="0.32044">
        <ele>107.2</ele>
        <time>2024-08-18T07:33:22Z</time>
      </trkpt>
      <trkpt lat="46.52917" lon="0.32046">
        <ele>107.2</ele>
        <time>2024-08-18T07:33:24Z</time>
      </trkpt>
      <trkpt lat="46.52913" lon="0.3206">
        <ele>107.4</ele>
        <time>2024-08-18T07:33:31Z</time>
      </trkpt>
      <trkpt lat="46.52914" lon="0.32066">
        <ele>108.4</ele>
        <time>2024-08-18T07:33:36Z</time>
      </trkpt>
      <trkpt lat="46.52917" lon="0.32067">
        <ele>108.4</ele>
        <time>2024-08-18T07:33:39Z</time>
      </trkpt>
      <trkpt lat="46.52931" lon="0.32069">
        <ele>108</ele>
        <time>2024-08-18T07:33:45Z</time>
      </trkpt>
      <trkpt lat="46.52939" lon="0.32072">
        <ele>107.6</ele>
        <time>2024-08-18T07:33:47Z</time>
      </trkpt>
      <trkpt lat="46.52947" lon="0.32079">
        <ele>107.4</ele>
        <time>2024-08-18T07:33:49Z</time>
      </trkpt>
      <trkpt lat="46.52954" lon="0.32087">
        <ele>107.2</ele>
        <time>2024-08-18T07:33:51Z</time>
      </trkpt>
      <trkpt lat="46.52969" lon="0.32097">
        <ele>106.4</ele>
        <time>2024-08-18T07:33:54Z</time>
      </trkpt>
      <trkpt lat="46.52974" lon="0.321">
        <ele>106.2</ele>
        <time>2024-08-18T07:33:55Z</time>
      </trkpt>
      <trkpt lat="46.52984" lon="0.32113">
        <ele>105.4</ele>
        <time>2024-08-18T07:33:57Z</time>
      </trkpt>
      <trkpt lat="46.53001" lon="0.32136">
        <ele>105.2</ele>
        <time>2024-08-18T07:34:00Z</time>
      </trkpt>
      <trkpt lat="46.53012" lon="0.32151">
        <ele>105</ele>
        <time>2024-08-18T07:34:02Z</time>
      </trkpt>
      <trkpt lat="46.53019" lon="0.32167">
        <ele>104.6</ele>
        <time>2024-08-18T07:34:04Z</time>
      </trkpt>
      <trkpt lat="46.53021" lon="0.32173">
        <ele>104.6</ele>
        <time>2024-08-18T07:34:05Z</time>
      </trkpt>
      <trkpt lat="46.53024" lon="0.3218">
        <ele>104.6</ele>
        <time>2024-08-18T07:34:07Z</time>
      </trkpt>
      <trkpt lat="46.53025" lon="0.32183">
        <ele>104.6</ele>
        <time>2024-08-18T07:34:08Z</time>
      </trkpt>
      <trkpt lat="46.5303" lon="0.32189">
        <ele>105</ele>
        <time>2024-08-18T07:34:12Z</time>
      </trkpt>
      <trkpt lat="46.5303" lon="0.3219">
        <ele>105</ele>
        <time>2024-08-18T07:34:13Z</time>
      </trkpt>
      <trkpt lat="46.53031" lon="0.32191">
        <ele>105</ele>
        <time>2024-08-18T07:34:15Z</time>
      </trkpt>
      <trkpt lat="46.53034" lon="0.32192">
        <ele>104.8</ele>
        <time>2024-08-18T07:34:21Z</time>
      </trkpt>
      <trkpt lat="46.53036" lon="0.32191">
        <ele>104.8</ele>
        <time>2024-08-18T07:34:23Z</time>
      </trkpt>
      <trkpt lat="46.53039" lon="0.32193">
        <ele>104.6</ele>
        <time>2024-08-18T07:34:25Z</time>
      </trkpt>
      <trkpt lat="46.5304" lon="0.32194">
        <ele>104.6</ele>
        <time>2024-08-18T07:34:26Z</time>
      </trkpt>
      <trkpt lat="46.53045" lon="0.322">
        <ele>104.6</ele>
        <time>2024-08-18T07:34:29Z</time>
      </trkpt>
      <trkpt lat="46.53046" lon="0.32201">
        <ele>104.4</ele>
        <time>2024-08-18T07:34:30Z</time>
      </trkpt>
      <trkpt lat="46.53059" lon="0.32217">
        <ele>104.2</ele>
        <time>2024-08-18T07:34:35Z</time>
      </trkpt>
      <trkpt lat="46.53064" lon="0.32222">
        <ele>104.4</ele>
        <time>2024-08-18T07:34:37Z</time>
      </trkpt>
      <trkpt lat="46.53073" lon="0.32228">
        <ele>104.4</ele>
        <time>2024-08-18T07:34:39Z</time>
      </trkpt>
      <trkpt lat="46.53078" lon="0.32231">
        <ele>104.4</ele>
        <time>2024-08-18T07:34:40Z</time>
      </trkpt>
      <trkpt lat="46.53088" lon="0.32243">
        <ele>104.4</ele>
        <time>2024-08-18T07:34:43Z</time>
      </trkpt>
      <trkpt lat="46.53098" lon="0.32248">
        <ele>104</ele>
        <time>2024-08-18T07:34:46Z</time>
      </trkpt>
      <trkpt lat="46.53105" lon="0.32251">
        <ele>104</ele>
        <time>2024-08-18T07:34:48Z</time>
      </trkpt>
      <trkpt lat="46.53131" lon="0.32267">
        <ele>103.2</ele>
        <time>2024-08-18T07:34:54Z</time>
      </trkpt>
      <trkpt lat="46.53158" lon="0.32289">
        <ele>102.6</ele>
        <time>2024-08-18T07:35:00Z</time>
      </trkpt>
      <trkpt lat="46.53169" lon="0.32294">
        <ele>102.4</ele>
        <time>2024-08-18T07:35:02Z</time>
      </trkpt>
      <trkpt lat="46.53181" lon="0.32295">
        <ele>102.2</ele>
        <time>2024-08-18T07:35:04Z</time>
      </trkpt>
      <trkpt lat="46.53188" lon="0.32295">
        <ele>102.2</ele>
        <time>2024-08-18T07:35:05Z</time>
      </trkpt>
      <trkpt lat="46.532" lon="0.32294">
        <ele>101.4</ele>
        <time>2024-08-18T07:35:07Z</time>
      </trkpt>
      <trkpt lat="46.532" lon="0.32294">
        <ele>99</ele>
        <time>2024-08-18T07:35:08Z</time>
      </trkpt>
      <trkpt lat="46.53218" lon="0.32293">
        <ele>98.2</ele>
        <time>2024-08-18T07:35:10Z</time>
      </trkpt>
      <trkpt lat="46.53224" lon="0.32293">
        <ele>96.6</ele>
        <time>2024-08-18T07:35:11Z</time>
      </trkpt>
      <trkpt lat="46.53229" lon="0.32293">
        <ele>95.2</ele>
        <time>2024-08-18T07:35:12Z</time>
      </trkpt>
      <trkpt lat="46.53237" lon="0.32295">
        <ele>93</ele>
        <time>2024-08-18T07:35:14Z</time>
      </trkpt>
      <trkpt lat="46.53245" lon="0.32301">
        <ele>91.2</ele>
        <time>2024-08-18T07:35:16Z</time>
      </trkpt>
      <trkpt lat="46.53253" lon="0.32308">
        <ele>90</ele>
        <time>2024-08-18T07:35:18Z</time>
      </trkpt>
      <trkpt lat="46.53256" lon="0.3231">
        <ele>89.6</ele>
        <time>2024-08-18T07:35:19Z</time>
      </trkpt>
      <trkpt lat="46.53259" lon="0.32313">
        <ele>89.6</ele>
        <time>2024-08-18T07:35:20Z</time>
      </trkpt>
      <trkpt lat="46.53266" lon="0.32319">
        <ele>89.2</ele>
        <time>2024-08-18T07:35:22Z</time>
      </trkpt>
      <trkpt lat="46.53269" lon="0.32322">
        <ele>89</ele>
        <time>2024-08-18T07:35:23Z</time>
      </trkpt>
      <trkpt lat="46.53273" lon="0.32324">
        <ele>88.8</ele>
        <time>2024-08-18T07:35:24Z</time>
      </trkpt>
      <trkpt lat="46.53278" lon="0.32327">
        <ele>88.4</ele>
        <time>2024-08-18T07:35:26Z</time>
      </trkpt>
      <trkpt lat="46.53282" lon="0.32332">
        <ele>88.2</ele>
        <time>2024-08-18T07:35:28Z</time>
      </trkpt>
      <trkpt lat="46.5329" lon="0.32355">
        <ele>90</ele>
        <time>2024-08-18T07:35:35Z</time>
      </trkpt>
      <trkpt lat="46.53291" lon="0.32359">
        <ele>90</ele>
        <time>2024-08-18T07:35:36Z</time>
      </trkpt>
      <trkpt lat="46.53294" lon="0.32366">
        <ele>91.2</ele>
        <time>2024-08-18T07:35:38Z</time>
      </trkpt>
      <trkpt lat="46.53299" lon="0.3238">
        <ele>92.4</ele>
        <time>2024-08-18T07:35:41Z</time>
      </trkpt>
      <trkpt lat="46.53301" lon="0.32388">
        <ele>93</ele>
        <time>2024-08-18T07:35:43Z</time>
      </trkpt>
      <trkpt lat="46.53303" lon="0.32394">
        <ele>93.6</ele>
        <time>2024-08-18T07:35:45Z</time>
      </trkpt>
      <trkpt lat="46.53307" lon="0.32408">
        <ele>94.6</ele>
        <time>2024-08-18T07:35:49Z</time>
      </trkpt>
      <trkpt lat="46.53311" lon="0.32415">
        <ele>94.8</ele>
        <time>2024-08-18T07:35:50Z</time>
      </trkpt>
      <trkpt lat="46.53314" lon="0.32419">
        <ele>95.2</ele>
        <time>2024-08-18T07:35:56Z</time>
      </trkpt>
      <trkpt lat="46.53318" lon="0.32424">
        <ele>95.2</ele>
        <time>2024-08-18T07:36:08Z</time>
      </trkpt>
      <trkpt lat="46.53321" lon="0.32428">
        <ele>94</ele>
        <time>2024-08-18T07:36:14Z</time>
      </trkpt>
      <trkpt lat="46.53324" lon="0.32432">
        <ele>93.6</ele>
        <time>2024-08-18T07:36:15Z</time>
      </trkpt>
      <trkpt lat="46.53327" lon="0.32433">
        <ele>93.2</ele>
        <time>2024-08-18T07:36:16Z</time>
      </trkpt>
      <trkpt lat="46.53331" lon="0.32435">
        <ele>91.6</ele>
        <time>2024-08-18T07:36:18Z</time>
      </trkpt>
      <trkpt lat="46.53332" lon="0.32435">
        <ele>90.4</ele>
        <time>2024-08-18T07:36:19Z</time>
      </trkpt>
      <trkpt lat="46.53333" lon="0.32435">
        <ele>89.4</ele>
        <time>2024-08-18T07:36:20Z</time>
      </trkpt>
      <trkpt lat="46.53334" lon="0.32436">
        <ele>88.2</ele>
        <time>2024-08-18T07:36:22Z</time>
      </trkpt>
      <trkpt lat="46.53335" lon="0.32437">
        <ele>87.6</ele>
        <time>2024-08-18T07:36:24Z</time>
      </trkpt>
      <trkpt lat="46.53339" lon="0.3244">
        <ele>87.6</ele>
        <time>2024-08-18T07:36:33Z</time>
      </trkpt>
      <trkpt lat="46.53341" lon="0.32445">
        <ele>87.6</ele>
        <time>2024-08-18T07:36:36Z</time>
      </trkpt>
      <trkpt lat="46.53343" lon="0.32449">
        <ele>87.8</ele>
        <time>2024-08-18T07:36:38Z</time>
      </trkpt>
      <trkpt lat="46.53348" lon="0.32451">
        <ele>89</ele>
        <time>2024-08-18T07:36:41Z</time>
      </trkpt>
      <trkpt lat="46.53352" lon="0.32453">
        <ele>89.4</ele>
        <time>2024-08-18T07:36:43Z</time>
      </trkpt>
      <trkpt lat="46.53364" lon="0.32456">
        <ele>89</ele>
        <time>2024-08-18T07:36:49Z</time>
      </trkpt>
      <trkpt lat="46.53368" lon="0.32459">
        <ele>88.2</ele>
        <time>2024-08-18T07:36:51Z</time>
      </trkpt>
      <trkpt lat="46.53376" lon="0.32464">
        <ele>87.2</ele>
        <time>2024-08-18T07:36:55Z</time>
      </trkpt>
      <trkpt lat="46.53378" lon="0.32465">
        <ele>87.2</ele>
        <time>2024-08-18T07:36:56Z</time>
      </trkpt>
      <trkpt lat="46.53383" lon="0.32467">
        <ele>86</ele>
        <time>2024-08-18T07:36:59Z</time>
      </trkpt>
      <trkpt lat="46.53385" lon="0.32468">
        <ele>85.6</ele>
        <time>2024-08-18T07:37:01Z</time>
      </trkpt>
      <trkpt lat="46.53389" lon="0.32469">
        <ele>85</ele>
        <time>2024-08-18T07:37:02Z</time>
      </trkpt>
      <trkpt lat="46.53402" lon="0.32474">
        <ele>84</ele>
        <time>2024-08-18T07:37:07Z</time>
      </trkpt>
      <trkpt lat="46.53408" lon="0.32477">
        <ele>83.2</ele>
        <time>2024-08-18T07:37:10Z</time>
      </trkpt>
      <trkpt lat="46.53411" lon="0.3248">
        <ele>83</ele>
        <time>2024-08-18T07:37:13Z</time>
      </trkpt>
      <trkpt lat="46.53413" lon="0.3248">
        <ele>82.8</ele>
        <time>2024-08-18T07:37:14Z</time>
      </trkpt>
      <trkpt lat="46.53427" lon="0.3249">
        <ele>82.4</ele>
        <time>2024-08-18T07:37:21Z</time>
      </trkpt>
      <trkpt lat="46.53438" lon="0.32495">
        <ele>82.4</ele>
        <time>2024-08-18T07:37:27Z</time>
      </trkpt>
      <trkpt lat="46.53449" lon="0.325">
        <ele>82.6</ele>
        <time>2024-08-18T07:37:34Z</time>
      </trkpt>
      <trkpt lat="46.53451" lon="0.325">
        <ele>82.4</ele>
        <time>2024-08-18T07:37:35Z</time>
      </trkpt>
      <trkpt lat="46.53458" lon="0.32503">
        <ele>81.8</ele>
        <time>2024-08-18T07:37:39Z</time>
      </trkpt>
      <trkpt lat="46.53461" lon="0.32504">
        <ele>81.2</ele>
        <time>2024-08-18T07:37:41Z</time>
      </trkpt>
      <trkpt lat="46.53463" lon="0.32505">
        <ele>81.2</ele>
        <time>2024-08-18T07:37:42Z</time>
      </trkpt>
      <trkpt lat="46.53467" lon="0.32508">
        <ele>81</ele>
        <time>2024-08-18T07:37:45Z</time>
      </trkpt>
      <trkpt lat="46.53474" lon="0.32511">
        <ele>81.2</ele>
        <time>2024-08-18T07:37:50Z</time>
      </trkpt>
      <trkpt lat="46.53476" lon="0.32512">
        <ele>81.2</ele>
        <time>2024-08-18T07:37:51Z</time>
      </trkpt>
      <trkpt lat="46.53486" lon="0.32518">
        <ele>82</ele>
        <time>2024-08-18T07:37:58Z</time>
      </trkpt>
      <trkpt lat="46.53491" lon="0.3252">
        <ele>82.6</ele>
        <time>2024-08-18T07:38:01Z</time>
      </trkpt>
      <trkpt lat="46.53496" lon="0.32521">
        <ele>82.8</ele>
        <time>2024-08-18T07:38:04Z</time>
      </trkpt>
      <trkpt lat="46.53504" lon="0.32525">
        <ele>82.8</ele>
        <time>2024-08-18T07:38:09Z</time>
      </trkpt>
      <trkpt lat="46.53509" lon="0.32528">
        <ele>83.4</ele>
        <time>2024-08-18T07:38:12Z</time>
      </trkpt>
      <trkpt lat="46.53515" lon="0.3253">
        <ele>84</ele>
        <time>2024-08-18T07:38:15Z</time>
      </trkpt>
      <trkpt lat="46.53525" lon="0.32536">
        <ele>84.4</ele>
        <time>2024-08-18T07:38:19Z</time>
      </trkpt>
      <trkpt lat="46.53531" lon="0.32541">
        <ele>85</ele>
        <time>2024-08-18T07:38:22Z</time>
      </trkpt>
      <trkpt lat="46.53536" lon="0.32548">
        <ele>86.2</ele>
        <time>2024-08-18T07:38:26Z</time>
      </trkpt>
      <trkpt lat="46.53537" lon="0.3255">
        <ele>87</ele>
        <time>2024-08-18T07:38:28Z</time>
      </trkpt>
      <trkpt lat="46.53538" lon="0.3255">
        <ele>87.4</ele>
        <time>2024-08-18T07:38:29Z</time>
      </trkpt>
      <trkpt lat="46.5354" lon="0.32556">
        <ele>88.2</ele>
        <time>2024-08-18T07:38:36Z</time>
      </trkpt>
      <trkpt lat="46.53541" lon="0.32558">
        <ele>88.4</ele>
        <time>2024-08-18T07:38:37Z</time>
      </trkpt>
      <trkpt lat="46.53544" lon="0.32566">
        <ele>89.4</ele>
        <time>2024-08-18T07:38:44Z</time>
      </trkpt>
      <trkpt lat="46.53546" lon="0.32575">
        <ele>90</ele>
        <time>2024-08-18T07:38:55Z</time>
      </trkpt>
      <trkpt lat="46.53547" lon="0.32577">
        <ele>90.6</ele>
        <time>2024-08-18T07:38:57Z</time>
      </trkpt>
      <trkpt lat="46.53547" lon="0.32578">
        <ele>90.8</ele>
        <time>2024-08-18T07:38:58Z</time>
      </trkpt>
      <trkpt lat="46.53547" lon="0.3258">
        <ele>91</ele>
        <time>2024-08-18T07:39:00Z</time>
      </trkpt>
      <trkpt lat="46.53548" lon="0.32584">
        <ele>92</ele>
        <time>2024-08-18T07:39:03Z</time>
      </trkpt>
      <trkpt lat="46.53548" lon="0.32585">
        <ele>92.2</ele>
        <time>2024-08-18T07:39:04Z</time>
      </trkpt>
      <trkpt lat="46.53549" lon="0.32586">
        <ele>92.4</ele>
        <time>2024-08-18T07:39:05Z</time>
      </trkpt>
      <trkpt lat="46.53549" lon="0.32589">
        <ele>93.2</ele>
        <time>2024-08-18T07:39:07Z</time>
      </trkpt>
      <trkpt lat="46.5355" lon="0.3259">
        <ele>93.6</ele>
        <time>2024-08-18T07:39:08Z</time>
      </trkpt>
      <trkpt lat="46.5355" lon="0.32592">
        <ele>94</ele>
        <time>2024-08-18T07:39:09Z</time>
      </trkpt>
      <trkpt lat="46.5355" lon="0.32594">
        <ele>94.4</ele>
        <time>2024-08-18T07:39:11Z</time>
      </trkpt>
      <trkpt lat="46.53554" lon="0.32595">
        <ele>95.6</ele>
        <time>2024-08-18T07:39:14Z</time>
      </trkpt>
      <trkpt lat="46.53558" lon="0.32595">
        <ele>95.4</ele>
        <time>2024-08-18T07:39:17Z</time>
      </trkpt>
      <trkpt lat="46.53566" lon="0.32596">
        <ele>94.4</ele>
        <time>2024-08-18T07:39:22Z</time>
      </trkpt>
      <trkpt lat="46.53566" lon="0.32595">
        <ele>93.8</ele>
        <time>2024-08-18T07:39:32Z</time>
      </trkpt>
      <trkpt lat="46.53569" lon="0.32597">
        <ele>93.6</ele>
        <time>2024-08-18T07:39:48Z</time>
      </trkpt>
      <trkpt lat="46.53574" lon="0.32598">
        <ele>93.6</ele>
        <time>2024-08-18T07:39:51Z</time>
      </trkpt>
      <trkpt lat="46.53576" lon="0.32598">
        <ele>93.4</ele>
        <time>2024-08-18T07:39:52Z</time>
      </trkpt>
      <trkpt lat="46.53579" lon="0.32596">
        <ele>93</ele>
        <time>2024-08-18T07:39:53Z</time>
      </trkpt>
      <trkpt lat="46.53596" lon="0.32587">
        <ele>91.4</ele>
        <time>2024-08-18T07:39:56Z</time>
      </trkpt>
      <trkpt lat="46.53602" lon="0.32585">
        <ele>90.8</ele>
        <time>2024-08-18T07:39:57Z</time>
      </trkpt>
      <trkpt lat="46.53608" lon="0.32584">
        <ele>90</ele>
        <time>2024-08-18T07:39:58Z</time>
      </trkpt>
      <trkpt lat="46.53619" lon="0.32582">
        <ele>88.6</ele>
        <time>2024-08-18T07:40:00Z</time>
      </trkpt>
      <trkpt lat="46.53631" lon="0.32579">
        <ele>86.2</ele>
        <time>2024-08-18T07:40:03Z</time>
      </trkpt>
      <trkpt lat="46.53634" lon="0.32579">
        <ele>85.2</ele>
        <time>2024-08-18T07:40:04Z</time>
      </trkpt>
      <trkpt lat="46.53639" lon="0.3258">
        <ele>84</ele>
        <time>2024-08-18T07:40:08Z</time>
      </trkpt>
      <trkpt lat="46.5364" lon="0.3258">
        <ele>84</ele>
        <time>2024-08-18T07:40:09Z</time>
      </trkpt>
      <trkpt lat="46.53645" lon="0.32583">
        <ele>84.4</ele>
        <time>2024-08-18T07:40:17Z</time>
      </trkpt>
      <trkpt lat="46.53646" lon="0.32588">
        <ele>85</ele>
        <time>2024-08-18T07:40:22Z</time>
      </trkpt>
      <trkpt lat="46.53645" lon="0.32589">
        <ele>85.2</ele>
        <time>2024-08-18T07:40:23Z</time>
      </trkpt>
      <trkpt lat="46.53646" lon="0.32591">
        <ele>85.8</ele>
        <time>2024-08-18T07:40:25Z</time>
      </trkpt>
      <trkpt lat="46.53647" lon="0.32596">
        <ele>86.4</ele>
        <time>2024-08-18T07:40:28Z</time>
      </trkpt>
      <trkpt lat="46.53647" lon="0.32597">
        <ele>86.8</ele>
        <time>2024-08-18T07:40:29Z</time>
      </trkpt>
      <trkpt lat="46.53647" lon="0.32599">
        <ele>87.2</ele>
        <time>2024-08-18T07:40:30Z</time>
      </trkpt>
      <trkpt lat="46.53646" lon="0.326">
        <ele>87.6</ele>
        <time>2024-08-18T07:40:31Z</time>
      </trkpt>
      <trkpt lat="46.53644" lon="0.32603">
        <ele>88.6</ele>
        <time>2024-08-18T07:40:34Z</time>
      </trkpt>
      <trkpt lat="46.53642" lon="0.32605">
        <ele>89.6</ele>
        <time>2024-08-18T07:40:36Z</time>
      </trkpt>
      <trkpt lat="46.53642" lon="0.32606">
        <ele>90</ele>
        <time>2024-08-18T07:40:37Z</time>
      </trkpt>
      <trkpt lat="46.5364" lon="0.32613">
        <ele>91</ele>
        <time>2024-08-18T07:40:41Z</time>
      </trkpt>
      <trkpt lat="46.5364" lon="0.32618">
        <ele>91.8</ele>
        <time>2024-08-18T07:40:44Z</time>
      </trkpt>
      <trkpt lat="46.5364" lon="0.32622">
        <ele>92.2</ele>
        <time>2024-08-18T07:40:46Z</time>
      </trkpt>
      <trkpt lat="46.53647" lon="0.32631">
        <ele>92.6</ele>
        <time>2024-08-18T07:40:50Z</time>
      </trkpt>
      <trkpt lat="46.53653" lon="0.32643">
        <ele>93.4</ele>
        <time>2024-08-18T07:40:55Z</time>
      </trkpt>
      <trkpt lat="46.53654" lon="0.32654">
        <ele>94.4</ele>
        <time>2024-08-18T07:41:00Z</time>
      </trkpt>
      <trkpt lat="46.53655" lon="0.32656">
        <ele>95</ele>
        <time>2024-08-18T07:41:01Z</time>
      </trkpt>
      <trkpt lat="46.53655" lon="0.32661">
        <ele>95.8</ele>
        <time>2024-08-18T07:41:03Z</time>
      </trkpt>
      <trkpt lat="46.53654" lon="0.32667">
        <ele>97</ele>
        <time>2024-08-18T07:41:06Z</time>
      </trkpt>
      <trkpt lat="46.53654" lon="0.32668">
        <ele>97.4</ele>
        <time>2024-08-18T07:41:07Z</time>
      </trkpt>
      <trkpt lat="46.53654" lon="0.3267">
        <ele>97.6</ele>
        <time>2024-08-18T07:41:08Z</time>
      </trkpt>
      <trkpt lat="46.53654" lon="0.32671">
        <ele>98.4</ele>
        <time>2024-08-18T07:41:09Z</time>
      </trkpt>
      <trkpt lat="46.5365" lon="0.32679">
        <ele>99.6</ele>
        <time>2024-08-18T07:41:14Z</time>
      </trkpt>
      <trkpt lat="46.53644" lon="0.32685">
        <ele>100.6</ele>
        <time>2024-08-18T07:41:19Z</time>
      </trkpt>
      <trkpt lat="46.53642" lon="0.32689">
        <ele>101</ele>
        <time>2024-08-18T07:41:21Z</time>
      </trkpt>
      <trkpt lat="46.53642" lon="0.32694">
        <ele>101.4</ele>
        <time>2024-08-18T07:41:23Z</time>
      </trkpt>
      <trkpt lat="46.53642" lon="0.327">
        <ele>101.8</ele>
        <time>2024-08-18T07:41:25Z</time>
      </trkpt>
      <trkpt lat="46.53641" lon="0.32705">
        <ele>102.2</ele>
        <time>2024-08-18T07:41:27Z</time>
      </trkpt>
      <trkpt lat="46.53641" lon="0.32711">
        <ele>103</ele>
        <time>2024-08-18T07:41:30Z</time>
      </trkpt>
      <trkpt lat="46.53641" lon="0.32721">
        <ele>103.6</ele>
        <time>2024-08-18T07:41:34Z</time>
      </trkpt>
      <trkpt lat="46.53644" lon="0.32732">
        <ele>104.2</ele>
        <time>2024-08-18T07:41:38Z</time>
      </trkpt>
      <trkpt lat="46.53645" lon="0.32737">
        <ele>104.4</ele>
        <time>2024-08-18T07:41:41Z</time>
      </trkpt>
      <trkpt lat="46.53645" lon="0.32738">
        <ele>104.4</ele>
        <time>2024-08-18T07:41:43Z</time>
      </trkpt>
      <trkpt lat="46.53643" lon="0.32739">
        <ele>104.6</ele>
        <time>2024-08-18T07:41:49Z</time>
      </trkpt>
      <trkpt lat="46.53642" lon="0.32742">
        <ele>104.2</ele>
        <time>2024-08-18T07:42:09Z</time>
      </trkpt>
      <trkpt lat="46.53643" lon="0.32744">
        <ele>104.2</ele>
        <time>2024-08-18T07:42:24Z</time>
      </trkpt>
      <trkpt lat="46.53643" lon="0.32745">
        <ele>104.2</ele>
        <time>2024-08-18T07:42:42Z</time>
      </trkpt>
      <trkpt lat="46.53647" lon="0.32744">
        <ele>104</ele>
        <time>2024-08-18T07:42:48Z</time>
      </trkpt>
      <trkpt lat="46.53651" lon="0.32743">
        <ele>104</ele>
        <time>2024-08-18T07:42:50Z</time>
      </trkpt>
      <trkpt lat="46.53655" lon="0.32742">
        <ele>103.8</ele>
        <time>2024-08-18T07:42:52Z</time>
      </trkpt>
      <trkpt lat="46.53658" lon="0.32742">
        <ele>103.6</ele>
        <time>2024-08-18T07:42:53Z</time>
      </trkpt>
      <trkpt lat="46.53665" lon="0.32743">
        <ele>103</ele>
        <time>2024-08-18T07:42:55Z</time>
      </trkpt>
      <trkpt lat="46.53669" lon="0.32743">
        <ele>102.6</ele>
        <time>2024-08-18T07:42:56Z</time>
      </trkpt>
      <trkpt lat="46.53686" lon="0.32747">
        <ele>102</ele>
        <time>2024-08-18T07:43:00Z</time>
      </trkpt>
      <trkpt lat="46.53696" lon="0.32747">
        <ele>101.6</ele>
        <time>2024-08-18T07:43:02Z</time>
      </trkpt>
      <trkpt lat="46.53703" lon="0.32746">
        <ele>101</ele>
        <time>2024-08-18T07:43:04Z</time>
      </trkpt>
      <trkpt lat="46.53709" lon="0.32747">
        <ele>100.8</ele>
        <time>2024-08-18T07:43:05Z</time>
      </trkpt>
      <trkpt lat="46.53715" lon="0.32748">
        <ele>100.4</ele>
        <time>2024-08-18T07:43:06Z</time>
      </trkpt>
      <trkpt lat="46.53721" lon="0.32748">
        <ele>100.2</ele>
        <time>2024-08-18T07:43:07Z</time>
      </trkpt>
      <trkpt lat="46.53739" lon="0.3275">
        <ele>99.8</ele>
        <time>2024-08-18T07:43:10Z</time>
      </trkpt>
      <trkpt lat="46.53756" lon="0.32752">
        <ele>98.8</ele>
        <time>2024-08-18T07:43:13Z</time>
      </trkpt>
      <trkpt lat="46.53769" lon="0.32755">
        <ele>98.6</ele>
        <time>2024-08-18T07:43:15Z</time>
      </trkpt>
      <trkpt lat="46.53792" lon="0.32763">
        <ele>98.2</ele>
        <time>2024-08-18T07:43:19Z</time>
      </trkpt>
      <trkpt lat="46.53806" lon="0.32766">
        <ele>97.8</ele>
        <time>2024-08-18T07:43:21Z</time>
      </trkpt>
      <trkpt lat="46.53821" lon="0.32774">
        <ele>97.6</ele>
        <time>2024-08-18T07:43:24Z</time>
      </trkpt>
      <trkpt lat="46.53826" lon="0.32777">
        <ele>97.6</ele>
        <time>2024-08-18T07:43:25Z</time>
      </trkpt>
      <trkpt lat="46.53841" lon="0.32786">
        <ele>97.6</ele>
        <time>2024-08-18T07:43:28Z</time>
      </trkpt>
      <trkpt lat="46.5385" lon="0.32789">
        <ele>97.6</ele>
        <time>2024-08-18T07:43:30Z</time>
      </trkpt>
      <trkpt lat="46.53878" lon="0.328">
        <ele>97.4</ele>
        <time>2024-08-18T07:43:37Z</time>
      </trkpt>
      <trkpt lat="46.53882" lon="0.32801">
        <ele>97.4</ele>
        <time>2024-08-18T07:43:38Z</time>
      </trkpt>
      <trkpt lat="46.53896" lon="0.32798">
        <ele>97</ele>
        <time>2024-08-18T07:43:42Z</time>
      </trkpt>
      <trkpt lat="46.53903" lon="0.32796">
        <ele>96.4</ele>
        <time>2024-08-18T07:43:44Z</time>
      </trkpt>
      <trkpt lat="46.53913" lon="0.32795">
        <ele>94.8</ele>
        <time>2024-08-18T07:43:46Z</time>
      </trkpt>
      <trkpt lat="46.53916" lon="0.32795">
        <ele>94.4</ele>
        <time>2024-08-18T07:43:47Z</time>
      </trkpt>
      <trkpt lat="46.53922" lon="0.32794">
        <ele>93.2</ele>
        <time>2024-08-18T07:43:49Z</time>
      </trkpt>
      <trkpt lat="46.53926" lon="0.32793">
        <ele>92.4</ele>
        <time>2024-08-18T07:43:51Z</time>
      </trkpt>
      <trkpt lat="46.53928" lon="0.32793">
        <ele>92</ele>
        <time>2024-08-18T07:43:52Z</time>
      </trkpt>
      <trkpt lat="46.53931" lon="0.32793">
        <ele>91.8</ele>
        <time>2024-08-18T07:43:53Z</time>
      </trkpt>
      <trkpt lat="46.53946" lon="0.32798">
        <ele>91</ele>
        <time>2024-08-18T07:43:58Z</time>
      </trkpt>
      <trkpt lat="46.53949" lon="0.32799">
        <ele>91.2</ele>
        <time>2024-08-18T07:43:59Z</time>
      </trkpt>
      <trkpt lat="46.5395" lon="0.32799">
        <ele>91.4</ele>
        <time>2024-08-18T07:44:00Z</time>
      </trkpt>
      <trkpt lat="46.53952" lon="0.32799">
        <ele>91.4</ele>
        <time>2024-08-18T07:44:01Z</time>
      </trkpt>
      <trkpt lat="46.5396" lon="0.32802">
        <ele>92</ele>
        <time>2024-08-18T07:44:04Z</time>
      </trkpt>
      <trkpt lat="46.53967" lon="0.32806">
        <ele>92.2</ele>
        <time>2024-08-18T07:44:06Z</time>
      </trkpt>
      <trkpt lat="46.53969" lon="0.32808">
        <ele>92.4</ele>
        <time>2024-08-18T07:44:07Z</time>
      </trkpt>
      <trkpt lat="46.53972" lon="0.32816">
        <ele>93.4</ele>
        <time>2024-08-18T07:44:11Z</time>
      </trkpt>
      <trkpt lat="46.5397" lon="0.32819">
        <ele>94</ele>
        <time>2024-08-18T07:44:13Z</time>
      </trkpt>
      <trkpt lat="46.53969" lon="0.32822">
        <ele>94.6</ele>
        <time>2024-08-18T07:44:15Z</time>
      </trkpt>
      <trkpt lat="46.53967" lon="0.32826">
        <ele>95.8</ele>
        <time>2024-08-18T07:44:19Z</time>
      </trkpt>
      <trkpt lat="46.53964" lon="0.32829">
        <ele>96.4</ele>
        <time>2024-08-18T07:44:22Z</time>
      </trkpt>
      <trkpt lat="46.53958" lon="0.32832">
        <ele>96.6</ele>
        <time>2024-08-18T07:44:26Z</time>
      </trkpt>
      <trkpt lat="46.53958" lon="0.32832">
        <ele>96.8</ele>
        <time>2024-08-18T07:44:27Z</time>
      </trkpt>
      <trkpt lat="46.53955" lon="0.32838">
        <ele>96.8</ele>
        <time>2024-08-18T07:44:29Z</time>
      </trkpt>
      <trkpt lat="46.5395" lon="0.32844">
        <ele>97.2</ele>
        <time>2024-08-18T07:44:32Z</time>
      </trkpt>
      <trkpt lat="46.53946" lon="0.32844">
        <ele>97.6</ele>
        <time>2024-08-18T07:44:34Z</time>
      </trkpt>
      <trkpt lat="46.53941" lon="0.32845">
        <ele>97.8</ele>
        <time>2024-08-18T07:44:36Z</time>
      </trkpt>
      <trkpt lat="46.53933" lon="0.32849">
        <ele>99</ele>
        <time>2024-08-18T07:44:40Z</time>
      </trkpt>
      <trkpt lat="46.53918" lon="0.32856">
        <ele>99.8</ele>
        <time>2024-08-18T07:44:46Z</time>
      </trkpt>
      <trkpt lat="46.53916" lon="0.32858">
        <ele>100</ele>
        <time>2024-08-18T07:44:47Z</time>
      </trkpt>
      <trkpt lat="46.53914" lon="0.3286">
        <ele>100.2</ele>
        <time>2024-08-18T07:44:48Z</time>
      </trkpt>
      <trkpt lat="46.53912" lon="0.32862">
        <ele>100.6</ele>
        <time>2024-08-18T07:44:49Z</time>
      </trkpt>
      <trkpt lat="46.53908" lon="0.32866">
        <ele>100.8</ele>
        <time>2024-08-18T07:44:51Z</time>
      </trkpt>
      <trkpt lat="46.53908" lon="0.32869">
        <ele>100.8</ele>
        <time>2024-08-18T07:44:52Z</time>
      </trkpt>
      <trkpt lat="46.53907" lon="0.3288">
        <ele>100.6</ele>
        <time>2024-08-18T07:44:55Z</time>
      </trkpt>
      <trkpt lat="46.53906" lon="0.32889">
        <ele>99.8</ele>
        <time>2024-08-18T07:44:58Z</time>
      </trkpt>
      <trkpt lat="46.53905" lon="0.32892">
        <ele>99</ele>
        <time>2024-08-18T07:44:59Z</time>
      </trkpt>
      <trkpt lat="46.53902" lon="0.32893">
        <ele>98.4</ele>
        <time>2024-08-18T07:45:00Z</time>
      </trkpt>
      <trkpt lat="46.53898" lon="0.32897">
        <ele>98</ele>
        <time>2024-08-18T07:45:02Z</time>
      </trkpt>
      <trkpt lat="46.53893" lon="0.32906">
        <ele>98</ele>
        <time>2024-08-18T07:45:05Z</time>
      </trkpt>
      <trkpt lat="46.53883" lon="0.32916">
        <ele>98.2</ele>
        <time>2024-08-18T07:45:09Z</time>
      </trkpt>
      <trkpt lat="46.53882" lon="0.32918">
        <ele>98.2</ele>
        <time>2024-08-18T07:45:10Z</time>
      </trkpt>
      <trkpt lat="46.53878" lon="0.32926">
        <ele>98</ele>
        <time>2024-08-18T07:45:12Z</time>
      </trkpt>
      <trkpt lat="46.53876" lon="0.3293">
        <ele>97.4</ele>
        <time>2024-08-18T07:45:13Z</time>
      </trkpt>
      <trkpt lat="46.53872" lon="0.32935">
        <ele>96.6</ele>
        <time>2024-08-18T07:45:15Z</time>
      </trkpt>
      <trkpt lat="46.5387" lon="0.32938">
        <ele>96.4</ele>
        <time>2024-08-18T07:45:16Z</time>
      </trkpt>
      <trkpt lat="46.53868" lon="0.32942">
        <ele>96.2</ele>
        <time>2024-08-18T07:45:17Z</time>
      </trkpt>
      <trkpt lat="46.53865" lon="0.3295">
        <ele>95.2</ele>
        <time>2024-08-18T07:45:19Z</time>
      </trkpt>
      <trkpt lat="46.5386" lon="0.32962">
        <ele>94.2</ele>
        <time>2024-08-18T07:45:22Z</time>
      </trkpt>
      <trkpt lat="46.53853" lon="0.32973">
        <ele>93.6</ele>
        <time>2024-08-18T07:45:25Z</time>
      </trkpt>
      <trkpt lat="46.53837" lon="0.3299">
        <ele>94</ele>
        <time>2024-08-18T07:45:32Z</time>
      </trkpt>
      <trkpt lat="46.53823" lon="0.33004">
        <ele>95</ele>
        <time>2024-08-18T07:45:37Z</time>
      </trkpt>
      <trkpt lat="46.5382" lon="0.33007">
        <ele>95.4</ele>
        <time>2024-08-18T07:45:38Z</time>
      </trkpt>
      <trkpt lat="46.53815" lon="0.33014">
        <ele>95.8</ele>
        <time>2024-08-18T07:45:40Z</time>
      </trkpt>
      <trkpt lat="46.53808" lon="0.33023">
        <ele>96.4</ele>
        <time>2024-08-18T07:45:43Z</time>
      </trkpt>
      <trkpt lat="46.53799" lon="0.33038">
        <ele>97.6</ele>
        <time>2024-08-18T07:45:48Z</time>
      </trkpt>
      <trkpt lat="46.53795" lon="0.33043">
        <ele>97.8</ele>
        <time>2024-08-18T07:45:50Z</time>
      </trkpt>
      <trkpt lat="46.53783" lon="0.33063">
        <ele>98.2</ele>
        <time>2024-08-18T07:45:56Z</time>
      </trkpt>
      <trkpt lat="46.53769" lon="0.33084">
        <ele>98</ele>
        <time>2024-08-18T07:46:03Z</time>
      </trkpt>
      <trkpt lat="46.53755" lon="0.33101">
        <ele>98</ele>
        <time>2024-08-18T07:46:08Z</time>
      </trkpt>
      <trkpt lat="46.5375" lon="0.33114">
        <ele>98</ele>
        <time>2024-08-18T07:46:11Z</time>
      </trkpt>
      <trkpt lat="46.5375" lon="0.33124">
        <ele>98</ele>
        <time>2024-08-18T07:46:13Z</time>
      </trkpt>
      <trkpt lat="46.53753" lon="0.3314">
        <ele>96</ele>
        <time>2024-08-18T07:46:17Z</time>
      </trkpt>
      <trkpt lat="46.53751" lon="0.33143">
        <ele>95.4</ele>
        <time>2024-08-18T07:46:18Z</time>
      </trkpt>
      <trkpt lat="46.53747" lon="0.33156">
        <ele>94.8</ele>
        <time>2024-08-18T07:46:21Z</time>
      </trkpt>
      <trkpt lat="46.53749" lon="0.33167">
        <ele>94.8</ele>
        <time>2024-08-18T07:46:23Z</time>
      </trkpt>
      <trkpt lat="46.53756" lon="0.33198">
        <ele>95</ele>
        <time>2024-08-18T07:46:29Z</time>
      </trkpt>
      <trkpt lat="46.5376" lon="0.33223">
        <ele>95.2</ele>
        <time>2024-08-18T07:46:36Z</time>
      </trkpt>
      <trkpt lat="46.53761" lon="0.33233">
        <ele>94.2</ele>
        <time>2024-08-18T07:46:41Z</time>
      </trkpt>
      <trkpt lat="46.53763" lon="0.33246">
        <ele>93.8</ele>
        <time>2024-08-18T07:46:49Z</time>
      </trkpt>
      <trkpt lat="46.53763" lon="0.33248">
        <ele>93.8</ele>
        <time>2024-08-18T07:46:50Z</time>
      </trkpt>
      <trkpt lat="46.53764" lon="0.33249">
        <ele>93</ele>
        <time>2024-08-18T07:46:52Z</time>
      </trkpt>
      <trkpt lat="46.53765" lon="0.33249">
        <ele>92.6</ele>
        <time>2024-08-18T07:46:53Z</time>
      </trkpt>
      <trkpt lat="46.53767" lon="0.33251">
        <ele>91.2</ele>
        <time>2024-08-18T07:46:55Z</time>
      </trkpt>
      <trkpt lat="46.5377" lon="0.33255">
        <ele>90.4</ele>
        <time>2024-08-18T07:46:59Z</time>
      </trkpt>
      <trkpt lat="46.5377" lon="0.33256">
        <ele>90</ele>
        <time>2024-08-18T07:47:00Z</time>
      </trkpt>
      <trkpt lat="46.53773" lon="0.33259">
        <ele>89</ele>
        <time>2024-08-18T07:47:03Z</time>
      </trkpt>
      <trkpt lat="46.53774" lon="0.3326">
        <ele>88.8</ele>
        <time>2024-08-18T07:47:04Z</time>
      </trkpt>
      <trkpt lat="46.53776" lon="0.33263">
        <ele>87.6</ele>
        <time>2024-08-18T07:47:06Z</time>
      </trkpt>
      <trkpt lat="46.53778" lon="0.33267">
        <ele>86.4</ele>
        <time>2024-08-18T07:47:08Z</time>
      </trkpt>
      <trkpt lat="46.53779" lon="0.3327">
        <ele>85</ele>
        <time>2024-08-18T07:47:10Z</time>
      </trkpt>
      <trkpt lat="46.53781" lon="0.33276">
        <ele>84</ele>
        <time>2024-08-18T07:47:15Z</time>
      </trkpt>
      <trkpt lat="46.53781" lon="0.33276">
        <ele>83.6</ele>
        <time>2024-08-18T07:47:16Z</time>
      </trkpt>
      <trkpt lat="46.53782" lon="0.33275">
        <ele>83.6</ele>
        <time>2024-08-18T07:47:17Z</time>
      </trkpt>
      <trkpt lat="46.53784" lon="0.33275">
        <ele>83</ele>
        <time>2024-08-18T07:47:19Z</time>
      </trkpt>
      <trkpt lat="46.53785" lon="0.33275">
        <ele>82.8</ele>
        <time>2024-08-18T07:47:20Z</time>
      </trkpt>
      <trkpt lat="46.53787" lon="0.33278">
        <ele>81.6</ele>
        <time>2024-08-18T07:47:23Z</time>
      </trkpt>
      <trkpt lat="46.5379" lon="0.33276">
        <ele>80.4</ele>
        <time>2024-08-18T07:47:26Z</time>
      </trkpt>
      <trkpt lat="46.53791" lon="0.33275">
        <ele>80.2</ele>
        <time>2024-08-18T07:47:27Z</time>
      </trkpt>
      <trkpt lat="46.53794" lon="0.33273">
        <ele>79</ele>
        <time>2024-08-18T07:47:29Z</time>
      </trkpt>
      <trkpt lat="46.53796" lon="0.33273">
        <ele>78.6</ele>
        <time>2024-08-18T07:47:30Z</time>
      </trkpt>
      <trkpt lat="46.538" lon="0.33274">
        <ele>78</ele>
        <time>2024-08-18T07:47:31Z</time>
      </trkpt>
      <trkpt lat="46.53803" lon="0.33273">
        <ele>76.4</ele>
        <time>2024-08-18T07:47:32Z</time>
      </trkpt>
      <trkpt lat="46.53805" lon="0.33271">
        <ele>75</ele>
        <time>2024-08-18T07:47:33Z</time>
      </trkpt>
      <trkpt lat="46.53808" lon="0.33268">
        <ele>74.4</ele>
        <time>2024-08-18T07:47:34Z</time>
      </trkpt>
      <trkpt lat="46.53809" lon="0.33264">
        <ele>74</ele>
        <time>2024-08-18T07:47:35Z</time>
      </trkpt>
      <trkpt lat="46.53811" lon="0.33259">
        <ele>73.4</ele>
        <time>2024-08-18T07:47:36Z</time>
      </trkpt>
      <trkpt lat="46.53813" lon="0.33254">
        <ele>72.8</ele>
        <time>2024-08-18T07:47:37Z</time>
      </trkpt>
      <trkpt lat="46.53819" lon="0.33236">
        <ele>71.4</ele>
        <time>2024-08-18T07:47:40Z</time>
      </trkpt>
      <trkpt lat="46.5382" lon="0.33224">
        <ele>71</ele>
        <time>2024-08-18T07:47:42Z</time>
      </trkpt>
      <trkpt lat="46.53821" lon="0.33213">
        <ele>70.2</ele>
        <time>2024-08-18T07:47:44Z</time>
      </trkpt>
      <trkpt lat="46.53821" lon="0.33201">
        <ele>69.6</ele>
        <time>2024-08-18T07:47:46Z</time>
      </trkpt>
      <trkpt lat="46.53822" lon="0.3319">
        <ele>69</ele>
        <time>2024-08-18T07:47:48Z</time>
      </trkpt>
      <trkpt lat="46.53825" lon="0.3318">
        <ele>68.6</ele>
        <time>2024-08-18T07:47:50Z</time>
      </trkpt>
      <trkpt lat="46.53828" lon="0.33167">
        <ele>67.8</ele>
        <time>2024-08-18T07:47:53Z</time>
      </trkpt>
      <trkpt lat="46.53831" lon="0.33166">
        <ele>67.8</ele>
        <time>2024-08-18T07:47:54Z</time>
      </trkpt>
      <trkpt lat="46.53848" lon="0.33169">
        <ele>66.2</ele>
        <time>2024-08-18T07:47:57Z</time>
      </trkpt>
      <trkpt lat="46.53852" lon="0.33171">
        <ele>65.6</ele>
        <time>2024-08-18T07:47:58Z</time>
      </trkpt>
      <trkpt lat="46.53857" lon="0.33173">
        <ele>65.2</ele>
        <time>2024-08-18T07:47:59Z</time>
      </trkpt>
      <trkpt lat="46.53857" lon="0.33175">
        <ele>65</ele>
        <time>2024-08-18T07:48:00Z</time>
      </trkpt>
      <trkpt lat="46.53862" lon="0.3318">
        <ele>64.6</ele>
        <time>2024-08-18T07:48:03Z</time>
      </trkpt>
      <trkpt lat="46.53866" lon="0.33183">
        <ele>64.4</ele>
        <time>2024-08-18T07:48:06Z</time>
      </trkpt>
      <trkpt lat="46.53871" lon="0.33184">
        <ele>64.4</ele>
        <time>2024-08-18T07:48:08Z</time>
      </trkpt>
      <trkpt lat="46.53871" lon="0.33184">
        <ele>64.4</ele>
        <time>2024-08-18T07:48:09Z</time>
      </trkpt>
      <trkpt lat="46.53875" lon="0.33188">
        <ele>64</ele>
        <time>2024-08-18T07:48:19Z</time>
      </trkpt>
      <trkpt lat="46.53875" lon="0.33188">
        <ele>64</ele>
        <time>2024-08-18T07:48:23Z</time>
      </trkpt>
      <trkpt lat="46.53875" lon="0.33187">
        <ele>64</ele>
        <time>2024-08-18T07:48:44Z</time>
      </trkpt>
      <trkpt lat="46.53879" lon="0.33187">
        <ele>64</ele>
        <time>2024-08-18T07:48:59Z</time>
      </trkpt>
      <trkpt lat="46.53881" lon="0.33187">
        <ele>64</ele>
        <time>2024-08-18T07:49:17Z</time>
      </trkpt>
      <trkpt lat="46.53889" lon="0.33188">
        <ele>64</ele>
        <time>2024-08-18T07:49:33Z</time>
      </trkpt>
      <trkpt lat="46.53896" lon="0.33187">
        <ele>64</ele>
        <time>2024-08-18T07:49:46Z</time>
      </trkpt>
      <trkpt lat="46.53897" lon="0.33186">
        <ele>64</ele>
        <time>2024-08-18T07:50:02Z</time>
      </trkpt>
      <trkpt lat="46.53901" lon="0.33186">
        <ele>64</ele>
        <time>2024-08-18T07:50:20Z</time>
      </trkpt>
      <trkpt lat="46.53903" lon="0.33185">
        <ele>64</ele>
        <time>2024-08-18T07:50:24Z</time>
      </trkpt>
      <trkpt lat="46.53908" lon="0.33183">
        <ele>64</ele>
        <time>2024-08-18T07:50:35Z</time>
      </trkpt>
      <trkpt lat="46.53918" lon="0.33182">
        <ele>64</ele>
        <time>2024-08-18T07:50:50Z</time>
      </trkpt>
      <trkpt lat="46.53924" lon="0.33182">
        <ele>64</ele>
        <time>2024-08-18T07:51:04Z</time>
      </trkpt>
      <trkpt lat="46.53926" lon="0.33186">
        <ele>64</ele>
        <time>2024-08-18T07:51:18Z</time>
      </trkpt>
      <trkpt lat="46.53928" lon="0.33188">
        <ele>64</ele>
        <time>2024-08-18T07:51:33Z</time>
      </trkpt>
      <trkpt lat="46.53929" lon="0.33188">
        <ele>64</ele>
        <time>2024-08-18T07:51:34Z</time>
      </trkpt>
      <trkpt lat="46.53934" lon="0.33187">
        <ele>64</ele>
        <time>2024-08-18T07:51:42Z</time>
      </trkpt>
      <trkpt lat="46.53935" lon="0.33187">
        <ele>64</ele>
        <time>2024-08-18T07:51:45Z</time>
      </trkpt>
      <trkpt lat="46.53936" lon="0.33185">
        <ele>64.4</ele>
        <time>2024-08-18T07:51:57Z</time>
      </trkpt>
      <trkpt lat="46.53936" lon="0.33186">
        <ele>64.4</ele>
        <time>2024-08-18T07:52:13Z</time>
      </trkpt>
      <trkpt lat="46.53936" lon="0.33183">
        <ele>64.4</ele>
        <time>2024-08-18T07:52:29Z</time>
      </trkpt>
      <trkpt lat="46.53935" lon="0.33165">
        <ele>64.6</ele>
        <time>2024-08-18T07:52:37Z</time>
      </trkpt>
      <trkpt lat="46.53933" lon="0.33145">
        <ele>64.8</ele>
        <time>2024-08-18T07:52:43Z</time>
      </trkpt>
      <trkpt lat="46.53934" lon="0.33125">
        <ele>65</ele>
        <time>2024-08-18T07:52:47Z</time>
      </trkpt>
      <trkpt lat="46.53934" lon="0.33121">
        <ele>65.2</ele>
        <time>2024-08-18T07:52:48Z</time>
      </trkpt>
      <trkpt lat="46.53937" lon="0.33107">
        <ele>64.8</ele>
        <time>2024-08-18T07:52:53Z</time>
      </trkpt>
      <trkpt lat="46.53944" lon="0.33085">
        <ele>64.8</ele>
        <time>2024-08-18T07:52:59Z</time>
      </trkpt>
      <trkpt lat="46.53952" lon="0.33061">
        <ele>64.4</ele>
        <time>2024-08-18T07:53:06Z</time>
      </trkpt>
      <trkpt lat="46.53963" lon="0.33061">
        <ele>64.4</ele>
        <time>2024-08-18T07:53:10Z</time>
      </trkpt>
      <trkpt lat="46.53973" lon="0.33058">
        <ele>64.4</ele>
        <time>2024-08-18T07:53:13Z</time>
      </trkpt>
      <trkpt lat="46.53976" lon="0.33054">
        <ele>64.2</ele>
        <time>2024-08-18T07:53:15Z</time>
      </trkpt>
      <trkpt lat="46.53989" lon="0.33046">
        <ele>64.4</ele>
        <time>2024-08-18T07:53:21Z</time>
      </trkpt>
      <trkpt lat="46.54007" lon="0.33028">
        <ele>65</ele>
        <time>2024-08-18T07:53:27Z</time>
      </trkpt>
      <trkpt lat="46.5402" lon="0.33007">
        <ele>65.2</ele>
        <time>2024-08-18T07:53:33Z</time>
      </trkpt>
      <trkpt lat="46.5404" lon="0.32981">
        <ele>65</ele>
        <time>2024-08-18T07:53:39Z</time>
      </trkpt>
      <trkpt lat="46.54057" lon="0.3296">
        <ele>65</ele>
        <time>2024-08-18T07:53:44Z</time>
      </trkpt>
      <trkpt lat="46.54062" lon="0.32951">
        <ele>64.8</ele>
        <time>2024-08-18T07:53:46Z</time>
      </trkpt>
      <trkpt lat="46.54065" lon="0.32948">
        <ele>64.8</ele>
        <time>2024-08-18T07:53:47Z</time>
      </trkpt>
      <trkpt lat="46.54073" lon="0.32937">
        <ele>64.8</ele>
        <time>2024-08-18T07:53:50Z</time>
      </trkpt>
      <trkpt lat="46.54077" lon="0.32934">
        <ele>64.8</ele>
        <time>2024-08-18T07:53:51Z</time>
      </trkpt>
      <trkpt lat="46.54096" lon="0.32913">
        <ele>64.8</ele>
        <time>2024-08-18T07:53:57Z</time>
      </trkpt>
      <trkpt lat="46.54102" lon="0.32905">
        <ele>65.2</ele>
        <time>2024-08-18T07:53:59Z</time>
      </trkpt>
      <trkpt lat="46.54108" lon="0.32892">
        <ele>65.2</ele>
        <time>2024-08-18T07:54:02Z</time>
      </trkpt>
      <trkpt lat="46.54111" lon="0.32883">
        <ele>65</ele>
        <time>2024-08-18T07:54:04Z</time>
      </trkpt>
      <trkpt lat="46.54116" lon="0.32877">
        <ele>64.6</ele>
        <time>2024-08-18T07:54:06Z</time>
      </trkpt>
      <trkpt lat="46.5412" lon="0.32875">
        <ele>64.6</ele>
        <time>2024-08-18T07:54:07Z</time>
      </trkpt>
      <trkpt lat="46.54136" lon="0.32862">
        <ele>64.6</ele>
        <time>2024-08-18T07:54:13Z</time>
      </trkpt>
      <trkpt lat="46.54148" lon="0.32864">
        <ele>64.6</ele>
        <time>2024-08-18T07:54:17Z</time>
      </trkpt>
      <trkpt lat="46.54167" lon="0.3286">
        <ele>64.6</ele>
        <time>2024-08-18T07:54:22Z</time>
      </trkpt>
      <trkpt lat="46.54174" lon="0.32858">
        <ele>64.8</ele>
        <time>2024-08-18T07:54:24Z</time>
      </trkpt>
      <trkpt lat="46.54186" lon="0.32857">
        <ele>65</ele>
        <time>2024-08-18T07:54:27Z</time>
      </trkpt>
      <trkpt lat="46.54189" lon="0.32857">
        <ele>65</ele>
        <time>2024-08-18T07:54:28Z</time>
      </trkpt>
      <trkpt lat="46.54208" lon="0.32859">
        <ele>65</ele>
        <time>2024-08-18T07:54:32Z</time>
      </trkpt>
      <trkpt lat="46.54233" lon="0.32863">
        <ele>65</ele>
        <time>2024-08-18T07:54:38Z</time>
      </trkpt>
      <trkpt lat="46.54253" lon="0.3286">
        <ele>64.8</ele>
        <time>2024-08-18T07:54:44Z</time>
      </trkpt>
      <trkpt lat="46.5426" lon="0.32859">
        <ele>64.8</ele>
        <time>2024-08-18T07:54:46Z</time>
      </trkpt>
      <trkpt lat="46.54275" lon="0.32857">
        <ele>64.8</ele>
        <time>2024-08-18T07:54:51Z</time>
      </trkpt>
      <trkpt lat="46.54278" lon="0.32856">
        <ele>64.6</ele>
        <time>2024-08-18T07:54:52Z</time>
      </trkpt>
      <trkpt lat="46.54295" lon="0.32851">
        <ele>64.6</ele>
        <time>2024-08-18T07:54:56Z</time>
      </trkpt>
      <trkpt lat="46.54315" lon="0.32848">
        <ele>64.6</ele>
        <time>2024-08-18T07:55:02Z</time>
      </trkpt>
      <trkpt lat="46.54321" lon="0.32853">
        <ele>64.6</ele>
        <time>2024-08-18T07:55:04Z</time>
      </trkpt>
      <trkpt lat="46.54328" lon="0.32859">
        <ele>64.6</ele>
        <time>2024-08-18T07:55:06Z</time>
      </trkpt>
      <trkpt lat="46.54332" lon="0.32862">
        <ele>64.6</ele>
        <time>2024-08-18T07:55:07Z</time>
      </trkpt>
      <trkpt lat="46.54335" lon="0.32865">
        <ele>64.8</ele>
        <time>2024-08-18T07:55:08Z</time>
      </trkpt>
      <trkpt lat="46.54343" lon="0.32871">
        <ele>64.6</ele>
        <time>2024-08-18T07:55:10Z</time>
      </trkpt>
      <trkpt lat="46.54352" lon="0.32876">
        <ele>64.8</ele>
        <time>2024-08-18T07:55:12Z</time>
      </trkpt>
      <trkpt lat="46.54358" lon="0.32881">
        <ele>64.8</ele>
        <time>2024-08-18T07:55:14Z</time>
      </trkpt>
      <trkpt lat="46.54365" lon="0.32892">
        <ele>64.4</ele>
        <time>2024-08-18T07:55:17Z</time>
      </trkpt>
      <trkpt lat="46.54383" lon="0.32914">
        <ele>64.6</ele>
        <time>2024-08-18T07:55:23Z</time>
      </trkpt>
      <trkpt lat="46.54397" lon="0.32937">
        <ele>64.6</ele>
        <time>2024-08-18T07:55:29Z</time>
      </trkpt>
      <trkpt lat="46.54408" lon="0.32942">
        <ele>64.6</ele>
        <time>2024-08-18T07:55:33Z</time>
      </trkpt>
      <trkpt lat="46.54416" lon="0.32953">
        <ele>64.2</ele>
        <time>2024-08-18T07:55:38Z</time>
      </trkpt>
      <trkpt lat="46.54418" lon="0.32958">
        <ele>64.2</ele>
        <time>2024-08-18T07:55:39Z</time>
      </trkpt>
      <trkpt lat="46.54419" lon="0.32963">
        <ele>64.4</ele>
        <time>2024-08-18T07:55:40Z</time>
      </trkpt>
      <trkpt lat="46.54428" lon="0.32974">
        <ele>64.6</ele>
        <time>2024-08-18T07:55:43Z</time>
      </trkpt>
      <trkpt lat="46.54434" lon="0.32982">
        <ele>64.8</ele>
        <time>2024-08-18T07:55:45Z</time>
      </trkpt>
      <trkpt lat="46.54449" lon="0.32998">
        <ele>65</ele>
        <time>2024-08-18T07:55:50Z</time>
      </trkpt>
      <trkpt lat="46.54466" lon="0.33022">
        <ele>64.4</ele>
        <time>2024-08-18T07:55:56Z</time>
      </trkpt>
      <trkpt lat="46.54472" lon="0.3303">
        <ele>64.2</ele>
        <time>2024-08-18T07:55:58Z</time>
      </trkpt>
      <trkpt lat="46.54478" lon="0.33038">
        <ele>64.2</ele>
        <time>2024-08-18T07:56:00Z</time>
      </trkpt>
      <trkpt lat="46.54486" lon="0.33053">
        <ele>64.2</ele>
        <time>2024-08-18T07:56:03Z</time>
      </trkpt>
      <trkpt lat="46.54491" lon="0.33061">
        <ele>64.2</ele>
        <time>2024-08-18T07:56:05Z</time>
      </trkpt>
      <trkpt lat="46.54495" lon="0.33067">
        <ele>64.2</ele>
        <time>2024-08-18T07:56:07Z</time>
      </trkpt>
      <trkpt lat="46.54508" lon="0.33096">
        <ele>64.2</ele>
        <time>2024-08-18T07:56:13Z</time>
      </trkpt>
      <trkpt lat="46.54521" lon="0.33119">
        <ele>64</ele>
        <time>2024-08-18T07:56:18Z</time>
      </trkpt>
      <trkpt lat="46.54525" lon="0.33123">
        <ele>64</ele>
        <time>2024-08-18T07:56:19Z</time>
      </trkpt>
      <trkpt lat="46.5453" lon="0.33132">
        <ele>64</ele>
        <time>2024-08-18T07:56:21Z</time>
      </trkpt>
      <trkpt lat="46.54537" lon="0.33147">
        <ele>64.2</ele>
        <time>2024-08-18T07:56:24Z</time>
      </trkpt>
      <trkpt lat="46.54544" lon="0.33159">
        <ele>64.2</ele>
        <time>2024-08-18T07:56:27Z</time>
      </trkpt>
      <trkpt lat="46.5455" lon="0.33168">
        <ele>64.2</ele>
        <time>2024-08-18T07:56:30Z</time>
      </trkpt>
      <trkpt lat="46.54559" lon="0.33187">
        <ele>64.6</ele>
        <time>2024-08-18T07:56:35Z</time>
      </trkpt>
      <trkpt lat="46.54563" lon="0.33192">
        <ele>64.4</ele>
        <time>2024-08-18T07:56:37Z</time>
      </trkpt>
      <trkpt lat="46.54569" lon="0.33196">
        <ele>64.4</ele>
        <time>2024-08-18T07:56:39Z</time>
      </trkpt>
      <trkpt lat="46.5458" lon="0.33215">
        <ele>64.6</ele>
        <time>2024-08-18T07:56:43Z</time>
      </trkpt>
      <trkpt lat="46.54583" lon="0.3322">
        <ele>64.6</ele>
        <time>2024-08-18T07:56:44Z</time>
      </trkpt>
      <trkpt lat="46.54586" lon="0.33225">
        <ele>64.6</ele>
        <time>2024-08-18T07:56:45Z</time>
      </trkpt>
      <trkpt lat="46.54597" lon="0.33244">
        <ele>64.2</ele>
        <time>2024-08-18T07:56:49Z</time>
      </trkpt>
      <trkpt lat="46.54606" lon="0.33261">
        <ele>64.2</ele>
        <time>2024-08-18T07:56:53Z</time>
      </trkpt>
      <trkpt lat="46.54611" lon="0.33267">
        <ele>64.2</ele>
        <time>2024-08-18T07:56:55Z</time>
      </trkpt>
      <trkpt lat="46.54613" lon="0.33271">
        <ele>64</ele>
        <time>2024-08-18T07:56:56Z</time>
      </trkpt>
      <trkpt lat="46.54622" lon="0.33287">
        <ele>64</ele>
        <time>2024-08-18T07:57:00Z</time>
      </trkpt>
      <trkpt lat="46.54637" lon="0.33305">
        <ele>64</ele>
        <time>2024-08-18T07:57:05Z</time>
      </trkpt>
      <trkpt lat="46.54647" lon="0.33313">
        <ele>64.2</ele>
        <time>2024-08-18T07:57:07Z</time>
      </trkpt>
      <trkpt lat="46.54661" lon="0.33322">
        <ele>64.2</ele>
        <time>2024-08-18T07:57:10Z</time>
      </trkpt>
      <trkpt lat="46.54674" lon="0.33329">
        <ele>64.4</ele>
        <time>2024-08-18T07:57:13Z</time>
      </trkpt>
      <trkpt lat="46.5469" lon="0.33341">
        <ele>64.4</ele>
        <time>2024-08-18T07:57:17Z</time>
      </trkpt>
      <trkpt lat="46.54717" lon="0.33362">
        <ele>64.4</ele>
        <time>2024-08-18T07:57:23Z</time>
      </trkpt>
      <trkpt lat="46.54737" lon="0.33379">
        <ele>64.6</ele>
        <time>2024-08-18T07:57:28Z</time>
      </trkpt>
      <trkpt lat="46.54762" lon="0.33401">
        <ele>64.6</ele>
        <time>2024-08-18T07:57:35Z</time>
      </trkpt>
      <trkpt lat="46.54766" lon="0.33403">
        <ele>64.6</ele>
        <time>2024-08-18T07:57:36Z</time>
      </trkpt>
      <trkpt lat="46.54774" lon="0.33407">
        <ele>64.4</ele>
        <time>2024-08-18T07:57:38Z</time>
      </trkpt>
      <trkpt lat="46.54782" lon="0.33406">
        <ele>64.2</ele>
        <time>2024-08-18T07:57:40Z</time>
      </trkpt>
      <trkpt lat="46.54805" lon="0.33398">
        <ele>64.2</ele>
        <time>2024-08-18T07:57:46Z</time>
      </trkpt>
      <trkpt lat="46.5481" lon="0.33399">
        <ele>64.4</ele>
        <time>2024-08-18T07:57:47Z</time>
      </trkpt>
      <trkpt lat="46.54815" lon="0.33402">
        <ele>64.4</ele>
        <time>2024-08-18T07:57:48Z</time>
      </trkpt>
      <trkpt lat="46.54823" lon="0.33412">
        <ele>64.4</ele>
        <time>2024-08-18T07:57:50Z</time>
      </trkpt>
      <trkpt lat="46.54849" lon="0.33442">
        <ele>64.8</ele>
        <time>2024-08-18T07:57:56Z</time>
      </trkpt>
      <trkpt lat="46.54877" lon="0.33482">
        <ele>64.4</ele>
        <time>2024-08-18T07:58:03Z</time>
      </trkpt>
      <trkpt lat="46.54901" lon="0.33518">
        <ele>64.2</ele>
        <time>2024-08-18T07:58:10Z</time>
      </trkpt>
      <trkpt lat="46.54929" lon="0.33551">
        <ele>63.8</ele>
        <time>2024-08-18T07:58:18Z</time>
      </trkpt>
      <trkpt lat="46.54939" lon="0.33564">
        <ele>64.4</ele>
        <time>2024-08-18T07:58:22Z</time>
      </trkpt>
      <trkpt lat="46.54944" lon="0.33571">
        <ele>64.2</ele>
        <time>2024-08-18T07:58:24Z</time>
      </trkpt>
      <trkpt lat="46.54952" lon="0.33581">
        <ele>64</ele>
        <time>2024-08-18T07:58:27Z</time>
      </trkpt>
      <trkpt lat="46.54961" lon="0.33588">
        <ele>63.6</ele>
        <time>2024-08-18T07:58:30Z</time>
      </trkpt>
      <trkpt lat="46.54965" lon="0.33592">
        <ele>63.6</ele>
        <time>2024-08-18T07:58:33Z</time>
      </trkpt>
      <trkpt lat="46.54966" lon="0.33595">
        <ele>63.8</ele>
        <time>2024-08-18T07:58:35Z</time>
      </trkpt>
      <trkpt lat="46.54966" lon="0.33605">
        <ele>64</ele>
        <time>2024-08-18T07:58:39Z</time>
      </trkpt>
      <trkpt lat="46.54966" lon="0.33607">
        <ele>64</ele>
        <time>2024-08-18T07:58:40Z</time>
      </trkpt>
      <trkpt lat="46.54968" lon="0.33609">
        <ele>64.2</ele>
        <time>2024-08-18T07:58:41Z</time>
      </trkpt>
      <trkpt lat="46.54979" lon="0.33614">
        <ele>64.4</ele>
        <time>2024-08-18T07:58:47Z</time>
      </trkpt>
      <trkpt lat="46.54989" lon="0.33619">
        <ele>64.8</ele>
        <time>2024-08-18T07:58:50Z</time>
      </trkpt>
      <trkpt lat="46.55008" lon="0.33629">
        <ele>65</ele>
        <time>2024-08-18T07:58:57Z</time>
      </trkpt>
      <trkpt lat="46.55012" lon="0.33632">
        <ele>64.8</ele>
        <time>2024-08-18T07:58:59Z</time>
      </trkpt>
      <trkpt lat="46.55014" lon="0.33639">
        <ele>64.8</ele>
        <time>2024-08-18T07:59:01Z</time>
      </trkpt>
      <trkpt lat="46.55014" lon="0.33643">
        <ele>65</ele>
        <time>2024-08-18T07:59:02Z</time>
      </trkpt>
      <trkpt lat="46.55012" lon="0.33662">
        <ele>65.2</ele>
        <time>2024-08-18T07:59:07Z</time>
      </trkpt>
      <trkpt lat="46.55011" lon="0.33685">
        <ele>64.6</ele>
        <time>2024-08-18T07:59:13Z</time>
      </trkpt>
      <trkpt lat="46.5501" lon="0.33704">
        <ele>64.2</ele>
        <time>2024-08-18T07:59:18Z</time>
      </trkpt>
      <trkpt lat="46.5501" lon="0.3371">
        <ele>64.2</ele>
        <time>2024-08-18T07:59:21Z</time>
      </trkpt>
      <trkpt lat="46.55012" lon="0.33712">
        <ele>64.2</ele>
        <time>2024-08-18T07:59:23Z</time>
      </trkpt>
      <trkpt lat="46.55013" lon="0.33713">
        <ele>64.4</ele>
        <time>2024-08-18T07:59:24Z</time>
      </trkpt>
      <trkpt lat="46.5502" lon="0.33715">
        <ele>64</ele>
        <time>2024-08-18T07:59:29Z</time>
      </trkpt>
      <trkpt lat="46.55025" lon="0.33717">
        <ele>63.6</ele>
        <time>2024-08-18T07:59:32Z</time>
      </trkpt>
      <trkpt lat="46.55036" lon="0.33717">
        <ele>63.6</ele>
        <time>2024-08-18T07:59:36Z</time>
      </trkpt>
      <trkpt lat="46.55039" lon="0.33717">
        <ele>63.6</ele>
        <time>2024-08-18T07:59:37Z</time>
      </trkpt>
      <trkpt lat="46.55047" lon="0.3372">
        <ele>63.8</ele>
        <time>2024-08-18T07:59:39Z</time>
      </trkpt>
      <trkpt lat="46.55051" lon="0.33721">
        <ele>63.6</ele>
        <time>2024-08-18T07:59:40Z</time>
      </trkpt>
      <trkpt lat="46.5507" lon="0.33725">
        <ele>63.6</ele>
        <time>2024-08-18T07:59:46Z</time>
      </trkpt>
      <trkpt lat="46.55091" lon="0.33728">
        <ele>63.6</ele>
        <time>2024-08-18T07:59:53Z</time>
      </trkpt>
      <trkpt lat="46.55108" lon="0.33729">
        <ele>63.8</ele>
        <time>2024-08-18T07:59:59Z</time>
      </trkpt>
      <trkpt lat="46.55129" lon="0.33733">
        <ele>63.4</ele>
        <time>2024-08-18T08:00:06Z</time>
      </trkpt>
      <trkpt lat="46.55148" lon="0.33735">
        <ele>63.4</ele>
        <time>2024-08-18T08:00:13Z</time>
      </trkpt>
      <trkpt lat="46.55174" lon="0.33737">
        <ele>63.2</ele>
        <time>2024-08-18T08:00:20Z</time>
      </trkpt>
      <trkpt lat="46.55193" lon="0.33736">
        <ele>63.4</ele>
        <time>2024-08-18T08:00:26Z</time>
      </trkpt>
      <trkpt lat="46.5521" lon="0.33737">
        <ele>63.6</ele>
        <time>2024-08-18T08:00:32Z</time>
      </trkpt>
      <trkpt lat="46.55231" lon="0.33737">
        <ele>63.4</ele>
        <time>2024-08-18T08:00:38Z</time>
      </trkpt>
      <trkpt lat="46.55256" lon="0.33736">
        <ele>63.2</ele>
        <time>2024-08-18T08:00:44Z</time>
      </trkpt>
      <trkpt lat="46.55273" lon="0.33735">
        <ele>63.2</ele>
        <time>2024-08-18T08:00:48Z</time>
      </trkpt>
      <trkpt lat="46.55287" lon="0.33735">
        <ele>63.6</ele>
        <time>2024-08-18T08:00:51Z</time>
      </trkpt>
      <trkpt lat="46.55294" lon="0.33735">
        <ele>63.6</ele>
        <time>2024-08-18T08:00:52Z</time>
      </trkpt>
      <trkpt lat="46.55313" lon="0.33732">
        <ele>63.8</ele>
        <time>2024-08-18T08:00:55Z</time>
      </trkpt>
      <trkpt lat="46.55319" lon="0.33733">
        <ele>64</ele>
        <time>2024-08-18T08:00:56Z</time>
      </trkpt>
      <trkpt lat="46.55324" lon="0.33734">
        <ele>64</ele>
        <time>2024-08-18T08:00:57Z</time>
      </trkpt>
      <trkpt lat="46.55332" lon="0.33737">
        <ele>64</ele>
        <time>2024-08-18T08:00:59Z</time>
      </trkpt>
      <trkpt lat="46.55338" lon="0.33739">
        <ele>64</ele>
        <time>2024-08-18T08:01:01Z</time>
      </trkpt>
      <trkpt lat="46.5534" lon="0.33741">
        <ele>64</ele>
        <time>2024-08-18T08:01:02Z</time>
      </trkpt>
      <trkpt lat="46.55346" lon="0.33746">
        <ele>63.8</ele>
        <time>2024-08-18T08:01:04Z</time>
      </trkpt>
      <trkpt lat="46.55354" lon="0.33751">
        <ele>63.6</ele>
        <time>2024-08-18T08:01:06Z</time>
      </trkpt>
      <trkpt lat="46.55362" lon="0.33755">
        <ele>63.6</ele>
        <time>2024-08-18T08:01:08Z</time>
      </trkpt>
      <trkpt lat="46.55377" lon="0.33758">
        <ele>63.8</ele>
        <time>2024-08-18T08:01:12Z</time>
      </trkpt>
      <trkpt lat="46.55392" lon="0.33757">
        <ele>63.8</ele>
        <time>2024-08-18T08:01:17Z</time>
      </trkpt>
      <trkpt lat="46.55395" lon="0.33758">
        <ele>64</ele>
        <time>2024-08-18T08:01:18Z</time>
      </trkpt>
      <trkpt lat="46.55398" lon="0.33759">
        <ele>64</ele>
        <time>2024-08-18T08:01:19Z</time>
      </trkpt>
      <trkpt lat="46.55416" lon="0.33765">
        <ele>63.8</ele>
        <time>2024-08-18T08:01:25Z</time>
      </trkpt>
      <trkpt lat="46.55441" lon="0.33773">
        <ele>63.6</ele>
        <time>2024-08-18T08:01:30Z</time>
      </trkpt>
      <trkpt lat="46.5545" lon="0.33776">
        <ele>63.6</ele>
        <time>2024-08-18T08:01:32Z</time>
      </trkpt>
      <trkpt lat="46.55463" lon="0.3378">
        <ele>63.4</ele>
        <time>2024-08-18T08:01:34Z</time>
      </trkpt>
      <trkpt lat="46.55467" lon="0.33783">
        <ele>63.4</ele>
        <time>2024-08-18T08:01:35Z</time>
      </trkpt>
      <trkpt lat="46.5548" lon="0.33791">
        <ele>63</ele>
        <time>2024-08-18T08:01:38Z</time>
      </trkpt>
      <trkpt lat="46.55491" lon="0.33797">
        <ele>63</ele>
        <time>2024-08-18T08:01:40Z</time>
      </trkpt>
      <trkpt lat="46.55495" lon="0.33801">
        <ele>63</ele>
        <time>2024-08-18T08:01:41Z</time>
      </trkpt>
      <trkpt lat="46.5551" lon="0.33819">
        <ele>63.2</ele>
        <time>2024-08-18T08:01:46Z</time>
      </trkpt>
      <trkpt lat="46.55531" lon="0.3384">
        <ele>63</ele>
        <time>2024-08-18T08:01:52Z</time>
      </trkpt>
      <trkpt lat="46.55536" lon="0.33849">
        <ele>62.8</ele>
        <time>2024-08-18T08:01:54Z</time>
      </trkpt>
      <trkpt lat="46.55541" lon="0.33858">
        <ele>62.8</ele>
        <time>2024-08-18T08:01:56Z</time>
      </trkpt>
      <trkpt lat="46.55544" lon="0.33862">
        <ele>62.8</ele>
        <time>2024-08-18T08:01:57Z</time>
      </trkpt>
      <trkpt lat="46.55546" lon="0.33866">
        <ele>62.8</ele>
        <time>2024-08-18T08:01:58Z</time>
      </trkpt>
      <trkpt lat="46.55558" lon="0.33878">
        <ele>63.2</ele>
        <time>2024-08-18T08:02:03Z</time>
      </trkpt>
      <trkpt lat="46.55568" lon="0.33884">
        <ele>63.2</ele>
        <time>2024-08-18T08:02:08Z</time>
      </trkpt>
      <trkpt lat="46.55569" lon="0.33884">
        <ele>63.2</ele>
        <time>2024-08-18T08:02:09Z</time>
      </trkpt>
      <trkpt lat="46.55569" lon="0.33884">
        <ele>62.6</ele>
        <time>2024-08-18T08:02:17Z</time>
      </trkpt>
      <trkpt lat="46.55571" lon="0.33886">
        <ele>62.6</ele>
        <time>2024-08-18T08:02:27Z</time>
      </trkpt>
      <trkpt lat="46.55572" lon="0.33888">
        <ele>62.6</ele>
        <time>2024-08-18T08:02:29Z</time>
      </trkpt>
      <trkpt lat="46.55579" lon="0.33894">
        <ele>62.4</ele>
        <time>2024-08-18T08:02:39Z</time>
      </trkpt>
      <trkpt lat="46.55582" lon="0.33896">
        <ele>62.4</ele>
        <time>2024-08-18T08:02:41Z</time>
      </trkpt>
      <trkpt lat="46.55594" lon="0.33901">
        <ele>62.6</ele>
        <time>2024-08-18T08:02:47Z</time>
      </trkpt>
      <trkpt lat="46.55597" lon="0.33902">
        <ele>62.8</ele>
        <time>2024-08-18T08:02:48Z</time>
      </trkpt>
      <trkpt lat="46.55613" lon="0.33905">
        <ele>63</ele>
        <time>2024-08-18T08:02:52Z</time>
      </trkpt>
      <trkpt lat="46.55617" lon="0.33906">
        <ele>63.2</ele>
        <time>2024-08-18T08:02:53Z</time>
      </trkpt>
      <trkpt lat="46.55636" lon="0.33904">
        <ele>62.8</ele>
        <time>2024-08-18T08:02:59Z</time>
      </trkpt>
      <trkpt lat="46.55658" lon="0.33902">
        <ele>63</ele>
        <time>2024-08-18T08:03:05Z</time>
      </trkpt>
      <trkpt lat="46.55684" lon="0.33902">
        <ele>63.4</ele>
        <time>2024-08-18T08:03:11Z</time>
      </trkpt>
      <trkpt lat="46.55702" lon="0.33895">
        <ele>64</ele>
        <time>2024-08-18T08:03:15Z</time>
      </trkpt>
      <trkpt lat="46.55713" lon="0.33889">
        <ele>63.8</ele>
        <time>2024-08-18T08:03:18Z</time>
      </trkpt>
      <trkpt lat="46.55732" lon="0.33878">
        <ele>63.6</ele>
        <time>2024-08-18T08:03:24Z</time>
      </trkpt>
      <trkpt lat="46.55737" lon="0.33873">
        <ele>63.6</ele>
        <time>2024-08-18T08:03:26Z</time>
      </trkpt>
      <trkpt lat="46.55745" lon="0.33872">
        <ele>63.8</ele>
        <time>2024-08-18T08:03:28Z</time>
      </trkpt>
      <trkpt lat="46.55749" lon="0.33873">
        <ele>64.2</ele>
        <time>2024-08-18T08:03:29Z</time>
      </trkpt>
      <trkpt lat="46.55773" lon="0.33884">
        <ele>65</ele>
        <time>2024-08-18T08:03:35Z</time>
      </trkpt>
      <trkpt lat="46.55802" lon="0.33896">
        <ele>65.8</ele>
        <time>2024-08-18T08:03:42Z</time>
      </trkpt>
      <trkpt lat="46.5581" lon="0.33899">
        <ele>66.2</ele>
        <time>2024-08-18T08:03:44Z</time>
      </trkpt>
      <trkpt lat="46.55813" lon="0.33899">
        <ele>66.2</ele>
        <time>2024-08-18T08:03:45Z</time>
      </trkpt>
      <trkpt lat="46.5582" lon="0.33899">
        <ele>66.6</ele>
        <time>2024-08-18T08:03:47Z</time>
      </trkpt>
      <trkpt lat="46.55823" lon="0.33897">
        <ele>66.6</ele>
        <time>2024-08-18T08:03:48Z</time>
      </trkpt>
      <trkpt lat="46.55826" lon="0.33896">
        <ele>66.4</ele>
        <time>2024-08-18T08:03:49Z</time>
      </trkpt>
      <trkpt lat="46.55833" lon="0.33891">
        <ele>66.2</ele>
        <time>2024-08-18T08:03:52Z</time>
      </trkpt>
      <trkpt lat="46.55841" lon="0.33888">
        <ele>66</ele>
        <time>2024-08-18T08:03:54Z</time>
      </trkpt>
      <trkpt lat="46.55858" lon="0.33881">
        <ele>65.8</ele>
        <time>2024-08-18T08:03:57Z</time>
      </trkpt>
      <trkpt lat="46.55862" lon="0.33878">
        <ele>65.8</ele>
        <time>2024-08-18T08:03:58Z</time>
      </trkpt>
      <trkpt lat="46.55883" lon="0.33869">
        <ele>65.2</ele>
        <time>2024-08-18T08:04:02Z</time>
      </trkpt>
      <trkpt lat="46.55886" lon="0.33867">
        <ele>65</ele>
        <time>2024-08-18T08:04:03Z</time>
      </trkpt>
      <trkpt lat="46.55892" lon="0.33861">
        <ele>64.6</ele>
        <time>2024-08-18T08:04:05Z</time>
      </trkpt>
      <trkpt lat="46.55901" lon="0.33851">
        <ele>64.4</ele>
        <time>2024-08-18T08:04:08Z</time>
      </trkpt>
      <trkpt lat="46.55911" lon="0.33849">
        <ele>64.2</ele>
        <time>2024-08-18T08:04:10Z</time>
      </trkpt>
      <trkpt lat="46.55933" lon="0.33835">
        <ele>64</ele>
        <time>2024-08-18T08:04:15Z</time>
      </trkpt>
      <trkpt lat="46.55945" lon="0.33826">
        <ele>64.2</ele>
        <time>2024-08-18T08:04:18Z</time>
      </trkpt>
      <trkpt lat="46.55957" lon="0.33819">
        <ele>64.2</ele>
        <time>2024-08-18T08:04:21Z</time>
      </trkpt>
      <trkpt lat="46.55961" lon="0.33816">
        <ele>64.2</ele>
        <time>2024-08-18T08:04:22Z</time>
      </trkpt>
      <trkpt lat="46.5597" lon="0.33809">
        <ele>64.2</ele>
        <time>2024-08-18T08:04:24Z</time>
      </trkpt>
      <trkpt lat="46.55989" lon="0.33795">
        <ele>64</ele>
        <time>2024-08-18T08:04:28Z</time>
      </trkpt>
      <trkpt lat="46.56002" lon="0.33786">
        <ele>64</ele>
        <time>2024-08-18T08:04:31Z</time>
      </trkpt>
      <trkpt lat="46.5601" lon="0.33782">
        <ele>64</ele>
        <time>2024-08-18T08:04:33Z</time>
      </trkpt>
      <trkpt lat="46.56016" lon="0.33777">
        <ele>64</ele>
        <time>2024-08-18T08:04:35Z</time>
      </trkpt>
      <trkpt lat="46.56019" lon="0.33775">
        <ele>64</ele>
        <time>2024-08-18T08:04:36Z</time>
      </trkpt>
      <trkpt lat="46.56029" lon="0.33767">
        <ele>64.2</ele>
        <time>2024-08-18T08:04:40Z</time>
      </trkpt>
      <trkpt lat="46.56033" lon="0.33764">
        <ele>65.2</ele>
        <time>2024-08-18T08:04:42Z</time>
      </trkpt>
      <trkpt lat="46.56037" lon="0.3376">
        <ele>66.4</ele>
        <time>2024-08-18T08:04:45Z</time>
      </trkpt>
      <trkpt lat="46.56038" lon="0.33759">
        <ele>66.6</ele>
        <time>2024-08-18T08:04:46Z</time>
      </trkpt>
      <trkpt lat="46.5605" lon="0.33745">
        <ele>67.4</ele>
        <time>2024-08-18T08:04:52Z</time>
      </trkpt>
      <trkpt lat="46.56056" lon="0.33734">
        <ele>68.6</ele>
        <time>2024-08-18T08:04:57Z</time>
      </trkpt>
      <trkpt lat="46.56058" lon="0.33733">
        <ele>68.8</ele>
        <time>2024-08-18T08:04:58Z</time>
      </trkpt>
      <trkpt lat="46.56062" lon="0.33728">
        <ele>69.4</ele>
        <time>2024-08-18T08:05:00Z</time>
      </trkpt>
      <trkpt lat="46.56063" lon="0.33727">
        <ele>70</ele>
        <time>2024-08-18T08:05:01Z</time>
      </trkpt>
      <trkpt lat="46.56069" lon="0.33722">
        <ele>71.2</ele>
        <time>2024-08-18T08:05:06Z</time>
      </trkpt>
      <trkpt lat="46.5607" lon="0.33721">
        <ele>71.8</ele>
        <time>2024-08-18T08:05:08Z</time>
      </trkpt>
      <trkpt lat="46.56071" lon="0.33721">
        <ele>72</ele>
        <time>2024-08-18T08:05:09Z</time>
      </trkpt>
      <trkpt lat="46.56072" lon="0.3372">
        <ele>72.4</ele>
        <time>2024-08-18T08:05:10Z</time>
      </trkpt>
      <trkpt lat="46.56075" lon="0.3372">
        <ele>72.8</ele>
        <time>2024-08-18T08:05:12Z</time>
      </trkpt>
      <trkpt lat="46.56077" lon="0.33719">
        <ele>73.2</ele>
        <time>2024-08-18T08:05:14Z</time>
      </trkpt>
      <trkpt lat="46.56079" lon="0.33719">
        <ele>73.4</ele>
        <time>2024-08-18T08:05:15Z</time>
      </trkpt>
      <trkpt lat="46.56081" lon="0.33719">
        <ele>74.2</ele>
        <time>2024-08-18T08:05:17Z</time>
      </trkpt>
      <trkpt lat="46.56084" lon="0.3372">
        <ele>74.6</ele>
        <time>2024-08-18T08:05:19Z</time>
      </trkpt>
      <trkpt lat="46.56086" lon="0.33718">
        <ele>75</ele>
        <time>2024-08-18T08:05:21Z</time>
      </trkpt>
      <trkpt lat="46.56087" lon="0.33718">
        <ele>75.4</ele>
        <time>2024-08-18T08:05:22Z</time>
      </trkpt>
      <trkpt lat="46.56088" lon="0.33717">
        <ele>75.8</ele>
        <time>2024-08-18T08:05:23Z</time>
      </trkpt>
      <trkpt lat="46.56092" lon="0.33713">
        <ele>76.2</ele>
        <time>2024-08-18T08:05:25Z</time>
      </trkpt>
      <trkpt lat="46.56094" lon="0.33711">
        <ele>76.8</ele>
        <time>2024-08-18T08:05:26Z</time>
      </trkpt>
      <trkpt lat="46.56095" lon="0.3371">
        <ele>77.2</ele>
        <time>2024-08-18T08:05:27Z</time>
      </trkpt>
      <trkpt lat="46.56099" lon="0.33705">
        <ele>78</ele>
        <time>2024-08-18T08:05:30Z</time>
      </trkpt>
      <trkpt lat="46.5611" lon="0.33702">
        <ele>79</ele>
        <time>2024-08-18T08:05:36Z</time>
      </trkpt>
      <trkpt lat="46.56111" lon="0.33701">
        <ele>79</ele>
        <time>2024-08-18T08:05:37Z</time>
      </trkpt>
      <trkpt lat="46.56118" lon="0.33699">
        <ele>79.2</ele>
        <time>2024-08-18T08:05:41Z</time>
      </trkpt>
      <trkpt lat="46.56122" lon="0.33696">
        <ele>79.2</ele>
        <time>2024-08-18T08:05:43Z</time>
      </trkpt>
      <trkpt lat="46.56135" lon="0.33688">
        <ele>80</ele>
        <time>2024-08-18T08:05:49Z</time>
      </trkpt>
      <trkpt lat="46.56137" lon="0.33687">
        <ele>80.2</ele>
        <time>2024-08-18T08:05:50Z</time>
      </trkpt>
      <trkpt lat="46.56145" lon="0.33683">
        <ele>81.6</ele>
        <time>2024-08-18T08:05:54Z</time>
      </trkpt>
      <trkpt lat="46.56147" lon="0.33681">
        <ele>82.2</ele>
        <time>2024-08-18T08:05:56Z</time>
      </trkpt>
      <trkpt lat="46.56154" lon="0.33679">
        <ele>82.6</ele>
        <time>2024-08-18T08:05:59Z</time>
      </trkpt>
      <trkpt lat="46.5616" lon="0.33676">
        <ele>83.2</ele>
        <time>2024-08-18T08:06:02Z</time>
      </trkpt>
      <trkpt lat="46.56167" lon="0.33672">
        <ele>83.8</ele>
        <time>2024-08-18T08:06:05Z</time>
      </trkpt>
      <trkpt lat="46.56171" lon="0.33669">
        <ele>84.2</ele>
        <time>2024-08-18T08:06:08Z</time>
      </trkpt>
      <trkpt lat="46.56179" lon="0.33669">
        <ele>85</ele>
        <time>2024-08-18T08:06:12Z</time>
      </trkpt>
      <trkpt lat="46.56183" lon="0.33668">
        <ele>85.6</ele>
        <time>2024-08-18T08:06:14Z</time>
      </trkpt>
      <trkpt lat="46.56186" lon="0.33667">
        <ele>86.2</ele>
        <time>2024-08-18T08:06:16Z</time>
      </trkpt>
      <trkpt lat="46.56192" lon="0.33666">
        <ele>86.8</ele>
        <time>2024-08-18T08:06:21Z</time>
      </trkpt>
      <trkpt lat="46.56201" lon="0.33666">
        <ele>87.2</ele>
        <time>2024-08-18T08:06:26Z</time>
      </trkpt>
      <trkpt lat="46.56203" lon="0.33667">
        <ele>88</ele>
        <time>2024-08-18T08:06:28Z</time>
      </trkpt>
      <trkpt lat="46.56204" lon="0.33668">
        <ele>88.2</ele>
        <time>2024-08-18T08:06:29Z</time>
      </trkpt>
      <trkpt lat="46.56207" lon="0.33669">
        <ele>88.8</ele>
        <time>2024-08-18T08:06:31Z</time>
      </trkpt>
      <trkpt lat="46.5621" lon="0.3367">
        <ele>89.2</ele>
        <time>2024-08-18T08:06:33Z</time>
      </trkpt>
      <trkpt lat="46.5621" lon="0.33672">
        <ele>89.6</ele>
        <time>2024-08-18T08:06:34Z</time>
      </trkpt>
      <trkpt lat="46.56211" lon="0.33672">
        <ele>89.8</ele>
        <time>2024-08-18T08:06:35Z</time>
      </trkpt>
      <trkpt lat="46.56214" lon="0.33677">
        <ele>90</ele>
        <time>2024-08-18T08:06:38Z</time>
      </trkpt>
      <trkpt lat="46.56216" lon="0.33683">
        <ele>90.8</ele>
        <time>2024-08-18T08:06:40Z</time>
      </trkpt>
      <trkpt lat="46.56217" lon="0.33687">
        <ele>91</ele>
        <time>2024-08-18T08:06:42Z</time>
      </trkpt>
      <trkpt lat="46.56216" lon="0.3369">
        <ele>91.2</ele>
        <time>2024-08-18T08:06:44Z</time>
      </trkpt>
      <trkpt lat="46.56215" lon="0.33691">
        <ele>91.8</ele>
        <time>2024-08-18T08:06:46Z</time>
      </trkpt>
      <trkpt lat="46.56215" lon="0.33692">
        <ele>92</ele>
        <time>2024-08-18T08:06:47Z</time>
      </trkpt>
      <trkpt lat="46.56216" lon="0.33694">
        <ele>92.4</ele>
        <time>2024-08-18T08:06:51Z</time>
      </trkpt>
      <trkpt lat="46.5621" lon="0.337">
        <ele>92.8</ele>
        <time>2024-08-18T08:07:01Z</time>
      </trkpt>
      <trkpt lat="46.56203" lon="0.33703">
        <ele>94</ele>
        <time>2024-08-18T08:07:06Z</time>
      </trkpt>
      <trkpt lat="46.56194" lon="0.33707">
        <ele>95.2</ele>
        <time>2024-08-18T08:07:11Z</time>
      </trkpt>
      <trkpt lat="46.56181" lon="0.33717">
        <ele>95.8</ele>
        <time>2024-08-18T08:07:17Z</time>
      </trkpt>
      <trkpt lat="46.56172" lon="0.33725">
        <ele>96.4</ele>
        <time>2024-08-18T08:07:21Z</time>
      </trkpt>
      <trkpt lat="46.56162" lon="0.33732">
        <ele>97.2</ele>
        <time>2024-08-18T08:07:25Z</time>
      </trkpt>
      <trkpt lat="46.56157" lon="0.33736">
        <ele>97.6</ele>
        <time>2024-08-18T08:07:27Z</time>
      </trkpt>
      <trkpt lat="46.56147" lon="0.33742">
        <ele>98.6</ele>
        <time>2024-08-18T08:07:31Z</time>
      </trkpt>
      <trkpt lat="46.56145" lon="0.33743">
        <ele>98.8</ele>
        <time>2024-08-18T08:07:32Z</time>
      </trkpt>
      <trkpt lat="46.56136" lon="0.33749">
        <ele>99.6</ele>
        <time>2024-08-18T08:07:37Z</time>
      </trkpt>
      <trkpt lat="46.56134" lon="0.33751">
        <ele>99.8</ele>
        <time>2024-08-18T08:07:38Z</time>
      </trkpt>
      <trkpt lat="46.56133" lon="0.33752">
        <ele>100.2</ele>
        <time>2024-08-18T08:07:39Z</time>
      </trkpt>
      <trkpt lat="46.56128" lon="0.33755">
        <ele>101</ele>
        <time>2024-08-18T08:07:42Z</time>
      </trkpt>
      <trkpt lat="46.56126" lon="0.33756">
        <ele>101.4</ele>
        <time>2024-08-18T08:07:43Z</time>
      </trkpt>
      <trkpt lat="46.56118" lon="0.33762">
        <ele>102</ele>
        <time>2024-08-18T08:07:47Z</time>
      </trkpt>
      <trkpt lat="46.56115" lon="0.33764">
        <ele>102.6</ele>
        <time>2024-08-18T08:07:49Z</time>
      </trkpt>
      <trkpt lat="46.56113" lon="0.33766">
        <ele>102.8</ele>
        <time>2024-08-18T08:07:50Z</time>
      </trkpt>
      <trkpt lat="46.56111" lon="0.33768">
        <ele>103</ele>
        <time>2024-08-18T08:07:51Z</time>
      </trkpt>
      <trkpt lat="46.56106" lon="0.33774">
        <ele>103.6</ele>
        <time>2024-08-18T08:07:54Z</time>
      </trkpt>
      <trkpt lat="46.56093" lon="0.33784">
        <ele>104.2</ele>
        <time>2024-08-18T08:07:59Z</time>
      </trkpt>
      <trkpt lat="46.56091" lon="0.33786">
        <ele>104.2</ele>
        <time>2024-08-18T08:08:00Z</time>
      </trkpt>
      <trkpt lat="46.5609" lon="0.33799">
        <ele>104.4</ele>
        <time>2024-08-18T08:08:04Z</time>
      </trkpt>
      <trkpt lat="46.56091" lon="0.33802">
        <ele>104.6</ele>
        <time>2024-08-18T08:08:05Z</time>
      </trkpt>
      <trkpt lat="46.56093" lon="0.33815">
        <ele>104.8</ele>
        <time>2024-08-18T08:08:09Z</time>
      </trkpt>
      <trkpt lat="46.56091" lon="0.33818">
        <ele>105</ele>
        <time>2024-08-18T08:08:10Z</time>
      </trkpt>
      <trkpt lat="46.56088" lon="0.33821">
        <ele>105.2</ele>
        <time>2024-08-18T08:08:11Z</time>
      </trkpt>
      <trkpt lat="46.56074" lon="0.33832">
        <ele>105.2</ele>
        <time>2024-08-18T08:08:16Z</time>
      </trkpt>
      <trkpt lat="46.56054" lon="0.33854">
        <ele>105.4</ele>
        <time>2024-08-18T08:08:23Z</time>
      </trkpt>
      <trkpt lat="46.56044" lon="0.33871">
        <ele>105.8</ele>
        <time>2024-08-18T08:08:27Z</time>
      </trkpt>
      <trkpt lat="46.56042" lon="0.33876">
        <ele>105.8</ele>
        <time>2024-08-18T08:08:28Z</time>
      </trkpt>
      <trkpt lat="46.5604" lon="0.33881">
        <ele>105.8</ele>
        <time>2024-08-18T08:08:29Z</time>
      </trkpt>
      <trkpt lat="46.56035" lon="0.33892">
        <ele>106.2</ele>
        <time>2024-08-18T08:08:31Z</time>
      </trkpt>
      <trkpt lat="46.56029" lon="0.33899">
        <ele>106.4</ele>
        <time>2024-08-18T08:08:33Z</time>
      </trkpt>
      <trkpt lat="46.56022" lon="0.33903">
        <ele>106.8</ele>
        <time>2024-08-18T08:08:37Z</time>
      </trkpt>
      <trkpt lat="46.56008" lon="0.33916">
        <ele>107</ele>
        <time>2024-08-18T08:08:42Z</time>
      </trkpt>
      <trkpt lat="46.56004" lon="0.33919">
        <ele>107.2</ele>
        <time>2024-08-18T08:08:43Z</time>
      </trkpt>
      <trkpt lat="46.55997" lon="0.33927">
        <ele>107.4</ele>
        <time>2024-08-18T08:08:45Z</time>
      </trkpt>
      <trkpt lat="46.5599" lon="0.33937">
        <ele>107.4</ele>
        <time>2024-08-18T08:08:47Z</time>
      </trkpt>
      <trkpt lat="46.55987" lon="0.33942">
        <ele>107.4</ele>
        <time>2024-08-18T08:08:48Z</time>
      </trkpt>
      <trkpt lat="46.5598" lon="0.33951">
        <ele>107.2</ele>
        <time>2024-08-18T08:08:51Z</time>
      </trkpt>
      <trkpt lat="46.55978" lon="0.33954">
        <ele>107</ele>
        <time>2024-08-18T08:08:53Z</time>
      </trkpt>
      <trkpt lat="46.55973" lon="0.33958">
        <ele>106.8</ele>
        <time>2024-08-18T08:08:57Z</time>
      </trkpt>
      <trkpt lat="46.55969" lon="0.33961">
        <ele>106.4</ele>
        <time>2024-08-18T08:08:59Z</time>
      </trkpt>
      <trkpt lat="46.55967" lon="0.33962">
        <ele>106</ele>
        <time>2024-08-18T08:09:00Z</time>
      </trkpt>
      <trkpt lat="46.55957" lon="0.3397">
        <ele>105.4</ele>
        <time>2024-08-18T08:09:03Z</time>
      </trkpt>
      <trkpt lat="46.55949" lon="0.33981">
        <ele>105</ele>
        <time>2024-08-18T08:09:05Z</time>
      </trkpt>
      <trkpt lat="46.55942" lon="0.33997">
        <ele>104.8</ele>
        <time>2024-08-18T08:09:08Z</time>
      </trkpt>
      <trkpt lat="46.55938" lon="0.34007">
        <ele>104.8</ele>
        <time>2024-08-18T08:09:10Z</time>
      </trkpt>
      <trkpt lat="46.55933" lon="0.34019">
        <ele>105</ele>
        <time>2024-08-18T08:09:13Z</time>
      </trkpt>
      <trkpt lat="46.55919" lon="0.34024">
        <ele>105.6</ele>
        <time>2024-08-18T08:09:17Z</time>
      </trkpt>
      <trkpt lat="46.55901" lon="0.34028">
        <ele>105</ele>
        <time>2024-08-18T08:09:21Z</time>
      </trkpt>
      <trkpt lat="46.55891" lon="0.34031">
        <ele>104.4</ele>
        <time>2024-08-18T08:09:23Z</time>
      </trkpt>
      <trkpt lat="46.5588" lon="0.34033">
        <ele>104</ele>
        <time>2024-08-18T08:09:25Z</time>
      </trkpt>
      <trkpt lat="46.55875" lon="0.34033">
        <ele>103.8</ele>
        <time>2024-08-18T08:09:26Z</time>
      </trkpt>
      <trkpt lat="46.55855" lon="0.34038">
        <ele>103.6</ele>
        <time>2024-08-18T08:09:30Z</time>
      </trkpt>
      <trkpt lat="46.55844" lon="0.34043">
        <ele>103.6</ele>
        <time>2024-08-18T08:09:32Z</time>
      </trkpt>
      <trkpt lat="46.55804" lon="0.34067">
        <ele>104.6</ele>
        <time>2024-08-18T08:09:39Z</time>
      </trkpt>
      <trkpt lat="46.55787" lon="0.34079">
        <ele>105</ele>
        <time>2024-08-18T08:09:42Z</time>
      </trkpt>
      <trkpt lat="46.55782" lon="0.34081">
        <ele>104.8</ele>
        <time>2024-08-18T08:09:43Z</time>
      </trkpt>
      <trkpt lat="46.55778" lon="0.34083">
        <ele>104.8</ele>
        <time>2024-08-18T08:09:44Z</time>
      </trkpt>
      <trkpt lat="46.55747" lon="0.3409">
        <ele>105.4</ele>
        <time>2024-08-18T08:09:51Z</time>
      </trkpt>
      <trkpt lat="46.55726" lon="0.34096">
        <ele>105.6</ele>
        <time>2024-08-18T08:09:56Z</time>
      </trkpt>
      <trkpt lat="46.55723" lon="0.34097">
        <ele>105.6</ele>
        <time>2024-08-18T08:09:57Z</time>
      </trkpt>
      <trkpt lat="46.55721" lon="0.34099">
        <ele>105.6</ele>
        <time>2024-08-18T08:09:58Z</time>
      </trkpt>
      <trkpt lat="46.5572" lon="0.34101">
        <ele>106</ele>
        <time>2024-08-18T08:09:59Z</time>
      </trkpt>
      <trkpt lat="46.55717" lon="0.34107">
        <ele>106.4</ele>
        <time>2024-08-18T08:10:01Z</time>
      </trkpt>
      <trkpt lat="46.55713" lon="0.34115">
        <ele>107</ele>
        <time>2024-08-18T08:10:03Z</time>
      </trkpt>
      <trkpt lat="46.55707" lon="0.34129">
        <ele>108</ele>
        <time>2024-08-18T08:10:05Z</time>
      </trkpt>
      <trkpt lat="46.55704" lon="0.34135">
        <ele>108.4</ele>
        <time>2024-08-18T08:10:06Z</time>
      </trkpt>
      <trkpt lat="46.55697" lon="0.34155">
        <ele>109.2</ele>
        <time>2024-08-18T08:10:09Z</time>
      </trkpt>
      <trkpt lat="46.55694" lon="0.34161">
        <ele>109.6</ele>
        <time>2024-08-18T08:10:10Z</time>
      </trkpt>
      <trkpt lat="46.5569" lon="0.34173">
        <ele>110.2</ele>
        <time>2024-08-18T08:10:12Z</time>
      </trkpt>
      <trkpt lat="46.55688" lon="0.34179">
        <ele>110.4</ele>
        <time>2024-08-18T08:10:13Z</time>
      </trkpt>
      <trkpt lat="46.55685" lon="0.34184">
        <ele>110.6</ele>
        <time>2024-08-18T08:10:14Z</time>
      </trkpt>
      <trkpt lat="46.55674" lon="0.34203">
        <ele>110.8</ele>
        <time>2024-08-18T08:10:18Z</time>
      </trkpt>
      <trkpt lat="46.55666" lon="0.34206">
        <ele>111</ele>
        <time>2024-08-18T08:10:20Z</time>
      </trkpt>
      <trkpt lat="46.55662" lon="0.34205">
        <ele>111</ele>
        <time>2024-08-18T08:10:21Z</time>
      </trkpt>
      <trkpt lat="46.55634" lon="0.34202">
        <ele>111.2</ele>
        <time>2024-08-18T08:10:27Z</time>
      </trkpt>
      <trkpt lat="46.55602" lon="0.34201">
        <ele>111.2</ele>
        <time>2024-08-18T08:10:33Z</time>
      </trkpt>
      <trkpt lat="46.55596" lon="0.342">
        <ele>111.2</ele>
        <time>2024-08-18T08:10:34Z</time>
      </trkpt>
      <trkpt lat="46.55586" lon="0.34201">
        <ele>111.2</ele>
        <time>2024-08-18T08:10:36Z</time>
      </trkpt>
      <trkpt lat="46.55569" lon="0.34204">
        <ele>110.8</ele>
        <time>2024-08-18T08:10:39Z</time>
      </trkpt>
      <trkpt lat="46.55538" lon="0.3421">
        <ele>110.8</ele>
        <time>2024-08-18T08:10:45Z</time>
      </trkpt>
      <trkpt lat="46.55505" lon="0.34215">
        <ele>110.4</ele>
        <time>2024-08-18T08:10:52Z</time>
      </trkpt>
      <trkpt lat="46.555" lon="0.34216">
        <ele>110.4</ele>
        <time>2024-08-18T08:10:53Z</time>
      </trkpt>
      <trkpt lat="46.55468" lon="0.34221">
        <ele>109.4</ele>
        <time>2024-08-18T08:11:00Z</time>
      </trkpt>
      <trkpt lat="46.55464" lon="0.34222">
        <ele>109.4</ele>
        <time>2024-08-18T08:11:01Z</time>
      </trkpt>
      <trkpt lat="46.55459" lon="0.34225">
        <ele>109.2</ele>
        <time>2024-08-18T08:11:02Z</time>
      </trkpt>
      <trkpt lat="46.55455" lon="0.34232">
        <ele>109.2</ele>
        <time>2024-08-18T08:11:04Z</time>
      </trkpt>
      <trkpt lat="46.5546" lon="0.3425">
        <ele>108.8</ele>
        <time>2024-08-18T08:11:06Z</time>
      </trkpt>
      <trkpt lat="46.55463" lon="0.34259">
        <ele>108.6</ele>
        <time>2024-08-18T08:11:07Z</time>
      </trkpt>
      <trkpt lat="46.55472" lon="0.34276">
        <ele>108.2</ele>
        <time>2024-08-18T08:11:09Z</time>
      </trkpt>
      <trkpt lat="46.55476" lon="0.34285">
        <ele>107.6</ele>
        <time>2024-08-18T08:11:10Z</time>
      </trkpt>
      <trkpt lat="46.55486" lon="0.34298">
        <ele>107.2</ele>
        <time>2024-08-18T08:11:12Z</time>
      </trkpt>
      <trkpt lat="46.55493" lon="0.34307">
        <ele>105.8</ele>
        <time>2024-08-18T08:11:14Z</time>
      </trkpt>
      <trkpt lat="46.55496" lon="0.3431">
        <ele>105.2</ele>
        <time>2024-08-18T08:11:15Z</time>
      </trkpt>
      <trkpt lat="46.55497" lon="0.34312">
        <ele>104.6</ele>
        <time>2024-08-18T08:11:16Z</time>
      </trkpt>
      <trkpt lat="46.55496" lon="0.34315">
        <ele>103.8</ele>
        <time>2024-08-18T08:11:18Z</time>
      </trkpt>
      <trkpt lat="46.55495" lon="0.34315">
        <ele>103.6</ele>
        <time>2024-08-18T08:11:19Z</time>
      </trkpt>
      <trkpt lat="46.55487" lon="0.34316">
        <ele>102.4</ele>
        <time>2024-08-18T08:11:22Z</time>
      </trkpt>
      <trkpt lat="46.55468" lon="0.3432">
        <ele>101.6</ele>
        <time>2024-08-18T08:11:27Z</time>
      </trkpt>
      <trkpt lat="46.55466" lon="0.3432">
        <ele>101.6</ele>
        <time>2024-08-18T08:11:28Z</time>
      </trkpt>
      <trkpt lat="46.55464" lon="0.34319">
        <ele>101.4</ele>
        <time>2024-08-18T08:11:29Z</time>
      </trkpt>
      <trkpt lat="46.5546" lon="0.34318">
        <ele>100.6</ele>
        <time>2024-08-18T08:11:32Z</time>
      </trkpt>
      <trkpt lat="46.55458" lon="0.34318">
        <ele>100.4</ele>
        <time>2024-08-18T08:11:35Z</time>
      </trkpt>
      <trkpt lat="46.55457" lon="0.34317">
        <ele>100.4</ele>
        <time>2024-08-18T08:11:37Z</time>
      </trkpt>
      <trkpt lat="46.55454" lon="0.34315">
        <ele>100.8</ele>
        <time>2024-08-18T08:11:39Z</time>
      </trkpt>
      <trkpt lat="46.55444" lon="0.34315">
        <ele>101.2</ele>
        <time>2024-08-18T08:11:43Z</time>
      </trkpt>
      <trkpt lat="46.5543" lon="0.34319">
        <ele>101</ele>
        <time>2024-08-18T08:11:47Z</time>
      </trkpt>
      <trkpt lat="46.55421" lon="0.34322">
        <ele>100</ele>
        <time>2024-08-18T08:11:49Z</time>
      </trkpt>
      <trkpt lat="46.55413" lon="0.34325">
        <ele>99.2</ele>
        <time>2024-08-18T08:11:51Z</time>
      </trkpt>
      <trkpt lat="46.5541" lon="0.34327">
        <ele>99</ele>
        <time>2024-08-18T08:11:52Z</time>
      </trkpt>
      <trkpt lat="46.55406" lon="0.34328">
        <ele>98.6</ele>
        <time>2024-08-18T08:11:53Z</time>
      </trkpt>
      <trkpt lat="46.55401" lon="0.3433">
        <ele>98.4</ele>
        <time>2024-08-18T08:11:54Z</time>
      </trkpt>
      <trkpt lat="46.55392" lon="0.34332">
        <ele>98.2</ele>
        <time>2024-08-18T08:11:56Z</time>
      </trkpt>
      <trkpt lat="46.55382" lon="0.34333">
        <ele>98.2</ele>
        <time>2024-08-18T08:11:58Z</time>
      </trkpt>
      <trkpt lat="46.55364" lon="0.34336">
        <ele>99</ele>
        <time>2024-08-18T08:12:02Z</time>
      </trkpt>
      <trkpt lat="46.55352" lon="0.34334">
        <ele>99</ele>
        <time>2024-08-18T08:12:04Z</time>
      </trkpt>
      <trkpt lat="46.55316" lon="0.34329">
        <ele>98</ele>
        <time>2024-08-18T08:12:09Z</time>
      </trkpt>
      <trkpt lat="46.553" lon="0.3433">
        <ele>96.8</ele>
        <time>2024-08-18T08:12:11Z</time>
      </trkpt>
      <trkpt lat="46.55285" lon="0.34333">
        <ele>95.6</ele>
        <time>2024-08-18T08:12:13Z</time>
      </trkpt>
      <trkpt lat="46.55271" lon="0.34332">
        <ele>94</ele>
        <time>2024-08-18T08:12:15Z</time>
      </trkpt>
      <trkpt lat="46.55249" lon="0.34328">
        <ele>92.6</ele>
        <time>2024-08-18T08:12:18Z</time>
      </trkpt>
      <trkpt lat="46.55244" lon="0.34328">
        <ele>92.2</ele>
        <time>2024-08-18T08:12:19Z</time>
      </trkpt>
      <trkpt lat="46.55232" lon="0.34326">
        <ele>91.2</ele>
        <time>2024-08-18T08:12:22Z</time>
      </trkpt>
      <trkpt lat="46.55227" lon="0.34326">
        <ele>91</ele>
        <time>2024-08-18T08:12:23Z</time>
      </trkpt>
      <trkpt lat="46.55211" lon="0.34323">
        <ele>90.2</ele>
        <time>2024-08-18T08:12:26Z</time>
      </trkpt>
      <trkpt lat="46.5519" lon="0.34316">
        <ele>90</ele>
        <time>2024-08-18T08:12:29Z</time>
      </trkpt>
      <trkpt lat="46.5517" lon="0.3431">
        <ele>89.8</ele>
        <time>2024-08-18T08:12:32Z</time>
      </trkpt>
      <trkpt lat="46.55159" lon="0.34304">
        <ele>89.8</ele>
        <time>2024-08-18T08:12:34Z</time>
      </trkpt>
      <trkpt lat="46.55152" lon="0.34297">
        <ele>89.6</ele>
        <time>2024-08-18T08:12:36Z</time>
      </trkpt>
      <trkpt lat="46.55148" lon="0.34294">
        <ele>89.6</ele>
        <time>2024-08-18T08:12:38Z</time>
      </trkpt>
      <trkpt lat="46.55146" lon="0.34293">
        <ele>89.6</ele>
        <time>2024-08-18T08:12:40Z</time>
      </trkpt>
      <trkpt lat="46.55141" lon="0.34293">
        <ele>89.4</ele>
        <time>2024-08-18T08:12:43Z</time>
      </trkpt>
      <trkpt lat="46.55138" lon="0.34294">
        <ele>89.2</ele>
        <time>2024-08-18T08:12:45Z</time>
      </trkpt>
      <trkpt lat="46.55134" lon="0.34294">
        <ele>88.8</ele>
        <time>2024-08-18T08:12:48Z</time>
      </trkpt>
      <trkpt lat="46.55133" lon="0.34291">
        <ele>88.6</ele>
        <time>2024-08-18T08:12:49Z</time>
      </trkpt>
      <trkpt lat="46.55132" lon="0.34286">
        <ele>88.2</ele>
        <time>2024-08-18T08:12:51Z</time>
      </trkpt>
      <trkpt lat="46.55132" lon="0.34285">
        <ele>88.2</ele>
        <time>2024-08-18T08:12:52Z</time>
      </trkpt>
      <trkpt lat="46.55132" lon="0.34285">
        <ele>88.2</ele>
        <time>2024-08-18T08:12:53Z</time>
      </trkpt>
      <trkpt lat="46.55131" lon="0.34285">
        <ele>88.2</ele>
        <time>2024-08-18T08:12:54Z</time>
      </trkpt>
      <trkpt lat="46.55125" lon="0.34285">
        <ele>88.2</ele>
        <time>2024-08-18T08:12:59Z</time>
      </trkpt>
      <trkpt lat="46.55124" lon="0.34278">
        <ele>87.8</ele>
        <time>2024-08-18T08:13:02Z</time>
      </trkpt>
      <trkpt lat="46.55125" lon="0.34271">
        <ele>88.2</ele>
        <time>2024-08-18T08:13:05Z</time>
      </trkpt>
      <trkpt lat="46.55132" lon="0.34264">
        <ele>89</ele>
        <time>2024-08-18T08:13:10Z</time>
      </trkpt>
      <trkpt lat="46.55133" lon="0.34263">
        <ele>89.4</ele>
        <time>2024-08-18T08:13:11Z</time>
      </trkpt>
      <trkpt lat="46.55134" lon="0.34255">
        <ele>90.4</ele>
        <time>2024-08-18T08:13:14Z</time>
      </trkpt>
      <trkpt lat="46.55134" lon="0.34252">
        <ele>90.6</ele>
        <time>2024-08-18T08:13:15Z</time>
      </trkpt>
      <trkpt lat="46.55136" lon="0.34238">
        <ele>90.6</ele>
        <time>2024-08-18T08:13:21Z</time>
      </trkpt>
      <trkpt lat="46.55134" lon="0.34218">
        <ele>90</ele>
        <time>2024-08-18T08:13:28Z</time>
      </trkpt>
      <trkpt lat="46.5513" lon="0.34213">
        <ele>89.4</ele>
        <time>2024-08-18T08:13:30Z</time>
      </trkpt>
      <trkpt lat="46.55124" lon="0.34207">
        <ele>89</ele>
        <time>2024-08-18T08:13:33Z</time>
      </trkpt>
      <trkpt lat="46.55119" lon="0.34203">
        <ele>88.4</ele>
        <time>2024-08-18T08:13:35Z</time>
      </trkpt>
      <trkpt lat="46.55107" lon="0.34203">
        <ele>87.6</ele>
        <time>2024-08-18T08:13:40Z</time>
      </trkpt>
      <trkpt lat="46.551" lon="0.34213">
        <ele>87.2</ele>
        <time>2024-08-18T08:13:45Z</time>
      </trkpt>
      <trkpt lat="46.55101" lon="0.34226">
        <ele>86.8</ele>
        <time>2024-08-18T08:13:49Z</time>
      </trkpt>
      <trkpt lat="46.55106" lon="0.3424">
        <ele>87.4</ele>
        <time>2024-08-18T08:13:55Z</time>
      </trkpt>
      <trkpt lat="46.55111" lon="0.34259">
        <ele>87.6</ele>
        <time>2024-08-18T08:14:00Z</time>
      </trkpt>
      <trkpt lat="46.55114" lon="0.34265">
        <ele>87.6</ele>
        <time>2024-08-18T08:14:02Z</time>
      </trkpt>
      <trkpt lat="46.55119" lon="0.3427">
        <ele>87.6</ele>
        <time>2024-08-18T08:14:04Z</time>
      </trkpt>
      <trkpt lat="46.55122" lon="0.34272">
        <ele>88</ele>
        <time>2024-08-18T08:14:05Z</time>
      </trkpt>
      <trkpt lat="46.55127" lon="0.34277">
        <ele>88.4</ele>
        <time>2024-08-18T08:14:07Z</time>
      </trkpt>
      <trkpt lat="46.55131" lon="0.34282">
        <ele>88.6</ele>
        <time>2024-08-18T08:14:09Z</time>
      </trkpt>
      <trkpt lat="46.55131" lon="0.34285">
        <ele>88.6</ele>
        <time>2024-08-18T08:14:10Z</time>
      </trkpt>
      <trkpt lat="46.55122" lon="0.34293">
        <ele>88</ele>
        <time>2024-08-18T08:14:14Z</time>
      </trkpt>
      <trkpt lat="46.55118" lon="0.34295">
        <ele>87.4</ele>
        <time>2024-08-18T08:14:15Z</time>
      </trkpt>
      <trkpt lat="46.55104" lon="0.34302">
        <ele>85.2</ele>
        <time>2024-08-18T08:14:18Z</time>
      </trkpt>
      <trkpt lat="46.551" lon="0.34303">
        <ele>84</ele>
        <time>2024-08-18T08:14:19Z</time>
      </trkpt>
      <trkpt lat="46.55094" lon="0.34305">
        <ele>82.2</ele>
        <time>2024-08-18T08:14:21Z</time>
      </trkpt>
      <trkpt lat="46.55092" lon="0.34305">
        <ele>80.6</ele>
        <time>2024-08-18T08:14:22Z</time>
      </trkpt>
      <trkpt lat="46.55092" lon="0.34306">
        <ele>79.4</ele>
        <time>2024-08-18T08:14:23Z</time>
      </trkpt>
      <trkpt lat="46.55093" lon="0.34308">
        <ele>78.2</ele>
        <time>2024-08-18T08:14:24Z</time>
      </trkpt>
      <trkpt lat="46.55095" lon="0.34312">
        <ele>77.4</ele>
        <time>2024-08-18T08:14:26Z</time>
      </trkpt>
      <trkpt lat="46.55096" lon="0.34313">
        <ele>77</ele>
        <time>2024-08-18T08:14:27Z</time>
      </trkpt>
      <trkpt lat="46.551" lon="0.34316">
        <ele>76.6</ele>
        <time>2024-08-18T08:14:29Z</time>
      </trkpt>
      <trkpt lat="46.55107" lon="0.34322">
        <ele>76.2</ele>
        <time>2024-08-18T08:14:31Z</time>
      </trkpt>
      <trkpt lat="46.55111" lon="0.34325">
        <ele>76</ele>
        <time>2024-08-18T08:14:32Z</time>
      </trkpt>
      <trkpt lat="46.5512" lon="0.34332">
        <ele>75.4</ele>
        <time>2024-08-18T08:14:34Z</time>
      </trkpt>
      <trkpt lat="46.55125" lon="0.34335">
        <ele>75</ele>
        <time>2024-08-18T08:14:35Z</time>
      </trkpt>
      <trkpt lat="46.5513" lon="0.34337">
        <ele>74.6</ele>
        <time>2024-08-18T08:14:36Z</time>
      </trkpt>
      <trkpt lat="46.55147" lon="0.34344">
        <ele>73.6</ele>
        <time>2024-08-18T08:14:39Z</time>
      </trkpt>
      <trkpt lat="46.55166" lon="0.34352">
        <ele>72.6</ele>
        <time>2024-08-18T08:14:42Z</time>
      </trkpt>
      <trkpt lat="46.55176" lon="0.34354">
        <ele>71.6</ele>
        <time>2024-08-18T08:14:44Z</time>
      </trkpt>
      <trkpt lat="46.55178" lon="0.34357">
        <ele>70.8</ele>
        <time>2024-08-18T08:14:45Z</time>
      </trkpt>
      <trkpt lat="46.55178" lon="0.34359">
        <ele>70</ele>
        <time>2024-08-18T08:14:46Z</time>
      </trkpt>
      <trkpt lat="46.55177" lon="0.34362">
        <ele>69.4</ele>
        <time>2024-08-18T08:14:47Z</time>
      </trkpt>
      <trkpt lat="46.55176" lon="0.34363">
        <ele>69</ele>
        <time>2024-08-18T08:14:48Z</time>
      </trkpt>
      <trkpt lat="46.55164" lon="0.34364">
        <ele>68.6</ele>
        <time>2024-08-18T08:14:53Z</time>
      </trkpt>
      <trkpt lat="46.55156" lon="0.34366">
        <ele>68.4</ele>
        <time>2024-08-18T08:14:56Z</time>
      </trkpt>
      <trkpt lat="46.55145" lon="0.34368">
        <ele>68.2</ele>
        <time>2024-08-18T08:15:00Z</time>
      </trkpt>
      <trkpt lat="46.55135" lon="0.34375">
        <ele>68.4</ele>
        <time>2024-08-18T08:15:06Z</time>
      </trkpt>
      <trkpt lat="46.55123" lon="0.3437">
        <ele>68.4</ele>
        <time>2024-08-18T08:15:13Z</time>
      </trkpt>
      <trkpt lat="46.55119" lon="0.34368">
        <ele>68.4</ele>
        <time>2024-08-18T08:15:15Z</time>
      </trkpt>
      <trkpt lat="46.55109" lon="0.3436">
        <ele>68.4</ele>
        <time>2024-08-18T08:15:19Z</time>
      </trkpt>
      <trkpt lat="46.55093" lon="0.34352">
        <ele>68.2</ele>
        <time>2024-08-18T08:15:26Z</time>
      </trkpt>
      <trkpt lat="46.5507" lon="0.34347">
        <ele>67.6</ele>
        <time>2024-08-18T08:15:34Z</time>
      </trkpt>
      <trkpt lat="46.55063" lon="0.34345">
        <ele>67.2</ele>
        <time>2024-08-18T08:15:36Z</time>
      </trkpt>
      <trkpt lat="46.55048" lon="0.34342">
        <ele>66.8</ele>
        <time>2024-08-18T08:15:40Z</time>
      </trkpt>
      <trkpt lat="46.5505" lon="0.34352">
        <ele>66.4</ele>
        <time>2024-08-18T08:15:43Z</time>
      </trkpt>
      <trkpt lat="46.55051" lon="0.34356">
        <ele>66</ele>
        <time>2024-08-18T08:15:44Z</time>
      </trkpt>
      <trkpt lat="46.55053" lon="0.34366">
        <ele>65.4</ele>
        <time>2024-08-18T08:15:47Z</time>
      </trkpt>
      <trkpt lat="46.55053" lon="0.34368">
        <ele>65.2</ele>
        <time>2024-08-18T08:15:48Z</time>
      </trkpt>
      <trkpt lat="46.55053" lon="0.3437">
        <ele>65</ele>
        <time>2024-08-18T08:15:49Z</time>
      </trkpt>
      <trkpt lat="46.55052" lon="0.3438">
        <ele>64.8</ele>
        <time>2024-08-18T08:15:53Z</time>
      </trkpt>
      <trkpt lat="46.5506" lon="0.34389">
        <ele>64.2</ele>
        <time>2024-08-18T08:15:58Z</time>
      </trkpt>
      <trkpt lat="46.55061" lon="0.34394">
        <ele>64.2</ele>
        <time>2024-08-18T08:16:00Z</time>
      </trkpt>
      <trkpt lat="46.55061" lon="0.344">
        <ele>64.4</ele>
        <time>2024-08-18T08:16:02Z</time>
      </trkpt>
      <trkpt lat="46.55059" lon="0.34424">
        <ele>65</ele>
        <time>2024-08-18T08:16:10Z</time>
      </trkpt>
      <trkpt lat="46.55056" lon="0.3443">
        <ele>65.6</ele>
        <time>2024-08-18T08:16:15Z</time>
      </trkpt>
      <trkpt lat="46.55055" lon="0.34431">
        <ele>65.6</ele>
        <time>2024-08-18T08:16:16Z</time>
      </trkpt>
      <trkpt lat="46.55051" lon="0.34433">
        <ele>66.2</ele>
        <time>2024-08-18T08:16:18Z</time>
      </trkpt>
      <trkpt lat="46.55042" lon="0.34439">
        <ele>67.2</ele>
        <time>2024-08-18T08:16:22Z</time>
      </trkpt>
      <trkpt lat="46.55039" lon="0.34439">
        <ele>67.6</ele>
        <time>2024-08-18T08:16:23Z</time>
      </trkpt>
      <trkpt lat="46.55032" lon="0.34442">
        <ele>68.4</ele>
        <time>2024-08-18T08:16:26Z</time>
      </trkpt>
      <trkpt lat="46.55028" lon="0.34443">
        <ele>69.6</ele>
        <time>2024-08-18T08:16:28Z</time>
      </trkpt>
      <trkpt lat="46.55024" lon="0.34444">
        <ele>70.4</ele>
        <time>2024-08-18T08:16:30Z</time>
      </trkpt>
      <trkpt lat="46.55021" lon="0.34446">
        <ele>70.8</ele>
        <time>2024-08-18T08:16:32Z</time>
      </trkpt>
      <trkpt lat="46.55016" lon="0.34447">
        <ele>71.8</ele>
        <time>2024-08-18T08:16:36Z</time>
      </trkpt>
      <trkpt lat="46.55014" lon="0.34447">
        <ele>72.2</ele>
        <time>2024-08-18T08:16:38Z</time>
      </trkpt>
      <trkpt lat="46.55012" lon="0.34449">
        <ele>72.6</ele>
        <time>2024-08-18T08:16:40Z</time>
      </trkpt>
      <trkpt lat="46.55012" lon="0.3445">
        <ele>72.8</ele>
        <time>2024-08-18T08:16:41Z</time>
      </trkpt>
      <trkpt lat="46.55013" lon="0.34453">
        <ele>73</ele>
        <time>2024-08-18T08:16:43Z</time>
      </trkpt>
      <trkpt lat="46.55018" lon="0.34457">
        <ele>74.4</ele>
        <time>2024-08-18T08:16:49Z</time>
      </trkpt>
      <trkpt lat="46.55019" lon="0.34458">
        <ele>74.8</ele>
        <time>2024-08-18T08:16:50Z</time>
      </trkpt>
      <trkpt lat="46.55022" lon="0.34462">
        <ele>75.4</ele>
        <time>2024-08-18T08:16:54Z</time>
      </trkpt>
      <trkpt lat="46.55026" lon="0.34465">
        <ele>75.4</ele>
        <time>2024-08-18T08:16:57Z</time>
      </trkpt>
      <trkpt lat="46.55031" lon="0.3447">
        <ele>76.4</ele>
        <time>2024-08-18T08:17:02Z</time>
      </trkpt>
      <trkpt lat="46.55034" lon="0.34472">
        <ele>76.8</ele>
        <time>2024-08-18T08:17:04Z</time>
      </trkpt>
      <trkpt lat="46.55036" lon="0.34474">
        <ele>77.2</ele>
        <time>2024-08-18T08:17:06Z</time>
      </trkpt>
      <trkpt lat="46.55038" lon="0.34476">
        <ele>77.6</ele>
        <time>2024-08-18T08:17:07Z</time>
      </trkpt>
      <trkpt lat="46.55043" lon="0.3448">
        <ele>78.2</ele>
        <time>2024-08-18T08:17:11Z</time>
      </trkpt>
      <trkpt lat="46.55048" lon="0.34487">
        <ele>79</ele>
        <time>2024-08-18T08:17:16Z</time>
      </trkpt>
      <trkpt lat="46.55054" lon="0.34492">
        <ele>80.2</ele>
        <time>2024-08-18T08:17:20Z</time>
      </trkpt>
      <trkpt lat="46.55057" lon="0.34494">
        <ele>80.8</ele>
        <time>2024-08-18T08:17:22Z</time>
      </trkpt>
      <trkpt lat="46.55059" lon="0.34497">
        <ele>81.4</ele>
        <time>2024-08-18T08:17:24Z</time>
      </trkpt>
      <trkpt lat="46.55066" lon="0.34501">
        <ele>82.6</ele>
        <time>2024-08-18T08:17:29Z</time>
      </trkpt>
      <trkpt lat="46.55069" lon="0.34504">
        <ele>82.8</ele>
        <time>2024-08-18T08:17:31Z</time>
      </trkpt>
      <trkpt lat="46.55074" lon="0.34508">
        <ele>83.6</ele>
        <time>2024-08-18T08:17:34Z</time>
      </trkpt>
      <trkpt lat="46.55081" lon="0.34517">
        <ele>84.8</ele>
        <time>2024-08-18T08:17:39Z</time>
      </trkpt>
      <trkpt lat="46.55085" lon="0.34523">
        <ele>86</ele>
        <time>2024-08-18T08:17:43Z</time>
      </trkpt>
      <trkpt lat="46.55089" lon="0.34528">
        <ele>87</ele>
        <time>2024-08-18T08:17:47Z</time>
      </trkpt>
      <trkpt lat="46.55092" lon="0.34532">
        <ele>87.6</ele>
        <time>2024-08-18T08:17:50Z</time>
      </trkpt>
      <trkpt lat="46.55096" lon="0.34537">
        <ele>88.2</ele>
        <time>2024-08-18T08:17:53Z</time>
      </trkpt>
      <trkpt lat="46.551" lon="0.34541">
        <ele>88.8</ele>
        <time>2024-08-18T08:17:55Z</time>
      </trkpt>
      <trkpt lat="46.55103" lon="0.34544">
        <ele>89</ele>
        <time>2024-08-18T08:17:57Z</time>
      </trkpt>
      <trkpt lat="46.55104" lon="0.34547">
        <ele>89.4</ele>
        <time>2024-08-18T08:17:58Z</time>
      </trkpt>
      <trkpt lat="46.5511" lon="0.34554">
        <ele>90.6</ele>
        <time>2024-08-18T08:18:02Z</time>
      </trkpt>
      <trkpt lat="46.55114" lon="0.34561">
        <ele>91.2</ele>
        <time>2024-08-18T08:18:06Z</time>
      </trkpt>
      <trkpt lat="46.55115" lon="0.34564">
        <ele>91.6</ele>
        <time>2024-08-18T08:18:07Z</time>
      </trkpt>
      <trkpt lat="46.55118" lon="0.3457">
        <ele>92.2</ele>
        <time>2024-08-18T08:18:10Z</time>
      </trkpt>
      <trkpt lat="46.55119" lon="0.34572">
        <ele>92.6</ele>
        <time>2024-08-18T08:18:11Z</time>
      </trkpt>
      <trkpt lat="46.55119" lon="0.34574">
        <ele>93</ele>
        <time>2024-08-18T08:18:12Z</time>
      </trkpt>
      <trkpt lat="46.5512" lon="0.34578">
        <ele>93.8</ele>
        <time>2024-08-18T08:18:16Z</time>
      </trkpt>
      <trkpt lat="46.55121" lon="0.34582">
        <ele>94</ele>
        <time>2024-08-18T08:18:17Z</time>
      </trkpt>
      <trkpt lat="46.55121" lon="0.34586">
        <ele>94.6</ele>
        <time>2024-08-18T08:18:19Z</time>
      </trkpt>
      <trkpt lat="46.55123" lon="0.34588">
        <ele>95</ele>
        <time>2024-08-18T08:18:20Z</time>
      </trkpt>
      <trkpt lat="46.55123" lon="0.34593">
        <ele>95.2</ele>
        <time>2024-08-18T08:18:22Z</time>
      </trkpt>
      <trkpt lat="46.55123" lon="0.34596">
        <ele>96</ele>
        <time>2024-08-18T08:18:24Z</time>
      </trkpt>
      <trkpt lat="46.55123" lon="0.34598">
        <ele>96.2</ele>
        <time>2024-08-18T08:18:25Z</time>
      </trkpt>
      <trkpt lat="46.55123" lon="0.34599">
        <ele>96.2</ele>
        <time>2024-08-18T08:18:26Z</time>
      </trkpt>
      <trkpt lat="46.55122" lon="0.34602">
        <ele>97</ele>
        <time>2024-08-18T08:18:28Z</time>
      </trkpt>
      <trkpt lat="46.5512" lon="0.34605">
        <ele>97.4</ele>
        <time>2024-08-18T08:18:30Z</time>
      </trkpt>
      <trkpt lat="46.55112" lon="0.34615">
        <ele>98</ele>
        <time>2024-08-18T08:18:36Z</time>
      </trkpt>
      <trkpt lat="46.5511" lon="0.34617">
        <ele>98.2</ele>
        <time>2024-08-18T08:18:37Z</time>
      </trkpt>
      <trkpt lat="46.55101" lon="0.34625">
        <ele>99.2</ele>
        <time>2024-08-18T08:18:43Z</time>
      </trkpt>
      <trkpt lat="46.55099" lon="0.34628">
        <ele>99.4</ele>
        <time>2024-08-18T08:18:45Z</time>
      </trkpt>
      <trkpt lat="46.55097" lon="0.34635">
        <ele>100.2</ele>
        <time>2024-08-18T08:18:49Z</time>
      </trkpt>
      <trkpt lat="46.55095" lon="0.34637">
        <ele>100.6</ele>
        <time>2024-08-18T08:18:51Z</time>
      </trkpt>
      <trkpt lat="46.55092" lon="0.34642">
        <ele>101.4</ele>
        <time>2024-08-18T08:18:54Z</time>
      </trkpt>
      <trkpt lat="46.55089" lon="0.34648">
        <ele>102</ele>
        <time>2024-08-18T08:18:57Z</time>
      </trkpt>
      <trkpt lat="46.55088" lon="0.3465">
        <ele>102.4</ele>
        <time>2024-08-18T08:18:58Z</time>
      </trkpt>
      <trkpt lat="46.5508" lon="0.34672">
        <ele>103.6</ele>
        <time>2024-08-18T08:19:05Z</time>
      </trkpt>
      <trkpt lat="46.5508" lon="0.34674">
        <ele>103.6</ele>
        <time>2024-08-18T08:19:06Z</time>
      </trkpt>
      <trkpt lat="46.5508" lon="0.34695">
        <ele>104.4</ele>
        <time>2024-08-18T08:19:12Z</time>
      </trkpt>
      <trkpt lat="46.55081" lon="0.34699">
        <ele>104.6</ele>
        <time>2024-08-18T08:19:13Z</time>
      </trkpt>
      <trkpt lat="46.55084" lon="0.34717">
        <ele>104.8</ele>
        <time>2024-08-18T08:19:19Z</time>
      </trkpt>
      <trkpt lat="46.55083" lon="0.34741">
        <ele>104.8</ele>
        <time>2024-08-18T08:19:24Z</time>
      </trkpt>
      <trkpt lat="46.55076" lon="0.34756">
        <ele>105</ele>
        <time>2024-08-18T08:19:28Z</time>
      </trkpt>
      <trkpt lat="46.55067" lon="0.34771">
        <ele>105.6</ele>
        <time>2024-08-18T08:19:32Z</time>
      </trkpt>
      <trkpt lat="46.55065" lon="0.34775">
        <ele>105.6</ele>
        <time>2024-08-18T08:19:33Z</time>
      </trkpt>
      <trkpt lat="46.55051" lon="0.34792">
        <ele>106.4</ele>
        <time>2024-08-18T08:19:38Z</time>
      </trkpt>
      <trkpt lat="46.55043" lon="0.34801">
        <ele>106.6</ele>
        <time>2024-08-18T08:19:40Z</time>
      </trkpt>
      <trkpt lat="46.55025" lon="0.34817">
        <ele>107</ele>
        <time>2024-08-18T08:19:44Z</time>
      </trkpt>
      <trkpt lat="46.54993" lon="0.34843">
        <ele>108</ele>
        <time>2024-08-18T08:19:51Z</time>
      </trkpt>
      <trkpt lat="46.54984" lon="0.34848">
        <ele>108.2</ele>
        <time>2024-08-18T08:19:53Z</time>
      </trkpt>
      <trkpt lat="46.54964" lon="0.34859">
        <ele>109</ele>
        <time>2024-08-18T08:19:57Z</time>
      </trkpt>
      <trkpt lat="46.54948" lon="0.34869">
        <ele>109.2</ele>
        <time>2024-08-18T08:20:00Z</time>
      </trkpt>
      <trkpt lat="46.54916" lon="0.34893">
        <ele>109.8</ele>
        <time>2024-08-18T08:20:06Z</time>
      </trkpt>
      <trkpt lat="46.54869" lon="0.3492">
        <ele>109.8</ele>
        <time>2024-08-18T08:20:14Z</time>
      </trkpt>
      <trkpt lat="46.54828" lon="0.34946">
        <ele>109.8</ele>
        <time>2024-08-18T08:20:21Z</time>
      </trkpt>
      <trkpt lat="46.54792" lon="0.34966">
        <ele>110</ele>
        <time>2024-08-18T08:20:27Z</time>
      </trkpt>
      <trkpt lat="46.54787" lon="0.34969">
        <ele>110</ele>
        <time>2024-08-18T08:20:28Z</time>
      </trkpt>
      <trkpt lat="46.54746" lon="0.34993">
        <ele>109.6</ele>
        <time>2024-08-18T08:20:35Z</time>
      </trkpt>
      <trkpt lat="46.54699" lon="0.35018">
        <ele>109.6</ele>
        <time>2024-08-18T08:20:43Z</time>
      </trkpt>
      <trkpt lat="46.54686" lon="0.35022">
        <ele>109.4</ele>
        <time>2024-08-18T08:20:46Z</time>
      </trkpt>
      <trkpt lat="46.54683" lon="0.35022">
        <ele>109.4</ele>
        <time>2024-08-18T08:20:47Z</time>
      </trkpt>
      <trkpt lat="46.54676" lon="0.35024">
        <ele>109</ele>
        <time>2024-08-18T08:20:50Z</time>
      </trkpt>
      <trkpt lat="46.54672" lon="0.35026">
        <ele>108.8</ele>
        <time>2024-08-18T08:20:52Z</time>
      </trkpt>
      <trkpt lat="46.54667" lon="0.35036">
        <ele>108.4</ele>
        <time>2024-08-18T08:20:57Z</time>
      </trkpt>
      <trkpt lat="46.54662" lon="0.35049">
        <ele>107.8</ele>
        <time>2024-08-18T08:21:01Z</time>
      </trkpt>
      <trkpt lat="46.5466" lon="0.35052">
        <ele>107.6</ele>
        <time>2024-08-18T08:21:02Z</time>
      </trkpt>
      <trkpt lat="46.54653" lon="0.35057">
        <ele>107.4</ele>
        <time>2024-08-18T08:21:04Z</time>
      </trkpt>
      <trkpt lat="46.54634" lon="0.3506">
        <ele>107.4</ele>
        <time>2024-08-18T08:21:09Z</time>
      </trkpt>
      <trkpt lat="46.54629" lon="0.3506">
        <ele>107.4</ele>
        <time>2024-08-18T08:21:10Z</time>
      </trkpt>
      <trkpt lat="46.54613" lon="0.35058">
        <ele>107.4</ele>
        <time>2024-08-18T08:21:13Z</time>
      </trkpt>
      <trkpt lat="46.54607" lon="0.35059">
        <ele>107.4</ele>
        <time>2024-08-18T08:21:14Z</time>
      </trkpt>
      <trkpt lat="46.54569" lon="0.3506">
        <ele>107.8</ele>
        <time>2024-08-18T08:21:20Z</time>
      </trkpt>
      <trkpt lat="46.54556" lon="0.35057">
        <ele>108.2</ele>
        <time>2024-08-18T08:21:22Z</time>
      </trkpt>
      <trkpt lat="46.54546" lon="0.35051">
        <ele>108.4</ele>
        <time>2024-08-18T08:21:24Z</time>
      </trkpt>
      <trkpt lat="46.54516" lon="0.35022">
        <ele>108.6</ele>
        <time>2024-08-18T08:21:31Z</time>
      </trkpt>
      <trkpt lat="46.54512" lon="0.35017">
        <ele>108.8</ele>
        <time>2024-08-18T08:21:32Z</time>
      </trkpt>
      <trkpt lat="46.54503" lon="0.35008">
        <ele>108.4</ele>
        <time>2024-08-18T08:21:35Z</time>
      </trkpt>
      <trkpt lat="46.54495" lon="0.34997">
        <ele>108</ele>
        <time>2024-08-18T08:21:39Z</time>
      </trkpt>
      <trkpt lat="46.54494" lon="0.34996">
        <ele>107.8</ele>
        <time>2024-08-18T08:21:40Z</time>
      </trkpt>
      <trkpt lat="46.54488" lon="0.3499">
        <ele>107.8</ele>
        <time>2024-08-18T08:21:43Z</time>
      </trkpt>
      <trkpt lat="46.54478" lon="0.34985">
        <ele>108.2</ele>
        <time>2024-08-18T08:21:48Z</time>
      </trkpt>
      <trkpt lat="46.54463" lon="0.34976">
        <ele>108</ele>
        <time>2024-08-18T08:21:53Z</time>
      </trkpt>
      <trkpt lat="46.54456" lon="0.34971">
        <ele>108</ele>
        <time>2024-08-18T08:21:56Z</time>
      </trkpt>
      <trkpt lat="46.54453" lon="0.34965">
        <ele>107.8</ele>
        <time>2024-08-18T08:21:58Z</time>
      </trkpt>
      <trkpt lat="46.5445" lon="0.34947">
        <ele>107.6</ele>
        <time>2024-08-18T08:22:02Z</time>
      </trkpt>
      <trkpt lat="46.5445" lon="0.34943">
        <ele>107.4</ele>
        <time>2024-08-18T08:22:03Z</time>
      </trkpt>
      <trkpt lat="46.54447" lon="0.34937">
        <ele>107.4</ele>
        <time>2024-08-18T08:22:05Z</time>
      </trkpt>
      <trkpt lat="46.54441" lon="0.34933">
        <ele>107.4</ele>
        <time>2024-08-18T08:22:07Z</time>
      </trkpt>
      <trkpt lat="46.54433" lon="0.34931">
        <ele>108</ele>
        <time>2024-08-18T08:22:09Z</time>
      </trkpt>
      <trkpt lat="46.54427" lon="0.34934">
        <ele>108.2</ele>
        <time>2024-08-18T08:22:11Z</time>
      </trkpt>
      <trkpt lat="46.54413" lon="0.3496">
        <ele>108</ele>
        <time>2024-08-18T08:22:17Z</time>
      </trkpt>
      <trkpt lat="46.54403" lon="0.3498">
        <ele>107.8</ele>
        <time>2024-08-18T08:22:22Z</time>
      </trkpt>
      <trkpt lat="46.54401" lon="0.34983">
        <ele>107.8</ele>
        <time>2024-08-18T08:22:23Z</time>
      </trkpt>
      <trkpt lat="46.54393" lon="0.35001">
        <ele>107.8</ele>
        <time>2024-08-18T08:22:28Z</time>
      </trkpt>
      <trkpt lat="46.54391" lon="0.35004">
        <ele>107.8</ele>
        <time>2024-08-18T08:22:29Z</time>
      </trkpt>
      <trkpt lat="46.54374" lon="0.35033">
        <ele>108</ele>
        <time>2024-08-18T08:22:36Z</time>
      </trkpt>
      <trkpt lat="46.54372" lon="0.35039">
        <ele>108</ele>
        <time>2024-08-18T08:22:37Z</time>
      </trkpt>
      <trkpt lat="46.54369" lon="0.35051">
        <ele>108</ele>
        <time>2024-08-18T08:22:40Z</time>
      </trkpt>
      <trkpt lat="46.54366" lon="0.3507">
        <ele>108</ele>
        <time>2024-08-18T08:22:44Z</time>
      </trkpt>
      <trkpt lat="46.54366" lon="0.35074">
        <ele>108.2</ele>
        <time>2024-08-18T08:22:45Z</time>
      </trkpt>
      <trkpt lat="46.54366" lon="0.35078">
        <ele>108.4</ele>
        <time>2024-08-18T08:22:46Z</time>
      </trkpt>
      <trkpt lat="46.54369" lon="0.35084">
        <ele>108.4</ele>
        <time>2024-08-18T08:22:48Z</time>
      </trkpt>
      <trkpt lat="46.54372" lon="0.35088">
        <ele>108.6</ele>
        <time>2024-08-18T08:22:50Z</time>
      </trkpt>
      <trkpt lat="46.54375" lon="0.35095">
        <ele>108.6</ele>
        <time>2024-08-18T08:22:52Z</time>
      </trkpt>
      <trkpt lat="46.54381" lon="0.35109">
        <ele>108.6</ele>
        <time>2024-08-18T08:22:55Z</time>
      </trkpt>
      <trkpt lat="46.54391" lon="0.35127">
        <ele>108.6</ele>
        <time>2024-08-18T08:22:59Z</time>
      </trkpt>
      <trkpt lat="46.54396" lon="0.35135">
        <ele>108.6</ele>
        <time>2024-08-18T08:23:01Z</time>
      </trkpt>
      <trkpt lat="46.5441" lon="0.35155">
        <ele>108.6</ele>
        <time>2024-08-18T08:23:05Z</time>
      </trkpt>
      <trkpt lat="46.54414" lon="0.35159">
        <ele>108.6</ele>
        <time>2024-08-18T08:23:06Z</time>
      </trkpt>
      <trkpt lat="46.54417" lon="0.35162">
        <ele>108.4</ele>
        <time>2024-08-18T08:23:07Z</time>
      </trkpt>
      <trkpt lat="46.54424" lon="0.35165">
        <ele>108.2</ele>
        <time>2024-08-18T08:23:09Z</time>
      </trkpt>
      <trkpt lat="46.54427" lon="0.35166">
        <ele>108</ele>
        <time>2024-08-18T08:23:10Z</time>
      </trkpt>
      <trkpt lat="46.54433" lon="0.35168">
        <ele>107.8</ele>
        <time>2024-08-18T08:23:12Z</time>
      </trkpt>
      <trkpt lat="46.54439" lon="0.35169">
        <ele>107.6</ele>
        <time>2024-08-18T08:23:14Z</time>
      </trkpt>
      <trkpt lat="46.54445" lon="0.3517">
        <ele>107.2</ele>
        <time>2024-08-18T08:23:16Z</time>
      </trkpt>
      <trkpt lat="46.54451" lon="0.35171">
        <ele>107</ele>
        <time>2024-08-18T08:23:18Z</time>
      </trkpt>
      <trkpt lat="46.54457" lon="0.3517">
        <ele>107</ele>
        <time>2024-08-18T08:23:20Z</time>
      </trkpt>
      <trkpt lat="46.5446" lon="0.3517">
        <ele>107</ele>
        <time>2024-08-18T08:23:21Z</time>
      </trkpt>
      <trkpt lat="46.54463" lon="0.3517">
        <ele>107</ele>
        <time>2024-08-18T08:23:22Z</time>
      </trkpt>
      <trkpt lat="46.54472" lon="0.35168">
        <ele>107</ele>
        <time>2024-08-18T08:23:24Z</time>
      </trkpt>
      <trkpt lat="46.54476" lon="0.35167">
        <ele>107</ele>
        <time>2024-08-18T08:23:25Z</time>
      </trkpt>
      <trkpt lat="46.54481" lon="0.35166">
        <ele>107</ele>
        <time>2024-08-18T08:23:26Z</time>
      </trkpt>
      <trkpt lat="46.54485" lon="0.35166">
        <ele>106.8</ele>
        <time>2024-08-18T08:23:27Z</time>
      </trkpt>
      <trkpt lat="46.54489" lon="0.35167">
        <ele>106.6</ele>
        <time>2024-08-18T08:23:28Z</time>
      </trkpt>
      <trkpt lat="46.54495" lon="0.35168">
        <ele>106</ele>
        <time>2024-08-18T08:23:30Z</time>
      </trkpt>
      <trkpt lat="46.54502" lon="0.35168">
        <ele>105.8</ele>
        <time>2024-08-18T08:23:32Z</time>
      </trkpt>
      <trkpt lat="46.54512" lon="0.35169">
        <ele>105.6</ele>
        <time>2024-08-18T08:23:34Z</time>
      </trkpt>
      <trkpt lat="46.5452" lon="0.35169">
        <ele>105.4</ele>
        <time>2024-08-18T08:23:36Z</time>
      </trkpt>
      <trkpt lat="46.54528" lon="0.35167">
        <ele>105.2</ele>
        <time>2024-08-18T08:23:38Z</time>
      </trkpt>
      <trkpt lat="46.54536" lon="0.35165">
        <ele>105</ele>
        <time>2024-08-18T08:23:40Z</time>
      </trkpt>
      <trkpt lat="46.54539" lon="0.35164">
        <ele>105</ele>
        <time>2024-08-18T08:23:41Z</time>
      </trkpt>
      <trkpt lat="46.54549" lon="0.35159">
        <ele>104.6</ele>
        <time>2024-08-18T08:23:44Z</time>
      </trkpt>
      <trkpt lat="46.54551" lon="0.35158">
        <ele>104.4</ele>
        <time>2024-08-18T08:23:45Z</time>
      </trkpt>
      <trkpt lat="46.54553" lon="0.35159">
        <ele>104.2</ele>
        <time>2024-08-18T08:23:46Z</time>
      </trkpt>
      <trkpt lat="46.54555" lon="0.3516">
        <ele>104.2</ele>
        <time>2024-08-18T08:23:47Z</time>
      </trkpt>
      <trkpt lat="46.54569" lon="0.35165">
        <ele>103.6</ele>
        <time>2024-08-18T08:23:50Z</time>
      </trkpt>
      <trkpt lat="46.54575" lon="0.35169">
        <ele>103.4</ele>
        <time>2024-08-18T08:23:51Z</time>
      </trkpt>
      <trkpt lat="46.5458" lon="0.35178">
        <ele>102.8</ele>
        <time>2024-08-18T08:23:53Z</time>
      </trkpt>
      <trkpt lat="46.54582" lon="0.3519">
        <ele>102.2</ele>
        <time>2024-08-18T08:23:55Z</time>
      </trkpt>
      <trkpt lat="46.54583" lon="0.35242">
        <ele>101.6</ele>
        <time>2024-08-18T08:24:03Z</time>
      </trkpt>
      <trkpt lat="46.54582" lon="0.35256">
        <ele>100.8</ele>
        <time>2024-08-18T08:24:06Z</time>
      </trkpt>
      <trkpt lat="46.5458" lon="0.35262">
        <ele>100.4</ele>
        <time>2024-08-18T08:24:07Z</time>
      </trkpt>
      <trkpt lat="46.54577" lon="0.35268">
        <ele>100.2</ele>
        <time>2024-08-18T08:24:08Z</time>
      </trkpt>
      <trkpt lat="46.54567" lon="0.35287">
        <ele>100.2</ele>
        <time>2024-08-18T08:24:12Z</time>
      </trkpt>
      <trkpt lat="46.5456" lon="0.35314">
        <ele>100.4</ele>
        <time>2024-08-18T08:24:17Z</time>
      </trkpt>
      <trkpt lat="46.54561" lon="0.3532">
        <ele>100.4</ele>
        <time>2024-08-18T08:24:19Z</time>
      </trkpt>
      <trkpt lat="46.54565" lon="0.35324">
        <ele>100.4</ele>
        <time>2024-08-18T08:24:21Z</time>
      </trkpt>
      <trkpt lat="46.5457" lon="0.35325">
        <ele>99.2</ele>
        <time>2024-08-18T08:24:23Z</time>
      </trkpt>
      <trkpt lat="46.54574" lon="0.35328">
        <ele>97.8</ele>
        <time>2024-08-18T08:24:25Z</time>
      </trkpt>
      <trkpt lat="46.54579" lon="0.35333">
        <ele>96.6</ele>
        <time>2024-08-18T08:24:27Z</time>
      </trkpt>
      <trkpt lat="46.54584" lon="0.35338">
        <ele>95.4</ele>
        <time>2024-08-18T08:24:29Z</time>
      </trkpt>
      <trkpt lat="46.54589" lon="0.35342">
        <ele>94</ele>
        <time>2024-08-18T08:24:31Z</time>
      </trkpt>
      <trkpt lat="46.54592" lon="0.35344">
        <ele>92.4</ele>
        <time>2024-08-18T08:24:32Z</time>
      </trkpt>
      <trkpt lat="46.54595" lon="0.35347">
        <ele>91.2</ele>
        <time>2024-08-18T08:24:33Z</time>
      </trkpt>
      <trkpt lat="46.54598" lon="0.35349">
        <ele>90</ele>
        <time>2024-08-18T08:24:34Z</time>
      </trkpt>
      <trkpt lat="46.54601" lon="0.35352">
        <ele>88.6</ele>
        <time>2024-08-18T08:24:35Z</time>
      </trkpt>
      <trkpt lat="46.54605" lon="0.35356">
        <ele>87.2</ele>
        <time>2024-08-18T08:24:36Z</time>
      </trkpt>
      <trkpt lat="46.54611" lon="0.35366">
        <ele>85.4</ele>
        <time>2024-08-18T08:24:38Z</time>
      </trkpt>
      <trkpt lat="46.54614" lon="0.35372">
        <ele>84.4</ele>
        <time>2024-08-18T08:24:39Z</time>
      </trkpt>
      <trkpt lat="46.54625" lon="0.35387">
        <ele>83.2</ele>
        <time>2024-08-18T08:24:42Z</time>
      </trkpt>
      <trkpt lat="46.54635" lon="0.35395">
        <ele>82.4</ele>
        <time>2024-08-18T08:24:44Z</time>
      </trkpt>
      <trkpt lat="46.54635" lon="0.35395">
        <ele>81.6</ele>
        <time>2024-08-18T08:24:45Z</time>
      </trkpt>
      <trkpt lat="46.54645" lon="0.35404">
        <ele>81.6</ele>
        <time>2024-08-18T08:24:46Z</time>
      </trkpt>
      <trkpt lat="46.54662" lon="0.35415">
        <ele>80.8</ele>
        <time>2024-08-18T08:24:48Z</time>
      </trkpt>
      <trkpt lat="46.54666" lon="0.35421">
        <ele>80.2</ele>
        <time>2024-08-18T08:24:49Z</time>
      </trkpt>
      <trkpt lat="46.54668" lon="0.35434">
        <ele>79.8</ele>
        <time>2024-08-18T08:24:51Z</time>
      </trkpt>
      <trkpt lat="46.54673" lon="0.35447">
        <ele>79.6</ele>
        <time>2024-08-18T08:24:53Z</time>
      </trkpt>
      <trkpt lat="46.54681" lon="0.35475">
        <ele>79.2</ele>
        <time>2024-08-18T08:24:57Z</time>
      </trkpt>
      <trkpt lat="46.54683" lon="0.35483">
        <ele>79</ele>
        <time>2024-08-18T08:24:58Z</time>
      </trkpt>
      <trkpt lat="46.54684" lon="0.3549">
        <ele>78.8</ele>
        <time>2024-08-18T08:24:59Z</time>
      </trkpt>
      <trkpt lat="46.54685" lon="0.35493">
        <ele>78.2</ele>
        <time>2024-08-18T08:25:00Z</time>
      </trkpt>
      <trkpt lat="46.54686" lon="0.35496">
        <ele>77.6</ele>
        <time>2024-08-18T08:25:01Z</time>
      </trkpt>
      <trkpt lat="46.54688" lon="0.35501">
        <ele>77</ele>
        <time>2024-08-18T08:25:03Z</time>
      </trkpt>
      <trkpt lat="46.54693" lon="0.3552">
        <ele>76.6</ele>
        <time>2024-08-18T08:25:16Z</time>
      </trkpt>
      <trkpt lat="46.54699" lon="0.35526">
        <ele>76.6</ele>
        <time>2024-08-18T08:25:20Z</time>
      </trkpt>
      <trkpt lat="46.54703" lon="0.35527">
        <ele>75.8</ele>
        <time>2024-08-18T08:25:22Z</time>
      </trkpt>
      <trkpt lat="46.54708" lon="0.35529">
        <ele>74.8</ele>
        <time>2024-08-18T08:25:24Z</time>
      </trkpt>
      <trkpt lat="46.54711" lon="0.35531">
        <ele>74.6</ele>
        <time>2024-08-18T08:25:25Z</time>
      </trkpt>
      <trkpt lat="46.54725" lon="0.35542">
        <ele>73.2</ele>
        <time>2024-08-18T08:25:30Z</time>
      </trkpt>
      <trkpt lat="46.54726" lon="0.35543">
        <ele>72.8</ele>
        <time>2024-08-18T08:25:31Z</time>
      </trkpt>
      <trkpt lat="46.54727" lon="0.35544">
        <ele>70.8</ele>
        <time>2024-08-18T08:25:32Z</time>
      </trkpt>
      <trkpt lat="46.54728" lon="0.35544">
        <ele>69.8</ele>
        <time>2024-08-18T08:25:33Z</time>
      </trkpt>
      <trkpt lat="46.54729" lon="0.35544">
        <ele>69.2</ele>
        <time>2024-08-18T08:25:34Z</time>
      </trkpt>
      <trkpt lat="46.54732" lon="0.35542">
        <ele>68.6</ele>
        <time>2024-08-18T08:25:36Z</time>
      </trkpt>
      <trkpt lat="46.54734" lon="0.35542">
        <ele>68.4</ele>
        <time>2024-08-18T08:25:37Z</time>
      </trkpt>
      <trkpt lat="46.54734" lon="0.35542">
        <ele>68.4</ele>
        <time>2024-08-18T08:25:38Z</time>
      </trkpt>
      <trkpt lat="46.54735" lon="0.3554">
        <ele>68.6</ele>
        <time>2024-08-18T08:25:43Z</time>
      </trkpt>
      <trkpt lat="46.54735" lon="0.35538">
        <ele>68.6</ele>
        <time>2024-08-18T08:25:44Z</time>
      </trkpt>
      <trkpt lat="46.54737" lon="0.35518">
        <ele>68.6</ele>
        <time>2024-08-18T08:25:49Z</time>
      </trkpt>
      <trkpt lat="46.5474" lon="0.35498">
        <ele>68.2</ele>
        <time>2024-08-18T08:25:52Z</time>
      </trkpt>
      <trkpt lat="46.54742" lon="0.35486">
        <ele>68</ele>
        <time>2024-08-18T08:25:54Z</time>
      </trkpt>
      <trkpt lat="46.54743" lon="0.35475">
        <ele>67.8</ele>
        <time>2024-08-18T08:25:56Z</time>
      </trkpt>
      <trkpt lat="46.54745" lon="0.35459">
        <ele>67.8</ele>
        <time>2024-08-18T08:25:59Z</time>
      </trkpt>
      <trkpt lat="46.54748" lon="0.35444">
        <ele>68</ele>
        <time>2024-08-18T08:26:03Z</time>
      </trkpt>
      <trkpt lat="46.5475" lon="0.35434">
        <ele>68</ele>
        <time>2024-08-18T08:26:05Z</time>
      </trkpt>
      <trkpt lat="46.54751" lon="0.35426">
        <ele>68</ele>
        <time>2024-08-18T08:26:07Z</time>
      </trkpt>
      <trkpt lat="46.54755" lon="0.35408">
        <ele>68</ele>
        <time>2024-08-18T08:26:11Z</time>
      </trkpt>
      <trkpt lat="46.54756" lon="0.35405">
        <ele>68</ele>
        <time>2024-08-18T08:26:12Z</time>
      </trkpt>
      <trkpt lat="46.54761" lon="0.35378">
        <ele>68.2</ele>
        <time>2024-08-18T08:26:16Z</time>
      </trkpt>
      <trkpt lat="46.5477" lon="0.35348">
        <ele>68.4</ele>
        <time>2024-08-18T08:26:21Z</time>
      </trkpt>
      <trkpt lat="46.54772" lon="0.35343">
        <ele>68.4</ele>
        <time>2024-08-18T08:26:22Z</time>
      </trkpt>
      <trkpt lat="46.54773" lon="0.35339">
        <ele>68.2</ele>
        <time>2024-08-18T08:26:23Z</time>
      </trkpt>
      <trkpt lat="46.54776" lon="0.35329">
        <ele>68.6</ele>
        <time>2024-08-18T08:26:25Z</time>
      </trkpt>
      <trkpt lat="46.54785" lon="0.35304">
        <ele>68.4</ele>
        <time>2024-08-18T08:26:29Z</time>
      </trkpt>
      <trkpt lat="46.54789" lon="0.35295">
        <ele>68.2</ele>
        <time>2024-08-18T08:26:31Z</time>
      </trkpt>
      <trkpt lat="46.54794" lon="0.35281">
        <ele>68.2</ele>
        <time>2024-08-18T08:26:34Z</time>
      </trkpt>
      <trkpt lat="46.54799" lon="0.35268">
        <ele>68.4</ele>
        <time>2024-08-18T08:26:36Z</time>
      </trkpt>
      <trkpt lat="46.54804" lon="0.35257">
        <ele>68.4</ele>
        <time>2024-08-18T08:26:38Z</time>
      </trkpt>
      <trkpt lat="46.54806" lon="0.35253">
        <ele>68.4</ele>
        <time>2024-08-18T08:26:39Z</time>
      </trkpt>
      <trkpt lat="46.54809" lon="0.35249">
        <ele>68.4</ele>
        <time>2024-08-18T08:26:40Z</time>
      </trkpt>
      <trkpt lat="46.54816" lon="0.35239">
        <ele>67.8</ele>
        <time>2024-08-18T08:26:43Z</time>
      </trkpt>
      <trkpt lat="46.54818" lon="0.35236">
        <ele>67.6</ele>
        <time>2024-08-18T08:26:44Z</time>
      </trkpt>
      <trkpt lat="46.54821" lon="0.35232">
        <ele>67.4</ele>
        <time>2024-08-18T08:26:45Z</time>
      </trkpt>
      <trkpt lat="46.54822" lon="0.35224">
        <ele>67.4</ele>
        <time>2024-08-18T08:26:48Z</time>
      </trkpt>
      <trkpt lat="46.54827" lon="0.35213">
        <ele>68.6</ele>
        <time>2024-08-18T08:26:52Z</time>
      </trkpt>
      <trkpt lat="46.5483" lon="0.3521">
        <ele>69</ele>
        <time>2024-08-18T08:26:53Z</time>
      </trkpt>
      <trkpt lat="46.54831" lon="0.35209">
        <ele>69.2</ele>
        <time>2024-08-18T08:26:54Z</time>
      </trkpt>
      <trkpt lat="46.54827" lon="0.35208">
        <ele>69.8</ele>
        <time>2024-08-18T08:26:58Z</time>
      </trkpt>
      <trkpt lat="46.54827" lon="0.35207">
        <ele>70.2</ele>
        <time>2024-08-18T08:27:00Z</time>
      </trkpt>
      <trkpt lat="46.54827" lon="0.35204">
        <ele>70.8</ele>
        <time>2024-08-18T08:27:02Z</time>
      </trkpt>
      <trkpt lat="46.54825" lon="0.35203">
        <ele>72</ele>
        <time>2024-08-18T08:27:05Z</time>
      </trkpt>
      <trkpt lat="46.54823" lon="0.35204">
        <ele>72.2</ele>
        <time>2024-08-18T08:27:08Z</time>
      </trkpt>
      <trkpt lat="46.54819" lon="0.35205">
        <ele>73.2</ele>
        <time>2024-08-18T08:27:12Z</time>
      </trkpt>
      <trkpt lat="46.54813" lon="0.35206">
        <ele>73.8</ele>
        <time>2024-08-18T08:27:16Z</time>
      </trkpt>
      <trkpt lat="46.54812" lon="0.35206">
        <ele>74.2</ele>
        <time>2024-08-18T08:27:17Z</time>
      </trkpt>
      <trkpt lat="46.54803" lon="0.35213">
        <ele>75.2</ele>
        <time>2024-08-18T08:27:23Z</time>
      </trkpt>
      <trkpt lat="46.54801" lon="0.35215">
        <ele>75.4</ele>
        <time>2024-08-18T08:27:24Z</time>
      </trkpt>
      <trkpt lat="46.54795" lon="0.35232">
        <ele>75.6</ele>
        <time>2024-08-18T08:27:29Z</time>
      </trkpt>
      <trkpt lat="46.54793" lon="0.3524">
        <ele>75.4</ele>
        <time>2024-08-18T08:27:31Z</time>
      </trkpt>
      <trkpt lat="46.54791" lon="0.35248">
        <ele>75.2</ele>
        <time>2024-08-18T08:27:33Z</time>
      </trkpt>
      <trkpt lat="46.54787" lon="0.35257">
        <ele>74.8</ele>
        <time>2024-08-18T08:27:35Z</time>
      </trkpt>
      <trkpt lat="46.54785" lon="0.3526">
        <ele>74.8</ele>
        <time>2024-08-18T08:27:36Z</time>
      </trkpt>
      <trkpt lat="46.54782" lon="0.35263">
        <ele>74.6</ele>
        <time>2024-08-18T08:27:37Z</time>
      </trkpt>
      <trkpt lat="46.54776" lon="0.35276">
        <ele>74.6</ele>
        <time>2024-08-18T08:27:40Z</time>
      </trkpt>
      <trkpt lat="46.5477" lon="0.35291">
        <ele>74.2</ele>
        <time>2024-08-18T08:27:43Z</time>
      </trkpt>
      <trkpt lat="46.54767" lon="0.35296">
        <ele>74</ele>
        <time>2024-08-18T08:27:45Z</time>
      </trkpt>
      <trkpt lat="46.54765" lon="0.35299">
        <ele>74</ele>
        <time>2024-08-18T08:27:46Z</time>
      </trkpt>
      <trkpt lat="46.54758" lon="0.35322">
        <ele>74.6</ele>
        <time>2024-08-18T08:27:51Z</time>
      </trkpt>
      <trkpt lat="46.54754" lon="0.35332">
        <ele>75.2</ele>
        <time>2024-08-18T08:27:53Z</time>
      </trkpt>
      <trkpt lat="46.54747" lon="0.35354">
        <ele>76.4</ele>
        <time>2024-08-18T08:27:58Z</time>
      </trkpt>
      <trkpt lat="46.54744" lon="0.3536">
        <ele>76.6</ele>
        <time>2024-08-18T08:27:59Z</time>
      </trkpt>
      <trkpt lat="46.54734" lon="0.35384">
        <ele>77</ele>
        <time>2024-08-18T08:28:05Z</time>
      </trkpt>
      <trkpt lat="46.54729" lon="0.35394">
        <ele>77.4</ele>
        <time>2024-08-18T08:28:08Z</time>
      </trkpt>
      <trkpt lat="46.54728" lon="0.35398">
        <ele>77.6</ele>
        <time>2024-08-18T08:28:09Z</time>
      </trkpt>
      <trkpt lat="46.54726" lon="0.354">
        <ele>77.6</ele>
        <time>2024-08-18T08:28:10Z</time>
      </trkpt>
      <trkpt lat="46.54716" lon="0.35421">
        <ele>78.2</ele>
        <time>2024-08-18T08:28:17Z</time>
      </trkpt>
      <trkpt lat="46.54714" lon="0.35426">
        <ele>78.4</ele>
        <time>2024-08-18T08:28:20Z</time>
      </trkpt>
      <trkpt lat="46.5471" lon="0.3543">
        <ele>78.6</ele>
        <time>2024-08-18T08:28:26Z</time>
      </trkpt>
      <trkpt lat="46.54711" lon="0.35438">
        <ele>78.4</ele>
        <time>2024-08-18T08:28:43Z</time>
      </trkpt>
      <trkpt lat="46.54708" lon="0.35445">
        <ele>78.6</ele>
        <time>2024-08-18T08:28:51Z</time>
      </trkpt>
      <trkpt lat="46.54706" lon="0.35451">
        <ele>78.6</ele>
        <time>2024-08-18T08:28:53Z</time>
      </trkpt>
      <trkpt lat="46.54706" lon="0.35471">
        <ele>78.8</ele>
        <time>2024-08-18T08:28:58Z</time>
      </trkpt>
      <trkpt lat="46.54707" lon="0.35482">
        <ele>78.6</ele>
        <time>2024-08-18T08:29:01Z</time>
      </trkpt>
      <trkpt lat="46.54707" lon="0.3549">
        <ele>77.6</ele>
        <time>2024-08-18T08:29:04Z</time>
      </trkpt>
      <trkpt lat="46.54707" lon="0.35492">
        <ele>77.4</ele>
        <time>2024-08-18T08:29:05Z</time>
      </trkpt>
      <trkpt lat="46.54705" lon="0.35499">
        <ele>77</ele>
        <time>2024-08-18T08:29:07Z</time>
      </trkpt>
      <trkpt lat="46.54705" lon="0.35508">
        <ele>76.4</ele>
        <time>2024-08-18T08:29:10Z</time>
      </trkpt>
      <trkpt lat="46.54705" lon="0.35513">
        <ele>76.4</ele>
        <time>2024-08-18T08:29:11Z</time>
      </trkpt>
      <trkpt lat="46.54707" lon="0.35521">
        <ele>75.2</ele>
        <time>2024-08-18T08:29:14Z</time>
      </trkpt>
      <trkpt lat="46.54708" lon="0.35524">
        <ele>74</ele>
        <time>2024-08-18T08:29:16Z</time>
      </trkpt>
      <trkpt lat="46.54708" lon="0.35529">
        <ele>72.8</ele>
        <time>2024-08-18T08:29:19Z</time>
      </trkpt>
      <trkpt lat="46.5471" lon="0.3553">
        <ele>72.4</ele>
        <time>2024-08-18T08:29:20Z</time>
      </trkpt>
      <trkpt lat="46.54712" lon="0.35534">
        <ele>71.8</ele>
        <time>2024-08-18T08:29:23Z</time>
      </trkpt>
      <trkpt lat="46.54713" lon="0.35535">
        <ele>71.6</ele>
        <time>2024-08-18T08:29:24Z</time>
      </trkpt>
      <trkpt lat="46.54711" lon="0.35547">
        <ele>72</ele>
        <time>2024-08-18T08:29:32Z</time>
      </trkpt>
      <trkpt lat="46.54711" lon="0.3555">
        <ele>72.8</ele>
        <time>2024-08-18T08:29:36Z</time>
      </trkpt>
      <trkpt lat="46.54711" lon="0.35565">
        <ele>73.8</ele>
        <time>2024-08-18T08:29:47Z</time>
      </trkpt>
      <trkpt lat="46.54711" lon="0.35565">
        <ele>74.2</ele>
        <time>2024-08-18T08:29:48Z</time>
      </trkpt>
      <trkpt lat="46.5471" lon="0.35569">
        <ele>75.2</ele>
        <time>2024-08-18T08:29:52Z</time>
      </trkpt>
      <trkpt lat="46.54711" lon="0.35579">
        <ele>75.8</ele>
        <time>2024-08-18T08:30:00Z</time>
      </trkpt>
      <trkpt lat="46.54714" lon="0.35585">
        <ele>75.6</ele>
        <time>2024-08-18T08:30:13Z</time>
      </trkpt>
      <trkpt lat="46.54715" lon="0.35586">
        <ele>75.6</ele>
        <time>2024-08-18T08:30:14Z</time>
      </trkpt>
      <trkpt lat="46.54716" lon="0.35589">
        <ele>75.4</ele>
        <time>2024-08-18T08:30:16Z</time>
      </trkpt>
      <trkpt lat="46.54719" lon="0.35591">
        <ele>75.6</ele>
        <time>2024-08-18T08:30:19Z</time>
      </trkpt>
      <trkpt lat="46.54724" lon="0.35603">
        <ele>75.8</ele>
        <time>2024-08-18T08:30:26Z</time>
      </trkpt>
      <trkpt lat="46.54723" lon="0.35611">
        <ele>76.4</ele>
        <time>2024-08-18T08:30:31Z</time>
      </trkpt>
      <trkpt lat="46.5472" lon="0.35616">
        <ele>77.8</ele>
        <time>2024-08-18T08:30:35Z</time>
      </trkpt>
      <trkpt lat="46.54716" lon="0.35621">
        <ele>79</ele>
        <time>2024-08-18T08:30:40Z</time>
      </trkpt>
      <trkpt lat="46.54714" lon="0.35623">
        <ele>79.6</ele>
        <time>2024-08-18T08:30:42Z</time>
      </trkpt>
      <trkpt lat="46.54711" lon="0.35627">
        <ele>80.2</ele>
        <time>2024-08-18T08:30:45Z</time>
      </trkpt>
      <trkpt lat="46.5471" lon="0.35629">
        <ele>80.4</ele>
        <time>2024-08-18T08:30:46Z</time>
      </trkpt>
      <trkpt lat="46.54707" lon="0.35631">
        <ele>81.2</ele>
        <time>2024-08-18T08:30:49Z</time>
      </trkpt>
      <trkpt lat="46.54705" lon="0.35632">
        <ele>82.2</ele>
        <time>2024-08-18T08:30:51Z</time>
      </trkpt>
      <trkpt lat="46.54701" lon="0.35635">
        <ele>83.4</ele>
        <time>2024-08-18T08:30:55Z</time>
      </trkpt>
      <trkpt lat="46.54695" lon="0.35638">
        <ele>84.4</ele>
        <time>2024-08-18T08:31:00Z</time>
      </trkpt>
      <trkpt lat="46.54693" lon="0.35638">
        <ele>84.6</ele>
        <time>2024-08-18T08:31:01Z</time>
      </trkpt>
      <trkpt lat="46.54688" lon="0.35644">
        <ele>85.4</ele>
        <time>2024-08-18T08:31:06Z</time>
      </trkpt>
      <trkpt lat="46.54685" lon="0.35649">
        <ele>86.8</ele>
        <time>2024-08-18T08:31:10Z</time>
      </trkpt>
      <trkpt lat="46.54683" lon="0.35651">
        <ele>87.4</ele>
        <time>2024-08-18T08:31:12Z</time>
      </trkpt>
      <trkpt lat="46.54678" lon="0.35656">
        <ele>87.8</ele>
        <time>2024-08-18T08:31:15Z</time>
      </trkpt>
      <trkpt lat="46.54671" lon="0.35661">
        <ele>89</ele>
        <time>2024-08-18T08:31:21Z</time>
      </trkpt>
      <trkpt lat="46.54667" lon="0.35665">
        <ele>89.6</ele>
        <time>2024-08-18T08:31:24Z</time>
      </trkpt>
      <trkpt lat="46.54666" lon="0.35665">
        <ele>90</ele>
        <time>2024-08-18T08:31:25Z</time>
      </trkpt>
      <trkpt lat="46.54661" lon="0.35669">
        <ele>91.2</ele>
        <time>2024-08-18T08:31:29Z</time>
      </trkpt>
      <trkpt lat="46.54656" lon="0.35674">
        <ele>92.2</ele>
        <time>2024-08-18T08:31:33Z</time>
      </trkpt>
      <trkpt lat="46.54652" lon="0.35679">
        <ele>92.8</ele>
        <time>2024-08-18T08:31:37Z</time>
      </trkpt>
      <trkpt lat="46.54651" lon="0.3568">
        <ele>93.2</ele>
        <time>2024-08-18T08:31:39Z</time>
      </trkpt>
      <trkpt lat="46.54648" lon="0.35681">
        <ele>93.6</ele>
        <time>2024-08-18T08:31:41Z</time>
      </trkpt>
      <trkpt lat="46.54644" lon="0.35681">
        <ele>94</ele>
        <time>2024-08-18T08:31:45Z</time>
      </trkpt>
      <trkpt lat="46.54632" lon="0.35673">
        <ele>94.4</ele>
        <time>2024-08-18T08:31:51Z</time>
      </trkpt>
      <trkpt lat="46.5463" lon="0.35671">
        <ele>94.4</ele>
        <time>2024-08-18T08:31:52Z</time>
      </trkpt>
      <trkpt lat="46.54614" lon="0.35658">
        <ele>94.4</ele>
        <time>2024-08-18T08:31:59Z</time>
      </trkpt>
      <trkpt lat="46.54598" lon="0.35647">
        <ele>94.2</ele>
        <time>2024-08-18T08:32:06Z</time>
      </trkpt>
      <trkpt lat="46.54594" lon="0.35642">
        <ele>94.4</ele>
        <time>2024-08-18T08:32:11Z</time>
      </trkpt>
      <trkpt lat="46.54592" lon="0.35641">
        <ele>94.4</ele>
        <time>2024-08-18T08:32:12Z</time>
      </trkpt>
      <trkpt lat="46.54591" lon="0.35637">
        <ele>94.6</ele>
        <time>2024-08-18T08:32:26Z</time>
      </trkpt>
      <trkpt lat="46.54588" lon="0.35633">
        <ele>94.4</ele>
        <time>2024-08-18T08:32:39Z</time>
      </trkpt>
      <trkpt lat="46.54585" lon="0.35627">
        <ele>94.2</ele>
        <time>2024-08-18T08:32:45Z</time>
      </trkpt>
      <trkpt lat="46.54582" lon="0.3562">
        <ele>94.6</ele>
        <time>2024-08-18T08:32:49Z</time>
      </trkpt>
      <trkpt lat="46.54573" lon="0.35594">
        <ele>95.2</ele>
        <time>2024-08-18T08:32:59Z</time>
      </trkpt>
      <trkpt lat="46.54572" lon="0.3559">
        <ele>95.4</ele>
        <time>2024-08-18T08:33:00Z</time>
      </trkpt>
      <trkpt lat="46.54569" lon="0.35581">
        <ele>96.2</ele>
        <time>2024-08-18T08:33:02Z</time>
      </trkpt>
      <trkpt lat="46.54568" lon="0.35576">
        <ele>96.4</ele>
        <time>2024-08-18T08:33:04Z</time>
      </trkpt>
      <trkpt lat="46.54567" lon="0.35572">
        <ele>96.6</ele>
        <time>2024-08-18T08:33:05Z</time>
      </trkpt>
      <trkpt lat="46.54561" lon="0.35556">
        <ele>97.6</ele>
        <time>2024-08-18T08:33:09Z</time>
      </trkpt>
      <trkpt lat="46.54558" lon="0.35544">
        <ele>97.8</ele>
        <time>2024-08-18T08:33:13Z</time>
      </trkpt>
      <trkpt lat="46.5455" lon="0.35519">
        <ele>98</ele>
        <time>2024-08-18T08:33:20Z</time>
      </trkpt>
      <trkpt lat="46.54536" lon="0.35488">
        <ele>98.2</ele>
        <time>2024-08-18T08:33:31Z</time>
      </trkpt>
      <trkpt lat="46.54532" lon="0.35469">
        <ele>97.8</ele>
        <time>2024-08-18T08:33:42Z</time>
      </trkpt>
      <trkpt lat="46.54531" lon="0.35462">
        <ele>97.8</ele>
        <time>2024-08-18T08:33:44Z</time>
      </trkpt>
      <trkpt lat="46.54531" lon="0.35445">
        <ele>97.4</ele>
        <time>2024-08-18T08:33:49Z</time>
      </trkpt>
      <trkpt lat="46.54533" lon="0.35439">
        <ele>97.2</ele>
        <time>2024-08-18T08:33:52Z</time>
      </trkpt>
      <trkpt lat="46.54534" lon="0.35439">
        <ele>97.2</ele>
        <time>2024-08-18T08:33:54Z</time>
      </trkpt>
      <trkpt lat="46.54535" lon="0.35439">
        <ele>97</ele>
        <time>2024-08-18T08:33:55Z</time>
      </trkpt>
      <trkpt lat="46.54536" lon="0.3544">
        <ele>97</ele>
        <time>2024-08-18T08:33:56Z</time>
      </trkpt>
      <trkpt lat="46.54538" lon="0.35445">
        <ele>96.4</ele>
        <time>2024-08-18T08:33:59Z</time>
      </trkpt>
      <trkpt lat="46.54538" lon="0.35445">
        <ele>96.2</ele>
        <time>2024-08-18T08:34:00Z</time>
      </trkpt>
      <trkpt lat="46.54538" lon="0.35444">
        <ele>95.6</ele>
        <time>2024-08-18T08:34:01Z</time>
      </trkpt>
      <trkpt lat="46.54538" lon="0.35443">
        <ele>95.2</ele>
        <time>2024-08-18T08:34:02Z</time>
      </trkpt>
      <trkpt lat="46.54539" lon="0.35442">
        <ele>95</ele>
        <time>2024-08-18T08:34:03Z</time>
      </trkpt>
      <trkpt lat="46.5454" lon="0.35441">
        <ele>95</ele>
        <time>2024-08-18T08:34:04Z</time>
      </trkpt>
      <trkpt lat="46.54541" lon="0.35443">
        <ele>94.8</ele>
        <time>2024-08-18T08:34:06Z</time>
      </trkpt>
      <trkpt lat="46.54543" lon="0.35446">
        <ele>94.8</ele>
        <time>2024-08-18T08:34:08Z</time>
      </trkpt>
      <trkpt lat="46.54545" lon="0.35446">
        <ele>94.6</ele>
        <time>2024-08-18T08:34:10Z</time>
      </trkpt>
      <trkpt lat="46.54549" lon="0.35445">
        <ele>94.2</ele>
        <time>2024-08-18T08:34:12Z</time>
      </trkpt>
      <trkpt lat="46.54551" lon="0.35446">
        <ele>94</ele>
        <time>2024-08-18T08:34:13Z</time>
      </trkpt>
      <trkpt lat="46.54552" lon="0.35448">
        <ele>93.6</ele>
        <time>2024-08-18T08:34:14Z</time>
      </trkpt>
      <trkpt lat="46.54553" lon="0.35449">
        <ele>92.2</ele>
        <time>2024-08-18T08:34:16Z</time>
      </trkpt>
      <trkpt lat="46.54557" lon="0.35452">
        <ele>90.8</ele>
        <time>2024-08-18T08:34:18Z</time>
      </trkpt>
      <trkpt lat="46.54558" lon="0.35454">
        <ele>90.2</ele>
        <time>2024-08-18T08:34:19Z</time>
      </trkpt>
      <trkpt lat="46.54563" lon="0.35462">
        <ele>89.8</ele>
        <time>2024-08-18T08:34:23Z</time>
      </trkpt>
      <trkpt lat="46.54566" lon="0.35465">
        <ele>89.8</ele>
        <time>2024-08-18T08:34:25Z</time>
      </trkpt>
      <trkpt lat="46.54572" lon="0.35468">
        <ele>88.6</ele>
        <time>2024-08-18T08:34:27Z</time>
      </trkpt>
      <trkpt lat="46.54575" lon="0.3547">
        <ele>87.6</ele>
        <time>2024-08-18T08:34:28Z</time>
      </trkpt>
      <trkpt lat="46.54579" lon="0.35472">
        <ele>86.2</ele>
        <time>2024-08-18T08:34:30Z</time>
      </trkpt>
      <trkpt lat="46.54581" lon="0.35473">
        <ele>85.6</ele>
        <time>2024-08-18T08:34:31Z</time>
      </trkpt>
      <trkpt lat="46.54583" lon="0.35474">
        <ele>84.6</ele>
        <time>2024-08-18T08:34:32Z</time>
      </trkpt>
      <trkpt lat="46.54585" lon="0.35474">
        <ele>83.6</ele>
        <time>2024-08-18T08:34:33Z</time>
      </trkpt>
      <trkpt lat="46.54588" lon="0.35474">
        <ele>83.2</ele>
        <time>2024-08-18T08:34:34Z</time>
      </trkpt>
      <trkpt lat="46.54598" lon="0.3548">
        <ele>82</ele>
        <time>2024-08-18T08:34:37Z</time>
      </trkpt>
      <trkpt lat="46.54606" lon="0.35484">
        <ele>81.2</ele>
        <time>2024-08-18T08:34:39Z</time>
      </trkpt>
      <trkpt lat="46.5461" lon="0.35486">
        <ele>81</ele>
        <time>2024-08-18T08:34:40Z</time>
      </trkpt>
      <trkpt lat="46.54621" lon="0.35488">
        <ele>80.6</ele>
        <time>2024-08-18T08:34:42Z</time>
      </trkpt>
      <trkpt lat="46.54632" lon="0.3549">
        <ele>80.2</ele>
        <time>2024-08-18T08:34:44Z</time>
      </trkpt>
      <trkpt lat="46.54636" lon="0.35493">
        <ele>80</ele>
        <time>2024-08-18T08:34:45Z</time>
      </trkpt>
      <trkpt lat="46.5464" lon="0.35498">
        <ele>79.4</ele>
        <time>2024-08-18T08:34:47Z</time>
      </trkpt>
      <trkpt lat="46.54641" lon="0.35499">
        <ele>79</ele>
        <time>2024-08-18T08:34:48Z</time>
      </trkpt>
      <trkpt lat="46.54643" lon="0.355">
        <ele>78.6</ele>
        <time>2024-08-18T08:34:49Z</time>
      </trkpt>
      <trkpt lat="46.54646" lon="0.35501">
        <ele>78.4</ele>
        <time>2024-08-18T08:34:50Z</time>
      </trkpt>
      <trkpt lat="46.54663" lon="0.35505">
        <ele>77.8</ele>
        <time>2024-08-18T08:34:56Z</time>
      </trkpt>
      <trkpt lat="46.54671" lon="0.35509">
        <ele>77.6</ele>
        <time>2024-08-18T08:34:59Z</time>
      </trkpt>
      <trkpt lat="46.54676" lon="0.35514">
        <ele>77.2</ele>
        <time>2024-08-18T08:35:01Z</time>
      </trkpt>
      <trkpt lat="46.54679" lon="0.35523">
        <ele>76.6</ele>
        <time>2024-08-18T08:35:04Z</time>
      </trkpt>
      <trkpt lat="46.54686" lon="0.35532">
        <ele>75.4</ele>
        <time>2024-08-18T08:35:07Z</time>
      </trkpt>
      <trkpt lat="46.54689" lon="0.35538">
        <ele>73.8</ele>
        <time>2024-08-18T08:35:09Z</time>
      </trkpt>
      <trkpt lat="46.5469" lon="0.35542">
        <ele>72.8</ele>
        <time>2024-08-18T08:35:11Z</time>
      </trkpt>
      <trkpt lat="46.5469" lon="0.35543">
        <ele>72.6</ele>
        <time>2024-08-18T08:35:12Z</time>
      </trkpt>
      <trkpt lat="46.54691" lon="0.35544">
        <ele>72.6</ele>
        <time>2024-08-18T08:35:13Z</time>
      </trkpt>
      <trkpt lat="46.5469" lon="0.35547">
        <ele>73</ele>
        <time>2024-08-18T08:35:16Z</time>
      </trkpt>
      <trkpt lat="46.54689" lon="0.3555">
        <ele>74</ele>
        <time>2024-08-18T08:35:19Z</time>
      </trkpt>
      <trkpt lat="46.54687" lon="0.35554">
        <ele>75.2</ele>
        <time>2024-08-18T08:35:22Z</time>
      </trkpt>
      <trkpt lat="46.54683" lon="0.35558">
        <ele>76.4</ele>
        <time>2024-08-18T08:35:26Z</time>
      </trkpt>
      <trkpt lat="46.54678" lon="0.35561">
        <ele>77.6</ele>
        <time>2024-08-18T08:35:30Z</time>
      </trkpt>
      <trkpt lat="46.54673" lon="0.35564">
        <ele>78.8</ele>
        <time>2024-08-18T08:35:33Z</time>
      </trkpt>
      <trkpt lat="46.54671" lon="0.35568">
        <ele>79.4</ele>
        <time>2024-08-18T08:35:35Z</time>
      </trkpt>
      <trkpt lat="46.54669" lon="0.35569">
        <ele>79.8</ele>
        <time>2024-08-18T08:35:36Z</time>
      </trkpt>
      <trkpt lat="46.54668" lon="0.3557">
        <ele>80</ele>
        <time>2024-08-18T08:35:37Z</time>
      </trkpt>
      <trkpt lat="46.54664" lon="0.35575">
        <ele>81.2</ele>
        <time>2024-08-18T08:35:41Z</time>
      </trkpt>
      <trkpt lat="46.5466" lon="0.35578">
        <ele>82.2</ele>
        <time>2024-08-18T08:35:44Z</time>
      </trkpt>
      <trkpt lat="46.54655" lon="0.35585">
        <ele>83.2</ele>
        <time>2024-08-18T08:35:49Z</time>
      </trkpt>
      <trkpt lat="46.54655" lon="0.35586">
        <ele>83.6</ele>
        <time>2024-08-18T08:35:50Z</time>
      </trkpt>
      <trkpt lat="46.54648" lon="0.35591">
        <ele>84.4</ele>
        <time>2024-08-18T08:35:56Z</time>
      </trkpt>
      <trkpt lat="46.54646" lon="0.35593">
        <ele>84.8</ele>
        <time>2024-08-18T08:35:58Z</time>
      </trkpt>
      <trkpt lat="46.54644" lon="0.35594">
        <ele>85</ele>
        <time>2024-08-18T08:35:59Z</time>
      </trkpt>
      <trkpt lat="46.5464" lon="0.35597">
        <ele>85.8</ele>
        <time>2024-08-18T08:36:02Z</time>
      </trkpt>
      <trkpt lat="46.54636" lon="0.35599">
        <ele>86.4</ele>
        <time>2024-08-18T08:36:05Z</time>
      </trkpt>
      <trkpt lat="46.54632" lon="0.35601">
        <ele>86.8</ele>
        <time>2024-08-18T08:36:07Z</time>
      </trkpt>
      <trkpt lat="46.54626" lon="0.35605">
        <ele>88</ele>
        <time>2024-08-18T08:36:12Z</time>
      </trkpt>
      <trkpt lat="46.54618" lon="0.35609">
        <ele>89.4</ele>
        <time>2024-08-18T08:36:18Z</time>
      </trkpt>
      <trkpt lat="46.54613" lon="0.35612">
        <ele>90.8</ele>
        <time>2024-08-18T08:36:23Z</time>
      </trkpt>
      <trkpt lat="46.54607" lon="0.35614">
        <ele>91.4</ele>
        <time>2024-08-18T08:36:27Z</time>
      </trkpt>
      <trkpt lat="46.54605" lon="0.35615">
        <ele>91.8</ele>
        <time>2024-08-18T08:36:29Z</time>
      </trkpt>
      <trkpt lat="46.54597" lon="0.35618">
        <ele>93</ele>
        <time>2024-08-18T08:36:35Z</time>
      </trkpt>
      <trkpt lat="46.54591" lon="0.35617">
        <ele>94.2</ele>
        <time>2024-08-18T08:36:39Z</time>
      </trkpt>
      <trkpt lat="46.54589" lon="0.35615">
        <ele>94.6</ele>
        <time>2024-08-18T08:36:41Z</time>
      </trkpt>
      <trkpt lat="46.54586" lon="0.35611">
        <ele>94.8</ele>
        <time>2024-08-18T08:36:44Z</time>
      </trkpt>
      <trkpt lat="46.5458" lon="0.356">
        <ele>95.2</ele>
        <time>2024-08-18T08:36:49Z</time>
      </trkpt>
      <trkpt lat="46.54579" lon="0.35597">
        <ele>95.2</ele>
        <time>2024-08-18T08:36:50Z</time>
      </trkpt>
      <trkpt lat="46.54569" lon="0.35579">
        <ele>96</ele>
        <time>2024-08-18T08:36:56Z</time>
      </trkpt>
      <trkpt lat="46.54566" lon="0.35573">
        <ele>96.2</ele>
        <time>2024-08-18T08:36:58Z</time>
      </trkpt>
      <trkpt lat="46.54558" lon="0.35558">
        <ele>97</ele>
        <time>2024-08-18T08:37:04Z</time>
      </trkpt>
      <trkpt lat="46.54552" lon="0.35547">
        <ele>97.4</ele>
        <time>2024-08-18T08:37:08Z</time>
      </trkpt>
      <trkpt lat="46.54549" lon="0.35543">
        <ele>98</ele>
        <time>2024-08-18T08:37:10Z</time>
      </trkpt>
      <trkpt lat="46.54548" lon="0.35543">
        <ele>98.2</ele>
        <time>2024-08-18T08:37:11Z</time>
      </trkpt>
      <trkpt lat="46.54546" lon="0.35542">
        <ele>98.4</ele>
        <time>2024-08-18T08:37:12Z</time>
      </trkpt>
      <trkpt lat="46.5454" lon="0.35539">
        <ele>99.8</ele>
        <time>2024-08-18T08:37:16Z</time>
      </trkpt>
      <trkpt lat="46.54537" lon="0.35539">
        <ele>100.2</ele>
        <time>2024-08-18T08:37:18Z</time>
      </trkpt>
      <trkpt lat="46.5453" lon="0.35535">
        <ele>101</ele>
        <time>2024-08-18T08:37:23Z</time>
      </trkpt>
      <trkpt lat="46.54528" lon="0.35535">
        <ele>101.4</ele>
        <time>2024-08-18T08:37:25Z</time>
      </trkpt>
      <trkpt lat="46.54522" lon="0.35536">
        <ele>102.2</ele>
        <time>2024-08-18T08:37:29Z</time>
      </trkpt>
      <trkpt lat="46.54515" lon="0.3554">
        <ele>103</ele>
        <time>2024-08-18T08:37:33Z</time>
      </trkpt>
      <trkpt lat="46.54511" lon="0.35545">
        <ele>103.2</ele>
        <time>2024-08-18T08:37:36Z</time>
      </trkpt>
      <trkpt lat="46.54503" lon="0.35546">
        <ele>103.6</ele>
        <time>2024-08-18T08:37:40Z</time>
      </trkpt>
      <trkpt lat="46.54493" lon="0.35547">
        <ele>104.2</ele>
        <time>2024-08-18T08:37:45Z</time>
      </trkpt>
      <trkpt lat="46.54491" lon="0.35547">
        <ele>104.4</ele>
        <time>2024-08-18T08:37:46Z</time>
      </trkpt>
      <trkpt lat="46.54479" lon="0.35549">
        <ele>105</ele>
        <time>2024-08-18T08:37:53Z</time>
      </trkpt>
      <trkpt lat="46.54473" lon="0.35548">
        <ele>104.8</ele>
        <time>2024-08-18T08:38:01Z</time>
      </trkpt>
      <trkpt lat="46.54467" lon="0.3555">
        <ele>104.8</ele>
        <time>2024-08-18T08:38:10Z</time>
      </trkpt>
      <trkpt lat="46.54467" lon="0.35546">
        <ele>104.6</ele>
        <time>2024-08-18T08:38:26Z</time>
      </trkpt>
      <trkpt lat="46.54462" lon="0.35542">
        <ele>105</ele>
        <time>2024-08-18T08:38:40Z</time>
      </trkpt>
      <trkpt lat="46.54461" lon="0.35541">
        <ele>105</ele>
        <time>2024-08-18T08:38:41Z</time>
      </trkpt>
      <trkpt lat="46.54457" lon="0.35539">
        <ele>105.2</ele>
        <time>2024-08-18T08:38:44Z</time>
      </trkpt>
      <trkpt lat="46.54447" lon="0.35534">
        <ele>105.6</ele>
        <time>2024-08-18T08:38:49Z</time>
      </trkpt>
      <trkpt lat="46.54436" lon="0.35521">
        <ele>106</ele>
        <time>2024-08-18T08:38:54Z</time>
      </trkpt>
      <trkpt lat="46.54426" lon="0.35516">
        <ele>106.4</ele>
        <time>2024-08-18T08:38:57Z</time>
      </trkpt>
      <trkpt lat="46.54416" lon="0.35511">
        <ele>106.6</ele>
        <time>2024-08-18T08:39:00Z</time>
      </trkpt>
      <trkpt lat="46.54414" lon="0.35509">
        <ele>106.6</ele>
        <time>2024-08-18T08:39:01Z</time>
      </trkpt>
      <trkpt lat="46.54404" lon="0.35498">
        <ele>106.6</ele>
        <time>2024-08-18T08:39:05Z</time>
      </trkpt>
      <trkpt lat="46.54383" lon="0.35482">
        <ele>107.2</ele>
        <time>2024-08-18T08:39:12Z</time>
      </trkpt>
      <trkpt lat="46.54379" lon="0.35476">
        <ele>107.4</ele>
        <time>2024-08-18T08:39:14Z</time>
      </trkpt>
      <trkpt lat="46.54374" lon="0.35469">
        <ele>107.6</ele>
        <time>2024-08-18T08:39:16Z</time>
      </trkpt>
      <trkpt lat="46.54372" lon="0.35466">
        <ele>107.6</ele>
        <time>2024-08-18T08:39:17Z</time>
      </trkpt>
      <trkpt lat="46.54364" lon="0.35458">
        <ele>107.4</ele>
        <time>2024-08-18T08:39:21Z</time>
      </trkpt>
      <trkpt lat="46.54363" lon="0.35455">
        <ele>107.4</ele>
        <time>2024-08-18T08:39:22Z</time>
      </trkpt>
      <trkpt lat="46.54361" lon="0.35433">
        <ele>107.6</ele>
        <time>2024-08-18T08:39:27Z</time>
      </trkpt>
      <trkpt lat="46.54357" lon="0.35429">
        <ele>107.8</ele>
        <time>2024-08-18T08:39:29Z</time>
      </trkpt>
      <trkpt lat="46.54351" lon="0.35425">
        <ele>108.2</ele>
        <time>2024-08-18T08:39:31Z</time>
      </trkpt>
      <trkpt lat="46.54323" lon="0.35412">
        <ele>108.4</ele>
        <time>2024-08-18T08:39:39Z</time>
      </trkpt>
      <trkpt lat="46.54318" lon="0.3541">
        <ele>108.4</ele>
        <time>2024-08-18T08:39:40Z</time>
      </trkpt>
      <trkpt lat="46.54291" lon="0.35393">
        <ele>109</ele>
        <time>2024-08-18T08:39:46Z</time>
      </trkpt>
      <trkpt lat="46.54279" lon="0.35391">
        <ele>109</ele>
        <time>2024-08-18T08:39:49Z</time>
      </trkpt>
      <trkpt lat="46.54267" lon="0.35389">
        <ele>109</ele>
        <time>2024-08-18T08:39:52Z</time>
      </trkpt>
      <trkpt lat="46.54235" lon="0.35386">
        <ele>108.8</ele>
        <time>2024-08-18T08:39:59Z</time>
      </trkpt>
      <trkpt lat="46.54226" lon="0.35385">
        <ele>108.6</ele>
        <time>2024-08-18T08:40:01Z</time>
      </trkpt>
      <trkpt lat="46.54209" lon="0.35384">
        <ele>108.2</ele>
        <time>2024-08-18T08:40:04Z</time>
      </trkpt>
      <trkpt lat="46.54204" lon="0.35385">
        <ele>108.2</ele>
        <time>2024-08-18T08:40:05Z</time>
      </trkpt>
      <trkpt lat="46.54187" lon="0.3539">
        <ele>108</ele>
        <time>2024-08-18T08:40:08Z</time>
      </trkpt>
      <trkpt lat="46.54177" lon="0.35391">
        <ele>107.6</ele>
        <time>2024-08-18T08:40:10Z</time>
      </trkpt>
      <trkpt lat="46.54173" lon="0.3539">
        <ele>107.4</ele>
        <time>2024-08-18T08:40:11Z</time>
      </trkpt>
      <trkpt lat="46.54169" lon="0.35389">
        <ele>107.4</ele>
        <time>2024-08-18T08:40:12Z</time>
      </trkpt>
      <trkpt lat="46.54163" lon="0.3538">
        <ele>107.4</ele>
        <time>2024-08-18T08:40:15Z</time>
      </trkpt>
      <trkpt lat="46.54161" lon="0.35375">
        <ele>107.4</ele>
        <time>2024-08-18T08:40:16Z</time>
      </trkpt>
      <trkpt lat="46.54162" lon="0.35363">
        <ele>107.2</ele>
        <time>2024-08-18T08:40:19Z</time>
      </trkpt>
      <trkpt lat="46.54164" lon="0.35359">
        <ele>106.4</ele>
        <time>2024-08-18T08:40:21Z</time>
      </trkpt>
      <trkpt lat="46.54173" lon="0.3535">
        <ele>106.2</ele>
        <time>2024-08-18T08:40:26Z</time>
      </trkpt>
      <trkpt lat="46.54183" lon="0.35337">
        <ele>106.8</ele>
        <time>2024-08-18T08:40:31Z</time>
      </trkpt>
      <trkpt lat="46.5419" lon="0.35323">
        <ele>106.8</ele>
        <time>2024-08-18T08:40:37Z</time>
      </trkpt>
      <trkpt lat="46.54205" lon="0.35302">
        <ele>107</ele>
        <time>2024-08-18T08:40:43Z</time>
      </trkpt>
      <trkpt lat="46.54211" lon="0.35292">
        <ele>107.2</ele>
        <time>2024-08-18T08:40:46Z</time>
      </trkpt>
      <trkpt lat="46.54214" lon="0.35285">
        <ele>107.2</ele>
        <time>2024-08-18T08:40:48Z</time>
      </trkpt>
      <trkpt lat="46.5422" lon="0.35276">
        <ele>107.4</ele>
        <time>2024-08-18T08:40:51Z</time>
      </trkpt>
      <trkpt lat="46.54227" lon="0.3526">
        <ele>107.4</ele>
        <time>2024-08-18T08:40:55Z</time>
      </trkpt>
      <trkpt lat="46.54232" lon="0.35252">
        <ele>107.2</ele>
        <time>2024-08-18T08:40:57Z</time>
      </trkpt>
      <trkpt lat="46.54234" lon="0.35249">
        <ele>107.2</ele>
        <time>2024-08-18T08:40:58Z</time>
      </trkpt>
      <trkpt lat="46.54234" lon="0.35244">
        <ele>107.2</ele>
        <time>2024-08-18T08:41:01Z</time>
      </trkpt>
      <trkpt lat="46.54236" lon="0.35228">
        <ele>106.8</ele>
        <time>2024-08-18T08:41:06Z</time>
      </trkpt>
      <trkpt lat="46.54234" lon="0.35216">
        <ele>106.4</ele>
        <time>2024-08-18T08:41:10Z</time>
      </trkpt>
      <trkpt lat="46.54235" lon="0.35211">
        <ele>106.4</ele>
        <time>2024-08-18T08:41:11Z</time>
      </trkpt>
      <trkpt lat="46.54237" lon="0.352">
        <ele>106.4</ele>
        <time>2024-08-18T08:41:13Z</time>
      </trkpt>
      <trkpt lat="46.5424" lon="0.35191">
        <ele>106.2</ele>
        <time>2024-08-18T08:41:15Z</time>
      </trkpt>
      <trkpt lat="46.54241" lon="0.35185">
        <ele>106.2</ele>
        <time>2024-08-18T08:41:16Z</time>
      </trkpt>
      <trkpt lat="46.54242" lon="0.35177">
        <ele>106</ele>
        <time>2024-08-18T08:41:18Z</time>
      </trkpt>
      <trkpt lat="46.54243" lon="0.35168">
        <ele>105.8</ele>
        <time>2024-08-18T08:41:20Z</time>
      </trkpt>
      <trkpt lat="46.54242" lon="0.35154">
        <ele>105.4</ele>
        <time>2024-08-18T08:41:23Z</time>
      </trkpt>
      <trkpt lat="46.54242" lon="0.35148">
        <ele>105.4</ele>
        <time>2024-08-18T08:41:24Z</time>
      </trkpt>
      <trkpt lat="46.54242" lon="0.35138">
        <ele>105.2</ele>
        <time>2024-08-18T08:41:26Z</time>
      </trkpt>
      <trkpt lat="46.54244" lon="0.35111">
        <ele>104.4</ele>
        <time>2024-08-18T08:41:32Z</time>
      </trkpt>
      <trkpt lat="46.54245" lon="0.35103">
        <ele>104.4</ele>
        <time>2024-08-18T08:41:34Z</time>
      </trkpt>
      <trkpt lat="46.54241" lon="0.3509">
        <ele>104.2</ele>
        <time>2024-08-18T08:41:37Z</time>
      </trkpt>
      <trkpt lat="46.54238" lon="0.35082">
        <ele>104</ele>
        <time>2024-08-18T08:41:39Z</time>
      </trkpt>
      <trkpt lat="46.54236" lon="0.35073">
        <ele>104</ele>
        <time>2024-08-18T08:41:41Z</time>
      </trkpt>
      <trkpt lat="46.54236" lon="0.3507">
        <ele>103.6</ele>
        <time>2024-08-18T08:41:42Z</time>
      </trkpt>
      <trkpt lat="46.54236" lon="0.35068">
        <ele>103.2</ele>
        <time>2024-08-18T08:41:43Z</time>
      </trkpt>
      <trkpt lat="46.54237" lon="0.35055">
        <ele>102.4</ele>
        <time>2024-08-18T08:41:47Z</time>
      </trkpt>
      <trkpt lat="46.54238" lon="0.35048">
        <ele>102.6</ele>
        <time>2024-08-18T08:41:49Z</time>
      </trkpt>
      <trkpt lat="46.54239" lon="0.35044">
        <ele>102.4</ele>
        <time>2024-08-18T08:41:50Z</time>
      </trkpt>
      <trkpt lat="46.54242" lon="0.35025">
        <ele>102.6</ele>
        <time>2024-08-18T08:41:55Z</time>
      </trkpt>
      <trkpt lat="46.54247" lon="0.35022">
        <ele>102.8</ele>
        <time>2024-08-18T08:41:57Z</time>
      </trkpt>
      <trkpt lat="46.54251" lon="0.35019">
        <ele>103</ele>
        <time>2024-08-18T08:41:59Z</time>
      </trkpt>
      <trkpt lat="46.54253" lon="0.35017">
        <ele>103.2</ele>
        <time>2024-08-18T08:42:00Z</time>
      </trkpt>
      <trkpt lat="46.54255" lon="0.35014">
        <ele>103.2</ele>
        <time>2024-08-18T08:42:01Z</time>
      </trkpt>
      <trkpt lat="46.54261" lon="0.35002">
        <ele>103.6</ele>
        <time>2024-08-18T08:42:05Z</time>
      </trkpt>
      <trkpt lat="46.54267" lon="0.34995">
        <ele>104</ele>
        <time>2024-08-18T08:42:08Z</time>
      </trkpt>
      <trkpt lat="46.54272" lon="0.34993">
        <ele>104.2</ele>
        <time>2024-08-18T08:42:10Z</time>
      </trkpt>
      <trkpt lat="46.54274" lon="0.34991">
        <ele>104.2</ele>
        <time>2024-08-18T08:42:11Z</time>
      </trkpt>
      <trkpt lat="46.54276" lon="0.34989">
        <ele>104.2</ele>
        <time>2024-08-18T08:42:12Z</time>
      </trkpt>
      <trkpt lat="46.54276" lon="0.34983">
        <ele>104.4</ele>
        <time>2024-08-18T08:42:14Z</time>
      </trkpt>
      <trkpt lat="46.54278" lon="0.34978">
        <ele>104.4</ele>
        <time>2024-08-18T08:42:15Z</time>
      </trkpt>
      <trkpt lat="46.5428" lon="0.3497">
        <ele>104.6</ele>
        <time>2024-08-18T08:42:17Z</time>
      </trkpt>
      <trkpt lat="46.5428" lon="0.34966">
        <ele>104.4</ele>
        <time>2024-08-18T08:42:18Z</time>
      </trkpt>
      <trkpt lat="46.5428" lon="0.34962">
        <ele>104.4</ele>
        <time>2024-08-18T08:42:19Z</time>
      </trkpt>
      <trkpt lat="46.54275" lon="0.34942">
        <ele>105</ele>
        <time>2024-08-18T08:42:24Z</time>
      </trkpt>
      <trkpt lat="46.54274" lon="0.34936">
        <ele>105.2</ele>
        <time>2024-08-18T08:42:25Z</time>
      </trkpt>
      <trkpt lat="46.5427" lon="0.34923">
        <ele>105.2</ele>
        <time>2024-08-18T08:42:28Z</time>
      </trkpt>
      <trkpt lat="46.54265" lon="0.34918">
        <ele>104.8</ele>
        <time>2024-08-18T08:42:30Z</time>
      </trkpt>
      <trkpt lat="46.54255" lon="0.34904">
        <ele>105</ele>
        <time>2024-08-18T08:42:35Z</time>
      </trkpt>
      <trkpt lat="46.5425" lon="0.34892">
        <ele>105.2</ele>
        <time>2024-08-18T08:42:38Z</time>
      </trkpt>
      <trkpt lat="46.54248" lon="0.34887">
        <ele>105.4</ele>
        <time>2024-08-18T08:42:39Z</time>
      </trkpt>
      <trkpt lat="46.54248" lon="0.34881">
        <ele>105.4</ele>
        <time>2024-08-18T08:42:40Z</time>
      </trkpt>
      <trkpt lat="46.54248" lon="0.34876">
        <ele>105.6</ele>
        <time>2024-08-18T08:42:41Z</time>
      </trkpt>
      <trkpt lat="46.54247" lon="0.34842">
        <ele>105.8</ele>
        <time>2024-08-18T08:42:48Z</time>
      </trkpt>
      <trkpt lat="46.54248" lon="0.34819">
        <ele>105.8</ele>
        <time>2024-08-18T08:42:53Z</time>
      </trkpt>
      <trkpt lat="46.54249" lon="0.34807">
        <ele>105.8</ele>
        <time>2024-08-18T08:42:56Z</time>
      </trkpt>
      <trkpt lat="46.54247" lon="0.34795">
        <ele>105.8</ele>
        <time>2024-08-18T08:42:59Z</time>
      </trkpt>
      <trkpt lat="46.54246" lon="0.3478">
        <ele>105.6</ele>
        <time>2024-08-18T08:43:02Z</time>
      </trkpt>
      <trkpt lat="46.54245" lon="0.34769">
        <ele>105.6</ele>
        <time>2024-08-18T08:43:04Z</time>
      </trkpt>
      <trkpt lat="46.54245" lon="0.34764">
        <ele>105.6</ele>
        <time>2024-08-18T08:43:05Z</time>
      </trkpt>
      <trkpt lat="46.54244" lon="0.34754">
        <ele>105.2</ele>
        <time>2024-08-18T08:43:07Z</time>
      </trkpt>
      <trkpt lat="46.54244" lon="0.34744">
        <ele>105</ele>
        <time>2024-08-18T08:43:09Z</time>
      </trkpt>
      <trkpt lat="46.54245" lon="0.3474">
        <ele>104.8</ele>
        <time>2024-08-18T08:43:10Z</time>
      </trkpt>
      <trkpt lat="46.54253" lon="0.34724">
        <ele>104.4</ele>
        <time>2024-08-18T08:43:16Z</time>
      </trkpt>
      <trkpt lat="46.54256" lon="0.34719">
        <ele>104.4</ele>
        <time>2024-08-18T08:43:19Z</time>
      </trkpt>
      <trkpt lat="46.54261" lon="0.34711">
        <ele>104.6</ele>
        <time>2024-08-18T08:43:22Z</time>
      </trkpt>
      <trkpt lat="46.54273" lon="0.34692">
        <ele>104.4</ele>
        <time>2024-08-18T08:43:27Z</time>
      </trkpt>
      <trkpt lat="46.54286" lon="0.34674">
        <ele>104</ele>
        <time>2024-08-18T08:43:32Z</time>
      </trkpt>
      <trkpt lat="46.54299" lon="0.34661">
        <ele>104.2</ele>
        <time>2024-08-18T08:43:38Z</time>
      </trkpt>
      <trkpt lat="46.54313" lon="0.34645">
        <ele>104.6</ele>
        <time>2024-08-18T08:43:43Z</time>
      </trkpt>
      <trkpt lat="46.54315" lon="0.34642">
        <ele>104.6</ele>
        <time>2024-08-18T08:43:44Z</time>
      </trkpt>
      <trkpt lat="46.54321" lon="0.34633">
        <ele>104.6</ele>
        <time>2024-08-18T08:43:47Z</time>
      </trkpt>
      <trkpt lat="46.54324" lon="0.34629">
        <ele>104.4</ele>
        <time>2024-08-18T08:43:49Z</time>
      </trkpt>
      <trkpt lat="46.54333" lon="0.34614">
        <ele>104.6</ele>
        <time>2024-08-18T08:43:54Z</time>
      </trkpt>
      <trkpt lat="46.54346" lon="0.34609">
        <ele>105</ele>
        <time>2024-08-18T08:43:58Z</time>
      </trkpt>
      <trkpt lat="46.54359" lon="0.34597">
        <ele>105.4</ele>
        <time>2024-08-18T08:44:02Z</time>
      </trkpt>
      <trkpt lat="46.54369" lon="0.34578">
        <ele>105.6</ele>
        <time>2024-08-18T08:44:06Z</time>
      </trkpt>
      <trkpt lat="46.54379" lon="0.3455">
        <ele>105.4</ele>
        <time>2024-08-18T08:44:12Z</time>
      </trkpt>
      <trkpt lat="46.54397" lon="0.34532">
        <ele>105</ele>
        <time>2024-08-18T08:44:17Z</time>
      </trkpt>
      <trkpt lat="46.5442" lon="0.34507">
        <ele>104.6</ele>
        <time>2024-08-18T08:44:25Z</time>
      </trkpt>
      <trkpt lat="46.54421" lon="0.34503">
        <ele>104.6</ele>
        <time>2024-08-18T08:44:26Z</time>
      </trkpt>
      <trkpt lat="46.54419" lon="0.34495">
        <ele>104.4</ele>
        <time>2024-08-18T08:44:28Z</time>
      </trkpt>
      <trkpt lat="46.54413" lon="0.34483">
        <ele>104.4</ele>
        <time>2024-08-18T08:44:31Z</time>
      </trkpt>
      <trkpt lat="46.54406" lon="0.3447">
        <ele>104.2</ele>
        <time>2024-08-18T08:44:34Z</time>
      </trkpt>
      <trkpt lat="46.54388" lon="0.34428">
        <ele>104</ele>
        <time>2024-08-18T08:44:43Z</time>
      </trkpt>
      <trkpt lat="46.54376" lon="0.34394">
        <ele>103.8</ele>
        <time>2024-08-18T08:44:50Z</time>
      </trkpt>
      <trkpt lat="46.54356" lon="0.34349">
        <ele>103.8</ele>
        <time>2024-08-18T08:44:59Z</time>
      </trkpt>
      <trkpt lat="46.54351" lon="0.34336">
        <ele>103.6</ele>
        <time>2024-08-18T08:45:03Z</time>
      </trkpt>
      <trkpt lat="46.54342" lon="0.34317">
        <ele>103.6</ele>
        <time>2024-08-18T08:45:08Z</time>
      </trkpt>
      <trkpt lat="46.54336" lon="0.34308">
        <ele>103.6</ele>
        <time>2024-08-18T08:45:10Z</time>
      </trkpt>
      <trkpt lat="46.54329" lon="0.34305">
        <ele>103.6</ele>
        <time>2024-08-18T08:45:12Z</time>
      </trkpt>
      <trkpt lat="46.54304" lon="0.34303">
        <ele>104.4</ele>
        <time>2024-08-18T08:45:17Z</time>
      </trkpt>
      <trkpt lat="46.54299" lon="0.34303">
        <ele>104.6</ele>
        <time>2024-08-18T08:45:18Z</time>
      </trkpt>
      <trkpt lat="46.54285" lon="0.34297">
        <ele>104.8</ele>
        <time>2024-08-18T08:45:22Z</time>
      </trkpt>
      <trkpt lat="46.54281" lon="0.34292">
        <ele>105</ele>
        <time>2024-08-18T08:45:26Z</time>
      </trkpt>
      <trkpt lat="46.5428" lon="0.3429">
        <ele>105</ele>
        <time>2024-08-18T08:45:27Z</time>
      </trkpt>
      <trkpt lat="46.54276" lon="0.34269">
        <ele>104.8</ele>
        <time>2024-08-18T08:45:33Z</time>
      </trkpt>
      <trkpt lat="46.54271" lon="0.34249">
        <ele>104.2</ele>
        <time>2024-08-18T08:45:39Z</time>
      </trkpt>
      <trkpt lat="46.54268" lon="0.34234">
        <ele>104.4</ele>
        <time>2024-08-18T08:45:43Z</time>
      </trkpt>
      <trkpt lat="46.54265" lon="0.34227">
        <ele>104.4</ele>
        <time>2024-08-18T08:45:45Z</time>
      </trkpt>
      <trkpt lat="46.54259" lon="0.34221">
        <ele>104.4</ele>
        <time>2024-08-18T08:45:47Z</time>
      </trkpt>
      <trkpt lat="46.54256" lon="0.34219">
        <ele>104.6</ele>
        <time>2024-08-18T08:45:48Z</time>
      </trkpt>
      <trkpt lat="46.54246" lon="0.34212">
        <ele>105</ele>
        <time>2024-08-18T08:45:51Z</time>
      </trkpt>
      <trkpt lat="46.54243" lon="0.34206">
        <ele>105</ele>
        <time>2024-08-18T08:45:53Z</time>
      </trkpt>
      <trkpt lat="46.54243" lon="0.34182">
        <ele>104.8</ele>
        <time>2024-08-18T08:45:58Z</time>
      </trkpt>
      <trkpt lat="46.54243" lon="0.3417">
        <ele>104.6</ele>
        <time>2024-08-18T08:46:01Z</time>
      </trkpt>
      <trkpt lat="46.54243" lon="0.34167">
        <ele>104.8</ele>
        <time>2024-08-18T08:46:02Z</time>
      </trkpt>
      <trkpt lat="46.54238" lon="0.34152">
        <ele>104.4</ele>
        <time>2024-08-18T08:46:07Z</time>
      </trkpt>
      <trkpt lat="46.54231" lon="0.34136">
        <ele>104.6</ele>
        <time>2024-08-18T08:46:12Z</time>
      </trkpt>
      <trkpt lat="46.54224" lon="0.34126">
        <ele>104.2</ele>
        <time>2024-08-18T08:46:16Z</time>
      </trkpt>
      <trkpt lat="46.54222" lon="0.34125">
        <ele>104</ele>
        <time>2024-08-18T08:46:17Z</time>
      </trkpt>
      <trkpt lat="46.54216" lon="0.34119">
        <ele>104</ele>
        <time>2024-08-18T08:46:21Z</time>
      </trkpt>
      <trkpt lat="46.54214" lon="0.34119">
        <ele>103.8</ele>
        <time>2024-08-18T08:46:24Z</time>
      </trkpt>
      <trkpt lat="46.54212" lon="0.34127">
        <ele>104.2</ele>
        <time>2024-08-18T08:46:32Z</time>
      </trkpt>
      <trkpt lat="46.54211" lon="0.34136">
        <ele>104.4</ele>
        <time>2024-08-18T08:46:39Z</time>
      </trkpt>
      <trkpt lat="46.54213" lon="0.34154">
        <ele>104.6</ele>
        <time>2024-08-18T08:46:45Z</time>
      </trkpt>
      <trkpt lat="46.54216" lon="0.34177">
        <ele>105</ele>
        <time>2024-08-18T08:46:50Z</time>
      </trkpt>
      <trkpt lat="46.54216" lon="0.34185">
        <ele>105.2</ele>
        <time>2024-08-18T08:46:52Z</time>
      </trkpt>
      <trkpt lat="46.54218" lon="0.34199">
        <ele>105.2</ele>
        <time>2024-08-18T08:46:55Z</time>
      </trkpt>
      <trkpt lat="46.54222" lon="0.34214">
        <ele>105</ele>
        <time>2024-08-18T08:46:59Z</time>
      </trkpt>
      <trkpt lat="46.54226" lon="0.34231">
        <ele>104.6</ele>
        <time>2024-08-18T08:47:04Z</time>
      </trkpt>
      <trkpt lat="46.54226" lon="0.34233">
        <ele>104.8</ele>
        <time>2024-08-18T08:47:06Z</time>
      </trkpt>
      <trkpt lat="46.54226" lon="0.34234">
        <ele>104.8</ele>
        <time>2024-08-18T08:47:07Z</time>
      </trkpt>
      <trkpt lat="46.54224" lon="0.34233">
        <ele>104.8</ele>
        <time>2024-08-18T08:47:09Z</time>
      </trkpt>
      <trkpt lat="46.5422" lon="0.34228">
        <ele>105</ele>
        <time>2024-08-18T08:47:14Z</time>
      </trkpt>
      <trkpt lat="46.54216" lon="0.34213">
        <ele>104.6</ele>
        <time>2024-08-18T08:47:21Z</time>
      </trkpt>
      <trkpt lat="46.54211" lon="0.34187">
        <ele>105</ele>
        <time>2024-08-18T08:47:27Z</time>
      </trkpt>
      <trkpt lat="46.54208" lon="0.34164">
        <ele>104.4</ele>
        <time>2024-08-18T08:47:32Z</time>
      </trkpt>
      <trkpt lat="46.54207" lon="0.34159">
        <ele>104.4</ele>
        <time>2024-08-18T08:47:33Z</time>
      </trkpt>
      <trkpt lat="46.54206" lon="0.34153">
        <ele>104.4</ele>
        <time>2024-08-18T08:47:34Z</time>
      </trkpt>
      <trkpt lat="46.54203" lon="0.34132">
        <ele>104.4</ele>
        <time>2024-08-18T08:47:38Z</time>
      </trkpt>
      <trkpt lat="46.54198" lon="0.34096">
        <ele>103.6</ele>
        <time>2024-08-18T08:47:44Z</time>
      </trkpt>
      <trkpt lat="46.54198" lon="0.3409">
        <ele>103.4</ele>
        <time>2024-08-18T08:47:45Z</time>
      </trkpt>
      <trkpt lat="46.54198" lon="0.34072">
        <ele>102.4</ele>
        <time>2024-08-18T08:47:49Z</time>
      </trkpt>
      <trkpt lat="46.54197" lon="0.34069">
        <ele>102.2</ele>
        <time>2024-08-18T08:47:50Z</time>
      </trkpt>
      <trkpt lat="46.54195" lon="0.34066">
        <ele>101.8</ele>
        <time>2024-08-18T08:47:52Z</time>
      </trkpt>
      <trkpt lat="46.54194" lon="0.34066">
        <ele>101.6</ele>
        <time>2024-08-18T08:47:53Z</time>
      </trkpt>
      <trkpt lat="46.54189" lon="0.34077">
        <ele>101.4</ele>
        <time>2024-08-18T08:48:00Z</time>
      </trkpt>
      <trkpt lat="46.54187" lon="0.34082">
        <ele>101.6</ele>
        <time>2024-08-18T08:48:03Z</time>
      </trkpt>
      <trkpt lat="46.54185" lon="0.3409">
        <ele>101.6</ele>
        <time>2024-08-18T08:48:07Z</time>
      </trkpt>
      <trkpt lat="46.54184" lon="0.34093">
        <ele>101.6</ele>
        <time>2024-08-18T08:48:08Z</time>
      </trkpt>
      <trkpt lat="46.54179" lon="0.34102">
        <ele>102.4</ele>
        <time>2024-08-18T08:48:12Z</time>
      </trkpt>
      <trkpt lat="46.54176" lon="0.34106">
        <ele>102.4</ele>
        <time>2024-08-18T08:48:13Z</time>
      </trkpt>
      <trkpt lat="46.54169" lon="0.3412">
        <ele>102.2</ele>
        <time>2024-08-18T08:48:17Z</time>
      </trkpt>
      <trkpt lat="46.54164" lon="0.34129">
        <ele>101</ele>
        <time>2024-08-18T08:48:19Z</time>
      </trkpt>
      <trkpt lat="46.54159" lon="0.34141">
        <ele>99.6</ele>
        <time>2024-08-18T08:48:22Z</time>
      </trkpt>
      <trkpt lat="46.54158" lon="0.34144">
        <ele>99.4</ele>
        <time>2024-08-18T08:48:23Z</time>
      </trkpt>
      <trkpt lat="46.54154" lon="0.34163">
        <ele>98.8</ele>
        <time>2024-08-18T08:48:27Z</time>
      </trkpt>
      <trkpt lat="46.54152" lon="0.34176">
        <ele>99.4</ele>
        <time>2024-08-18T08:48:30Z</time>
      </trkpt>
      <trkpt lat="46.5415" lon="0.34182">
        <ele>99.6</ele>
        <time>2024-08-18T08:48:32Z</time>
      </trkpt>
      <trkpt lat="46.54141" lon="0.34204">
        <ele>100.2</ele>
        <time>2024-08-18T08:48:37Z</time>
      </trkpt>
      <trkpt lat="46.54137" lon="0.34211">
        <ele>100.2</ele>
        <time>2024-08-18T08:48:39Z</time>
      </trkpt>
      <trkpt lat="46.54133" lon="0.3422">
        <ele>99.2</ele>
        <time>2024-08-18T08:48:41Z</time>
      </trkpt>
      <trkpt lat="46.5413" lon="0.34226">
        <ele>99</ele>
        <time>2024-08-18T08:48:42Z</time>
      </trkpt>
      <trkpt lat="46.54123" lon="0.34236">
        <ele>98.4</ele>
        <time>2024-08-18T08:48:44Z</time>
      </trkpt>
      <trkpt lat="46.5412" lon="0.34243">
        <ele>97.6</ele>
        <time>2024-08-18T08:48:46Z</time>
      </trkpt>
      <trkpt lat="46.54119" lon="0.34247">
        <ele>97.2</ele>
        <time>2024-08-18T08:48:47Z</time>
      </trkpt>
      <trkpt lat="46.54113" lon="0.34265">
        <ele>96</ele>
        <time>2024-08-18T08:48:51Z</time>
      </trkpt>
      <trkpt lat="46.5411" lon="0.3427">
        <ele>94.8</ele>
        <time>2024-08-18T08:48:53Z</time>
      </trkpt>
      <trkpt lat="46.54106" lon="0.34276">
        <ele>93.4</ele>
        <time>2024-08-18T08:48:55Z</time>
      </trkpt>
      <trkpt lat="46.54098" lon="0.34287">
        <ele>92</ele>
        <time>2024-08-18T08:48:57Z</time>
      </trkpt>
      <trkpt lat="46.5409" lon="0.34302">
        <ele>90.6</ele>
        <time>2024-08-18T08:49:00Z</time>
      </trkpt>
      <trkpt lat="46.54089" lon="0.34306">
        <ele>89.8</ele>
        <time>2024-08-18T08:49:01Z</time>
      </trkpt>
      <trkpt lat="46.54088" lon="0.3431">
        <ele>89.2</ele>
        <time>2024-08-18T08:49:02Z</time>
      </trkpt>
      <trkpt lat="46.54087" lon="0.34315">
        <ele>88.6</ele>
        <time>2024-08-18T08:49:04Z</time>
      </trkpt>
      <trkpt lat="46.54083" lon="0.34326">
        <ele>88.4</ele>
        <time>2024-08-18T08:49:07Z</time>
      </trkpt>
      <trkpt lat="46.54071" lon="0.34344">
        <ele>88.2</ele>
        <time>2024-08-18T08:49:11Z</time>
      </trkpt>
      <trkpt lat="46.54068" lon="0.34348">
        <ele>88</ele>
        <time>2024-08-18T08:49:12Z</time>
      </trkpt>
      <trkpt lat="46.5406" lon="0.34358">
        <ele>87.2</ele>
        <time>2024-08-18T08:49:15Z</time>
      </trkpt>
      <trkpt lat="46.5405" lon="0.34375">
        <ele>86.4</ele>
        <time>2024-08-18T08:49:19Z</time>
      </trkpt>
      <trkpt lat="46.54032" lon="0.34385">
        <ele>86.2</ele>
        <time>2024-08-18T08:49:24Z</time>
      </trkpt>
      <trkpt lat="46.54028" lon="0.34385">
        <ele>86.2</ele>
        <time>2024-08-18T08:49:25Z</time>
      </trkpt>
      <trkpt lat="46.54022" lon="0.34385">
        <ele>86</ele>
        <time>2024-08-18T08:49:28Z</time>
      </trkpt>
      <trkpt lat="46.54021" lon="0.34384">
        <ele>86</ele>
        <time>2024-08-18T08:49:30Z</time>
      </trkpt>
      <trkpt lat="46.54022" lon="0.34379">
        <ele>86</ele>
        <time>2024-08-18T08:49:31Z</time>
      </trkpt>
      <trkpt lat="46.54024" lon="0.34374">
        <ele>85</ele>
        <time>2024-08-18T08:49:33Z</time>
      </trkpt>
      <trkpt lat="46.54025" lon="0.3437">
        <ele>84.6</ele>
        <time>2024-08-18T08:49:34Z</time>
      </trkpt>
      <trkpt lat="46.54027" lon="0.34363">
        <ele>83.4</ele>
        <time>2024-08-18T08:49:36Z</time>
      </trkpt>
      <trkpt lat="46.54027" lon="0.3436">
        <ele>82</ele>
        <time>2024-08-18T08:49:38Z</time>
      </trkpt>
      <trkpt lat="46.54026" lon="0.34358">
        <ele>81</ele>
        <time>2024-08-18T08:49:39Z</time>
      </trkpt>
      <trkpt lat="46.54025" lon="0.34356">
        <ele>79.6</ele>
        <time>2024-08-18T08:49:40Z</time>
      </trkpt>
      <trkpt lat="46.54023" lon="0.34354">
        <ele>78.6</ele>
        <time>2024-08-18T08:49:41Z</time>
      </trkpt>
      <trkpt lat="46.54022" lon="0.34352">
        <ele>77</ele>
        <time>2024-08-18T08:49:42Z</time>
      </trkpt>
      <trkpt lat="46.54019" lon="0.34349">
        <ele>75.2</ele>
        <time>2024-08-18T08:49:43Z</time>
      </trkpt>
      <trkpt lat="46.54018" lon="0.34346">
        <ele>73.6</ele>
        <time>2024-08-18T08:49:44Z</time>
      </trkpt>
      <trkpt lat="46.54016" lon="0.34342">
        <ele>71.8</ele>
        <time>2024-08-18T08:49:45Z</time>
      </trkpt>
      <trkpt lat="46.54013" lon="0.3434">
        <ele>69.4</ele>
        <time>2024-08-18T08:49:46Z</time>
      </trkpt>
      <trkpt lat="46.54011" lon="0.34338">
        <ele>68</ele>
        <time>2024-08-18T08:49:47Z</time>
      </trkpt>
      <trkpt lat="46.54008" lon="0.34335">
        <ele>67</ele>
        <time>2024-08-18T08:49:48Z</time>
      </trkpt>
      <trkpt lat="46.54006" lon="0.34332">
        <ele>65.8</ele>
        <time>2024-08-18T08:49:49Z</time>
      </trkpt>
      <trkpt lat="46.54001" lon="0.34326">
        <ele>64.2</ele>
        <time>2024-08-18T08:49:51Z</time>
      </trkpt>
      <trkpt lat="46.53997" lon="0.34326">
        <ele>62.6</ele>
        <time>2024-08-18T08:49:53Z</time>
      </trkpt>
      <trkpt lat="46.53994" lon="0.34326">
        <ele>62</ele>
        <time>2024-08-18T08:49:55Z</time>
      </trkpt>
      <trkpt lat="46.53989" lon="0.3433">
        <ele>62.2</ele>
        <time>2024-08-18T08:50:00Z</time>
      </trkpt>
      <trkpt lat="46.53987" lon="0.3433">
        <ele>62.2</ele>
        <time>2024-08-18T08:50:02Z</time>
      </trkpt>
      <trkpt lat="46.53979" lon="0.34331">
        <ele>62.2</ele>
        <time>2024-08-18T08:50:07Z</time>
      </trkpt>
      <trkpt lat="46.53979" lon="0.34331">
        <ele>62.2</ele>
        <time>2024-08-18T08:50:08Z</time>
      </trkpt>
      <trkpt lat="46.53974" lon="0.34332">
        <ele>62.2</ele>
        <time>2024-08-18T08:50:17Z</time>
      </trkpt>
      <trkpt lat="46.53972" lon="0.34329">
        <ele>62.2</ele>
        <time>2024-08-18T08:50:35Z</time>
      </trkpt>
      <trkpt lat="46.53972" lon="0.34328">
        <ele>61.8</ele>
        <time>2024-08-18T08:50:54Z</time>
      </trkpt>
      <trkpt lat="46.53972" lon="0.34327">
        <ele>62</ele>
        <time>2024-08-18T08:51:10Z</time>
      </trkpt>
      <trkpt lat="46.53964" lon="0.34337">
        <ele>62.2</ele>
        <time>2024-08-18T08:51:18Z</time>
      </trkpt>
      <trkpt lat="46.5395" lon="0.3435">
        <ele>62.2</ele>
        <time>2024-08-18T08:51:24Z</time>
      </trkpt>
      <trkpt lat="46.53936" lon="0.34369">
        <ele>63.4</ele>
        <time>2024-08-18T08:51:30Z</time>
      </trkpt>
      <trkpt lat="46.53927" lon="0.34385">
        <ele>63.8</ele>
        <time>2024-08-18T08:51:34Z</time>
      </trkpt>
      <trkpt lat="46.53923" lon="0.34395">
        <ele>64.4</ele>
        <time>2024-08-18T08:51:37Z</time>
      </trkpt>
      <trkpt lat="46.53921" lon="0.344">
        <ele>64.8</ele>
        <time>2024-08-18T08:51:39Z</time>
      </trkpt>
      <trkpt lat="46.53919" lon="0.34408">
        <ele>65.4</ele>
        <time>2024-08-18T08:51:42Z</time>
      </trkpt>
      <trkpt lat="46.53918" lon="0.34414">
        <ele>65.8</ele>
        <time>2024-08-18T08:51:44Z</time>
      </trkpt>
      <trkpt lat="46.53919" lon="0.34422">
        <ele>67</ele>
        <time>2024-08-18T08:51:48Z</time>
      </trkpt>
      <trkpt lat="46.5392" lon="0.34432">
        <ele>68</ele>
        <time>2024-08-18T08:51:52Z</time>
      </trkpt>
      <trkpt lat="46.53921" lon="0.34438">
        <ele>68.6</ele>
        <time>2024-08-18T08:51:55Z</time>
      </trkpt>
      <trkpt lat="46.53922" lon="0.34443">
        <ele>69.2</ele>
        <time>2024-08-18T08:51:57Z</time>
      </trkpt>
      <trkpt lat="46.53923" lon="0.34452">
        <ele>70.4</ele>
        <time>2024-08-18T08:52:01Z</time>
      </trkpt>
      <trkpt lat="46.53923" lon="0.34454">
        <ele>70.6</ele>
        <time>2024-08-18T08:52:02Z</time>
      </trkpt>
      <trkpt lat="46.53924" lon="0.34455">
        <ele>70.8</ele>
        <time>2024-08-18T08:52:03Z</time>
      </trkpt>
      <trkpt lat="46.53927" lon="0.34463">
        <ele>71.6</ele>
        <time>2024-08-18T08:52:07Z</time>
      </trkpt>
      <trkpt lat="46.53928" lon="0.34466">
        <ele>71.8</ele>
        <time>2024-08-18T08:52:08Z</time>
      </trkpt>
      <trkpt lat="46.53924" lon="0.34473">
        <ele>72</ele>
        <time>2024-08-18T08:52:12Z</time>
      </trkpt>
      <trkpt lat="46.53915" lon="0.34482">
        <ele>71.8</ele>
        <time>2024-08-18T08:52:18Z</time>
      </trkpt>
      <trkpt lat="46.53899" lon="0.34489">
        <ele>71.8</ele>
        <time>2024-08-18T08:52:24Z</time>
      </trkpt>
      <trkpt lat="46.53881" lon="0.34494">
        <ele>72</ele>
        <time>2024-08-18T08:52:30Z</time>
      </trkpt>
      <trkpt lat="46.53863" lon="0.34498">
        <ele>72.6</ele>
        <time>2024-08-18T08:52:35Z</time>
      </trkpt>
      <trkpt lat="46.53856" lon="0.34499">
        <ele>73</ele>
        <time>2024-08-18T08:52:37Z</time>
      </trkpt>
      <trkpt lat="46.53839" lon="0.34494">
        <ele>73.4</ele>
        <time>2024-08-18T08:52:42Z</time>
      </trkpt>
      <trkpt lat="46.53809" lon="0.34484">
        <ele>73.2</ele>
        <time>2024-08-18T08:52:49Z</time>
      </trkpt>
      <trkpt lat="46.53778" lon="0.34477">
        <ele>73</ele>
        <time>2024-08-18T08:52:56Z</time>
      </trkpt>
      <trkpt lat="46.53747" lon="0.34467">
        <ele>72.8</ele>
        <time>2024-08-18T08:53:03Z</time>
      </trkpt>
      <trkpt lat="46.53727" lon="0.34458">
        <ele>72.8</ele>
        <time>2024-08-18T08:53:08Z</time>
      </trkpt>
      <trkpt lat="46.53695" lon="0.34439">
        <ele>72.8</ele>
        <time>2024-08-18T08:53:14Z</time>
      </trkpt>
      <trkpt lat="46.53655" lon="0.34419">
        <ele>72.6</ele>
        <time>2024-08-18T08:53:21Z</time>
      </trkpt>
      <trkpt lat="46.53611" lon="0.34409">
        <ele>71.6</ele>
        <time>2024-08-18T08:53:28Z</time>
      </trkpt>
      <trkpt lat="46.53604" lon="0.34409">
        <ele>71.4</ele>
        <time>2024-08-18T08:53:29Z</time>
      </trkpt>
      <trkpt lat="46.53585" lon="0.34409">
        <ele>70.8</ele>
        <time>2024-08-18T08:53:32Z</time>
      </trkpt>
      <trkpt lat="46.53579" lon="0.34406">
        <ele>70.6</ele>
        <time>2024-08-18T08:53:33Z</time>
      </trkpt>
      <trkpt lat="46.53569" lon="0.344">
        <ele>70.6</ele>
        <time>2024-08-18T08:53:35Z</time>
      </trkpt>
      <trkpt lat="46.53554" lon="0.34387">
        <ele>70.6</ele>
        <time>2024-08-18T08:53:38Z</time>
      </trkpt>
      <trkpt lat="46.53534" lon="0.34371">
        <ele>71</ele>
        <time>2024-08-18T08:53:42Z</time>
      </trkpt>
      <trkpt lat="46.53519" lon="0.34364">
        <ele>71.6</ele>
        <time>2024-08-18T08:53:45Z</time>
      </trkpt>
      <trkpt lat="46.5348" lon="0.34349">
        <ele>72.8</ele>
        <time>2024-08-18T08:53:53Z</time>
      </trkpt>
      <trkpt lat="46.53469" lon="0.34345">
        <ele>73</ele>
        <time>2024-08-18T08:53:55Z</time>
      </trkpt>
      <trkpt lat="46.53447" lon="0.34339">
        <ele>73.8</ele>
        <time>2024-08-18T08:53:59Z</time>
      </trkpt>
      <trkpt lat="46.53435" lon="0.3434">
        <ele>74</ele>
        <time>2024-08-18T08:54:01Z</time>
      </trkpt>
      <trkpt lat="46.53412" lon="0.34342">
        <ele>74</ele>
        <time>2024-08-18T08:54:05Z</time>
      </trkpt>
      <trkpt lat="46.534" lon="0.34339">
        <ele>74</ele>
        <time>2024-08-18T08:54:07Z</time>
      </trkpt>
      <trkpt lat="46.53384" lon="0.34333">
        <ele>73.4</ele>
        <time>2024-08-18T08:54:10Z</time>
      </trkpt>
      <trkpt lat="46.5338" lon="0.34334">
        <ele>73.2</ele>
        <time>2024-08-18T08:54:11Z</time>
      </trkpt>
      <trkpt lat="46.53376" lon="0.34337">
        <ele>73.2</ele>
        <time>2024-08-18T08:54:12Z</time>
      </trkpt>
      <trkpt lat="46.53365" lon="0.34351">
        <ele>73.2</ele>
        <time>2024-08-18T08:54:15Z</time>
      </trkpt>
      <trkpt lat="46.53354" lon="0.34364">
        <ele>73.4</ele>
        <time>2024-08-18T08:54:18Z</time>
      </trkpt>
      <trkpt lat="46.53346" lon="0.34368">
        <ele>73.4</ele>
        <time>2024-08-18T08:54:20Z</time>
      </trkpt>
      <trkpt lat="46.53326" lon="0.34375">
        <ele>73.6</ele>
        <time>2024-08-18T08:54:25Z</time>
      </trkpt>
      <trkpt lat="46.53317" lon="0.34377">
        <ele>74.6</ele>
        <time>2024-08-18T08:54:27Z</time>
      </trkpt>
      <trkpt lat="46.53292" lon="0.34386">
        <ele>74.4</ele>
        <time>2024-08-18T08:54:33Z</time>
      </trkpt>
      <trkpt lat="46.53274" lon="0.3439">
        <ele>74.8</ele>
        <time>2024-08-18T08:54:37Z</time>
      </trkpt>
      <trkpt lat="46.53259" lon="0.34391">
        <ele>75.4</ele>
        <time>2024-08-18T08:54:40Z</time>
      </trkpt>
      <trkpt lat="46.53247" lon="0.34391">
        <ele>75.8</ele>
        <time>2024-08-18T08:54:43Z</time>
      </trkpt>
      <trkpt lat="46.53239" lon="0.34388">
        <ele>76.2</ele>
        <time>2024-08-18T08:54:45Z</time>
      </trkpt>
      <trkpt lat="46.53235" lon="0.34387">
        <ele>76.4</ele>
        <time>2024-08-18T08:54:46Z</time>
      </trkpt>
      <trkpt lat="46.53215" lon="0.34382">
        <ele>77</ele>
        <time>2024-08-18T08:54:51Z</time>
      </trkpt>
      <trkpt lat="46.53204" lon="0.34377">
        <ele>77.2</ele>
        <time>2024-08-18T08:54:54Z</time>
      </trkpt>
      <trkpt lat="46.53195" lon="0.34374">
        <ele>77.4</ele>
        <time>2024-08-18T08:54:56Z</time>
      </trkpt>
      <trkpt lat="46.5319" lon="0.3437">
        <ele>77.4</ele>
        <time>2024-08-18T08:54:57Z</time>
      </trkpt>
      <trkpt lat="46.5318" lon="0.34362">
        <ele>77.2</ele>
        <time>2024-08-18T08:54:59Z</time>
      </trkpt>
      <trkpt lat="46.53165" lon="0.34354">
        <ele>77.2</ele>
        <time>2024-08-18T08:55:02Z</time>
      </trkpt>
      <trkpt lat="46.53126" lon="0.34337">
        <ele>77.6</ele>
        <time>2024-08-18T08:55:10Z</time>
      </trkpt>
      <trkpt lat="46.53101" lon="0.34341">
        <ele>78</ele>
        <time>2024-08-18T08:55:15Z</time>
      </trkpt>
      <trkpt lat="46.53096" lon="0.34343">
        <ele>78.2</ele>
        <time>2024-08-18T08:55:16Z</time>
      </trkpt>
      <trkpt lat="46.53073" lon="0.34346">
        <ele>78.6</ele>
        <time>2024-08-18T08:55:21Z</time>
      </trkpt>
      <trkpt lat="46.53068" lon="0.34346">
        <ele>78.6</ele>
        <time>2024-08-18T08:55:22Z</time>
      </trkpt>
      <trkpt lat="46.53058" lon="0.34344">
        <ele>78.6</ele>
        <time>2024-08-18T08:55:24Z</time>
      </trkpt>
      <trkpt lat="46.53043" lon="0.34338">
        <ele>78.4</ele>
        <time>2024-08-18T08:55:27Z</time>
      </trkpt>
      <trkpt lat="46.53004" lon="0.34333">
        <ele>77.4</ele>
        <time>2024-08-18T08:55:34Z</time>
      </trkpt>
      <trkpt lat="46.52999" lon="0.34333">
        <ele>77</ele>
        <time>2024-08-18T08:55:35Z</time>
      </trkpt>
      <trkpt lat="46.52994" lon="0.34331">
        <ele>76.8</ele>
        <time>2024-08-18T08:55:36Z</time>
      </trkpt>
      <trkpt lat="46.52986" lon="0.34325">
        <ele>76.4</ele>
        <time>2024-08-18T08:55:38Z</time>
      </trkpt>
      <trkpt lat="46.52981" lon="0.34314">
        <ele>76</ele>
        <time>2024-08-18T08:55:40Z</time>
      </trkpt>
      <trkpt lat="46.52976" lon="0.343">
        <ele>75.6</ele>
        <time>2024-08-18T08:55:42Z</time>
      </trkpt>
      <trkpt lat="46.52973" lon="0.34294">
        <ele>75.6</ele>
        <time>2024-08-18T08:55:43Z</time>
      </trkpt>
      <trkpt lat="46.52957" lon="0.34268">
        <ele>75.2</ele>
        <time>2024-08-18T08:55:47Z</time>
      </trkpt>
      <trkpt lat="46.52953" lon="0.34252">
        <ele>75.2</ele>
        <time>2024-08-18T08:55:49Z</time>
      </trkpt>
      <trkpt lat="46.52954" lon="0.34236">
        <ele>74.8</ele>
        <time>2024-08-18T08:55:51Z</time>
      </trkpt>
      <trkpt lat="46.52965" lon="0.34194">
        <ele>73.8</ele>
        <time>2024-08-18T08:55:56Z</time>
      </trkpt>
      <trkpt lat="46.52968" lon="0.34186">
        <ele>73.8</ele>
        <time>2024-08-18T08:55:57Z</time>
      </trkpt>
      <trkpt lat="46.52976" lon="0.34149">
        <ele>72.4</ele>
        <time>2024-08-18T08:56:01Z</time>
      </trkpt>
      <trkpt lat="46.5298" lon="0.34129">
        <ele>71.6</ele>
        <time>2024-08-18T08:56:03Z</time>
      </trkpt>
      <trkpt lat="46.52982" lon="0.34119">
        <ele>71.2</ele>
        <time>2024-08-18T08:56:04Z</time>
      </trkpt>
      <trkpt lat="46.52987" lon="0.3408">
        <ele>70.6</ele>
        <time>2024-08-18T08:56:08Z</time>
      </trkpt>
      <trkpt lat="46.52986" lon="0.34072">
        <ele>70.6</ele>
        <time>2024-08-18T08:56:09Z</time>
      </trkpt>
      <trkpt lat="46.52983" lon="0.34064">
        <ele>70.4</ele>
        <time>2024-08-18T08:56:10Z</time>
      </trkpt>
      <trkpt lat="46.52979" lon="0.34059">
        <ele>70.2</ele>
        <time>2024-08-18T08:56:11Z</time>
      </trkpt>
      <trkpt lat="46.52974" lon="0.34056">
        <ele>69.8</ele>
        <time>2024-08-18T08:56:12Z</time>
      </trkpt>
      <trkpt lat="46.5297" lon="0.34053">
        <ele>68.8</ele>
        <time>2024-08-18T08:56:13Z</time>
      </trkpt>
      <trkpt lat="46.5296" lon="0.34046">
        <ele>68.4</ele>
        <time>2024-08-18T08:56:15Z</time>
      </trkpt>
      <trkpt lat="46.52956" lon="0.3404">
        <ele>68.2</ele>
        <time>2024-08-18T08:56:16Z</time>
      </trkpt>
      <trkpt lat="46.52953" lon="0.34033">
        <ele>67.6</ele>
        <time>2024-08-18T08:56:17Z</time>
      </trkpt>
      <trkpt lat="46.5295" lon="0.34015">
        <ele>67</ele>
        <time>2024-08-18T08:56:19Z</time>
      </trkpt>
      <trkpt lat="46.52949" lon="0.34006">
        <ele>66.6</ele>
        <time>2024-08-18T08:56:20Z</time>
      </trkpt>
      <trkpt lat="46.52947" lon="0.33967">
        <ele>65.8</ele>
        <time>2024-08-18T08:56:24Z</time>
      </trkpt>
      <trkpt lat="46.52945" lon="0.33958">
        <ele>65.6</ele>
        <time>2024-08-18T08:56:25Z</time>
      </trkpt>
      <trkpt lat="46.52938" lon="0.3393">
        <ele>65</ele>
        <time>2024-08-18T08:56:28Z</time>
      </trkpt>
      <trkpt lat="46.5293" lon="0.33914">
        <ele>65</ele>
        <time>2024-08-18T08:56:30Z</time>
      </trkpt>
      <trkpt lat="46.5292" lon="0.33904">
        <ele>64.8</ele>
        <time>2024-08-18T08:56:32Z</time>
      </trkpt>
      <trkpt lat="46.52914" lon="0.33902">
        <ele>64.8</ele>
        <time>2024-08-18T08:56:33Z</time>
      </trkpt>
      <trkpt lat="46.52908" lon="0.33901">
        <ele>64.4</ele>
        <time>2024-08-18T08:56:34Z</time>
      </trkpt>
      <trkpt lat="46.52883" lon="0.33903">
        <ele>63.6</ele>
        <time>2024-08-18T08:56:38Z</time>
      </trkpt>
      <trkpt lat="46.52829" lon="0.33912">
        <ele>63.6</ele>
        <time>2024-08-18T08:56:46Z</time>
      </trkpt>
      <trkpt lat="46.5281" lon="0.33917">
        <ele>63.2</ele>
        <time>2024-08-18T08:56:49Z</time>
      </trkpt>
      <trkpt lat="46.52795" lon="0.3392">
        <ele>63.2</ele>
        <time>2024-08-18T08:56:52Z</time>
      </trkpt>
      <trkpt lat="46.52791" lon="0.33921">
        <ele>63</ele>
        <time>2024-08-18T08:56:53Z</time>
      </trkpt>
      <trkpt lat="46.52785" lon="0.33928">
        <ele>62.6</ele>
        <time>2024-08-18T08:56:55Z</time>
      </trkpt>
      <trkpt lat="46.52781" lon="0.33955">
        <ele>63.2</ele>
        <time>2024-08-18T08:56:59Z</time>
      </trkpt>
      <trkpt lat="46.52776" lon="0.33988">
        <ele>63.6</ele>
        <time>2024-08-18T08:57:04Z</time>
      </trkpt>
      <trkpt lat="46.52775" lon="0.33993">
        <ele>63.8</ele>
        <time>2024-08-18T08:57:05Z</time>
      </trkpt>
      <trkpt lat="46.52772" lon="0.34007">
        <ele>64.4</ele>
        <time>2024-08-18T08:57:08Z</time>
      </trkpt>
      <trkpt lat="46.52769" lon="0.34013">
        <ele>65</ele>
        <time>2024-08-18T08:57:10Z</time>
      </trkpt>
      <trkpt lat="46.52767" lon="0.34015">
        <ele>65.6</ele>
        <time>2024-08-18T08:57:11Z</time>
      </trkpt>
      <trkpt lat="46.52759" lon="0.34021">
        <ele>67</ele>
        <time>2024-08-18T08:57:15Z</time>
      </trkpt>
      <trkpt lat="46.52751" lon="0.34024">
        <ele>68.2</ele>
        <time>2024-08-18T08:57:19Z</time>
      </trkpt>
      <trkpt lat="46.52749" lon="0.34025">
        <ele>68.4</ele>
        <time>2024-08-18T08:57:20Z</time>
      </trkpt>
      <trkpt lat="46.52748" lon="0.34027">
        <ele>68.4</ele>
        <time>2024-08-18T08:57:21Z</time>
      </trkpt>
      <trkpt lat="46.52743" lon="0.3403">
        <ele>69.4</ele>
        <time>2024-08-18T08:57:24Z</time>
      </trkpt>
      <trkpt lat="46.52734" lon="0.34033">
        <ele>70.4</ele>
        <time>2024-08-18T08:57:28Z</time>
      </trkpt>
      <trkpt lat="46.52718" lon="0.34038">
        <ele>71.4</ele>
        <time>2024-08-18T08:57:33Z</time>
      </trkpt>
      <trkpt lat="46.52712" lon="0.34039">
        <ele>71.8</ele>
        <time>2024-08-18T08:57:35Z</time>
      </trkpt>
      <trkpt lat="46.52688" lon="0.34038">
        <ele>72</ele>
        <time>2024-08-18T08:57:42Z</time>
      </trkpt>
      <trkpt lat="46.52666" lon="0.34036">
        <ele>72.4</ele>
        <time>2024-08-18T08:57:48Z</time>
      </trkpt>
      <trkpt lat="46.52663" lon="0.34036">
        <ele>72.6</ele>
        <time>2024-08-18T08:57:49Z</time>
      </trkpt>
      <trkpt lat="46.52645" lon="0.34038">
        <ele>73.4</ele>
        <time>2024-08-18T08:57:55Z</time>
      </trkpt>
      <trkpt lat="46.52641" lon="0.34038">
        <ele>73.6</ele>
        <time>2024-08-18T08:57:56Z</time>
      </trkpt>
      <trkpt lat="46.52629" lon="0.34037">
        <ele>73.6</ele>
        <time>2024-08-18T08:57:59Z</time>
      </trkpt>
      <trkpt lat="46.52614" lon="0.34038">
        <ele>73.8</ele>
        <time>2024-08-18T08:58:03Z</time>
      </trkpt>
      <trkpt lat="46.52604" lon="0.34038">
        <ele>74.6</ele>
        <time>2024-08-18T08:58:06Z</time>
      </trkpt>
      <trkpt lat="46.52592" lon="0.3404">
        <ele>75.6</ele>
        <time>2024-08-18T08:58:10Z</time>
      </trkpt>
      <trkpt lat="46.5259" lon="0.3404">
        <ele>75.8</ele>
        <time>2024-08-18T08:58:11Z</time>
      </trkpt>
      <trkpt lat="46.5258" lon="0.3404">
        <ele>76.6</ele>
        <time>2024-08-18T08:58:15Z</time>
      </trkpt>
      <trkpt lat="46.52574" lon="0.3404">
        <ele>77</ele>
        <time>2024-08-18T08:58:17Z</time>
      </trkpt>
      <trkpt lat="46.52566" lon="0.34044">
        <ele>77.6</ele>
        <time>2024-08-18T08:58:21Z</time>
      </trkpt>
      <trkpt lat="46.52556" lon="0.34045">
        <ele>78.2</ele>
        <time>2024-08-18T08:58:25Z</time>
      </trkpt>
      <trkpt lat="46.52554" lon="0.34045">
        <ele>78.4</ele>
        <time>2024-08-18T08:58:26Z</time>
      </trkpt>
      <trkpt lat="46.52537" lon="0.34052">
        <ele>79.4</ele>
        <time>2024-08-18T08:58:32Z</time>
      </trkpt>
      <trkpt lat="46.52534" lon="0.34052">
        <ele>79.6</ele>
        <time>2024-08-18T08:58:33Z</time>
      </trkpt>
      <trkpt lat="46.52525" lon="0.34057">
        <ele>80.6</ele>
        <time>2024-08-18T08:58:37Z</time>
      </trkpt>
      <trkpt lat="46.52517" lon="0.34061">
        <ele>81.4</ele>
        <time>2024-08-18T08:58:40Z</time>
      </trkpt>
      <trkpt lat="46.52515" lon="0.34063">
        <ele>81.6</ele>
        <time>2024-08-18T08:58:41Z</time>
      </trkpt>
      <trkpt lat="46.52507" lon="0.34074">
        <ele>82.6</ele>
        <time>2024-08-18T08:58:46Z</time>
      </trkpt>
      <trkpt lat="46.52506" lon="0.34077">
        <ele>82.8</ele>
        <time>2024-08-18T08:58:47Z</time>
      </trkpt>
      <trkpt lat="46.52499" lon="0.34091">
        <ele>83.8</ele>
        <time>2024-08-18T08:58:52Z</time>
      </trkpt>
      <trkpt lat="46.52495" lon="0.341">
        <ele>84.4</ele>
        <time>2024-08-18T08:58:56Z</time>
      </trkpt>
      <trkpt lat="46.52492" lon="0.34105">
        <ele>85</ele>
        <time>2024-08-18T08:58:58Z</time>
      </trkpt>
      <trkpt lat="46.52487" lon="0.34117">
        <ele>86.2</ele>
        <time>2024-08-18T08:59:03Z</time>
      </trkpt>
      <trkpt lat="46.52485" lon="0.34121">
        <ele>86.4</ele>
        <time>2024-08-18T08:59:05Z</time>
      </trkpt>
      <trkpt lat="46.52481" lon="0.3413">
        <ele>87.4</ele>
        <time>2024-08-18T08:59:09Z</time>
      </trkpt>
      <trkpt lat="46.52478" lon="0.34139">
        <ele>88.4</ele>
        <time>2024-08-18T08:59:13Z</time>
      </trkpt>
      <trkpt lat="46.52477" lon="0.3414">
        <ele>88.6</ele>
        <time>2024-08-18T08:59:14Z</time>
      </trkpt>
      <trkpt lat="46.52472" lon="0.34151">
        <ele>89.8</ele>
        <time>2024-08-18T08:59:20Z</time>
      </trkpt>
      <trkpt lat="46.5247" lon="0.34154">
        <ele>90.4</ele>
        <time>2024-08-18T08:59:22Z</time>
      </trkpt>
      <trkpt lat="46.52466" lon="0.3416">
        <ele>90.8</ele>
        <time>2024-08-18T08:59:25Z</time>
      </trkpt>
      <trkpt lat="46.5246" lon="0.34169">
        <ele>91.4</ele>
        <time>2024-08-18T08:59:29Z</time>
      </trkpt>
      <trkpt lat="46.52457" lon="0.34173">
        <ele>92</ele>
        <time>2024-08-18T08:59:31Z</time>
      </trkpt>
      <trkpt lat="46.52451" lon="0.34186">
        <ele>92.6</ele>
        <time>2024-08-18T08:59:36Z</time>
      </trkpt>
      <trkpt lat="46.52447" lon="0.34197">
        <ele>93</ele>
        <time>2024-08-18T08:59:40Z</time>
      </trkpt>
      <trkpt lat="46.52444" lon="0.34212">
        <ele>94</ele>
        <time>2024-08-18T08:59:45Z</time>
      </trkpt>
      <trkpt lat="46.52444" lon="0.34215">
        <ele>94.2</ele>
        <time>2024-08-18T08:59:46Z</time>
      </trkpt>
      <trkpt lat="46.52438" lon="0.34236">
        <ele>94.8</ele>
        <time>2024-08-18T08:59:53Z</time>
      </trkpt>
      <trkpt lat="46.52434" lon="0.34252">
        <ele>95</ele>
        <time>2024-08-18T09:00:00Z</time>
      </trkpt>
      <trkpt lat="46.52434" lon="0.34254">
        <ele>95.2</ele>
        <time>2024-08-18T09:00:04Z</time>
      </trkpt>
      <trkpt lat="46.52434" lon="0.34254">
        <ele>95.2</ele>
        <time>2024-08-18T09:00:09Z</time>
      </trkpt>
      <trkpt lat="46.52431" lon="0.34255">
        <ele>94.8</ele>
        <time>2024-08-18T09:00:24Z</time>
      </trkpt>
      <trkpt lat="46.52419" lon="0.34258">
        <ele>94.8</ele>
        <time>2024-08-18T09:00:28Z</time>
      </trkpt>
      <trkpt lat="46.52415" lon="0.34259">
        <ele>94.8</ele>
        <time>2024-08-18T09:00:29Z</time>
      </trkpt>
      <trkpt lat="46.52407" lon="0.34262">
        <ele>93.8</ele>
        <time>2024-08-18T09:00:31Z</time>
      </trkpt>
      <trkpt lat="46.524" lon="0.34267">
        <ele>93.2</ele>
        <time>2024-08-18T09:00:33Z</time>
      </trkpt>
      <trkpt lat="46.52397" lon="0.3427">
        <ele>91.8</ele>
        <time>2024-08-18T09:00:34Z</time>
      </trkpt>
      <trkpt lat="46.52393" lon="0.34273">
        <ele>90.8</ele>
        <time>2024-08-18T09:00:35Z</time>
      </trkpt>
      <trkpt lat="46.52384" lon="0.34281">
        <ele>89</ele>
        <time>2024-08-18T09:00:37Z</time>
      </trkpt>
      <trkpt lat="46.5238" lon="0.34284">
        <ele>88.4</ele>
        <time>2024-08-18T09:00:38Z</time>
      </trkpt>
      <trkpt lat="46.52375" lon="0.34288">
        <ele>87.8</ele>
        <time>2024-08-18T09:00:39Z</time>
      </trkpt>
      <trkpt lat="46.52356" lon="0.34293">
        <ele>86.8</ele>
        <time>2024-08-18T09:00:42Z</time>
      </trkpt>
      <trkpt lat="46.52347" lon="0.34294">
        <ele>86.6</ele>
        <time>2024-08-18T09:00:43Z</time>
      </trkpt>
      <trkpt lat="46.5233" lon="0.34295">
        <ele>86</ele>
        <time>2024-08-18T09:00:45Z</time>
      </trkpt>
      <trkpt lat="46.52324" lon="0.34296">
        <ele>85.6</ele>
        <time>2024-08-18T09:00:46Z</time>
      </trkpt>
      <trkpt lat="46.5232" lon="0.34298">
        <ele>84.8</ele>
        <time>2024-08-18T09:00:47Z</time>
      </trkpt>
      <trkpt lat="46.52317" lon="0.34302">
        <ele>84.2</ele>
        <time>2024-08-18T09:00:48Z</time>
      </trkpt>
      <trkpt lat="46.52314" lon="0.34306">
        <ele>83.6</ele>
        <time>2024-08-18T09:00:49Z</time>
      </trkpt>
      <trkpt lat="46.5231" lon="0.3431">
        <ele>83.2</ele>
        <time>2024-08-18T09:00:50Z</time>
      </trkpt>
      <trkpt lat="46.52304" lon="0.34315">
        <ele>82.4</ele>
        <time>2024-08-18T09:00:51Z</time>
      </trkpt>
      <trkpt lat="46.52299" lon="0.3432">
        <ele>81.8</ele>
        <time>2024-08-18T09:00:52Z</time>
      </trkpt>
      <trkpt lat="46.52293" lon="0.34326">
        <ele>81.2</ele>
        <time>2024-08-18T09:00:53Z</time>
      </trkpt>
      <trkpt lat="46.52287" lon="0.34331">
        <ele>80.6</ele>
        <time>2024-08-18T09:00:54Z</time>
      </trkpt>
      <trkpt lat="46.52281" lon="0.34335">
        <ele>79.8</ele>
        <time>2024-08-18T09:00:55Z</time>
      </trkpt>
      <trkpt lat="46.52276" lon="0.34339">
        <ele>79.4</ele>
        <time>2024-08-18T09:00:56Z</time>
      </trkpt>
      <trkpt lat="46.52272" lon="0.3434">
        <ele>79</ele>
        <time>2024-08-18T09:00:57Z</time>
      </trkpt>
      <trkpt lat="46.52267" lon="0.3434">
        <ele>78.6</ele>
        <time>2024-08-18T09:00:58Z</time>
      </trkpt>
      <trkpt lat="46.52262" lon="0.3434">
        <ele>77.6</ele>
        <time>2024-08-18T09:00:59Z</time>
      </trkpt>
      <trkpt lat="46.52256" lon="0.3434">
        <ele>77</ele>
        <time>2024-08-18T09:01:00Z</time>
      </trkpt>
      <trkpt lat="46.52244" lon="0.3434">
        <ele>76.6</ele>
        <time>2024-08-18T09:01:02Z</time>
      </trkpt>
      <trkpt lat="46.52239" lon="0.34339">
        <ele>76.6</ele>
        <time>2024-08-18T09:01:03Z</time>
      </trkpt>
      <trkpt lat="46.52227" lon="0.34335">
        <ele>76.4</ele>
        <time>2024-08-18T09:01:05Z</time>
      </trkpt>
      <trkpt lat="46.522" lon="0.34327">
        <ele>76.4</ele>
        <time>2024-08-18T09:01:10Z</time>
      </trkpt>
      <trkpt lat="46.52184" lon="0.3432">
        <ele>76.4</ele>
        <time>2024-08-18T09:01:13Z</time>
      </trkpt>
      <trkpt lat="46.5217" lon="0.34312">
        <ele>76</ele>
        <time>2024-08-18T09:01:15Z</time>
      </trkpt>
      <trkpt lat="46.52156" lon="0.34303">
        <ele>75.4</ele>
        <time>2024-08-18T09:01:17Z</time>
      </trkpt>
      <trkpt lat="46.52151" lon="0.34301">
        <ele>75.2</ele>
        <time>2024-08-18T09:01:18Z</time>
      </trkpt>
      <trkpt lat="46.52146" lon="0.343">
        <ele>75</ele>
        <time>2024-08-18T09:01:19Z</time>
      </trkpt>
      <trkpt lat="46.52144" lon="0.343">
        <ele>75</ele>
        <time>2024-08-18T09:01:20Z</time>
      </trkpt>
      <trkpt lat="46.5214" lon="0.34303">
        <ele>75.2</ele>
        <time>2024-08-18T09:01:22Z</time>
      </trkpt>
      <trkpt lat="46.52135" lon="0.34306">
        <ele>76.6</ele>
        <time>2024-08-18T09:01:25Z</time>
      </trkpt>
      <trkpt lat="46.52127" lon="0.34306">
        <ele>77.6</ele>
        <time>2024-08-18T09:01:28Z</time>
      </trkpt>
      <trkpt lat="46.52124" lon="0.34306">
        <ele>77.8</ele>
        <time>2024-08-18T09:01:29Z</time>
      </trkpt>
      <trkpt lat="46.52106" lon="0.34311">
        <ele>78</ele>
        <time>2024-08-18T09:01:35Z</time>
      </trkpt>
      <trkpt lat="46.52092" lon="0.34316">
        <ele>77.6</ele>
        <time>2024-08-18T09:01:41Z</time>
      </trkpt>
      <trkpt lat="46.52078" lon="0.34318">
        <ele>76.8</ele>
        <time>2024-08-18T09:01:46Z</time>
      </trkpt>
      <trkpt lat="46.52073" lon="0.34319">
        <ele>76.6</ele>
        <time>2024-08-18T09:01:47Z</time>
      </trkpt>
      <trkpt lat="46.52051" lon="0.34322">
        <ele>75.4</ele>
        <time>2024-08-18T09:01:51Z</time>
      </trkpt>
      <trkpt lat="46.52045" lon="0.34324">
        <ele>75.2</ele>
        <time>2024-08-18T09:01:52Z</time>
      </trkpt>
      <trkpt lat="46.52031" lon="0.34329">
        <ele>74.2</ele>
        <time>2024-08-18T09:01:54Z</time>
      </trkpt>
      <trkpt lat="46.52013" lon="0.3434">
        <ele>73.4</ele>
        <time>2024-08-18T09:01:57Z</time>
      </trkpt>
      <trkpt lat="46.51996" lon="0.34352">
        <ele>73.6</ele>
        <time>2024-08-18T09:02:01Z</time>
      </trkpt>
      <trkpt lat="46.51985" lon="0.34362">
        <ele>75.4</ele>
        <time>2024-08-18T09:02:06Z</time>
      </trkpt>
      <trkpt lat="46.51976" lon="0.34369">
        <ele>76.6</ele>
        <time>2024-08-18T09:02:10Z</time>
      </trkpt>
      <trkpt lat="46.51968" lon="0.34375">
        <ele>77.8</ele>
        <time>2024-08-18T09:02:13Z</time>
      </trkpt>
      <trkpt lat="46.51961" lon="0.34379">
        <ele>79.2</ele>
        <time>2024-08-18T09:02:16Z</time>
      </trkpt>
      <trkpt lat="46.51955" lon="0.3438">
        <ele>80</ele>
        <time>2024-08-18T09:02:18Z</time>
      </trkpt>
      <trkpt lat="46.5195" lon="0.34384">
        <ele>80.4</ele>
        <time>2024-08-18T09:02:20Z</time>
      </trkpt>
      <trkpt lat="46.51939" lon="0.34395">
        <ele>81.6</ele>
        <time>2024-08-18T09:02:25Z</time>
      </trkpt>
      <trkpt lat="46.51931" lon="0.34401">
        <ele>82.8</ele>
        <time>2024-08-18T09:02:29Z</time>
      </trkpt>
      <trkpt lat="46.51925" lon="0.34407">
        <ele>83.6</ele>
        <time>2024-08-18T09:02:33Z</time>
      </trkpt>
      <trkpt lat="46.51921" lon="0.3441">
        <ele>83.8</ele>
        <time>2024-08-18T09:02:35Z</time>
      </trkpt>
      <trkpt lat="46.51911" lon="0.34418">
        <ele>84.8</ele>
        <time>2024-08-18T09:02:41Z</time>
      </trkpt>
      <trkpt lat="46.51909" lon="0.34419">
        <ele>85.4</ele>
        <time>2024-08-18T09:02:42Z</time>
      </trkpt>
      <trkpt lat="46.51905" lon="0.34423">
        <ele>85.8</ele>
        <time>2024-08-18T09:02:45Z</time>
      </trkpt>
      <trkpt lat="46.51899" lon="0.34427">
        <ele>87</ele>
        <time>2024-08-18T09:02:50Z</time>
      </trkpt>
      <trkpt lat="46.51896" lon="0.34429">
        <ele>88.2</ele>
        <time>2024-08-18T09:02:53Z</time>
      </trkpt>
      <trkpt lat="46.51892" lon="0.3443">
        <ele>88.6</ele>
        <time>2024-08-18T09:02:56Z</time>
      </trkpt>
      <trkpt lat="46.51889" lon="0.34433">
        <ele>89.4</ele>
        <time>2024-08-18T09:02:59Z</time>
      </trkpt>
      <trkpt lat="46.51882" lon="0.34441">
        <ele>90.4</ele>
        <time>2024-08-18T09:03:04Z</time>
      </trkpt>
      <trkpt lat="46.51881" lon="0.34442">
        <ele>90.6</ele>
        <time>2024-08-18T09:03:05Z</time>
      </trkpt>
      <trkpt lat="46.51875" lon="0.3445">
        <ele>91.4</ele>
        <time>2024-08-18T09:03:10Z</time>
      </trkpt>
      <trkpt lat="46.51873" lon="0.34452">
        <ele>92</ele>
        <time>2024-08-18T09:03:12Z</time>
      </trkpt>
      <trkpt lat="46.51866" lon="0.34458">
        <ele>93</ele>
        <time>2024-08-18T09:03:17Z</time>
      </trkpt>
      <trkpt lat="46.51865" lon="0.34459">
        <ele>93.4</ele>
        <time>2024-08-18T09:03:18Z</time>
      </trkpt>
      <trkpt lat="46.51857" lon="0.34467">
        <ele>94.4</ele>
        <time>2024-08-18T09:03:24Z</time>
      </trkpt>
      <trkpt lat="46.51855" lon="0.34468">
        <ele>94.8</ele>
        <time>2024-08-18T09:03:25Z</time>
      </trkpt>
      <trkpt lat="46.51849" lon="0.34476">
        <ele>95.6</ele>
        <time>2024-08-18T09:03:29Z</time>
      </trkpt>
      <trkpt lat="46.51844" lon="0.34482">
        <ele>96.6</ele>
        <time>2024-08-18T09:03:32Z</time>
      </trkpt>
      <trkpt lat="46.51829" lon="0.34494">
        <ele>97.8</ele>
        <time>2024-08-18T09:03:39Z</time>
      </trkpt>
      <trkpt lat="46.51828" lon="0.34495">
        <ele>98</ele>
        <time>2024-08-18T09:03:40Z</time>
      </trkpt>
      <trkpt lat="46.51818" lon="0.34505">
        <ele>99</ele>
        <time>2024-08-18T09:03:45Z</time>
      </trkpt>
      <trkpt lat="46.51812" lon="0.3451">
        <ele>99.6</ele>
        <time>2024-08-18T09:03:48Z</time>
      </trkpt>
      <trkpt lat="46.51806" lon="0.34517">
        <ele>100</ele>
        <time>2024-08-18T09:03:51Z</time>
      </trkpt>
      <trkpt lat="46.51797" lon="0.34522">
        <ele>100.6</ele>
        <time>2024-08-18T09:03:55Z</time>
      </trkpt>
      <trkpt lat="46.51786" lon="0.34529">
        <ele>101.2</ele>
        <time>2024-08-18T09:03:59Z</time>
      </trkpt>
      <trkpt lat="46.51775" lon="0.34539">
        <ele>102</ele>
        <time>2024-08-18T09:04:04Z</time>
      </trkpt>
      <trkpt lat="46.51773" lon="0.34541">
        <ele>102.2</ele>
        <time>2024-08-18T09:04:05Z</time>
      </trkpt>
      <trkpt lat="46.5176" lon="0.34555">
        <ele>103.4</ele>
        <time>2024-08-18T09:04:11Z</time>
      </trkpt>
      <trkpt lat="46.51739" lon="0.3457">
        <ele>104.4</ele>
        <time>2024-08-18T09:04:19Z</time>
      </trkpt>
      <trkpt lat="46.51737" lon="0.34572">
        <ele>104.6</ele>
        <time>2024-08-18T09:04:20Z</time>
      </trkpt>
      <trkpt lat="46.51721" lon="0.34583">
        <ele>105</ele>
        <time>2024-08-18T09:04:26Z</time>
      </trkpt>
      <trkpt lat="46.51708" lon="0.34594">
        <ele>105.2</ele>
        <time>2024-08-18T09:04:31Z</time>
      </trkpt>
      <trkpt lat="46.51693" lon="0.34606">
        <ele>105.2</ele>
        <time>2024-08-18T09:04:36Z</time>
      </trkpt>
      <trkpt lat="46.51672" lon="0.34622">
        <ele>104.4</ele>
        <time>2024-08-18T09:04:43Z</time>
      </trkpt>
      <trkpt lat="46.51657" lon="0.34636">
        <ele>104.2</ele>
        <time>2024-08-18T09:04:48Z</time>
      </trkpt>
      <trkpt lat="46.51651" lon="0.34643">
        <ele>104.2</ele>
        <time>2024-08-18T09:04:50Z</time>
      </trkpt>
      <trkpt lat="46.51639" lon="0.34654">
        <ele>103.8</ele>
        <time>2024-08-18T09:04:54Z</time>
      </trkpt>
      <trkpt lat="46.51626" lon="0.34671">
        <ele>103.8</ele>
        <time>2024-08-18T09:04:59Z</time>
      </trkpt>
      <trkpt lat="46.51616" lon="0.34686">
        <ele>103.4</ele>
        <time>2024-08-18T09:05:03Z</time>
      </trkpt>
      <trkpt lat="46.51605" lon="0.34703">
        <ele>103.4</ele>
        <time>2024-08-18T09:05:08Z</time>
      </trkpt>
      <trkpt lat="46.51593" lon="0.34717">
        <ele>103.4</ele>
        <time>2024-08-18T09:05:14Z</time>
      </trkpt>
      <trkpt lat="46.51583" lon="0.34731">
        <ele>103.2</ele>
        <time>2024-08-18T09:05:20Z</time>
      </trkpt>
      <trkpt lat="46.51568" lon="0.34749">
        <ele>103.8</ele>
        <time>2024-08-18T09:05:27Z</time>
      </trkpt>
      <trkpt lat="46.51558" lon="0.34759">
        <ele>104.6</ele>
        <time>2024-08-18T09:05:31Z</time>
      </trkpt>
      <trkpt lat="46.51553" lon="0.34766">
        <ele>104.8</ele>
        <time>2024-08-18T09:05:33Z</time>
      </trkpt>
      <trkpt lat="46.51552" lon="0.34769">
        <ele>104.8</ele>
        <time>2024-08-18T09:05:34Z</time>
      </trkpt>
      <trkpt lat="46.51548" lon="0.34775">
        <ele>104.8</ele>
        <time>2024-08-18T09:05:37Z</time>
      </trkpt>
      <trkpt lat="46.51539" lon="0.34791">
        <ele>105</ele>
        <time>2024-08-18T09:05:43Z</time>
      </trkpt>
      <trkpt lat="46.51529" lon="0.34814">
        <ele>105.6</ele>
        <time>2024-08-18T09:05:48Z</time>
      </trkpt>
      <trkpt lat="46.5152" lon="0.34832">
        <ele>105.2</ele>
        <time>2024-08-18T09:05:51Z</time>
      </trkpt>
      <trkpt lat="46.5151" lon="0.34845">
        <ele>105</ele>
        <time>2024-08-18T09:05:53Z</time>
      </trkpt>
      <trkpt lat="46.51506" lon="0.34851">
        <ele>104.4</ele>
        <time>2024-08-18T09:05:54Z</time>
      </trkpt>
      <trkpt lat="46.51489" lon="0.34876">
        <ele>103.6</ele>
        <time>2024-08-18T09:05:58Z</time>
      </trkpt>
      <trkpt lat="46.51485" lon="0.34881">
        <ele>103.4</ele>
        <time>2024-08-18T09:05:59Z</time>
      </trkpt>
      <trkpt lat="46.51464" lon="0.34906">
        <ele>103</ele>
        <time>2024-08-18T09:06:04Z</time>
      </trkpt>
      <trkpt lat="46.51443" lon="0.34926">
        <ele>102.4</ele>
        <time>2024-08-18T09:06:09Z</time>
      </trkpt>
      <trkpt lat="46.51439" lon="0.3493">
        <ele>102.2</ele>
        <time>2024-08-18T09:06:10Z</time>
      </trkpt>
      <trkpt lat="46.51435" lon="0.34935">
        <ele>102.2</ele>
        <time>2024-08-18T09:06:11Z</time>
      </trkpt>
      <trkpt lat="46.51422" lon="0.34953">
        <ele>101.2</ele>
        <time>2024-08-18T09:06:14Z</time>
      </trkpt>
      <trkpt lat="46.51419" lon="0.34959">
        <ele>101</ele>
        <time>2024-08-18T09:06:15Z</time>
      </trkpt>
      <trkpt lat="46.51413" lon="0.34969">
        <ele>100</ele>
        <time>2024-08-18T09:06:17Z</time>
      </trkpt>
      <trkpt lat="46.51407" lon="0.34977">
        <ele>98.8</ele>
        <time>2024-08-18T09:06:19Z</time>
      </trkpt>
      <trkpt lat="46.51393" lon="0.34998">
        <ele>98.2</ele>
        <time>2024-08-18T09:06:25Z</time>
      </trkpt>
      <trkpt lat="46.51376" lon="0.35013">
        <ele>99.2</ele>
        <time>2024-08-18T09:06:31Z</time>
      </trkpt>
      <trkpt lat="46.5137" lon="0.35017">
        <ele>99.8</ele>
        <time>2024-08-18T09:06:33Z</time>
      </trkpt>
      <trkpt lat="46.51356" lon="0.35024">
        <ele>101.2</ele>
        <time>2024-08-18T09:06:37Z</time>
      </trkpt>
      <trkpt lat="46.51352" lon="0.35026">
        <ele>101.6</ele>
        <time>2024-08-18T09:06:38Z</time>
      </trkpt>
      <trkpt lat="46.51349" lon="0.3503">
        <ele>102.4</ele>
        <time>2024-08-18T09:06:39Z</time>
      </trkpt>
      <trkpt lat="46.51344" lon="0.35034">
        <ele>103</ele>
        <time>2024-08-18T09:06:41Z</time>
      </trkpt>
      <trkpt lat="46.51341" lon="0.35036">
        <ele>103.2</ele>
        <time>2024-08-18T09:06:42Z</time>
      </trkpt>
      <trkpt lat="46.5134" lon="0.35038">
        <ele>103.4</ele>
        <time>2024-08-18T09:06:43Z</time>
      </trkpt>
      <trkpt lat="46.51336" lon="0.35037">
        <ele>103.6</ele>
        <time>2024-08-18T09:06:45Z</time>
      </trkpt>
      <trkpt lat="46.5133" lon="0.35034">
        <ele>103.6</ele>
        <time>2024-08-18T09:06:47Z</time>
      </trkpt>
      <trkpt lat="46.51311" lon="0.35028">
        <ele>103.6</ele>
        <time>2024-08-18T09:06:53Z</time>
      </trkpt>
      <trkpt lat="46.5128" lon="0.35023">
        <ele>102.4</ele>
        <time>2024-08-18T09:07:00Z</time>
      </trkpt>
      <trkpt lat="46.51275" lon="0.35022">
        <ele>102</ele>
        <time>2024-08-18T09:07:01Z</time>
      </trkpt>
      <trkpt lat="46.5126" lon="0.35016">
        <ele>101.2</ele>
        <time>2024-08-18T09:07:04Z</time>
      </trkpt>
      <trkpt lat="46.51255" lon="0.35021">
        <ele>101</ele>
        <time>2024-08-18T09:07:06Z</time>
      </trkpt>
      <trkpt lat="46.51253" lon="0.35023">
        <ele>100.8</ele>
        <time>2024-08-18T09:07:07Z</time>
      </trkpt>
      <trkpt lat="46.51252" lon="0.35039">
        <ele>101</ele>
        <time>2024-08-18T09:07:11Z</time>
      </trkpt>
      <trkpt lat="46.51257" lon="0.35056">
        <ele>102</ele>
        <time>2024-08-18T09:07:14Z</time>
      </trkpt>
      <trkpt lat="46.51258" lon="0.35062">
        <ele>102.8</ele>
        <time>2024-08-18T09:07:15Z</time>
      </trkpt>
      <trkpt lat="46.51259" lon="0.35068">
        <ele>103.6</ele>
        <time>2024-08-18T09:07:16Z</time>
      </trkpt>
      <trkpt lat="46.51261" lon="0.35074">
        <ele>104.2</ele>
        <time>2024-08-18T09:07:17Z</time>
      </trkpt>
      <trkpt lat="46.51263" lon="0.35087">
        <ele>105.4</ele>
        <time>2024-08-18T09:07:19Z</time>
      </trkpt>
      <trkpt lat="46.51267" lon="0.35108">
        <ele>106.8</ele>
        <time>2024-08-18T09:07:22Z</time>
      </trkpt>
      <trkpt lat="46.51272" lon="0.35136">
        <ele>108</ele>
        <time>2024-08-18T09:07:26Z</time>
      </trkpt>
      <trkpt lat="46.51274" lon="0.3515">
        <ele>108.2</ele>
        <time>2024-08-18T09:07:28Z</time>
      </trkpt>
      <trkpt lat="46.51279" lon="0.35194">
        <ele>108.8</ele>
        <time>2024-08-18T09:07:35Z</time>
      </trkpt>
      <trkpt lat="46.51279" lon="0.35199">
        <ele>109</ele>
        <time>2024-08-18T09:07:36Z</time>
      </trkpt>
      <trkpt lat="46.5128" lon="0.35205">
        <ele>109</ele>
        <time>2024-08-18T09:07:37Z</time>
      </trkpt>
      <trkpt lat="46.51283" lon="0.35238">
        <ele>109.6</ele>
        <time>2024-08-18T09:07:42Z</time>
      </trkpt>
      <trkpt lat="46.51282" lon="0.35244">
        <ele>109.6</ele>
        <time>2024-08-18T09:07:43Z</time>
      </trkpt>
      <trkpt lat="46.51283" lon="0.35255">
        <ele>109.8</ele>
        <time>2024-08-18T09:07:45Z</time>
      </trkpt>
      <trkpt lat="46.51283" lon="0.35262">
        <ele>110.2</ele>
        <time>2024-08-18T09:07:47Z</time>
      </trkpt>
      <trkpt lat="46.51278" lon="0.35269">
        <ele>110.2</ele>
        <time>2024-08-18T09:07:50Z</time>
      </trkpt>
      <trkpt lat="46.51275" lon="0.3527">
        <ele>110.4</ele>
        <time>2024-08-18T09:07:51Z</time>
      </trkpt>
      <trkpt lat="46.51255" lon="0.35267">
        <ele>110.4</ele>
        <time>2024-08-18T09:07:57Z</time>
      </trkpt>
      <trkpt lat="46.51222" lon="0.35264">
        <ele>110.2</ele>
        <time>2024-08-18T09:08:05Z</time>
      </trkpt>
      <trkpt lat="46.51208" lon="0.35264">
        <ele>110</ele>
        <time>2024-08-18T09:08:09Z</time>
      </trkpt>
      <trkpt lat="46.51202" lon="0.35269">
        <ele>109.8</ele>
        <time>2024-08-18T09:08:11Z</time>
      </trkpt>
      <trkpt lat="46.51199" lon="0.3528">
        <ele>110.2</ele>
        <time>2024-08-18T09:08:15Z</time>
      </trkpt>
      <trkpt lat="46.51201" lon="0.35292">
        <ele>111.2</ele>
        <time>2024-08-18T09:08:21Z</time>
      </trkpt>
      <trkpt lat="46.51201" lon="0.35295">
        <ele>111.2</ele>
        <time>2024-08-18T09:08:22Z</time>
      </trkpt>
      <trkpt lat="46.51201" lon="0.3532">
        <ele>112</ele>
        <time>2024-08-18T09:08:28Z</time>
      </trkpt>
      <trkpt lat="46.51202" lon="0.35331">
        <ele>112.2</ele>
        <time>2024-08-18T09:08:30Z</time>
      </trkpt>
      <trkpt lat="46.51201" lon="0.35341">
        <ele>112.8</ele>
        <time>2024-08-18T09:08:33Z</time>
      </trkpt>
      <trkpt lat="46.51196" lon="0.3535">
        <ele>113.4</ele>
        <time>2024-08-18T09:08:35Z</time>
      </trkpt>
      <trkpt lat="46.51191" lon="0.35361">
        <ele>114</ele>
        <time>2024-08-18T09:08:37Z</time>
      </trkpt>
      <trkpt lat="46.51188" lon="0.35374">
        <ele>114.6</ele>
        <time>2024-08-18T09:08:39Z</time>
      </trkpt>
      <trkpt lat="46.51189" lon="0.35389">
        <ele>115</ele>
        <time>2024-08-18T09:08:41Z</time>
      </trkpt>
      <trkpt lat="46.51192" lon="0.35404">
        <ele>115.4</ele>
        <time>2024-08-18T09:08:43Z</time>
      </trkpt>
      <trkpt lat="46.51195" lon="0.35411">
        <ele>115.8</ele>
        <time>2024-08-18T09:08:44Z</time>
      </trkpt>
      <trkpt lat="46.512" lon="0.35425">
        <ele>116.2</ele>
        <time>2024-08-18T09:08:46Z</time>
      </trkpt>
      <trkpt lat="46.5121" lon="0.3545">
        <ele>116.6</ele>
        <time>2024-08-18T09:08:50Z</time>
      </trkpt>
      <trkpt lat="46.51214" lon="0.35455">
        <ele>116.8</ele>
        <time>2024-08-18T09:08:51Z</time>
      </trkpt>
      <trkpt lat="46.51218" lon="0.35459">
        <ele>117.2</ele>
        <time>2024-08-18T09:08:52Z</time>
      </trkpt>
      <trkpt lat="46.51236" lon="0.35467">
        <ele>117.4</ele>
        <time>2024-08-18T09:08:56Z</time>
      </trkpt>
      <trkpt lat="46.51239" lon="0.3547">
        <ele>117.4</ele>
        <time>2024-08-18T09:08:57Z</time>
      </trkpt>
      <trkpt lat="46.51243" lon="0.35474">
        <ele>117.4</ele>
        <time>2024-08-18T09:08:58Z</time>
      </trkpt>
      <trkpt lat="46.51247" lon="0.35483">
        <ele>117.4</ele>
        <time>2024-08-18T09:09:00Z</time>
      </trkpt>
      <trkpt lat="46.51249" lon="0.35489">
        <ele>117.4</ele>
        <time>2024-08-18T09:09:01Z</time>
      </trkpt>
      <trkpt lat="46.51254" lon="0.35506">
        <ele>117.4</ele>
        <time>2024-08-18T09:09:04Z</time>
      </trkpt>
      <trkpt lat="46.51255" lon="0.35518">
        <ele>117.4</ele>
        <time>2024-08-18T09:09:06Z</time>
      </trkpt>
      <trkpt lat="46.51255" lon="0.35524">
        <ele>117.2</ele>
        <time>2024-08-18T09:09:07Z</time>
      </trkpt>
      <trkpt lat="46.51254" lon="0.3553">
        <ele>117.2</ele>
        <time>2024-08-18T09:09:08Z</time>
      </trkpt>
      <trkpt lat="46.51253" lon="0.3555">
        <ele>117</ele>
        <time>2024-08-18T09:09:11Z</time>
      </trkpt>
      <trkpt lat="46.51255" lon="0.35562">
        <ele>117</ele>
        <time>2024-08-18T09:09:13Z</time>
      </trkpt>
      <trkpt lat="46.51261" lon="0.35571">
        <ele>117</ele>
        <time>2024-08-18T09:09:15Z</time>
      </trkpt>
      <trkpt lat="46.51268" lon="0.35577">
        <ele>117.2</ele>
        <time>2024-08-18T09:09:17Z</time>
      </trkpt>
      <trkpt lat="46.51277" lon="0.3558">
        <ele>117.2</ele>
        <time>2024-08-18T09:09:19Z</time>
      </trkpt>
      <trkpt lat="46.51295" lon="0.35579">
        <ele>117.6</ele>
        <time>2024-08-18T09:09:23Z</time>
      </trkpt>
      <trkpt lat="46.51304" lon="0.35577">
        <ele>117.6</ele>
        <time>2024-08-18T09:09:25Z</time>
      </trkpt>
      <trkpt lat="46.51311" lon="0.35578">
        <ele>117.4</ele>
        <time>2024-08-18T09:09:27Z</time>
      </trkpt>
      <trkpt lat="46.51314" lon="0.35578">
        <ele>117.4</ele>
        <time>2024-08-18T09:09:28Z</time>
      </trkpt>
      <trkpt lat="46.51317" lon="0.35577">
        <ele>117.6</ele>
        <time>2024-08-18T09:09:29Z</time>
      </trkpt>
      <trkpt lat="46.51321" lon="0.35578">
        <ele>117.4</ele>
        <time>2024-08-18T09:09:31Z</time>
      </trkpt>
      <trkpt lat="46.51337" lon="0.3558">
        <ele>117.4</ele>
        <time>2024-08-18T09:09:35Z</time>
      </trkpt>
      <trkpt lat="46.51344" lon="0.35583">
        <ele>117.2</ele>
        <time>2024-08-18T09:09:37Z</time>
      </trkpt>
      <trkpt lat="46.51346" lon="0.35587">
        <ele>117.2</ele>
        <time>2024-08-18T09:09:38Z</time>
      </trkpt>
      <trkpt lat="46.51349" lon="0.35612">
        <ele>116.6</ele>
        <time>2024-08-18T09:09:42Z</time>
      </trkpt>
      <trkpt lat="46.51354" lon="0.35661">
        <ele>117.6</ele>
        <time>2024-08-18T09:09:49Z</time>
      </trkpt>
      <trkpt lat="46.51355" lon="0.35693">
        <ele>118</ele>
        <time>2024-08-18T09:09:54Z</time>
      </trkpt>
      <trkpt lat="46.51356" lon="0.35709">
        <ele>118.2</ele>
        <time>2024-08-18T09:09:56Z</time>
      </trkpt>
      <trkpt lat="46.51361" lon="0.35749">
        <ele>118.4</ele>
        <time>2024-08-18T09:10:01Z</time>
      </trkpt>
      <trkpt lat="46.51362" lon="0.35764">
        <ele>118.2</ele>
        <time>2024-08-18T09:10:03Z</time>
      </trkpt>
      <trkpt lat="46.51361" lon="0.35778">
        <ele>117.8</ele>
        <time>2024-08-18T09:10:05Z</time>
      </trkpt>
      <trkpt lat="46.51357" lon="0.358">
        <ele>117.4</ele>
        <time>2024-08-18T09:10:08Z</time>
      </trkpt>
      <trkpt lat="46.51357" lon="0.35815">
        <ele>117.4</ele>
        <time>2024-08-18T09:10:10Z</time>
      </trkpt>
      <trkpt lat="46.51358" lon="0.35832">
        <ele>117</ele>
        <time>2024-08-18T09:10:13Z</time>
      </trkpt>
      <trkpt lat="46.51359" lon="0.35834">
        <ele>117</ele>
        <time>2024-08-18T09:10:14Z</time>
      </trkpt>
      <trkpt lat="46.51359" lon="0.35856">
        <ele>116.8</ele>
        <time>2024-08-18T09:10:19Z</time>
      </trkpt>
      <trkpt lat="46.51363" lon="0.35891">
        <ele>116</ele>
        <time>2024-08-18T09:10:24Z</time>
      </trkpt>
      <trkpt lat="46.51364" lon="0.35899">
        <ele>115.8</ele>
        <time>2024-08-18T09:10:25Z</time>
      </trkpt>
      <trkpt lat="46.51373" lon="0.35943">
        <ele>115.2</ele>
        <time>2024-08-18T09:10:31Z</time>
      </trkpt>
      <trkpt lat="46.51375" lon="0.35957">
        <ele>114.8</ele>
        <time>2024-08-18T09:10:33Z</time>
      </trkpt>
      <trkpt lat="46.5138" lon="0.35985">
        <ele>114.4</ele>
        <time>2024-08-18T09:10:37Z</time>
      </trkpt>
      <trkpt lat="46.51382" lon="0.35992">
        <ele>114.2</ele>
        <time>2024-08-18T09:10:38Z</time>
      </trkpt>
      <trkpt lat="46.51385" lon="0.36024">
        <ele>113.8</ele>
        <time>2024-08-18T09:10:42Z</time>
      </trkpt>
      <trkpt lat="46.51388" lon="0.3605">
        <ele>113</ele>
        <time>2024-08-18T09:10:45Z</time>
      </trkpt>
      <trkpt lat="46.51392" lon="0.36068">
        <ele>112.4</ele>
        <time>2024-08-18T09:10:47Z</time>
      </trkpt>
      <trkpt lat="46.51399" lon="0.36099">
        <ele>111</ele>
        <time>2024-08-18T09:10:50Z</time>
      </trkpt>
      <trkpt lat="46.51407" lon="0.36134">
        <ele>109.8</ele>
        <time>2024-08-18T09:10:53Z</time>
      </trkpt>
      <trkpt lat="46.51411" lon="0.36159">
        <ele>108.6</ele>
        <time>2024-08-18T09:10:55Z</time>
      </trkpt>
      <trkpt lat="46.51414" lon="0.36171">
        <ele>108.2</ele>
        <time>2024-08-18T09:10:56Z</time>
      </trkpt>
      <trkpt lat="46.51416" lon="0.36182">
        <ele>107.6</ele>
        <time>2024-08-18T09:10:57Z</time>
      </trkpt>
      <trkpt lat="46.51424" lon="0.36224">
        <ele>106.6</ele>
        <time>2024-08-18T09:11:01Z</time>
      </trkpt>
      <trkpt lat="46.51435" lon="0.36276">
        <ele>104.8</ele>
        <time>2024-08-18T09:11:06Z</time>
      </trkpt>
      <trkpt lat="46.5144" lon="0.36313">
        <ele>103.6</ele>
        <time>2024-08-18T09:11:09Z</time>
      </trkpt>
      <trkpt lat="46.51441" lon="0.36351">
        <ele>102.2</ele>
        <time>2024-08-18T09:11:12Z</time>
      </trkpt>
      <trkpt lat="46.51441" lon="0.36391">
        <ele>101.2</ele>
        <time>2024-08-18T09:11:15Z</time>
      </trkpt>
      <trkpt lat="46.5144" lon="0.36404">
        <ele>100.8</ele>
        <time>2024-08-18T09:11:16Z</time>
      </trkpt>
      <trkpt lat="46.51438" lon="0.36418">
        <ele>100.4</ele>
        <time>2024-08-18T09:11:17Z</time>
      </trkpt>
      <trkpt lat="46.51435" lon="0.36432">
        <ele>100</ele>
        <time>2024-08-18T09:11:18Z</time>
      </trkpt>
      <trkpt lat="46.51429" lon="0.36461">
        <ele>99</ele>
        <time>2024-08-18T09:11:20Z</time>
      </trkpt>
      <trkpt lat="46.51424" lon="0.36476">
        <ele>98.2</ele>
        <time>2024-08-18T09:11:21Z</time>
      </trkpt>
      <trkpt lat="46.5142" lon="0.3649">
        <ele>97.6</ele>
        <time>2024-08-18T09:11:22Z</time>
      </trkpt>
      <trkpt lat="46.51415" lon="0.36504">
        <ele>96.6</ele>
        <time>2024-08-18T09:11:23Z</time>
      </trkpt>
      <trkpt lat="46.5141" lon="0.36519">
        <ele>95.2</ele>
        <time>2024-08-18T09:11:24Z</time>
      </trkpt>
      <trkpt lat="46.514" lon="0.36549">
        <ele>93.8</ele>
        <time>2024-08-18T09:11:26Z</time>
      </trkpt>
      <trkpt lat="46.51394" lon="0.36564">
        <ele>93.4</ele>
        <time>2024-08-18T09:11:27Z</time>
      </trkpt>
      <trkpt lat="46.51385" lon="0.36594">
        <ele>92.6</ele>
        <time>2024-08-18T09:11:29Z</time>
      </trkpt>
      <trkpt lat="46.51376" lon="0.3663">
        <ele>90.8</ele>
        <time>2024-08-18T09:11:32Z</time>
      </trkpt>
      <trkpt lat="46.51375" lon="0.36648">
        <ele>89.2</ele>
        <time>2024-08-18T09:11:34Z</time>
      </trkpt>
      <trkpt lat="46.51377" lon="0.36657">
        <ele>88.6</ele>
        <time>2024-08-18T09:11:35Z</time>
      </trkpt>
      <trkpt lat="46.51381" lon="0.36664">
        <ele>88.2</ele>
        <time>2024-08-18T09:11:36Z</time>
      </trkpt>
      <trkpt lat="46.51388" lon="0.36675">
        <ele>87.8</ele>
        <time>2024-08-18T09:11:38Z</time>
      </trkpt>
      <trkpt lat="46.51411" lon="0.36707">
        <ele>87.2</ele>
        <time>2024-08-18T09:11:44Z</time>
      </trkpt>
      <trkpt lat="46.51433" lon="0.36739">
        <ele>87.2</ele>
        <time>2024-08-18T09:11:50Z</time>
      </trkpt>
      <trkpt lat="46.51442" lon="0.3675">
        <ele>86.8</ele>
        <time>2024-08-18T09:11:52Z</time>
      </trkpt>
      <trkpt lat="46.5145" lon="0.36761">
        <ele>86.8</ele>
        <time>2024-08-18T09:11:54Z</time>
      </trkpt>
      <trkpt lat="46.5146" lon="0.36775">
        <ele>86.4</ele>
        <time>2024-08-18T09:11:56Z</time>
      </trkpt>
      <trkpt lat="46.51463" lon="0.36782">
        <ele>86.4</ele>
        <time>2024-08-18T09:11:57Z</time>
      </trkpt>
      <trkpt lat="46.51468" lon="0.36794">
        <ele>86.2</ele>
        <time>2024-08-18T09:11:59Z</time>
      </trkpt>
      <trkpt lat="46.51469" lon="0.36801">
        <ele>86.2</ele>
        <time>2024-08-18T09:12:00Z</time>
      </trkpt>
      <trkpt lat="46.51472" lon="0.36813">
        <ele>86</ele>
        <time>2024-08-18T09:12:02Z</time>
      </trkpt>
      <trkpt lat="46.51473" lon="0.36818">
        <ele>85.8</ele>
        <time>2024-08-18T09:12:03Z</time>
      </trkpt>
      <trkpt lat="46.51473" lon="0.36822">
        <ele>85.6</ele>
        <time>2024-08-18T09:12:04Z</time>
      </trkpt>
      <trkpt lat="46.51473" lon="0.36826">
        <ele>85.2</ele>
        <time>2024-08-18T09:12:05Z</time>
      </trkpt>
      <trkpt lat="46.51472" lon="0.36834">
        <ele>85</ele>
        <time>2024-08-18T09:12:07Z</time>
      </trkpt>
      <trkpt lat="46.51471" lon="0.36836">
        <ele>84.8</ele>
        <time>2024-08-18T09:12:08Z</time>
      </trkpt>
      <trkpt lat="46.51471" lon="0.3684">
        <ele>84.6</ele>
        <time>2024-08-18T09:12:10Z</time>
      </trkpt>
      <trkpt lat="46.51473" lon="0.36842">
        <ele>84.8</ele>
        <time>2024-08-18T09:12:12Z</time>
      </trkpt>
      <trkpt lat="46.51473" lon="0.3685">
        <ele>85.4</ele>
        <time>2024-08-18T09:12:16Z</time>
      </trkpt>
      <trkpt lat="46.51473" lon="0.36856">
        <ele>86.2</ele>
        <time>2024-08-18T09:12:18Z</time>
      </trkpt>
      <trkpt lat="46.51475" lon="0.36866">
        <ele>87.4</ele>
        <time>2024-08-18T09:12:22Z</time>
      </trkpt>
      <trkpt lat="46.51475" lon="0.36868">
        <ele>87.4</ele>
        <time>2024-08-18T09:12:23Z</time>
      </trkpt>
      <trkpt lat="46.51476" lon="0.36872">
        <ele>88</ele>
        <time>2024-08-18T09:12:25Z</time>
      </trkpt>
      <trkpt lat="46.51475" lon="0.36873">
        <ele>88.4</ele>
        <time>2024-08-18T09:12:27Z</time>
      </trkpt>
      <trkpt lat="46.51474" lon="0.36874">
        <ele>88.6</ele>
        <time>2024-08-18T09:12:30Z</time>
      </trkpt>
      <trkpt lat="46.51474" lon="0.36875">
        <ele>88.6</ele>
        <time>2024-08-18T09:12:31Z</time>
      </trkpt>
      <trkpt lat="46.5147" lon="0.36875">
        <ele>88.6</ele>
        <time>2024-08-18T09:12:33Z</time>
      </trkpt>
      <trkpt lat="46.51468" lon="0.36875">
        <ele>88.8</ele>
        <time>2024-08-18T09:12:35Z</time>
      </trkpt>
      <trkpt lat="46.51463" lon="0.36876">
        <ele>89.6</ele>
        <time>2024-08-18T09:12:38Z</time>
      </trkpt>
      <trkpt lat="46.51462" lon="0.36874">
        <ele>90.2</ele>
        <time>2024-08-18T09:12:40Z</time>
      </trkpt>
      <trkpt lat="46.5146" lon="0.36873">
        <ele>90.6</ele>
        <time>2024-08-18T09:12:41Z</time>
      </trkpt>
      <trkpt lat="46.5146" lon="0.36871">
        <ele>91</ele>
        <time>2024-08-18T09:12:42Z</time>
      </trkpt>
      <trkpt lat="46.51457" lon="0.36865">
        <ele>91.8</ele>
        <time>2024-08-18T09:12:46Z</time>
      </trkpt>
      <trkpt lat="46.51454" lon="0.36862">
        <ele>92</ele>
        <time>2024-08-18T09:12:48Z</time>
      </trkpt>
      <trkpt lat="46.51451" lon="0.36861">
        <ele>92.8</ele>
        <time>2024-08-18T09:12:50Z</time>
      </trkpt>
      <trkpt lat="46.51449" lon="0.36861">
        <ele>93</ele>
        <time>2024-08-18T09:12:51Z</time>
      </trkpt>
      <trkpt lat="46.51445" lon="0.3686">
        <ele>93.6</ele>
        <time>2024-08-18T09:12:54Z</time>
      </trkpt>
      <trkpt lat="46.51442" lon="0.3686">
        <ele>94.2</ele>
        <time>2024-08-18T09:12:56Z</time>
      </trkpt>
      <trkpt lat="46.51437" lon="0.3686">
        <ele>95.2</ele>
        <time>2024-08-18T09:13:00Z</time>
      </trkpt>
      <trkpt lat="46.51435" lon="0.3686">
        <ele>95.6</ele>
        <time>2024-08-18T09:13:01Z</time>
      </trkpt>
      <trkpt lat="46.51433" lon="0.36858">
        <ele>96.2</ele>
        <time>2024-08-18T09:13:03Z</time>
      </trkpt>
      <trkpt lat="46.51426" lon="0.36856">
        <ele>97.4</ele>
        <time>2024-08-18T09:13:08Z</time>
      </trkpt>
      <trkpt lat="46.51417" lon="0.36855">
        <ele>98.4</ele>
        <time>2024-08-18T09:13:14Z</time>
      </trkpt>
      <trkpt lat="46.51409" lon="0.36851">
        <ele>99.8</ele>
        <time>2024-08-18T09:13:19Z</time>
      </trkpt>
      <trkpt lat="46.51406" lon="0.36851">
        <ele>100</ele>
        <time>2024-08-18T09:13:21Z</time>
      </trkpt>
      <trkpt lat="46.51404" lon="0.36849">
        <ele>100.8</ele>
        <time>2024-08-18T09:13:23Z</time>
      </trkpt>
      <trkpt lat="46.51395" lon="0.36844">
        <ele>101.8</ele>
        <time>2024-08-18T09:13:29Z</time>
      </trkpt>
      <trkpt lat="46.51393" lon="0.36842">
        <ele>101.8</ele>
        <time>2024-08-18T09:13:31Z</time>
      </trkpt>
      <trkpt lat="46.51391" lon="0.36841">
        <ele>102</ele>
        <time>2024-08-18T09:13:32Z</time>
      </trkpt>
      <trkpt lat="46.51385" lon="0.3684">
        <ele>102.6</ele>
        <time>2024-08-18T09:13:36Z</time>
      </trkpt>
      <trkpt lat="46.51383" lon="0.3684">
        <ele>102.8</ele>
        <time>2024-08-18T09:13:37Z</time>
      </trkpt>
      <trkpt lat="46.51371" lon="0.36835">
        <ele>104</ele>
        <time>2024-08-18T09:13:43Z</time>
      </trkpt>
      <trkpt lat="46.51362" lon="0.36832">
        <ele>104.6</ele>
        <time>2024-08-18T09:13:49Z</time>
      </trkpt>
      <trkpt lat="46.5136" lon="0.36832">
        <ele>105</ele>
        <time>2024-08-18T09:13:51Z</time>
      </trkpt>
      <trkpt lat="46.51354" lon="0.36832">
        <ele>106</ele>
        <time>2024-08-18T09:13:55Z</time>
      </trkpt>
      <trkpt lat="46.51351" lon="0.36831">
        <ele>106</ele>
        <time>2024-08-18T09:13:56Z</time>
      </trkpt>
      <trkpt lat="46.51348" lon="0.36829">
        <ele>106.2</ele>
        <time>2024-08-18T09:13:58Z</time>
      </trkpt>
      <trkpt lat="46.51341" lon="0.36825">
        <ele>107.2</ele>
        <time>2024-08-18T09:14:02Z</time>
      </trkpt>
      <trkpt lat="46.51334" lon="0.36821">
        <ele>107.6</ele>
        <time>2024-08-18T09:14:05Z</time>
      </trkpt>
      <trkpt lat="46.51329" lon="0.36819">
        <ele>108</ele>
        <time>2024-08-18T09:14:07Z</time>
      </trkpt>
      <trkpt lat="46.51327" lon="0.36819">
        <ele>108.2</ele>
        <time>2024-08-18T09:14:08Z</time>
      </trkpt>
      <trkpt lat="46.51323" lon="0.36818">
        <ele>108.4</ele>
        <time>2024-08-18T09:14:10Z</time>
      </trkpt>
      <trkpt lat="46.51313" lon="0.36818">
        <ele>109.4</ele>
        <time>2024-08-18T09:14:15Z</time>
      </trkpt>
      <trkpt lat="46.5131" lon="0.36816">
        <ele>109.8</ele>
        <time>2024-08-18T09:14:17Z</time>
      </trkpt>
      <trkpt lat="46.51301" lon="0.36815">
        <ele>110.4</ele>
        <time>2024-08-18T09:14:21Z</time>
      </trkpt>
      <trkpt lat="46.51297" lon="0.36813">
        <ele>110.6</ele>
        <time>2024-08-18T09:14:23Z</time>
      </trkpt>
      <trkpt lat="46.51287" lon="0.36813">
        <ele>111.2</ele>
        <time>2024-08-18T09:14:27Z</time>
      </trkpt>
      <trkpt lat="46.51281" lon="0.36811">
        <ele>111.2</ele>
        <time>2024-08-18T09:14:29Z</time>
      </trkpt>
      <trkpt lat="46.51275" lon="0.36811">
        <ele>111.4</ele>
        <time>2024-08-18T09:14:33Z</time>
      </trkpt>
      <trkpt lat="46.51272" lon="0.36811">
        <ele>111.4</ele>
        <time>2024-08-18T09:14:34Z</time>
      </trkpt>
      <trkpt lat="46.5127" lon="0.36811">
        <ele>111.6</ele>
        <time>2024-08-18T09:14:36Z</time>
      </trkpt>
      <trkpt lat="46.51268" lon="0.3681">
        <ele>111.8</ele>
        <time>2024-08-18T09:14:38Z</time>
      </trkpt>
      <trkpt lat="46.51267" lon="0.36809">
        <ele>111.8</ele>
        <time>2024-08-18T09:14:39Z</time>
      </trkpt>
      <trkpt lat="46.51256" lon="0.36807">
        <ele>111.8</ele>
        <time>2024-08-18T09:14:46Z</time>
      </trkpt>
      <trkpt lat="46.51239" lon="0.36809">
        <ele>112.2</ele>
        <time>2024-08-18T09:14:53Z</time>
      </trkpt>
      <trkpt lat="46.5123" lon="0.36806">
        <ele>112.6</ele>
        <time>2024-08-18T09:14:57Z</time>
      </trkpt>
      <trkpt lat="46.51226" lon="0.36805">
        <ele>112.6</ele>
        <time>2024-08-18T09:14:59Z</time>
      </trkpt>
      <trkpt lat="46.51215" lon="0.36807">
        <ele>113.4</ele>
        <time>2024-08-18T09:15:05Z</time>
      </trkpt>
      <trkpt lat="46.51199" lon="0.36804">
        <ele>113.4</ele>
        <time>2024-08-18T09:15:10Z</time>
      </trkpt>
      <trkpt lat="46.51184" lon="0.36804">
        <ele>113.4</ele>
        <time>2024-08-18T09:15:15Z</time>
      </trkpt>
      <trkpt lat="46.51178" lon="0.36811">
        <ele>113.6</ele>
        <time>2024-08-18T09:15:18Z</time>
      </trkpt>
      <trkpt lat="46.51175" lon="0.36814">
        <ele>113.8</ele>
        <time>2024-08-18T09:15:20Z</time>
      </trkpt>
      <trkpt lat="46.51162" lon="0.36818">
        <ele>114</ele>
        <time>2024-08-18T09:15:26Z</time>
      </trkpt>
      <trkpt lat="46.51156" lon="0.36824">
        <ele>114.6</ele>
        <time>2024-08-18T09:15:30Z</time>
      </trkpt>
      <trkpt lat="46.51153" lon="0.36827">
        <ele>114.8</ele>
        <time>2024-08-18T09:15:32Z</time>
      </trkpt>
      <trkpt lat="46.51146" lon="0.36833">
        <ele>115.2</ele>
        <time>2024-08-18T09:15:37Z</time>
      </trkpt>
      <trkpt lat="46.51144" lon="0.36838">
        <ele>115.2</ele>
        <time>2024-08-18T09:15:40Z</time>
      </trkpt>
      <trkpt lat="46.51143" lon="0.36839">
        <ele>115.2</ele>
        <time>2024-08-18T09:15:41Z</time>
      </trkpt>
      <trkpt lat="46.51138" lon="0.36844">
        <ele>115.4</ele>
        <time>2024-08-18T09:15:45Z</time>
      </trkpt>
      <trkpt lat="46.51134" lon="0.36851">
        <ele>115.4</ele>
        <time>2024-08-18T09:15:48Z</time>
      </trkpt>
      <trkpt lat="46.51132" lon="0.36859">
        <ele>115.6</ele>
        <time>2024-08-18T09:15:51Z</time>
      </trkpt>
      <trkpt lat="46.51128" lon="0.36875">
        <ele>115.8</ele>
        <time>2024-08-18T09:15:55Z</time>
      </trkpt>
      <trkpt lat="46.51127" lon="0.36903">
        <ele>116.2</ele>
        <time>2024-08-18T09:16:02Z</time>
      </trkpt>
      <trkpt lat="46.5113" lon="0.36926">
        <ele>116.2</ele>
        <time>2024-08-18T09:16:08Z</time>
      </trkpt>
      <trkpt lat="46.51131" lon="0.3695">
        <ele>116</ele>
        <time>2024-08-18T09:16:15Z</time>
      </trkpt>
      <trkpt lat="46.51131" lon="0.36969">
        <ele>116</ele>
        <time>2024-08-18T09:16:19Z</time>
      </trkpt>
      <trkpt lat="46.51127" lon="0.36978">
        <ele>116.2</ele>
        <time>2024-08-18T09:16:21Z</time>
      </trkpt>
      <trkpt lat="46.51119" lon="0.36986">
        <ele>116.2</ele>
        <time>2024-08-18T09:16:25Z</time>
      </trkpt>
      <trkpt lat="46.51104" lon="0.36989">
        <ele>116.6</ele>
        <time>2024-08-18T09:16:30Z</time>
      </trkpt>
      <trkpt lat="46.51102" lon="0.36987">
        <ele>116.8</ele>
        <time>2024-08-18T09:16:31Z</time>
      </trkpt>
      <trkpt lat="46.51099" lon="0.3698">
        <ele>116.8</ele>
        <time>2024-08-18T09:16:34Z</time>
      </trkpt>
      <trkpt lat="46.51095" lon="0.36963">
        <ele>116.8</ele>
        <time>2024-08-18T09:16:40Z</time>
      </trkpt>
      <trkpt lat="46.5109" lon="0.36943">
        <ele>116.6</ele>
        <time>2024-08-18T09:16:45Z</time>
      </trkpt>
      <trkpt lat="46.51089" lon="0.36941">
        <ele>116.8</ele>
        <time>2024-08-18T09:16:46Z</time>
      </trkpt>
      <trkpt lat="46.51088" lon="0.36935">
        <ele>116.8</ele>
        <time>2024-08-18T09:16:50Z</time>
      </trkpt>
      <trkpt lat="46.5109" lon="0.36924">
        <ele>116.2</ele>
        <time>2024-08-18T09:16:56Z</time>
      </trkpt>
      <trkpt lat="46.51091" lon="0.3692">
        <ele>116.2</ele>
        <time>2024-08-18T09:16:58Z</time>
      </trkpt>
      <trkpt lat="46.51094" lon="0.36916">
        <ele>116</ele>
        <time>2024-08-18T09:17:02Z</time>
      </trkpt>
      <trkpt lat="46.51094" lon="0.36916">
        <ele>116.2</ele>
        <time>2024-08-18T09:17:03Z</time>
      </trkpt>
      <trkpt lat="46.51101" lon="0.36917">
        <ele>116.2</ele>
        <time>2024-08-18T09:17:09Z</time>
      </trkpt>
      <trkpt lat="46.51104" lon="0.36914">
        <ele>116.2</ele>
        <time>2024-08-18T09:17:11Z</time>
      </trkpt>
      <trkpt lat="46.51105" lon="0.36907">
        <ele>116.2</ele>
        <time>2024-08-18T09:17:14Z</time>
      </trkpt>
      <trkpt lat="46.51103" lon="0.36884">
        <ele>115.6</ele>
        <time>2024-08-18T09:17:21Z</time>
      </trkpt>
      <trkpt lat="46.51105" lon="0.36865">
        <ele>115</ele>
        <time>2024-08-18T09:17:27Z</time>
      </trkpt>
      <trkpt lat="46.5111" lon="0.36853">
        <ele>114.6</ele>
        <time>2024-08-18T09:17:33Z</time>
      </trkpt>
      <trkpt lat="46.5111" lon="0.36852">
        <ele>114.6</ele>
        <time>2024-08-18T09:17:34Z</time>
      </trkpt>
      <trkpt lat="46.51118" lon="0.3684">
        <ele>114.6</ele>
        <time>2024-08-18T09:17:41Z</time>
      </trkpt>
      <trkpt lat="46.51126" lon="0.36834">
        <ele>114.2</ele>
        <time>2024-08-18T09:17:43Z</time>
      </trkpt>
      <trkpt lat="46.51134" lon="0.36828">
        <ele>114</ele>
        <time>2024-08-18T09:17:47Z</time>
      </trkpt>
      <trkpt lat="46.51143" lon="0.36814">
        <ele>113.6</ele>
        <time>2024-08-18T09:17:51Z</time>
      </trkpt>
      <trkpt lat="46.51146" lon="0.36812">
        <ele>113.4</ele>
        <time>2024-08-18T09:17:52Z</time>
      </trkpt>
      <trkpt lat="46.5115" lon="0.36811">
        <ele>113.2</ele>
        <time>2024-08-18T09:17:53Z</time>
      </trkpt>
      <trkpt lat="46.5116" lon="0.36809">
        <ele>112.6</ele>
        <time>2024-08-18T09:17:56Z</time>
      </trkpt>
      <trkpt lat="46.51162" lon="0.36809">
        <ele>112.4</ele>
        <time>2024-08-18T09:17:57Z</time>
      </trkpt>
      <trkpt lat="46.51166" lon="0.3681">
        <ele>112.2</ele>
        <time>2024-08-18T09:17:58Z</time>
      </trkpt>
      <trkpt lat="46.51175" lon="0.3681">
        <ele>112.4</ele>
        <time>2024-08-18T09:18:02Z</time>
      </trkpt>
      <trkpt lat="46.51182" lon="0.36806">
        <ele>112.2</ele>
        <time>2024-08-18T09:18:06Z</time>
      </trkpt>
      <trkpt lat="46.51188" lon="0.36808">
        <ele>112</ele>
        <time>2024-08-18T09:18:08Z</time>
      </trkpt>
      <trkpt lat="46.51193" lon="0.36809">
        <ele>111.8</ele>
        <time>2024-08-18T09:18:10Z</time>
      </trkpt>
      <trkpt lat="46.51205" lon="0.36809">
        <ele>111.8</ele>
        <time>2024-08-18T09:18:14Z</time>
      </trkpt>
      <trkpt lat="46.51215" lon="0.36807">
        <ele>111.6</ele>
        <time>2024-08-18T09:18:17Z</time>
      </trkpt>
      <trkpt lat="46.51219" lon="0.36807">
        <ele>111.4</ele>
        <time>2024-08-18T09:18:19Z</time>
      </trkpt>
      <trkpt lat="46.51221" lon="0.36807">
        <ele>111.4</ele>
        <time>2024-08-18T09:18:20Z</time>
      </trkpt>
      <trkpt lat="46.5123" lon="0.36809">
        <ele>111.2</ele>
        <time>2024-08-18T09:18:27Z</time>
      </trkpt>
      <trkpt lat="46.51239" lon="0.36808">
        <ele>110.8</ele>
        <time>2024-08-18T09:18:35Z</time>
      </trkpt>
      <trkpt lat="46.51241" lon="0.36809">
        <ele>110.8</ele>
        <time>2024-08-18T09:18:36Z</time>
      </trkpt>
      <trkpt lat="46.51245" lon="0.3681">
        <ele>110.6</ele>
        <time>2024-08-18T09:18:38Z</time>
      </trkpt>
      <trkpt lat="46.51254" lon="0.36808">
        <ele>110.4</ele>
        <time>2024-08-18T09:18:42Z</time>
      </trkpt>
      <trkpt lat="46.51267" lon="0.3681">
        <ele>110.4</ele>
        <time>2024-08-18T09:18:47Z</time>
      </trkpt>
      <trkpt lat="46.5127" lon="0.3681">
        <ele>110.2</ele>
        <time>2024-08-18T09:18:48Z</time>
      </trkpt>
      <trkpt lat="46.51277" lon="0.3681">
        <ele>110.2</ele>
        <time>2024-08-18T09:18:50Z</time>
      </trkpt>
      <trkpt lat="46.51283" lon="0.36809">
        <ele>110</ele>
        <time>2024-08-18T09:18:52Z</time>
      </trkpt>
      <trkpt lat="46.51286" lon="0.36809">
        <ele>109.2</ele>
        <time>2024-08-18T09:18:53Z</time>
      </trkpt>
      <trkpt lat="46.51291" lon="0.3681">
        <ele>108.2</ele>
        <time>2024-08-18T09:18:55Z</time>
      </trkpt>
      <trkpt lat="46.51303" lon="0.36816">
        <ele>107</ele>
        <time>2024-08-18T09:18:59Z</time>
      </trkpt>
      <trkpt lat="46.51312" lon="0.36816">
        <ele>106</ele>
        <time>2024-08-18T09:19:02Z</time>
      </trkpt>
      <trkpt lat="46.51315" lon="0.36816">
        <ele>105.6</ele>
        <time>2024-08-18T09:19:03Z</time>
      </trkpt>
      <trkpt lat="46.51319" lon="0.36818">
        <ele>105.2</ele>
        <time>2024-08-18T09:19:04Z</time>
      </trkpt>
      <trkpt lat="46.51326" lon="0.3682">
        <ele>104.4</ele>
        <time>2024-08-18T09:19:06Z</time>
      </trkpt>
      <trkpt lat="46.51332" lon="0.36825">
        <ele>103.4</ele>
        <time>2024-08-18T09:19:09Z</time>
      </trkpt>
      <trkpt lat="46.51349" lon="0.3683">
        <ele>102.4</ele>
        <time>2024-08-18T09:19:15Z</time>
      </trkpt>
      <trkpt lat="46.51352" lon="0.36831">
        <ele>102</ele>
        <time>2024-08-18T09:19:16Z</time>
      </trkpt>
      <trkpt lat="46.51361" lon="0.36835">
        <ele>100.4</ele>
        <time>2024-08-18T09:19:19Z</time>
      </trkpt>
      <trkpt lat="46.51368" lon="0.3684">
        <ele>99</ele>
        <time>2024-08-18T09:19:21Z</time>
      </trkpt>
      <trkpt lat="46.51375" lon="0.36843">
        <ele>98.4</ele>
        <time>2024-08-18T09:19:23Z</time>
      </trkpt>
      <trkpt lat="46.51379" lon="0.36844">
        <ele>98</ele>
        <time>2024-08-18T09:19:24Z</time>
      </trkpt>
      <trkpt lat="46.51388" lon="0.36844">
        <ele>96.6</ele>
        <time>2024-08-18T09:19:26Z</time>
      </trkpt>
      <trkpt lat="46.51396" lon="0.36846">
        <ele>95.6</ele>
        <time>2024-08-18T09:19:28Z</time>
      </trkpt>
      <trkpt lat="46.51398" lon="0.36848">
        <ele>94.4</ele>
        <time>2024-08-18T09:19:29Z</time>
      </trkpt>
      <trkpt lat="46.51401" lon="0.36852">
        <ele>93.4</ele>
        <time>2024-08-18T09:19:30Z</time>
      </trkpt>
      <trkpt lat="46.51403" lon="0.36854">
        <ele>92.6</ele>
        <time>2024-08-18T09:19:31Z</time>
      </trkpt>
      <trkpt lat="46.51405" lon="0.36858">
        <ele>92</ele>
        <time>2024-08-18T09:19:32Z</time>
      </trkpt>
      <trkpt lat="46.5141" lon="0.36864">
        <ele>91.4</ele>
        <time>2024-08-18T09:19:34Z</time>
      </trkpt>
      <trkpt lat="46.51418" lon="0.36874">
        <ele>90</ele>
        <time>2024-08-18T09:19:37Z</time>
      </trkpt>
      <trkpt lat="46.51422" lon="0.36879">
        <ele>88.6</ele>
        <time>2024-08-18T09:19:39Z</time>
      </trkpt>
      <trkpt lat="46.51427" lon="0.36885">
        <ele>87.8</ele>
        <time>2024-08-18T09:19:41Z</time>
      </trkpt>
      <trkpt lat="46.51431" lon="0.36889">
        <ele>87.2</ele>
        <time>2024-08-18T09:19:42Z</time>
      </trkpt>
      <trkpt lat="46.51438" lon="0.36895">
        <ele>86.6</ele>
        <time>2024-08-18T09:19:43Z</time>
      </trkpt>
      <trkpt lat="46.51443" lon="0.36898">
        <ele>85.2</ele>
        <time>2024-08-18T09:19:44Z</time>
      </trkpt>
      <trkpt lat="46.51447" lon="0.36901">
        <ele>84.2</ele>
        <time>2024-08-18T09:19:45Z</time>
      </trkpt>
      <trkpt lat="46.51451" lon="0.36905">
        <ele>83.6</ele>
        <time>2024-08-18T09:19:46Z</time>
      </trkpt>
      <trkpt lat="46.51455" lon="0.36913">
        <ele>82.4</ele>
        <time>2024-08-18T09:19:48Z</time>
      </trkpt>
      <trkpt lat="46.51457" lon="0.36916">
        <ele>82</ele>
        <time>2024-08-18T09:19:49Z</time>
      </trkpt>
      <trkpt lat="46.51456" lon="0.36919">
        <ele>81.8</ele>
        <time>2024-08-18T09:19:50Z</time>
      </trkpt>
      <trkpt lat="46.51462" lon="0.36928">
        <ele>81.4</ele>
        <time>2024-08-18T09:19:54Z</time>
      </trkpt>
      <trkpt lat="46.51462" lon="0.3693">
        <ele>81.4</ele>
        <time>2024-08-18T09:19:55Z</time>
      </trkpt>
      <trkpt lat="46.5147" lon="0.36939">
        <ele>81.2</ele>
        <time>2024-08-18T09:20:01Z</time>
      </trkpt>
      <trkpt lat="46.51472" lon="0.36957">
        <ele>81.2</ele>
        <time>2024-08-18T09:20:06Z</time>
      </trkpt>
      <trkpt lat="46.51472" lon="0.36964">
        <ele>81</ele>
        <time>2024-08-18T09:20:08Z</time>
      </trkpt>
      <trkpt lat="46.51475" lon="0.36973">
        <ele>81.2</ele>
        <time>2024-08-18T09:20:10Z</time>
      </trkpt>
      <trkpt lat="46.51478" lon="0.36996">
        <ele>82</ele>
        <time>2024-08-18T09:20:15Z</time>
      </trkpt>
      <trkpt lat="46.51484" lon="0.37023">
        <ele>82.2</ele>
        <time>2024-08-18T09:20:20Z</time>
      </trkpt>
      <trkpt lat="46.51487" lon="0.3703">
        <ele>82.2</ele>
        <time>2024-08-18T09:20:21Z</time>
      </trkpt>
      <trkpt lat="46.51492" lon="0.37042">
        <ele>82.2</ele>
        <time>2024-08-18T09:20:23Z</time>
      </trkpt>
      <trkpt lat="46.51497" lon="0.37053">
        <ele>82.2</ele>
        <time>2024-08-18T09:20:25Z</time>
      </trkpt>
      <trkpt lat="46.515" lon="0.37062">
        <ele>82.2</ele>
        <time>2024-08-18T09:20:27Z</time>
      </trkpt>
      <trkpt lat="46.51505" lon="0.37079">
        <ele>82.4</ele>
        <time>2024-08-18T09:20:30Z</time>
      </trkpt>
      <trkpt lat="46.51511" lon="0.37091">
        <ele>82.4</ele>
        <time>2024-08-18T09:20:32Z</time>
      </trkpt>
      <trkpt lat="46.51514" lon="0.37108">
        <ele>81.4</ele>
        <time>2024-08-18T09:20:34Z</time>
      </trkpt>
      <trkpt lat="46.51526" lon="0.37142">
        <ele>79.8</ele>
        <time>2024-08-18T09:20:37Z</time>
      </trkpt>
      <trkpt lat="46.51526" lon="0.37153">
        <ele>79.4</ele>
        <time>2024-08-18T09:20:38Z</time>
      </trkpt>
      <trkpt lat="46.51527" lon="0.37165">
        <ele>78.8</ele>
        <time>2024-08-18T09:20:39Z</time>
      </trkpt>
      <trkpt lat="46.51525" lon="0.37177">
        <ele>78.2</ele>
        <time>2024-08-18T09:20:40Z</time>
      </trkpt>
      <trkpt lat="46.51525" lon="0.37188">
        <ele>77.6</ele>
        <time>2024-08-18T09:20:41Z</time>
      </trkpt>
      <trkpt lat="46.51525" lon="0.372">
        <ele>77.2</ele>
        <time>2024-08-18T09:20:42Z</time>
      </trkpt>
      <trkpt lat="46.51525" lon="0.37221">
        <ele>77</ele>
        <time>2024-08-18T09:20:44Z</time>
      </trkpt>
      <trkpt lat="46.51528" lon="0.37238">
        <ele>77</ele>
        <time>2024-08-18T09:20:46Z</time>
      </trkpt>
      <trkpt lat="46.51533" lon="0.37266">
        <ele>77</ele>
        <time>2024-08-18T09:20:50Z</time>
      </trkpt>
      <trkpt lat="46.51534" lon="0.37272">
        <ele>77</ele>
        <time>2024-08-18T09:20:51Z</time>
      </trkpt>
      <trkpt lat="46.51533" lon="0.37276">
        <ele>77.2</ele>
        <time>2024-08-18T09:20:52Z</time>
      </trkpt>
      <trkpt lat="46.51531" lon="0.37287">
        <ele>77.6</ele>
        <time>2024-08-18T09:20:55Z</time>
      </trkpt>
      <trkpt lat="46.51531" lon="0.37296">
        <ele>78.8</ele>
        <time>2024-08-18T09:20:58Z</time>
      </trkpt>
      <trkpt lat="46.51532" lon="0.373">
        <ele>79.8</ele>
        <time>2024-08-18T09:21:00Z</time>
      </trkpt>
      <trkpt lat="46.51533" lon="0.37303">
        <ele>80.2</ele>
        <time>2024-08-18T09:21:01Z</time>
      </trkpt>
      <trkpt lat="46.51534" lon="0.37307">
        <ele>81</ele>
        <time>2024-08-18T09:21:03Z</time>
      </trkpt>
      <trkpt lat="46.51533" lon="0.37308">
        <ele>82</ele>
        <time>2024-08-18T09:21:05Z</time>
      </trkpt>
      <trkpt lat="46.5153" lon="0.37312">
        <ele>83.4</ele>
        <time>2024-08-18T09:21:08Z</time>
      </trkpt>
      <trkpt lat="46.51529" lon="0.37316">
        <ele>84.6</ele>
        <time>2024-08-18T09:21:11Z</time>
      </trkpt>
      <trkpt lat="46.51528" lon="0.37321">
        <ele>85.2</ele>
        <time>2024-08-18T09:21:14Z</time>
      </trkpt>
      <trkpt lat="46.51526" lon="0.37323">
        <ele>85.6</ele>
        <time>2024-08-18T09:21:15Z</time>
      </trkpt>
      <trkpt lat="46.51523" lon="0.37325">
        <ele>86.4</ele>
        <time>2024-08-18T09:21:17Z</time>
      </trkpt>
      <trkpt lat="46.51522" lon="0.37326">
        <ele>86.6</ele>
        <time>2024-08-18T09:21:18Z</time>
      </trkpt>
      <trkpt lat="46.51521" lon="0.3733">
        <ele>87.8</ele>
        <time>2024-08-18T09:21:22Z</time>
      </trkpt>
      <trkpt lat="46.51521" lon="0.37331">
        <ele>88</ele>
        <time>2024-08-18T09:21:23Z</time>
      </trkpt>
      <trkpt lat="46.51521" lon="0.37332">
        <ele>88.8</ele>
        <time>2024-08-18T09:21:25Z</time>
      </trkpt>
      <trkpt lat="46.5152" lon="0.37333">
        <ele>89.2</ele>
        <time>2024-08-18T09:21:26Z</time>
      </trkpt>
      <trkpt lat="46.5152" lon="0.37333">
        <ele>89.4</ele>
        <time>2024-08-18T09:21:27Z</time>
      </trkpt>
      <trkpt lat="46.51518" lon="0.37335">
        <ele>90</ele>
        <time>2024-08-18T09:21:30Z</time>
      </trkpt>
      <trkpt lat="46.51518" lon="0.37336">
        <ele>90.4</ele>
        <time>2024-08-18T09:21:31Z</time>
      </trkpt>
      <trkpt lat="46.51516" lon="0.37338">
        <ele>91</ele>
        <time>2024-08-18T09:21:34Z</time>
      </trkpt>
      <trkpt lat="46.51514" lon="0.37339">
        <ele>91.2</ele>
        <time>2024-08-18T09:21:35Z</time>
      </trkpt>
      <trkpt lat="46.51511" lon="0.37342">
        <ele>92</ele>
        <time>2024-08-18T09:21:38Z</time>
      </trkpt>
      <trkpt lat="46.5151" lon="0.37343">
        <ele>92.4</ele>
        <time>2024-08-18T09:21:39Z</time>
      </trkpt>
      <trkpt lat="46.51508" lon="0.37344">
        <ele>92.8</ele>
        <time>2024-08-18T09:21:41Z</time>
      </trkpt>
      <trkpt lat="46.51507" lon="0.37345">
        <ele>93</ele>
        <time>2024-08-18T09:21:42Z</time>
      </trkpt>
      <trkpt lat="46.51505" lon="0.37346">
        <ele>93.4</ele>
        <time>2024-08-18T09:21:44Z</time>
      </trkpt>
      <trkpt lat="46.51504" lon="0.37346">
        <ele>93.8</ele>
        <time>2024-08-18T09:21:45Z</time>
      </trkpt>
      <trkpt lat="46.51501" lon="0.37346">
        <ele>94.6</ele>
        <time>2024-08-18T09:21:48Z</time>
      </trkpt>
      <trkpt lat="46.51501" lon="0.37345">
        <ele>94.6</ele>
        <time>2024-08-18T09:21:49Z</time>
      </trkpt>
      <trkpt lat="46.515" lon="0.37345">
        <ele>94.8</ele>
        <time>2024-08-18T09:21:50Z</time>
      </trkpt>
      <trkpt lat="46.51498" lon="0.37345">
        <ele>95.6</ele>
        <time>2024-08-18T09:21:52Z</time>
      </trkpt>
      <trkpt lat="46.51497" lon="0.37345">
        <ele>95.8</ele>
        <time>2024-08-18T09:21:53Z</time>
      </trkpt>
      <trkpt lat="46.51496" lon="0.37345">
        <ele>96</ele>
        <time>2024-08-18T09:21:54Z</time>
      </trkpt>
      <trkpt lat="46.51494" lon="0.37345">
        <ele>96.2</ele>
        <time>2024-08-18T09:21:56Z</time>
      </trkpt>
      <trkpt lat="46.51493" lon="0.37345">
        <ele>96.4</ele>
        <time>2024-08-18T09:21:57Z</time>
      </trkpt>
      <trkpt lat="46.51489" lon="0.37343">
        <ele>97.2</ele>
        <time>2024-08-18T09:22:01Z</time>
      </trkpt>
      <trkpt lat="46.51488" lon="0.37342">
        <ele>97.6</ele>
        <time>2024-08-18T09:22:02Z</time>
      </trkpt>
      <trkpt lat="46.51485" lon="0.37341">
        <ele>98</ele>
        <time>2024-08-18T09:22:04Z</time>
      </trkpt>
      <trkpt lat="46.51483" lon="0.3734">
        <ele>98.4</ele>
        <time>2024-08-18T09:22:06Z</time>
      </trkpt>
      <trkpt lat="46.51482" lon="0.3734">
        <ele>98.6</ele>
        <time>2024-08-18T09:22:08Z</time>
      </trkpt>
      <trkpt lat="46.5148" lon="0.37339">
        <ele>99.2</ele>
        <time>2024-08-18T09:22:11Z</time>
      </trkpt>
      <trkpt lat="46.51479" lon="0.37339">
        <ele>99.8</ele>
        <time>2024-08-18T09:22:12Z</time>
      </trkpt>
      <trkpt lat="46.51478" lon="0.37339">
        <ele>100.2</ele>
        <time>2024-08-18T09:22:14Z</time>
      </trkpt>
      <trkpt lat="46.51477" lon="0.37339">
        <ele>100.8</ele>
        <time>2024-08-18T09:22:16Z</time>
      </trkpt>
      <trkpt lat="46.51474" lon="0.37338">
        <ele>101.2</ele>
        <time>2024-08-18T09:22:19Z</time>
      </trkpt>
      <trkpt lat="46.51472" lon="0.37338">
        <ele>101.2</ele>
        <time>2024-08-18T09:22:20Z</time>
      </trkpt>
      <trkpt lat="46.51471" lon="0.37337">
        <ele>101.2</ele>
        <time>2024-08-18T09:22:27Z</time>
      </trkpt>
      <trkpt lat="46.5147" lon="0.37339">
        <ele>101</ele>
        <time>2024-08-18T09:22:30Z</time>
      </trkpt>
      <trkpt lat="46.51469" lon="0.37342">
        <ele>101.2</ele>
        <time>2024-08-18T09:22:33Z</time>
      </trkpt>
      <trkpt lat="46.51467" lon="0.37346">
        <ele>101.2</ele>
        <time>2024-08-18T09:22:36Z</time>
      </trkpt>
      <trkpt lat="46.51465" lon="0.37347">
        <ele>101</ele>
        <time>2024-08-18T09:22:40Z</time>
      </trkpt>
      <trkpt lat="46.51458" lon="0.37354">
        <ele>101.2</ele>
        <time>2024-08-18T09:22:49Z</time>
      </trkpt>
      <trkpt lat="46.51457" lon="0.37357">
        <ele>101.2</ele>
        <time>2024-08-18T09:22:51Z</time>
      </trkpt>
      <trkpt lat="46.51455" lon="0.37366">
        <ele>101.2</ele>
        <time>2024-08-18T09:22:57Z</time>
      </trkpt>
      <trkpt lat="46.51456" lon="0.37377">
        <ele>101.8</ele>
        <time>2024-08-18T09:23:04Z</time>
      </trkpt>
      <trkpt lat="46.51456" lon="0.3738">
        <ele>102</ele>
        <time>2024-08-18T09:23:06Z</time>
      </trkpt>
      <trkpt lat="46.51455" lon="0.37386">
        <ele>102</ele>
        <time>2024-08-18T09:23:10Z</time>
      </trkpt>
      <trkpt lat="46.51455" lon="0.37392">
        <ele>102.4</ele>
        <time>2024-08-18T09:23:14Z</time>
      </trkpt>
      <trkpt lat="46.51453" lon="0.37398">
        <ele>102.8</ele>
        <time>2024-08-18T09:23:18Z</time>
      </trkpt>
      <trkpt lat="46.51453" lon="0.37399">
        <ele>103</ele>
        <time>2024-08-18T09:23:19Z</time>
      </trkpt>
      <trkpt lat="46.5145" lon="0.37405">
        <ele>103.6</ele>
        <time>2024-08-18T09:23:23Z</time>
      </trkpt>
      <trkpt lat="46.51448" lon="0.37409">
        <ele>104</ele>
        <time>2024-08-18T09:23:25Z</time>
      </trkpt>
      <trkpt lat="46.51447" lon="0.37415">
        <ele>104.6</ele>
        <time>2024-08-18T09:23:28Z</time>
      </trkpt>
      <trkpt lat="46.51448" lon="0.37424">
        <ele>105</ele>
        <time>2024-08-18T09:23:32Z</time>
      </trkpt>
      <trkpt lat="46.51449" lon="0.37426">
        <ele>105.2</ele>
        <time>2024-08-18T09:23:34Z</time>
      </trkpt>
      <trkpt lat="46.51453" lon="0.37428">
        <ele>105</ele>
        <time>2024-08-18T09:23:37Z</time>
      </trkpt>
      <trkpt lat="46.51457" lon="0.3743">
        <ele>104.8</ele>
        <time>2024-08-18T09:23:39Z</time>
      </trkpt>
      <trkpt lat="46.51461" lon="0.37432">
        <ele>104.4</ele>
        <time>2024-08-18T09:23:41Z</time>
      </trkpt>
      <trkpt lat="46.51466" lon="0.37432">
        <ele>104</ele>
        <time>2024-08-18T09:23:43Z</time>
      </trkpt>
      <trkpt lat="46.51467" lon="0.37431">
        <ele>103.8</ele>
        <time>2024-08-18T09:23:44Z</time>
      </trkpt>
      <trkpt lat="46.51469" lon="0.37431">
        <ele>103.4</ele>
        <time>2024-08-18T09:23:45Z</time>
      </trkpt>
      <trkpt lat="46.51471" lon="0.37431">
        <ele>102.4</ele>
        <time>2024-08-18T09:23:46Z</time>
      </trkpt>
      <trkpt lat="46.51476" lon="0.37438">
        <ele>101.4</ele>
        <time>2024-08-18T09:23:49Z</time>
      </trkpt>
      <trkpt lat="46.51477" lon="0.3744">
        <ele>101.4</ele>
        <time>2024-08-18T09:23:50Z</time>
      </trkpt>
      <trkpt lat="46.51479" lon="0.37444">
        <ele>101.4</ele>
        <time>2024-08-18T09:23:52Z</time>
      </trkpt>
      <trkpt lat="46.51481" lon="0.37449">
        <ele>101.4</ele>
        <time>2024-08-18T09:23:54Z</time>
      </trkpt>
      <trkpt lat="46.51482" lon="0.37449">
        <ele>101.4</ele>
        <time>2024-08-18T09:23:55Z</time>
      </trkpt>
      <trkpt lat="46.51489" lon="0.37449">
        <ele>101.4</ele>
        <time>2024-08-18T09:23:58Z</time>
      </trkpt>
      <trkpt lat="46.51489" lon="0.3745">
        <ele>101.2</ele>
        <time>2024-08-18T09:23:59Z</time>
      </trkpt>
      <trkpt lat="46.5149" lon="0.37452">
        <ele>101.4</ele>
        <time>2024-08-18T09:24:01Z</time>
      </trkpt>
      <trkpt lat="46.5149" lon="0.37456">
        <ele>101.8</ele>
        <time>2024-08-18T09:24:03Z</time>
      </trkpt>
      <trkpt lat="46.5149" lon="0.37462">
        <ele>102.4</ele>
        <time>2024-08-18T09:24:05Z</time>
      </trkpt>
      <trkpt lat="46.51492" lon="0.37466">
        <ele>102.8</ele>
        <time>2024-08-18T09:24:07Z</time>
      </trkpt>
      <trkpt lat="46.51495" lon="0.37468">
        <ele>102.8</ele>
        <time>2024-08-18T09:24:08Z</time>
      </trkpt>
      <trkpt lat="46.51498" lon="0.37478">
        <ele>103.2</ele>
        <time>2024-08-18T09:24:13Z</time>
      </trkpt>
      <trkpt lat="46.51499" lon="0.37478">
        <ele>103.2</ele>
        <time>2024-08-18T09:24:14Z</time>
      </trkpt>
      <trkpt lat="46.51499" lon="0.37472">
        <ele>103.2</ele>
        <time>2024-08-18T09:24:18Z</time>
      </trkpt>
      <trkpt lat="46.51503" lon="0.3747">
        <ele>102.8</ele>
        <time>2024-08-18T09:24:21Z</time>
      </trkpt>
      <trkpt lat="46.51505" lon="0.37469">
        <ele>102.8</ele>
        <time>2024-08-18T09:24:22Z</time>
      </trkpt>
      <trkpt lat="46.51516" lon="0.37462">
        <ele>101.6</ele>
        <time>2024-08-18T09:24:27Z</time>
      </trkpt>
      <trkpt lat="46.51518" lon="0.37462">
        <ele>101.4</ele>
        <time>2024-08-18T09:24:28Z</time>
      </trkpt>
      <trkpt lat="46.51523" lon="0.37465">
        <ele>101.4</ele>
        <time>2024-08-18T09:24:31Z</time>
      </trkpt>
      <trkpt lat="46.51525" lon="0.37465">
        <ele>101.4</ele>
        <time>2024-08-18T09:24:32Z</time>
      </trkpt>
      <trkpt lat="46.51527" lon="0.37465">
        <ele>101.2</ele>
        <time>2024-08-18T09:24:33Z</time>
      </trkpt>
      <trkpt lat="46.51528" lon="0.37461">
        <ele>101</ele>
        <time>2024-08-18T09:24:35Z</time>
      </trkpt>
      <trkpt lat="46.51528" lon="0.37459">
        <ele>100.8</ele>
        <time>2024-08-18T09:24:36Z</time>
      </trkpt>
      <trkpt lat="46.51528" lon="0.37458">
        <ele>100.6</ele>
        <time>2024-08-18T09:24:37Z</time>
      </trkpt>
      <trkpt lat="46.51529" lon="0.37454">
        <ele>100.6</ele>
        <time>2024-08-18T09:24:39Z</time>
      </trkpt>
      <trkpt lat="46.51532" lon="0.3745">
        <ele>100.4</ele>
        <time>2024-08-18T09:24:41Z</time>
      </trkpt>
      <trkpt lat="46.51534" lon="0.37442">
        <ele>99.8</ele>
        <time>2024-08-18T09:24:43Z</time>
      </trkpt>
      <trkpt lat="46.51534" lon="0.37436">
        <ele>98.8</ele>
        <time>2024-08-18T09:24:45Z</time>
      </trkpt>
      <trkpt lat="46.51531" lon="0.37432">
        <ele>97.6</ele>
        <time>2024-08-18T09:24:47Z</time>
      </trkpt>
      <trkpt lat="46.51529" lon="0.37421">
        <ele>97</ele>
        <time>2024-08-18T09:24:51Z</time>
      </trkpt>
      <trkpt lat="46.51528" lon="0.37414">
        <ele>96.2</ele>
        <time>2024-08-18T09:24:54Z</time>
      </trkpt>
      <trkpt lat="46.51526" lon="0.37412">
        <ele>95.8</ele>
        <time>2024-08-18T09:24:55Z</time>
      </trkpt>
      <trkpt lat="46.51525" lon="0.37412">
        <ele>95.6</ele>
        <time>2024-08-18T09:24:56Z</time>
      </trkpt>
      <trkpt lat="46.51525" lon="0.37412">
        <ele>95.2</ele>
        <time>2024-08-18T09:24:58Z</time>
      </trkpt>
      <trkpt lat="46.51525" lon="0.37412">
        <ele>95.2</ele>
        <time>2024-08-18T09:24:59Z</time>
      </trkpt>
      <trkpt lat="46.51525" lon="0.37413">
        <ele>95.4</ele>
        <time>2024-08-18T09:25:01Z</time>
      </trkpt>
      <trkpt lat="46.51525" lon="0.37413">
        <ele>95.8</ele>
        <time>2024-08-18T09:25:02Z</time>
      </trkpt>
      <trkpt lat="46.51522" lon="0.37409">
        <ele>96.2</ele>
        <time>2024-08-18T09:25:05Z</time>
      </trkpt>
      <trkpt lat="46.51519" lon="0.37393">
        <ele>95.8</ele>
        <time>2024-08-18T09:25:09Z</time>
      </trkpt>
      <trkpt lat="46.51518" lon="0.37392">
        <ele>95.2</ele>
        <time>2024-08-18T09:25:10Z</time>
      </trkpt>
      <trkpt lat="46.51517" lon="0.37392">
        <ele>94.8</ele>
        <time>2024-08-18T09:25:12Z</time>
      </trkpt>
      <trkpt lat="46.51516" lon="0.37393">
        <ele>94.8</ele>
        <time>2024-08-18T09:25:13Z</time>
      </trkpt>
      <trkpt lat="46.51508" lon="0.37398">
        <ele>96.2</ele>
        <time>2024-08-18T09:25:20Z</time>
      </trkpt>
      <trkpt lat="46.51508" lon="0.37399">
        <ele>96.8</ele>
        <time>2024-08-18T09:25:21Z</time>
      </trkpt>
      <trkpt lat="46.51502" lon="0.37409">
        <ele>97.8</ele>
        <time>2024-08-18T09:25:28Z</time>
      </trkpt>
      <trkpt lat="46.515" lon="0.37411">
        <ele>98.2</ele>
        <time>2024-08-18T09:25:30Z</time>
      </trkpt>
      <trkpt lat="46.51495" lon="0.37412">
        <ele>98.8</ele>
        <time>2024-08-18T09:25:32Z</time>
      </trkpt>
      <trkpt lat="46.51493" lon="0.37414">
        <ele>99.6</ele>
        <time>2024-08-18T09:25:34Z</time>
      </trkpt>
      <trkpt lat="46.51492" lon="0.37414">
        <ele>100</ele>
        <time>2024-08-18T09:25:35Z</time>
      </trkpt>
      <trkpt lat="46.51487" lon="0.37415">
        <ele>101</ele>
        <time>2024-08-18T09:25:37Z</time>
      </trkpt>
      <trkpt lat="46.51479" lon="0.37412">
        <ele>102.2</ele>
        <time>2024-08-18T09:25:41Z</time>
      </trkpt>
      <trkpt lat="46.51469" lon="0.3741">
        <ele>102.6</ele>
        <time>2024-08-18T09:25:47Z</time>
      </trkpt>
      <trkpt lat="46.51465" lon="0.37413">
        <ele>102.8</ele>
        <time>2024-08-18T09:25:50Z</time>
      </trkpt>
      <trkpt lat="46.51461" lon="0.37415">
        <ele>103.4</ele>
        <time>2024-08-18T09:25:53Z</time>
      </trkpt>
      <trkpt lat="46.51459" lon="0.37418">
        <ele>103.8</ele>
        <time>2024-08-18T09:25:55Z</time>
      </trkpt>
      <trkpt lat="46.51451" lon="0.37422">
        <ele>104.4</ele>
        <time>2024-08-18T09:26:01Z</time>
      </trkpt>
      <trkpt lat="46.5145" lon="0.37428">
        <ele>104.6</ele>
        <time>2024-08-18T09:26:04Z</time>
      </trkpt>
      <trkpt lat="46.51449" lon="0.37429">
        <ele>104.6</ele>
        <time>2024-08-18T09:26:05Z</time>
      </trkpt>
      <trkpt lat="46.51445" lon="0.37441">
        <ele>105.4</ele>
        <time>2024-08-18T09:26:11Z</time>
      </trkpt>
      <trkpt lat="46.51444" lon="0.37444">
        <ele>105.6</ele>
        <time>2024-08-18T09:26:12Z</time>
      </trkpt>
      <trkpt lat="46.51437" lon="0.3746">
        <ele>106.2</ele>
        <time>2024-08-18T09:26:19Z</time>
      </trkpt>
      <trkpt lat="46.51435" lon="0.37469">
        <ele>106.6</ele>
        <time>2024-08-18T09:26:22Z</time>
      </trkpt>
      <trkpt lat="46.51434" lon="0.37486">
        <ele>107</ele>
        <time>2024-08-18T09:26:28Z</time>
      </trkpt>
      <trkpt lat="46.51432" lon="0.37489">
        <ele>107</ele>
        <time>2024-08-18T09:26:29Z</time>
      </trkpt>
      <trkpt lat="46.51425" lon="0.37503">
        <ele>106.8</ele>
        <time>2024-08-18T09:26:33Z</time>
      </trkpt>
      <trkpt lat="46.51415" lon="0.37532">
        <ele>106.8</ele>
        <time>2024-08-18T09:26:39Z</time>
      </trkpt>
      <trkpt lat="46.51407" lon="0.37559">
        <ele>106.8</ele>
        <time>2024-08-18T09:26:45Z</time>
      </trkpt>
      <trkpt lat="46.514" lon="0.37589">
        <ele>107.2</ele>
        <time>2024-08-18T09:26:50Z</time>
      </trkpt>
      <trkpt lat="46.51396" lon="0.3761">
        <ele>107.4</ele>
        <time>2024-08-18T09:26:54Z</time>
      </trkpt>
      <trkpt lat="46.51399" lon="0.37638">
        <ele>107</ele>
        <time>2024-08-18T09:26:59Z</time>
      </trkpt>
      <trkpt lat="46.51403" lon="0.37668">
        <ele>107</ele>
        <time>2024-08-18T09:27:05Z</time>
      </trkpt>
      <trkpt lat="46.51408" lon="0.37679">
        <ele>106.6</ele>
        <time>2024-08-18T09:27:08Z</time>
      </trkpt>
      <trkpt lat="46.51412" lon="0.37687">
        <ele>106.2</ele>
        <time>2024-08-18T09:27:10Z</time>
      </trkpt>
      <trkpt lat="46.51415" lon="0.37699">
        <ele>105.8</ele>
        <time>2024-08-18T09:27:12Z</time>
      </trkpt>
      <trkpt lat="46.5142" lon="0.37714">
        <ele>105.6</ele>
        <time>2024-08-18T09:27:14Z</time>
      </trkpt>
      <trkpt lat="46.5142" lon="0.37721">
        <ele>105.2</ele>
        <time>2024-08-18T09:27:15Z</time>
      </trkpt>
      <trkpt lat="46.5142" lon="0.37728">
        <ele>105.2</ele>
        <time>2024-08-18T09:27:16Z</time>
      </trkpt>
      <trkpt lat="46.5142" lon="0.37752">
        <ele>105</ele>
        <time>2024-08-18T09:27:20Z</time>
      </trkpt>
      <trkpt lat="46.51418" lon="0.3778">
        <ele>105</ele>
        <time>2024-08-18T09:27:24Z</time>
      </trkpt>
      <trkpt lat="46.5142" lon="0.37788">
        <ele>105</ele>
        <time>2024-08-18T09:27:25Z</time>
      </trkpt>
      <trkpt lat="46.51421" lon="0.37801">
        <ele>104.8</ele>
        <time>2024-08-18T09:27:27Z</time>
      </trkpt>
      <trkpt lat="46.51425" lon="0.37829">
        <ele>104.4</ele>
        <time>2024-08-18T09:27:31Z</time>
      </trkpt>
      <trkpt lat="46.51426" lon="0.37834">
        <ele>104.2</ele>
        <time>2024-08-18T09:27:32Z</time>
      </trkpt>
      <trkpt lat="46.51428" lon="0.3784">
        <ele>104</ele>
        <time>2024-08-18T09:27:33Z</time>
      </trkpt>
      <trkpt lat="46.51434" lon="0.37851">
        <ele>103</ele>
        <time>2024-08-18T09:27:35Z</time>
      </trkpt>
      <trkpt lat="46.51446" lon="0.37863">
        <ele>102.4</ele>
        <time>2024-08-18T09:27:38Z</time>
      </trkpt>
      <trkpt lat="46.5146" lon="0.37876">
        <ele>101.8</ele>
        <time>2024-08-18T09:27:41Z</time>
      </trkpt>
      <trkpt lat="46.51474" lon="0.37885">
        <ele>101</ele>
        <time>2024-08-18T09:27:44Z</time>
      </trkpt>
      <trkpt lat="46.51479" lon="0.37889">
        <ele>100.4</ele>
        <time>2024-08-18T09:27:45Z</time>
      </trkpt>
      <trkpt lat="46.51485" lon="0.37895">
        <ele>99.8</ele>
        <time>2024-08-18T09:27:46Z</time>
      </trkpt>
      <trkpt lat="46.51494" lon="0.37906">
        <ele>99.4</ele>
        <time>2024-08-18T09:27:48Z</time>
      </trkpt>
      <trkpt lat="46.51497" lon="0.37911">
        <ele>98.4</ele>
        <time>2024-08-18T09:27:49Z</time>
      </trkpt>
      <trkpt lat="46.515" lon="0.37916">
        <ele>97.8</ele>
        <time>2024-08-18T09:27:50Z</time>
      </trkpt>
      <trkpt lat="46.51501" lon="0.37923">
        <ele>97.4</ele>
        <time>2024-08-18T09:27:52Z</time>
      </trkpt>
      <trkpt lat="46.51499" lon="0.37926">
        <ele>97.4</ele>
        <time>2024-08-18T09:27:53Z</time>
      </trkpt>
      <trkpt lat="46.51494" lon="0.37931">
        <ele>97.4</ele>
        <time>2024-08-18T09:27:56Z</time>
      </trkpt>
      <trkpt lat="46.51486" lon="0.37938">
        <ele>98</ele>
        <time>2024-08-18T09:28:01Z</time>
      </trkpt>
      <trkpt lat="46.51481" lon="0.37938">
        <ele>98.2</ele>
        <time>2024-08-18T09:28:03Z</time>
      </trkpt>
      <trkpt lat="46.51471" lon="0.3794">
        <ele>98.4</ele>
        <time>2024-08-18T09:28:06Z</time>
      </trkpt>
      <trkpt lat="46.51464" lon="0.3794">
        <ele>98.4</ele>
        <time>2024-08-18T09:28:09Z</time>
      </trkpt>
      <trkpt lat="46.51461" lon="0.3794">
        <ele>98.6</ele>
        <time>2024-08-18T09:28:11Z</time>
      </trkpt>
      <trkpt lat="46.51458" lon="0.37942">
        <ele>99</ele>
        <time>2024-08-18T09:28:15Z</time>
      </trkpt>
      <trkpt lat="46.51455" lon="0.37955">
        <ele>98.6</ele>
        <time>2024-08-18T09:28:22Z</time>
      </trkpt>
      <trkpt lat="46.51456" lon="0.37962">
        <ele>98.6</ele>
        <time>2024-08-18T09:28:24Z</time>
      </trkpt>
      <trkpt lat="46.51459" lon="0.37967">
        <ele>97.4</ele>
        <time>2024-08-18T09:28:26Z</time>
      </trkpt>
      <trkpt lat="46.51461" lon="0.37969">
        <ele>96.8</ele>
        <time>2024-08-18T09:28:27Z</time>
      </trkpt>
      <trkpt lat="46.51463" lon="0.3797">
        <ele>96</ele>
        <time>2024-08-18T09:28:28Z</time>
      </trkpt>
      <trkpt lat="46.51466" lon="0.37971">
        <ele>95.6</ele>
        <time>2024-08-18T09:28:29Z</time>
      </trkpt>
      <trkpt lat="46.51478" lon="0.37974">
        <ele>94.4</ele>
        <time>2024-08-18T09:28:32Z</time>
      </trkpt>
      <trkpt lat="46.51486" lon="0.37977">
        <ele>94.2</ele>
        <time>2024-08-18T09:28:34Z</time>
      </trkpt>
      <trkpt lat="46.51498" lon="0.3798">
        <ele>94.2</ele>
        <time>2024-08-18T09:28:37Z</time>
      </trkpt>
      <trkpt lat="46.51501" lon="0.37981">
        <ele>94.2</ele>
        <time>2024-08-18T09:28:38Z</time>
      </trkpt>
      <trkpt lat="46.51503" lon="0.37981">
        <ele>94.2</ele>
        <time>2024-08-18T09:28:39Z</time>
      </trkpt>
      <trkpt lat="46.51505" lon="0.37987">
        <ele>94.2</ele>
        <time>2024-08-18T09:28:41Z</time>
      </trkpt>
      <trkpt lat="46.51503" lon="0.38005">
        <ele>93.2</ele>
        <time>2024-08-18T09:28:45Z</time>
      </trkpt>
      <trkpt lat="46.51502" lon="0.38017">
        <ele>91.8</ele>
        <time>2024-08-18T09:28:48Z</time>
      </trkpt>
      <trkpt lat="46.51502" lon="0.38019">
        <ele>90.4</ele>
        <time>2024-08-18T09:28:49Z</time>
      </trkpt>
      <trkpt lat="46.51502" lon="0.38023">
        <ele>89</ele>
        <time>2024-08-18T09:28:51Z</time>
      </trkpt>
      <trkpt lat="46.51501" lon="0.3803">
        <ele>87.8</ele>
        <time>2024-08-18T09:28:54Z</time>
      </trkpt>
      <trkpt lat="46.51501" lon="0.3803">
        <ele>87.4</ele>
        <time>2024-08-18T09:28:55Z</time>
      </trkpt>
      <trkpt lat="46.515" lon="0.38045">
        <ele>86.6</ele>
        <time>2024-08-18T09:28:57Z</time>
      </trkpt>
      <trkpt lat="46.51499" lon="0.38054">
        <ele>85</ele>
        <time>2024-08-18T09:28:59Z</time>
      </trkpt>
      <trkpt lat="46.515" lon="0.38062">
        <ele>84</ele>
        <time>2024-08-18T09:29:00Z</time>
      </trkpt>
      <trkpt lat="46.515" lon="0.38068">
        <ele>83</ele>
        <time>2024-08-18T09:29:01Z</time>
      </trkpt>
      <trkpt lat="46.51499" lon="0.38071">
        <ele>82.4</ele>
        <time>2024-08-18T09:29:02Z</time>
      </trkpt>
      <trkpt lat="46.51497" lon="0.38074">
        <ele>82</ele>
        <time>2024-08-18T09:29:03Z</time>
      </trkpt>
      <trkpt lat="46.51481" lon="0.38076">
        <ele>80.6</ele>
        <time>2024-08-18T09:29:07Z</time>
      </trkpt>
      <trkpt lat="46.51477" lon="0.38077">
        <ele>80.4</ele>
        <time>2024-08-18T09:29:08Z</time>
      </trkpt>
      <trkpt lat="46.51454" lon="0.38084">
        <ele>80.2</ele>
        <time>2024-08-18T09:29:14Z</time>
      </trkpt>
      <trkpt lat="46.51448" lon="0.38087">
        <ele>80.2</ele>
        <time>2024-08-18T09:29:15Z</time>
      </trkpt>
      <trkpt lat="46.51434" lon="0.38093">
        <ele>79.8</ele>
        <time>2024-08-18T09:29:18Z</time>
      </trkpt>
      <trkpt lat="46.5143" lon="0.38095">
        <ele>79.6</ele>
        <time>2024-08-18T09:29:19Z</time>
      </trkpt>
      <trkpt lat="46.51421" lon="0.38098">
        <ele>79</ele>
        <time>2024-08-18T09:29:21Z</time>
      </trkpt>
      <trkpt lat="46.51413" lon="0.38098">
        <ele>78.6</ele>
        <time>2024-08-18T09:29:23Z</time>
      </trkpt>
      <trkpt lat="46.51409" lon="0.38097">
        <ele>78.4</ele>
        <time>2024-08-18T09:29:24Z</time>
      </trkpt>
      <trkpt lat="46.51388" lon="0.38092">
        <ele>77.6</ele>
        <time>2024-08-18T09:29:29Z</time>
      </trkpt>
      <trkpt lat="46.51385" lon="0.38091">
        <ele>77.6</ele>
        <time>2024-08-18T09:29:30Z</time>
      </trkpt>
      <trkpt lat="46.5136" lon="0.38082">
        <ele>78</ele>
        <time>2024-08-18T09:29:36Z</time>
      </trkpt>
      <trkpt lat="46.51353" lon="0.3808">
        <ele>78</ele>
        <time>2024-08-18T09:29:38Z</time>
      </trkpt>
      <trkpt lat="46.51347" lon="0.38078">
        <ele>78</ele>
        <time>2024-08-18T09:29:40Z</time>
      </trkpt>
      <trkpt lat="46.51339" lon="0.38076">
        <ele>78</ele>
        <time>2024-08-18T09:29:42Z</time>
      </trkpt>
      <trkpt lat="46.51327" lon="0.38075">
        <ele>78</ele>
        <time>2024-08-18T09:29:45Z</time>
      </trkpt>
      <trkpt lat="46.51318" lon="0.38069">
        <ele>78.2</ele>
        <time>2024-08-18T09:29:47Z</time>
      </trkpt>
      <trkpt lat="46.51314" lon="0.38066">
        <ele>78.4</ele>
        <time>2024-08-18T09:29:48Z</time>
      </trkpt>
      <trkpt lat="46.51296" lon="0.38054">
        <ele>78.6</ele>
        <time>2024-08-18T09:29:53Z</time>
      </trkpt>
      <trkpt lat="46.51271" lon="0.38044">
        <ele>79.6</ele>
        <time>2024-08-18T09:29:59Z</time>
      </trkpt>
      <trkpt lat="46.51266" lon="0.38039">
        <ele>80.6</ele>
        <time>2024-08-18T09:30:01Z</time>
      </trkpt>
      <trkpt lat="46.51256" lon="0.38032">
        <ele>81.2</ele>
        <time>2024-08-18T09:30:04Z</time>
      </trkpt>
      <trkpt lat="46.51247" lon="0.38027">
        <ele>81.8</ele>
        <time>2024-08-18T09:30:06Z</time>
      </trkpt>
      <trkpt lat="46.51232" lon="0.38019">
        <ele>82.6</ele>
        <time>2024-08-18T09:30:10Z</time>
      </trkpt>
      <trkpt lat="46.51226" lon="0.38016">
        <ele>82.8</ele>
        <time>2024-08-18T09:30:12Z</time>
      </trkpt>
      <trkpt lat="46.51212" lon="0.38011">
        <ele>83.6</ele>
        <time>2024-08-18T09:30:16Z</time>
      </trkpt>
      <trkpt lat="46.51204" lon="0.38007">
        <ele>84</ele>
        <time>2024-08-18T09:30:19Z</time>
      </trkpt>
      <trkpt lat="46.51192" lon="0.38003">
        <ele>84.6</ele>
        <time>2024-08-18T09:30:23Z</time>
      </trkpt>
      <trkpt lat="46.51188" lon="0.38002">
        <ele>85</ele>
        <time>2024-08-18T09:30:25Z</time>
      </trkpt>
      <trkpt lat="46.51184" lon="0.37999">
        <ele>85.4</ele>
        <time>2024-08-18T09:30:29Z</time>
      </trkpt>
      <trkpt lat="46.5118" lon="0.37998">
        <ele>85.6</ele>
        <time>2024-08-18T09:30:33Z</time>
      </trkpt>
      <trkpt lat="46.51178" lon="0.37999">
        <ele>85.8</ele>
        <time>2024-08-18T09:30:36Z</time>
      </trkpt>
      <trkpt lat="46.51178" lon="0.37999">
        <ele>86</ele>
        <time>2024-08-18T09:30:37Z</time>
      </trkpt>
      <trkpt lat="46.51177" lon="0.37999">
        <ele>86</ele>
        <time>2024-08-18T09:30:38Z</time>
      </trkpt>
      <trkpt lat="46.51177" lon="0.38">
        <ele>86.6</ele>
        <time>2024-08-18T09:30:39Z</time>
      </trkpt>
      <trkpt lat="46.51175" lon="0.38003">
        <ele>87.6</ele>
        <time>2024-08-18T09:30:41Z</time>
      </trkpt>
      <trkpt lat="46.51175" lon="0.38004">
        <ele>87.8</ele>
        <time>2024-08-18T09:30:42Z</time>
      </trkpt>
      <trkpt lat="46.51173" lon="0.38005">
        <ele>88.2</ele>
        <time>2024-08-18T09:30:43Z</time>
      </trkpt>
      <trkpt lat="46.51172" lon="0.38006">
        <ele>88.6</ele>
        <time>2024-08-18T09:30:44Z</time>
      </trkpt>
      <trkpt lat="46.51171" lon="0.38008">
        <ele>88.8</ele>
        <time>2024-08-18T09:30:45Z</time>
      </trkpt>
      <trkpt lat="46.51169" lon="0.38011">
        <ele>89.4</ele>
        <time>2024-08-18T09:30:47Z</time>
      </trkpt>
      <trkpt lat="46.51167" lon="0.38012">
        <ele>90</ele>
        <time>2024-08-18T09:30:49Z</time>
      </trkpt>
      <trkpt lat="46.51166" lon="0.38013">
        <ele>90.4</ele>
        <time>2024-08-18T09:30:50Z</time>
      </trkpt>
      <trkpt lat="46.51165" lon="0.38015">
        <ele>90.6</ele>
        <time>2024-08-18T09:30:51Z</time>
      </trkpt>
      <trkpt lat="46.51165" lon="0.38015">
        <ele>90.8</ele>
        <time>2024-08-18T09:30:52Z</time>
      </trkpt>
      <trkpt lat="46.51165" lon="0.38016">
        <ele>91</ele>
        <time>2024-08-18T09:30:53Z</time>
      </trkpt>
      <trkpt lat="46.51165" lon="0.38017">
        <ele>91.4</ele>
        <time>2024-08-18T09:30:54Z</time>
      </trkpt>
      <trkpt lat="46.51164" lon="0.38019">
        <ele>91.8</ele>
        <time>2024-08-18T09:30:56Z</time>
      </trkpt>
      <trkpt lat="46.51163" lon="0.3802">
        <ele>92.2</ele>
        <time>2024-08-18T09:30:57Z</time>
      </trkpt>
      <trkpt lat="46.51163" lon="0.38021">
        <ele>92.4</ele>
        <time>2024-08-18T09:30:58Z</time>
      </trkpt>
      <trkpt lat="46.51163" lon="0.38022">
        <ele>92.6</ele>
        <time>2024-08-18T09:30:59Z</time>
      </trkpt>
      <trkpt lat="46.51161" lon="0.38026">
        <ele>93.2</ele>
        <time>2024-08-18T09:31:02Z</time>
      </trkpt>
      <trkpt lat="46.51158" lon="0.3803">
        <ele>93.6</ele>
        <time>2024-08-18T09:31:05Z</time>
      </trkpt>
      <trkpt lat="46.51155" lon="0.38033">
        <ele>94.4</ele>
        <time>2024-08-18T09:31:08Z</time>
      </trkpt>
      <trkpt lat="46.51154" lon="0.38034">
        <ele>94.8</ele>
        <time>2024-08-18T09:31:09Z</time>
      </trkpt>
      <trkpt lat="46.51147" lon="0.3804">
        <ele>95.8</ele>
        <time>2024-08-18T09:31:15Z</time>
      </trkpt>
      <trkpt lat="46.51146" lon="0.38041">
        <ele>95.8</ele>
        <time>2024-08-18T09:31:16Z</time>
      </trkpt>
      <trkpt lat="46.51144" lon="0.38041">
        <ele>96</ele>
        <time>2024-08-18T09:31:17Z</time>
      </trkpt>
      <trkpt lat="46.5114" lon="0.38045">
        <ele>96.6</ele>
        <time>2024-08-18T09:31:20Z</time>
      </trkpt>
      <trkpt lat="46.51138" lon="0.38046">
        <ele>96.8</ele>
        <time>2024-08-18T09:31:21Z</time>
      </trkpt>
      <trkpt lat="46.51133" lon="0.3805">
        <ele>97</ele>
        <time>2024-08-18T09:31:24Z</time>
      </trkpt>
      <trkpt lat="46.51128" lon="0.38059">
        <ele>97.8</ele>
        <time>2024-08-18T09:31:28Z</time>
      </trkpt>
      <trkpt lat="46.51125" lon="0.3806">
        <ele>98.2</ele>
        <time>2024-08-18T09:31:30Z</time>
      </trkpt>
      <trkpt lat="46.51118" lon="0.38064">
        <ele>98.8</ele>
        <time>2024-08-18T09:31:35Z</time>
      </trkpt>
      <trkpt lat="46.51116" lon="0.38065">
        <ele>98.8</ele>
        <time>2024-08-18T09:31:36Z</time>
      </trkpt>
      <trkpt lat="46.51114" lon="0.38065">
        <ele>99</ele>
        <time>2024-08-18T09:31:37Z</time>
      </trkpt>
      <trkpt lat="46.51113" lon="0.38067">
        <ele>99.2</ele>
        <time>2024-08-18T09:31:38Z</time>
      </trkpt>
      <trkpt lat="46.511" lon="0.38073">
        <ele>99.8</ele>
        <time>2024-08-18T09:31:44Z</time>
      </trkpt>
      <trkpt lat="46.51098" lon="0.38075">
        <ele>99.8</ele>
        <time>2024-08-18T09:31:46Z</time>
      </trkpt>
      <trkpt lat="46.5109" lon="0.38081">
        <ele>100.8</ele>
        <time>2024-08-18T09:31:51Z</time>
      </trkpt>
      <trkpt lat="46.51088" lon="0.38082">
        <ele>101</ele>
        <time>2024-08-18T09:31:52Z</time>
      </trkpt>
      <trkpt lat="46.51086" lon="0.38082">
        <ele>101</ele>
        <time>2024-08-18T09:31:53Z</time>
      </trkpt>
      <trkpt lat="46.51082" lon="0.38088">
        <ele>101.2</ele>
        <time>2024-08-18T09:31:56Z</time>
      </trkpt>
      <trkpt lat="46.51081" lon="0.3809">
        <ele>101.2</ele>
        <time>2024-08-18T09:31:57Z</time>
      </trkpt>
      <trkpt lat="46.51079" lon="0.38093">
        <ele>100.8</ele>
        <time>2024-08-18T09:31:59Z</time>
      </trkpt>
      <trkpt lat="46.51077" lon="0.38094">
        <ele>100.6</ele>
        <time>2024-08-18T09:32:02Z</time>
      </trkpt>
      <trkpt lat="46.51079" lon="0.38106">
        <ele>100.4</ele>
        <time>2024-08-18T09:32:15Z</time>
      </trkpt>
      <trkpt lat="46.5108" lon="0.38109">
        <ele>100.4</ele>
        <time>2024-08-18T09:32:16Z</time>
      </trkpt>
      <trkpt lat="46.51081" lon="0.38119">
        <ele>99.8</ele>
        <time>2024-08-18T09:32:21Z</time>
      </trkpt>
      <trkpt lat="46.51082" lon="0.3812">
        <ele>99.4</ele>
        <time>2024-08-18T09:32:22Z</time>
      </trkpt>
      <trkpt lat="46.51084" lon="0.38122">
        <ele>98.4</ele>
        <time>2024-08-18T09:32:24Z</time>
      </trkpt>
      <trkpt lat="46.51088" lon="0.38125">
        <ele>97</ele>
        <time>2024-08-18T09:32:27Z</time>
      </trkpt>
      <trkpt lat="46.51089" lon="0.38125">
        <ele>96</ele>
        <time>2024-08-18T09:32:28Z</time>
      </trkpt>
      <trkpt lat="46.51091" lon="0.38125">
        <ele>95</ele>
        <time>2024-08-18T09:32:29Z</time>
      </trkpt>
      <trkpt lat="46.51094" lon="0.38126">
        <ele>93.6</ele>
        <time>2024-08-18T09:32:30Z</time>
      </trkpt>
      <trkpt lat="46.51099" lon="0.38125">
        <ele>91.8</ele>
        <time>2024-08-18T09:32:32Z</time>
      </trkpt>
      <trkpt lat="46.51105" lon="0.38122">
        <ele>90.6</ele>
        <time>2024-08-18T09:32:35Z</time>
      </trkpt>
      <trkpt lat="46.51115" lon="0.38116">
        <ele>90.2</ele>
        <time>2024-08-18T09:32:41Z</time>
      </trkpt>
      <trkpt lat="46.51117" lon="0.38115">
        <ele>90.4</ele>
        <time>2024-08-18T09:32:42Z</time>
      </trkpt>
      <trkpt lat="46.5113" lon="0.38108">
        <ele>91.4</ele>
        <time>2024-08-18T09:32:50Z</time>
      </trkpt>
      <trkpt lat="46.51131" lon="0.38107">
        <ele>91.4</ele>
        <time>2024-08-18T09:32:51Z</time>
      </trkpt>
      <trkpt lat="46.51137" lon="0.38103">
        <ele>91.2</ele>
        <time>2024-08-18T09:32:56Z</time>
      </trkpt>
      <trkpt lat="46.51139" lon="0.38102">
        <ele>91.2</ele>
        <time>2024-08-18T09:32:58Z</time>
      </trkpt>
      <trkpt lat="46.51149" lon="0.38095">
        <ele>91.4</ele>
        <time>2024-08-18T09:33:03Z</time>
      </trkpt>
      <trkpt lat="46.51154" lon="0.38092">
        <ele>91.6</ele>
        <time>2024-08-18T09:33:06Z</time>
      </trkpt>
      <trkpt lat="46.51162" lon="0.38089">
        <ele>91.8</ele>
        <time>2024-08-18T09:33:09Z</time>
      </trkpt>
      <trkpt lat="46.51163" lon="0.38089">
        <ele>91.8</ele>
        <time>2024-08-18T09:33:10Z</time>
      </trkpt>
      <trkpt lat="46.51168" lon="0.38088">
        <ele>91.2</ele>
        <time>2024-08-18T09:33:13Z</time>
      </trkpt>
      <trkpt lat="46.51171" lon="0.38087">
        <ele>90.6</ele>
        <time>2024-08-18T09:33:15Z</time>
      </trkpt>
      <trkpt lat="46.51172" lon="0.38087">
        <ele>90.4</ele>
        <time>2024-08-18T09:33:16Z</time>
      </trkpt>
      <trkpt lat="46.51174" lon="0.38086">
        <ele>89.2</ele>
        <time>2024-08-18T09:33:18Z</time>
      </trkpt>
      <trkpt lat="46.51177" lon="0.38084">
        <ele>87.8</ele>
        <time>2024-08-18T09:33:22Z</time>
      </trkpt>
      <trkpt lat="46.51177" lon="0.38084">
        <ele>87.4</ele>
        <time>2024-08-18T09:33:23Z</time>
      </trkpt>
      <trkpt lat="46.51179" lon="0.38083">
        <ele>86.6</ele>
        <time>2024-08-18T09:33:25Z</time>
      </trkpt>
      <trkpt lat="46.51186" lon="0.38084">
        <ele>86</ele>
        <time>2024-08-18T09:33:29Z</time>
      </trkpt>
      <trkpt lat="46.51187" lon="0.38085">
        <ele>84.8</ele>
        <time>2024-08-18T09:33:30Z</time>
      </trkpt>
      <trkpt lat="46.51191" lon="0.38084">
        <ele>83.4</ele>
        <time>2024-08-18T09:33:32Z</time>
      </trkpt>
      <trkpt lat="46.51198" lon="0.38082">
        <ele>83</ele>
        <time>2024-08-18T09:33:35Z</time>
      </trkpt>
      <trkpt lat="46.51214" lon="0.38078">
        <ele>83.4</ele>
        <time>2024-08-18T09:33:41Z</time>
      </trkpt>
      <trkpt lat="46.51216" lon="0.38077">
        <ele>83.4</ele>
        <time>2024-08-18T09:33:42Z</time>
      </trkpt>
      <trkpt lat="46.51231" lon="0.38076">
        <ele>83.2</ele>
        <time>2024-08-18T09:33:49Z</time>
      </trkpt>
      <trkpt lat="46.51234" lon="0.38074">
        <ele>83.2</ele>
        <time>2024-08-18T09:33:52Z</time>
      </trkpt>
      <trkpt lat="46.51235" lon="0.38073">
        <ele>83.2</ele>
        <time>2024-08-18T09:33:54Z</time>
      </trkpt>
      <trkpt lat="46.51237" lon="0.38071">
        <ele>82.8</ele>
        <time>2024-08-18T09:33:56Z</time>
      </trkpt>
      <trkpt lat="46.51237" lon="0.38071">
        <ele>82.4</ele>
        <time>2024-08-18T09:33:57Z</time>
      </trkpt>
      <trkpt lat="46.5124" lon="0.38066">
        <ele>82.4</ele>
        <time>2024-08-18T09:33:58Z</time>
      </trkpt>
      <trkpt lat="46.51241" lon="0.38064">
        <ele>81.2</ele>
        <time>2024-08-18T09:33:59Z</time>
      </trkpt>
      <trkpt lat="46.51245" lon="0.38062">
        <ele>80.2</ele>
        <time>2024-08-18T09:34:02Z</time>
      </trkpt>
      <trkpt lat="46.51245" lon="0.38062">
        <ele>80</ele>
        <time>2024-08-18T09:34:03Z</time>
      </trkpt>
      <trkpt lat="46.51244" lon="0.38059">
        <ele>80</ele>
        <time>2024-08-18T09:34:06Z</time>
      </trkpt>
      <trkpt lat="46.51245" lon="0.38057">
        <ele>80.2</ele>
        <time>2024-08-18T09:34:09Z</time>
      </trkpt>
      <trkpt lat="46.51246" lon="0.38056">
        <ele>80.2</ele>
        <time>2024-08-18T09:34:10Z</time>
      </trkpt>
      <trkpt lat="46.51244" lon="0.38055">
        <ele>80.2</ele>
        <time>2024-08-18T09:34:17Z</time>
      </trkpt>
      <trkpt lat="46.51243" lon="0.38053">
        <ele>80.2</ele>
        <time>2024-08-18T09:34:29Z</time>
      </trkpt>
      <trkpt lat="46.51243" lon="0.38052">
        <ele>80.2</ele>
        <time>2024-08-18T09:34:39Z</time>
      </trkpt>
      <trkpt lat="46.51246" lon="0.38051">
        <ele>80.2</ele>
        <time>2024-08-18T09:34:48Z</time>
      </trkpt>
      <trkpt lat="46.51252" lon="0.38049">
        <ele>79.8</ele>
        <time>2024-08-18T09:34:57Z</time>
      </trkpt>
      <trkpt lat="46.51252" lon="0.38045">
        <ele>79.8</ele>
        <time>2024-08-18T09:35:07Z</time>
      </trkpt>
      <trkpt lat="46.51249" lon="0.38047">
        <ele>79.8</ele>
        <time>2024-08-18T09:35:17Z</time>
      </trkpt>
      <trkpt lat="46.51247" lon="0.38045">
        <ele>80.2</ele>
        <time>2024-08-18T09:35:21Z</time>
      </trkpt>
      <trkpt lat="46.51237" lon="0.38039">
        <ele>81.2</ele>
        <time>2024-08-18T09:35:29Z</time>
      </trkpt>
      <trkpt lat="46.51232" lon="0.38033">
        <ele>81.8</ele>
        <time>2024-08-18T09:35:35Z</time>
      </trkpt>
      <trkpt lat="46.51228" lon="0.38028">
        <ele>82.2</ele>
        <time>2024-08-18T09:35:39Z</time>
      </trkpt>
      <trkpt lat="46.51225" lon="0.38027">
        <ele>83.2</ele>
        <time>2024-08-18T09:35:41Z</time>
      </trkpt>
      <trkpt lat="46.51224" lon="0.38025">
        <ele>83.4</ele>
        <time>2024-08-18T09:35:42Z</time>
      </trkpt>
      <trkpt lat="46.51214" lon="0.38017">
        <ele>84.4</ele>
        <time>2024-08-18T09:35:48Z</time>
      </trkpt>
      <trkpt lat="46.51211" lon="0.38015">
        <ele>84.4</ele>
        <time>2024-08-18T09:35:50Z</time>
      </trkpt>
      <trkpt lat="46.51205" lon="0.38012">
        <ele>85</ele>
        <time>2024-08-18T09:35:54Z</time>
      </trkpt>
      <trkpt lat="46.51197" lon="0.38007">
        <ele>85.8</ele>
        <time>2024-08-18T09:35:58Z</time>
      </trkpt>
      <trkpt lat="46.51189" lon="0.38005">
        <ele>86.6</ele>
        <time>2024-08-18T09:36:02Z</time>
      </trkpt>
      <trkpt lat="46.51188" lon="0.38004">
        <ele>86.8</ele>
        <time>2024-08-18T09:36:03Z</time>
      </trkpt>
      <trkpt lat="46.51175" lon="0.38001">
        <ele>87.8</ele>
        <time>2024-08-18T09:36:08Z</time>
      </trkpt>
      <trkpt lat="46.51173" lon="0.38001">
        <ele>88</ele>
        <time>2024-08-18T09:36:09Z</time>
      </trkpt>
      <trkpt lat="46.51146" lon="0.37998">
        <ele>89.2</ele>
        <time>2024-08-18T09:36:16Z</time>
      </trkpt>
      <trkpt lat="46.51122" lon="0.37996">
        <ele>90</ele>
        <time>2024-08-18T09:36:24Z</time>
      </trkpt>
      <trkpt lat="46.51116" lon="0.37995">
        <ele>90.2</ele>
        <time>2024-08-18T09:36:27Z</time>
      </trkpt>
      <trkpt lat="46.51106" lon="0.37994">
        <ele>90.2</ele>
        <time>2024-08-18T09:36:31Z</time>
      </trkpt>
      <trkpt lat="46.51103" lon="0.37994">
        <ele>90.4</ele>
        <time>2024-08-18T09:36:32Z</time>
      </trkpt>
      <trkpt lat="46.5109" lon="0.37992">
        <ele>90.8</ele>
        <time>2024-08-18T09:36:37Z</time>
      </trkpt>
      <trkpt lat="46.51087" lon="0.37993">
        <ele>91</ele>
        <time>2024-08-18T09:36:38Z</time>
      </trkpt>
      <trkpt lat="46.51083" lon="0.37993">
        <ele>91</ele>
        <time>2024-08-18T09:36:39Z</time>
      </trkpt>
      <trkpt lat="46.51075" lon="0.37995">
        <ele>91.4</ele>
        <time>2024-08-18T09:36:41Z</time>
      </trkpt>
      <trkpt lat="46.51069" lon="0.37995">
        <ele>91.8</ele>
        <time>2024-08-18T09:36:43Z</time>
      </trkpt>
      <trkpt lat="46.51034" lon="0.37989">
        <ele>92.4</ele>
        <time>2024-08-18T09:36:49Z</time>
      </trkpt>
      <trkpt lat="46.51029" lon="0.37989">
        <ele>92.4</ele>
        <time>2024-08-18T09:36:50Z</time>
      </trkpt>
      <trkpt lat="46.51016" lon="0.37988">
        <ele>92.6</ele>
        <time>2024-08-18T09:36:53Z</time>
      </trkpt>
      <trkpt lat="46.51" lon="0.37986">
        <ele>92.6</ele>
        <time>2024-08-18T09:36:56Z</time>
      </trkpt>
      <trkpt lat="46.50983" lon="0.37979">
        <ele>93</ele>
        <time>2024-08-18T09:37:02Z</time>
      </trkpt>
      <trkpt lat="46.50981" lon="0.37978">
        <ele>93.2</ele>
        <time>2024-08-18T09:37:03Z</time>
      </trkpt>
      <trkpt lat="46.50967" lon="0.37969">
        <ele>93.2</ele>
        <time>2024-08-18T09:37:09Z</time>
      </trkpt>
      <trkpt lat="46.5096" lon="0.37965">
        <ele>93.4</ele>
        <time>2024-08-18T09:37:13Z</time>
      </trkpt>
      <trkpt lat="46.50953" lon="0.37961">
        <ele>94</ele>
        <time>2024-08-18T09:37:16Z</time>
      </trkpt>
      <trkpt lat="46.50931" lon="0.37945">
        <ele>94.2</ele>
        <time>2024-08-18T09:37:21Z</time>
      </trkpt>
      <trkpt lat="46.50908" lon="0.37918">
        <ele>94.4</ele>
        <time>2024-08-18T09:37:27Z</time>
      </trkpt>
      <trkpt lat="46.50904" lon="0.37913">
        <ele>94.6</ele>
        <time>2024-08-18T09:37:28Z</time>
      </trkpt>
      <trkpt lat="46.50884" lon="0.37884">
        <ele>94.8</ele>
        <time>2024-08-18T09:37:34Z</time>
      </trkpt>
      <trkpt lat="46.50859" lon="0.37846">
        <ele>95.6</ele>
        <time>2024-08-18T09:37:41Z</time>
      </trkpt>
      <trkpt lat="46.50844" lon="0.37815">
        <ele>95.8</ele>
        <time>2024-08-18T09:37:47Z</time>
      </trkpt>
      <trkpt lat="46.50842" lon="0.37812">
        <ele>95.8</ele>
        <time>2024-08-18T09:37:48Z</time>
      </trkpt>
      <trkpt lat="46.50836" lon="0.37809">
        <ele>96</ele>
        <time>2024-08-18T09:37:51Z</time>
      </trkpt>
      <trkpt lat="46.50836" lon="0.37809">
        <ele>96.6</ele>
        <time>2024-08-18T09:37:52Z</time>
      </trkpt>
      <trkpt lat="46.50804" lon="0.378">
        <ele>97</ele>
        <time>2024-08-18T09:37:58Z</time>
      </trkpt>
      <trkpt lat="46.5079" lon="0.37795">
        <ele>97.2</ele>
        <time>2024-08-18T09:38:02Z</time>
      </trkpt>
      <trkpt lat="46.50783" lon="0.37794">
        <ele>97.4</ele>
        <time>2024-08-18T09:38:04Z</time>
      </trkpt>
      <trkpt lat="46.50778" lon="0.37792">
        <ele>97.6</ele>
        <time>2024-08-18T09:38:06Z</time>
      </trkpt>
      <trkpt lat="46.50776" lon="0.37791">
        <ele>97.6</ele>
        <time>2024-08-18T09:38:07Z</time>
      </trkpt>
      <trkpt lat="46.50773" lon="0.3779">
        <ele>97.6</ele>
        <time>2024-08-18T09:38:08Z</time>
      </trkpt>
      <trkpt lat="46.50768" lon="0.37788">
        <ele>97.6</ele>
        <time>2024-08-18T09:38:10Z</time>
      </trkpt>
      <trkpt lat="46.5076" lon="0.37785">
        <ele>97.6</ele>
        <time>2024-08-18T09:38:13Z</time>
      </trkpt>
      <trkpt lat="46.50756" lon="0.37783">
        <ele>98</ele>
        <time>2024-08-18T09:38:15Z</time>
      </trkpt>
      <trkpt lat="46.5075" lon="0.37781">
        <ele>98.2</ele>
        <time>2024-08-18T09:38:17Z</time>
      </trkpt>
      <trkpt lat="46.50728" lon="0.37773">
        <ele>98.2</ele>
        <time>2024-08-18T09:38:23Z</time>
      </trkpt>
      <trkpt lat="46.50724" lon="0.3777">
        <ele>98.2</ele>
        <time>2024-08-18T09:38:24Z</time>
      </trkpt>
      <trkpt lat="46.50713" lon="0.37764">
        <ele>98.6</ele>
        <time>2024-08-18T09:38:27Z</time>
      </trkpt>
      <trkpt lat="46.50697" lon="0.37752">
        <ele>99.2</ele>
        <time>2024-08-18T09:38:31Z</time>
      </trkpt>
      <trkpt lat="46.50676" lon="0.37735">
        <ele>99.8</ele>
        <time>2024-08-18T09:38:35Z</time>
      </trkpt>
      <trkpt lat="46.50671" lon="0.37732">
        <ele>100</ele>
        <time>2024-08-18T09:38:36Z</time>
      </trkpt>
      <trkpt lat="46.50657" lon="0.37724">
        <ele>100.2</ele>
        <time>2024-08-18T09:38:39Z</time>
      </trkpt>
      <trkpt lat="46.5065" lon="0.37719">
        <ele>100.4</ele>
        <time>2024-08-18T09:38:41Z</time>
      </trkpt>
      <trkpt lat="46.5063" lon="0.37704">
        <ele>101</ele>
        <time>2024-08-18T09:38:46Z</time>
      </trkpt>
      <trkpt lat="46.50626" lon="0.37701">
        <ele>101</ele>
        <time>2024-08-18T09:38:47Z</time>
      </trkpt>
      <trkpt lat="46.50624" lon="0.37698">
        <ele>101.2</ele>
        <time>2024-08-18T09:38:48Z</time>
      </trkpt>
      <trkpt lat="46.50615" lon="0.37692">
        <ele>101.6</ele>
        <time>2024-08-18T09:38:50Z</time>
      </trkpt>
      <trkpt lat="46.50603" lon="0.37686">
        <ele>102</ele>
        <time>2024-08-18T09:38:52Z</time>
      </trkpt>
      <trkpt lat="46.50595" lon="0.3768">
        <ele>102.4</ele>
        <time>2024-08-18T09:38:54Z</time>
      </trkpt>
      <trkpt lat="46.50588" lon="0.37674">
        <ele>102.8</ele>
        <time>2024-08-18T09:38:56Z</time>
      </trkpt>
      <trkpt lat="46.50584" lon="0.37672">
        <ele>103</ele>
        <time>2024-08-18T09:38:57Z</time>
      </trkpt>
      <trkpt lat="46.50575" lon="0.37666">
        <ele>103.4</ele>
        <time>2024-08-18T09:38:59Z</time>
      </trkpt>
      <trkpt lat="46.50549" lon="0.37653">
        <ele>104.2</ele>
        <time>2024-08-18T09:39:03Z</time>
      </trkpt>
      <trkpt lat="46.50533" lon="0.37645">
        <ele>105</ele>
        <time>2024-08-18T09:39:06Z</time>
      </trkpt>
      <trkpt lat="46.50524" lon="0.37639">
        <ele>105.2</ele>
        <time>2024-08-18T09:39:08Z</time>
      </trkpt>
      <trkpt lat="46.50509" lon="0.37629">
        <ele>105.2</ele>
        <time>2024-08-18T09:39:12Z</time>
      </trkpt>
      <trkpt lat="46.50502" lon="0.37625">
        <ele>105.2</ele>
        <time>2024-08-18T09:39:14Z</time>
      </trkpt>
      <trkpt lat="46.50481" lon="0.37613">
        <ele>106.4</ele>
        <time>2024-08-18T09:39:18Z</time>
      </trkpt>
      <trkpt lat="46.50472" lon="0.37609">
        <ele>106.6</ele>
        <time>2024-08-18T09:39:20Z</time>
      </trkpt>
      <trkpt lat="46.50463" lon="0.37604">
        <ele>107</ele>
        <time>2024-08-18T09:39:22Z</time>
      </trkpt>
      <trkpt lat="46.50456" lon="0.376">
        <ele>107.2</ele>
        <time>2024-08-18T09:39:24Z</time>
      </trkpt>
      <trkpt lat="46.50451" lon="0.37598">
        <ele>107.4</ele>
        <time>2024-08-18T09:39:25Z</time>
      </trkpt>
      <trkpt lat="46.50428" lon="0.37576">
        <ele>108.2</ele>
        <time>2024-08-18T09:39:30Z</time>
      </trkpt>
      <trkpt lat="46.50423" lon="0.37572">
        <ele>108.4</ele>
        <time>2024-08-18T09:39:31Z</time>
      </trkpt>
      <trkpt lat="46.50404" lon="0.37551">
        <ele>109</ele>
        <time>2024-08-18T09:39:36Z</time>
      </trkpt>
      <trkpt lat="46.5039" lon="0.37539">
        <ele>109.4</ele>
        <time>2024-08-18T09:39:41Z</time>
      </trkpt>
      <trkpt lat="46.50385" lon="0.37536">
        <ele>109.6</ele>
        <time>2024-08-18T09:39:43Z</time>
      </trkpt>
      <trkpt lat="46.50376" lon="0.37529">
        <ele>109.8</ele>
        <time>2024-08-18T09:39:48Z</time>
      </trkpt>
      <trkpt lat="46.50374" lon="0.37527">
        <ele>109.8</ele>
        <time>2024-08-18T09:39:50Z</time>
      </trkpt>
      <trkpt lat="46.50372" lon="0.37524">
        <ele>109.8</ele>
        <time>2024-08-18T09:39:52Z</time>
      </trkpt>
      <trkpt lat="46.50369" lon="0.3752">
        <ele>109.8</ele>
        <time>2024-08-18T09:39:56Z</time>
      </trkpt>
      <trkpt lat="46.5036" lon="0.37507">
        <ele>109.8</ele>
        <time>2024-08-18T09:40:01Z</time>
      </trkpt>
      <trkpt lat="46.50345" lon="0.37485">
        <ele>110.6</ele>
        <time>2024-08-18T09:40:07Z</time>
      </trkpt>
      <trkpt lat="46.50338" lon="0.37477">
        <ele>110.8</ele>
        <time>2024-08-18T09:40:09Z</time>
      </trkpt>
      <trkpt lat="46.50326" lon="0.37458">
        <ele>112</ele>
        <time>2024-08-18T09:40:14Z</time>
      </trkpt>
      <trkpt lat="46.50324" lon="0.37453">
        <ele>112.4</ele>
        <time>2024-08-18T09:40:15Z</time>
      </trkpt>
      <trkpt lat="46.50304" lon="0.37414">
        <ele>112.6</ele>
        <time>2024-08-18T09:40:23Z</time>
      </trkpt>
      <trkpt lat="46.50296" lon="0.374">
        <ele>112.6</ele>
        <time>2024-08-18T09:40:26Z</time>
      </trkpt>
      <trkpt lat="46.50289" lon="0.37389">
        <ele>112.8</ele>
        <time>2024-08-18T09:40:29Z</time>
      </trkpt>
      <trkpt lat="46.50287" lon="0.37385">
        <ele>112.8</ele>
        <time>2024-08-18T09:40:30Z</time>
      </trkpt>
      <trkpt lat="46.50279" lon="0.37367">
        <ele>112.8</ele>
        <time>2024-08-18T09:40:34Z</time>
      </trkpt>
      <trkpt lat="46.50275" lon="0.37358">
        <ele>112.6</ele>
        <time>2024-08-18T09:40:36Z</time>
      </trkpt>
      <trkpt lat="46.50272" lon="0.37348">
        <ele>113.2</ele>
        <time>2024-08-18T09:40:38Z</time>
      </trkpt>
      <trkpt lat="46.50269" lon="0.37343">
        <ele>113.4</ele>
        <time>2024-08-18T09:40:39Z</time>
      </trkpt>
      <trkpt lat="46.50265" lon="0.37329">
        <ele>113.6</ele>
        <time>2024-08-18T09:40:42Z</time>
      </trkpt>
      <trkpt lat="46.50261" lon="0.37319">
        <ele>113.6</ele>
        <time>2024-08-18T09:40:44Z</time>
      </trkpt>
      <trkpt lat="46.50257" lon="0.37309">
        <ele>113.8</ele>
        <time>2024-08-18T09:40:46Z</time>
      </trkpt>
      <trkpt lat="46.50254" lon="0.37303">
        <ele>114.2</ele>
        <time>2024-08-18T09:40:47Z</time>
      </trkpt>
      <trkpt lat="46.50247" lon="0.37277">
        <ele>114.6</ele>
        <time>2024-08-18T09:40:51Z</time>
      </trkpt>
      <trkpt lat="46.50228" lon="0.3722">
        <ele>114.8</ele>
        <time>2024-08-18T09:41:00Z</time>
      </trkpt>
      <trkpt lat="46.50224" lon="0.37199">
        <ele>115.2</ele>
        <time>2024-08-18T09:41:04Z</time>
      </trkpt>
      <trkpt lat="46.50222" lon="0.37188">
        <ele>115.4</ele>
        <time>2024-08-18T09:41:06Z</time>
      </trkpt>
      <trkpt lat="46.50219" lon="0.37182">
        <ele>115.4</ele>
        <time>2024-08-18T09:41:07Z</time>
      </trkpt>
      <trkpt lat="46.50213" lon="0.37162">
        <ele>115.4</ele>
        <time>2024-08-18T09:41:11Z</time>
      </trkpt>
      <trkpt lat="46.50205" lon="0.37137">
        <ele>115.4</ele>
        <time>2024-08-18T09:41:17Z</time>
      </trkpt>
      <trkpt lat="46.50203" lon="0.37111">
        <ele>116.2</ele>
        <time>2024-08-18T09:41:24Z</time>
      </trkpt>
      <trkpt lat="46.50201" lon="0.37105">
        <ele>116.4</ele>
        <time>2024-08-18T09:41:25Z</time>
      </trkpt>
      <trkpt lat="46.50197" lon="0.37093">
        <ele>116.8</ele>
        <time>2024-08-18T09:41:27Z</time>
      </trkpt>
      <trkpt lat="46.50196" lon="0.37082">
        <ele>116.8</ele>
        <time>2024-08-18T09:41:29Z</time>
      </trkpt>
      <trkpt lat="46.50191" lon="0.37062">
        <ele>116.8</ele>
        <time>2024-08-18T09:41:32Z</time>
      </trkpt>
      <trkpt lat="46.50187" lon="0.37046">
        <ele>117</ele>
        <time>2024-08-18T09:41:34Z</time>
      </trkpt>
      <trkpt lat="46.50183" lon="0.37026">
        <ele>117.2</ele>
        <time>2024-08-18T09:41:37Z</time>
      </trkpt>
      <trkpt lat="46.5018" lon="0.37002">
        <ele>117</ele>
        <time>2024-08-18T09:41:40Z</time>
      </trkpt>
      <trkpt lat="46.50177" lon="0.36981">
        <ele>117.4</ele>
        <time>2024-08-18T09:41:43Z</time>
      </trkpt>
      <trkpt lat="46.50176" lon="0.36965">
        <ele>117.6</ele>
        <time>2024-08-18T09:41:45Z</time>
      </trkpt>
      <trkpt lat="46.50171" lon="0.36936">
        <ele>118</ele>
        <time>2024-08-18T09:41:49Z</time>
      </trkpt>
      <trkpt lat="46.50171" lon="0.3693">
        <ele>118</ele>
        <time>2024-08-18T09:41:50Z</time>
      </trkpt>
      <trkpt lat="46.50171" lon="0.36924">
        <ele>117.8</ele>
        <time>2024-08-18T09:41:51Z</time>
      </trkpt>
      <trkpt lat="46.50173" lon="0.36913">
        <ele>117.8</ele>
        <time>2024-08-18T09:41:53Z</time>
      </trkpt>
      <trkpt lat="46.50174" lon="0.36907">
        <ele>117.8</ele>
        <time>2024-08-18T09:41:54Z</time>
      </trkpt>
      <trkpt lat="46.50177" lon="0.36897">
        <ele>117.8</ele>
        <time>2024-08-18T09:41:56Z</time>
      </trkpt>
      <trkpt lat="46.50184" lon="0.3689">
        <ele>117.8</ele>
        <time>2024-08-18T09:41:58Z</time>
      </trkpt>
      <trkpt lat="46.50189" lon="0.36887">
        <ele>118</ele>
        <time>2024-08-18T09:41:59Z</time>
      </trkpt>
      <trkpt lat="46.502" lon="0.36874">
        <ele>118.2</ele>
        <time>2024-08-18T09:42:03Z</time>
      </trkpt>
      <trkpt lat="46.50202" lon="0.36871">
        <ele>118.2</ele>
        <time>2024-08-18T09:42:04Z</time>
      </trkpt>
      <trkpt lat="46.50201" lon="0.36868">
        <ele>118</ele>
        <time>2024-08-18T09:42:05Z</time>
      </trkpt>
      <trkpt lat="46.50201" lon="0.36861">
        <ele>117.8</ele>
        <time>2024-08-18T09:42:07Z</time>
      </trkpt>
      <trkpt lat="46.50201" lon="0.36859">
        <ele>117.8</ele>
        <time>2024-08-18T09:42:08Z</time>
      </trkpt>
      <trkpt lat="46.50207" lon="0.36846">
        <ele>117.8</ele>
        <time>2024-08-18T09:42:12Z</time>
      </trkpt>
      <trkpt lat="46.50209" lon="0.36835">
        <ele>117.8</ele>
        <time>2024-08-18T09:42:14Z</time>
      </trkpt>
      <trkpt lat="46.50212" lon="0.36814">
        <ele>117.6</ele>
        <time>2024-08-18T09:42:18Z</time>
      </trkpt>
      <trkpt lat="46.50209" lon="0.36808">
        <ele>117.4</ele>
        <time>2024-08-18T09:42:20Z</time>
      </trkpt>
      <trkpt lat="46.50207" lon="0.36807">
        <ele>117.4</ele>
        <time>2024-08-18T09:42:21Z</time>
      </trkpt>
      <trkpt lat="46.50201" lon="0.36805">
        <ele>117.2</ele>
        <time>2024-08-18T09:42:24Z</time>
      </trkpt>
      <trkpt lat="46.50199" lon="0.36802">
        <ele>117</ele>
        <time>2024-08-18T09:42:25Z</time>
      </trkpt>
      <trkpt lat="46.50196" lon="0.36795">
        <ele>117</ele>
        <time>2024-08-18T09:42:27Z</time>
      </trkpt>
      <trkpt lat="46.50192" lon="0.36794">
        <ele>117</ele>
        <time>2024-08-18T09:42:29Z</time>
      </trkpt>
      <trkpt lat="46.50187" lon="0.36792">
        <ele>116.8</ele>
        <time>2024-08-18T09:42:31Z</time>
      </trkpt>
      <trkpt lat="46.50183" lon="0.36787">
        <ele>117</ele>
        <time>2024-08-18T09:42:33Z</time>
      </trkpt>
      <trkpt lat="46.50179" lon="0.3678">
        <ele>117</ele>
        <time>2024-08-18T09:42:35Z</time>
      </trkpt>
      <trkpt lat="46.50173" lon="0.36775">
        <ele>117.4</ele>
        <time>2024-08-18T09:42:37Z</time>
      </trkpt>
      <trkpt lat="46.5017" lon="0.36774">
        <ele>117.6</ele>
        <time>2024-08-18T09:42:38Z</time>
      </trkpt>
      <trkpt lat="46.50168" lon="0.36774">
        <ele>117.6</ele>
        <time>2024-08-18T09:42:39Z</time>
      </trkpt>
      <trkpt lat="46.50162" lon="0.36775">
        <ele>117.6</ele>
        <time>2024-08-18T09:42:42Z</time>
      </trkpt>
      <trkpt lat="46.50155" lon="0.36772">
        <ele>117.8</ele>
        <time>2024-08-18T09:42:45Z</time>
      </trkpt>
      <trkpt lat="46.50153" lon="0.36772">
        <ele>118</ele>
        <time>2024-08-18T09:42:46Z</time>
      </trkpt>
      <trkpt lat="46.5015" lon="0.36771">
        <ele>117.8</ele>
        <time>2024-08-18T09:42:47Z</time>
      </trkpt>
      <trkpt lat="46.50141" lon="0.36763">
        <ele>117.6</ele>
        <time>2024-08-18T09:42:51Z</time>
      </trkpt>
      <trkpt lat="46.50135" lon="0.36749">
        <ele>117.2</ele>
        <time>2024-08-18T09:42:57Z</time>
      </trkpt>
      <trkpt lat="46.50132" lon="0.36731">
        <ele>117</ele>
        <time>2024-08-18T09:43:02Z</time>
      </trkpt>
      <trkpt lat="46.50126" lon="0.36706">
        <ele>116.6</ele>
        <time>2024-08-18T09:43:10Z</time>
      </trkpt>
      <trkpt lat="46.50126" lon="0.36701">
        <ele>116.4</ele>
        <time>2024-08-18T09:43:12Z</time>
      </trkpt>
      <trkpt lat="46.50127" lon="0.36691">
        <ele>116.6</ele>
        <time>2024-08-18T09:43:16Z</time>
      </trkpt>
      <trkpt lat="46.50128" lon="0.36666">
        <ele>116.8</ele>
        <time>2024-08-18T09:43:22Z</time>
      </trkpt>
      <trkpt lat="46.50134" lon="0.36655">
        <ele>116.4</ele>
        <time>2024-08-18T09:43:26Z</time>
      </trkpt>
      <trkpt lat="46.50135" lon="0.3665">
        <ele>116</ele>
        <time>2024-08-18T09:43:28Z</time>
      </trkpt>
      <trkpt lat="46.50145" lon="0.3663">
        <ele>116</ele>
        <time>2024-08-18T09:43:33Z</time>
      </trkpt>
      <trkpt lat="46.5015" lon="0.36627">
        <ele>116</ele>
        <time>2024-08-18T09:43:36Z</time>
      </trkpt>
      <trkpt lat="46.50153" lon="0.36628">
        <ele>116</ele>
        <time>2024-08-18T09:43:38Z</time>
      </trkpt>
      <trkpt lat="46.50157" lon="0.36629">
        <ele>116.4</ele>
        <time>2024-08-18T09:43:41Z</time>
      </trkpt>
      <trkpt lat="46.50162" lon="0.36631">
        <ele>116.4</ele>
        <time>2024-08-18T09:43:44Z</time>
      </trkpt>
      <trkpt lat="46.50169" lon="0.3664">
        <ele>116.2</ele>
        <time>2024-08-18T09:43:49Z</time>
      </trkpt>
      <trkpt lat="46.50171" lon="0.3664">
        <ele>116.2</ele>
        <time>2024-08-18T09:43:50Z</time>
      </trkpt>
      <trkpt lat="46.50175" lon="0.36639">
        <ele>116.4</ele>
        <time>2024-08-18T09:43:52Z</time>
      </trkpt>
      <trkpt lat="46.50176" lon="0.36637">
        <ele>116.4</ele>
        <time>2024-08-18T09:43:53Z</time>
      </trkpt>
      <trkpt lat="46.50187" lon="0.36627">
        <ele>116.6</ele>
        <time>2024-08-18T09:43:59Z</time>
      </trkpt>
      <trkpt lat="46.50189" lon="0.36627">
        <ele>116.6</ele>
        <time>2024-08-18T09:44:00Z</time>
      </trkpt>
      <trkpt lat="46.50196" lon="0.36629">
        <ele>116</ele>
        <time>2024-08-18T09:44:03Z</time>
      </trkpt>
      <trkpt lat="46.50197" lon="0.3663">
        <ele>116</ele>
        <time>2024-08-18T09:44:04Z</time>
      </trkpt>
      <trkpt lat="46.50207" lon="0.3664">
        <ele>115.8</ele>
        <time>2024-08-18T09:44:09Z</time>
      </trkpt>
      <trkpt lat="46.50211" lon="0.36649">
        <ele>116</ele>
        <time>2024-08-18T09:44:12Z</time>
      </trkpt>
      <trkpt lat="46.50213" lon="0.3665">
        <ele>116</ele>
        <time>2024-08-18T09:44:13Z</time>
      </trkpt>
      <trkpt lat="46.50224" lon="0.36647">
        <ele>116</ele>
        <time>2024-08-18T09:44:17Z</time>
      </trkpt>
      <trkpt lat="46.5023" lon="0.36643">
        <ele>116</ele>
        <time>2024-08-18T09:44:19Z</time>
      </trkpt>
      <trkpt lat="46.50247" lon="0.36638">
        <ele>115.6</ele>
        <time>2024-08-18T09:44:23Z</time>
      </trkpt>
      <trkpt lat="46.50253" lon="0.36637">
        <ele>115.4</ele>
        <time>2024-08-18T09:44:25Z</time>
      </trkpt>
      <trkpt lat="46.50258" lon="0.36642">
        <ele>115.4</ele>
        <time>2024-08-18T09:44:27Z</time>
      </trkpt>
      <trkpt lat="46.50267" lon="0.36653">
        <ele>115.4</ele>
        <time>2024-08-18T09:44:31Z</time>
      </trkpt>
      <trkpt lat="46.50272" lon="0.36655">
        <ele>115.4</ele>
        <time>2024-08-18T09:44:33Z</time>
      </trkpt>
      <trkpt lat="46.50276" lon="0.36656">
        <ele>115.4</ele>
        <time>2024-08-18T09:44:34Z</time>
      </trkpt>
      <trkpt lat="46.50282" lon="0.36657">
        <ele>115.2</ele>
        <time>2024-08-18T09:44:36Z</time>
      </trkpt>
      <trkpt lat="46.5029" lon="0.36655">
        <ele>115.2</ele>
        <time>2024-08-18T09:44:38Z</time>
      </trkpt>
      <trkpt lat="46.50299" lon="0.3665">
        <ele>114.4</ele>
        <time>2024-08-18T09:44:43Z</time>
      </trkpt>
      <trkpt lat="46.50302" lon="0.3665">
        <ele>114.4</ele>
        <time>2024-08-18T09:44:45Z</time>
      </trkpt>
      <trkpt lat="46.5031" lon="0.36647">
        <ele>114.4</ele>
        <time>2024-08-18T09:44:49Z</time>
      </trkpt>
      <trkpt lat="46.50311" lon="0.36648">
        <ele>114.2</ele>
        <time>2024-08-18T09:44:50Z</time>
      </trkpt>
      <trkpt lat="46.50318" lon="0.36653">
        <ele>113.8</ele>
        <time>2024-08-18T09:44:53Z</time>
      </trkpt>
      <trkpt lat="46.50321" lon="0.36668">
        <ele>114.2</ele>
        <time>2024-08-18T09:44:58Z</time>
      </trkpt>
      <trkpt lat="46.50327" lon="0.36674">
        <ele>115</ele>
        <time>2024-08-18T09:45:03Z</time>
      </trkpt>
      <trkpt lat="46.50331" lon="0.36674">
        <ele>115.2</ele>
        <time>2024-08-18T09:45:05Z</time>
      </trkpt>
      <trkpt lat="46.50335" lon="0.36676">
        <ele>115</ele>
        <time>2024-08-18T09:45:07Z</time>
      </trkpt>
      <trkpt lat="46.50339" lon="0.36679">
        <ele>115.2</ele>
        <time>2024-08-18T09:45:09Z</time>
      </trkpt>
      <trkpt lat="46.50345" lon="0.36685">
        <ele>114.8</ele>
        <time>2024-08-18T09:45:13Z</time>
      </trkpt>
      <trkpt lat="46.50349" lon="0.36688">
        <ele>115</ele>
        <time>2024-08-18T09:45:15Z</time>
      </trkpt>
      <trkpt lat="46.50365" lon="0.36697">
        <ele>115</ele>
        <time>2024-08-18T09:45:24Z</time>
      </trkpt>
      <trkpt lat="46.50387" lon="0.36703">
        <ele>114.8</ele>
        <time>2024-08-18T09:45:31Z</time>
      </trkpt>
      <trkpt lat="46.50399" lon="0.36706">
        <ele>114.6</ele>
        <time>2024-08-18T09:45:35Z</time>
      </trkpt>
      <trkpt lat="46.50412" lon="0.36704">
        <ele>114.6</ele>
        <time>2024-08-18T09:45:38Z</time>
      </trkpt>
      <trkpt lat="46.50421" lon="0.36704">
        <ele>114.2</ele>
        <time>2024-08-18T09:45:40Z</time>
      </trkpt>
      <trkpt lat="46.50425" lon="0.36706">
        <ele>114.2</ele>
        <time>2024-08-18T09:45:41Z</time>
      </trkpt>
      <trkpt lat="46.50434" lon="0.36709">
        <ele>114</ele>
        <time>2024-08-18T09:45:43Z</time>
      </trkpt>
      <trkpt lat="46.50437" lon="0.3671">
        <ele>114.2</ele>
        <time>2024-08-18T09:45:44Z</time>
      </trkpt>
      <trkpt lat="46.50444" lon="0.36714">
        <ele>114.2</ele>
        <time>2024-08-18T09:45:47Z</time>
      </trkpt>
      <trkpt lat="46.5045" lon="0.36715">
        <ele>114.2</ele>
        <time>2024-08-18T09:45:49Z</time>
      </trkpt>
      <trkpt lat="46.50458" lon="0.36722">
        <ele>114.2</ele>
        <time>2024-08-18T09:45:53Z</time>
      </trkpt>
      <trkpt lat="46.50464" lon="0.36728">
        <ele>114.4</ele>
        <time>2024-08-18T09:45:56Z</time>
      </trkpt>
      <trkpt lat="46.50469" lon="0.36731">
        <ele>114.6</ele>
        <time>2024-08-18T09:45:58Z</time>
      </trkpt>
      <trkpt lat="46.50488" lon="0.36744">
        <ele>115.2</ele>
        <time>2024-08-18T09:46:04Z</time>
      </trkpt>
      <trkpt lat="46.50494" lon="0.36757">
        <ele>115.8</ele>
        <time>2024-08-18T09:46:08Z</time>
      </trkpt>
      <trkpt lat="46.50499" lon="0.36766">
        <ele>116.2</ele>
        <time>2024-08-18T09:46:11Z</time>
      </trkpt>
      <trkpt lat="46.50501" lon="0.36774">
        <ele>116.6</ele>
        <time>2024-08-18T09:46:13Z</time>
      </trkpt>
      <trkpt lat="46.50515" lon="0.36796">
        <ele>117.4</ele>
        <time>2024-08-18T09:46:19Z</time>
      </trkpt>
      <trkpt lat="46.5052" lon="0.36817">
        <ele>117.4</ele>
        <time>2024-08-18T09:46:26Z</time>
      </trkpt>
      <trkpt lat="46.5052" lon="0.36818">
        <ele>117.4</ele>
        <time>2024-08-18T09:46:27Z</time>
      </trkpt>
      <trkpt lat="46.50519" lon="0.36817">
        <ele>117.2</ele>
        <time>2024-08-18T09:46:31Z</time>
      </trkpt>
      <trkpt lat="46.50515" lon="0.36817">
        <ele>117.4</ele>
        <time>2024-08-18T09:46:35Z</time>
      </trkpt>
      <trkpt lat="46.50513" lon="0.36819">
        <ele>117.2</ele>
        <time>2024-08-18T09:46:37Z</time>
      </trkpt>
      <trkpt lat="46.50506" lon="0.36828">
        <ele>117.2</ele>
        <time>2024-08-18T09:46:43Z</time>
      </trkpt>
      <trkpt lat="46.50504" lon="0.36829">
        <ele>117.2</ele>
        <time>2024-08-18T09:46:44Z</time>
      </trkpt>
      <trkpt lat="46.5049" lon="0.36834">
        <ele>117.2</ele>
        <time>2024-08-18T09:46:51Z</time>
      </trkpt>
      <trkpt lat="46.50478" lon="0.36835">
        <ele>116.8</ele>
        <time>2024-08-18T09:46:57Z</time>
      </trkpt>
      <trkpt lat="46.50467" lon="0.36838">
        <ele>117</ele>
        <time>2024-08-18T09:47:04Z</time>
      </trkpt>
      <trkpt lat="46.50463" lon="0.36838">
        <ele>117</ele>
        <time>2024-08-18T09:47:07Z</time>
      </trkpt>
      <trkpt lat="46.50456" lon="0.36838">
        <ele>116.8</ele>
        <time>2024-08-18T09:47:11Z</time>
      </trkpt>
      <trkpt lat="46.50445" lon="0.36838">
        <ele>117</ele>
        <time>2024-08-18T09:47:17Z</time>
      </trkpt>
      <trkpt lat="46.50431" lon="0.36831">
        <ele>117.2</ele>
        <time>2024-08-18T09:47:23Z</time>
      </trkpt>
      <trkpt lat="46.50423" lon="0.36827">
        <ele>116.8</ele>
        <time>2024-08-18T09:47:27Z</time>
      </trkpt>
      <trkpt lat="46.50422" lon="0.36825">
        <ele>116.8</ele>
        <time>2024-08-18T09:47:28Z</time>
      </trkpt>
      <trkpt lat="46.50417" lon="0.36822">
        <ele>116.8</ele>
        <time>2024-08-18T09:47:30Z</time>
      </trkpt>
      <trkpt lat="46.50412" lon="0.36819">
        <ele>117</ele>
        <time>2024-08-18T09:47:32Z</time>
      </trkpt>
      <trkpt lat="46.50409" lon="0.36818">
        <ele>117</ele>
        <time>2024-08-18T09:47:33Z</time>
      </trkpt>
      <trkpt lat="46.50387" lon="0.36813">
        <ele>117.2</ele>
        <time>2024-08-18T09:47:40Z</time>
      </trkpt>
      <trkpt lat="46.50367" lon="0.36808">
        <ele>116.8</ele>
        <time>2024-08-18T09:47:46Z</time>
      </trkpt>
      <trkpt lat="46.50338" lon="0.36803">
        <ele>117.2</ele>
        <time>2024-08-18T09:47:52Z</time>
      </trkpt>
      <trkpt lat="46.5031" lon="0.36805">
        <ele>117.8</ele>
        <time>2024-08-18T09:47:58Z</time>
      </trkpt>
      <trkpt lat="46.50302" lon="0.36822">
        <ele>118</ele>
        <time>2024-08-18T09:48:03Z</time>
      </trkpt>
      <trkpt lat="46.50296" lon="0.36827">
        <ele>117.8</ele>
        <time>2024-08-18T09:48:05Z</time>
      </trkpt>
      <trkpt lat="46.50297" lon="0.36828">
        <ele>117.6</ele>
        <time>2024-08-18T09:48:07Z</time>
      </trkpt>
      <trkpt lat="46.50297" lon="0.36829">
        <ele>117.6</ele>
        <time>2024-08-18T09:48:08Z</time>
      </trkpt>
      <trkpt lat="46.50299" lon="0.36829">
        <ele>117.4</ele>
        <time>2024-08-18T09:48:10Z</time>
      </trkpt>
      <trkpt lat="46.50301" lon="0.36833">
        <ele>117.4</ele>
        <time>2024-08-18T09:48:12Z</time>
      </trkpt>
      <trkpt lat="46.50303" lon="0.36834">
        <ele>117.4</ele>
        <time>2024-08-18T09:48:13Z</time>
      </trkpt>
      <trkpt lat="46.50319" lon="0.36846">
        <ele>117.6</ele>
        <time>2024-08-18T09:48:21Z</time>
      </trkpt>
      <trkpt lat="46.50321" lon="0.36848">
        <ele>117.6</ele>
        <time>2024-08-18T09:48:22Z</time>
      </trkpt>
      <trkpt lat="46.50327" lon="0.36854">
        <ele>117.6</ele>
        <time>2024-08-18T09:48:25Z</time>
      </trkpt>
      <trkpt lat="46.5033" lon="0.36857">
        <ele>117.4</ele>
        <time>2024-08-18T09:48:27Z</time>
      </trkpt>
      <trkpt lat="46.50332" lon="0.36858">
        <ele>117.4</ele>
        <time>2024-08-18T09:48:28Z</time>
      </trkpt>
      <trkpt lat="46.50347" lon="0.36871">
        <ele>117.4</ele>
        <time>2024-08-18T09:48:34Z</time>
      </trkpt>
      <trkpt lat="46.50353" lon="0.36877">
        <ele>117.4</ele>
        <time>2024-08-18T09:48:36Z</time>
      </trkpt>
      <trkpt lat="46.50366" lon="0.36886">
        <ele>117.2</ele>
        <time>2024-08-18T09:48:40Z</time>
      </trkpt>
      <trkpt lat="46.50372" lon="0.36891">
        <ele>117</ele>
        <time>2024-08-18T09:48:42Z</time>
      </trkpt>
      <trkpt lat="46.50375" lon="0.36893">
        <ele>116.8</ele>
        <time>2024-08-18T09:48:43Z</time>
      </trkpt>
      <trkpt lat="46.50393" lon="0.36906">
        <ele>116.4</ele>
        <time>2024-08-18T09:48:49Z</time>
      </trkpt>
      <trkpt lat="46.50398" lon="0.36911">
        <ele>116.2</ele>
        <time>2024-08-18T09:48:51Z</time>
      </trkpt>
      <trkpt lat="46.50404" lon="0.36917">
        <ele>116.2</ele>
        <time>2024-08-18T09:48:53Z</time>
      </trkpt>
      <trkpt lat="46.50413" lon="0.36927">
        <ele>116</ele>
        <time>2024-08-18T09:48:59Z</time>
      </trkpt>
      <trkpt lat="46.50416" lon="0.36932">
        <ele>116</ele>
        <time>2024-08-18T09:49:08Z</time>
      </trkpt>
      <trkpt lat="46.50418" lon="0.36934">
        <ele>115.8</ele>
        <time>2024-08-18T09:49:17Z</time>
      </trkpt>
      <trkpt lat="46.50419" lon="0.36936">
        <ele>116</ele>
        <time>2024-08-18T09:49:28Z</time>
      </trkpt>
      <trkpt lat="46.50428" lon="0.3694">
        <ele>115.8</ele>
        <time>2024-08-18T09:49:38Z</time>
      </trkpt>
      <trkpt lat="46.50428" lon="0.36941">
        <ele>115.8</ele>
        <time>2024-08-18T09:49:46Z</time>
      </trkpt>
      <trkpt lat="46.50428" lon="0.36941">
        <ele>115.8</ele>
        <time>2024-08-18T09:49:56Z</time>
      </trkpt>
      <trkpt lat="46.50431" lon="0.36944">
        <ele>116</ele>
        <time>2024-08-18T09:50:14Z</time>
      </trkpt>
      <trkpt lat="46.50436" lon="0.36942">
        <ele>116</ele>
        <time>2024-08-18T09:50:28Z</time>
      </trkpt>
      <trkpt lat="46.50439" lon="0.3694">
        <ele>116</ele>
        <time>2024-08-18T09:50:31Z</time>
      </trkpt>
      <trkpt lat="46.50443" lon="0.3694">
        <ele>116</ele>
        <time>2024-08-18T09:50:34Z</time>
      </trkpt>
      <trkpt lat="46.50445" lon="0.36938">
        <ele>116</ele>
        <time>2024-08-18T09:50:37Z</time>
      </trkpt>
      <trkpt lat="46.50447" lon="0.36937">
        <ele>115.8</ele>
        <time>2024-08-18T09:50:39Z</time>
      </trkpt>
      <trkpt lat="46.5045" lon="0.36936">
        <ele>116</ele>
        <time>2024-08-18T09:50:41Z</time>
      </trkpt>
      <trkpt lat="46.50473" lon="0.36934">
        <ele>116.2</ele>
        <time>2024-08-18T09:50:51Z</time>
      </trkpt>
      <trkpt lat="46.50493" lon="0.36934">
        <ele>117</ele>
        <time>2024-08-18T09:50:59Z</time>
      </trkpt>
      <trkpt lat="46.50506" lon="0.36937">
        <ele>117</ele>
        <time>2024-08-18T09:51:03Z</time>
      </trkpt>
      <trkpt lat="46.50512" lon="0.36936">
        <ele>117</ele>
        <time>2024-08-18T09:51:05Z</time>
      </trkpt>
      <trkpt lat="46.50515" lon="0.36937">
        <ele>117</ele>
        <time>2024-08-18T09:51:06Z</time>
      </trkpt>
      <trkpt lat="46.50523" lon="0.36941">
        <ele>117.4</ele>
        <time>2024-08-18T09:51:09Z</time>
      </trkpt>
      <trkpt lat="46.50525" lon="0.36941">
        <ele>117.6</ele>
        <time>2024-08-18T09:51:10Z</time>
      </trkpt>
      <trkpt lat="46.50546" lon="0.36938">
        <ele>118</ele>
        <time>2024-08-18T09:51:16Z</time>
      </trkpt>
      <trkpt lat="46.50564" lon="0.36923">
        <ele>118.4</ele>
        <time>2024-08-18T09:51:21Z</time>
      </trkpt>
      <trkpt lat="46.50577" lon="0.3691">
        <ele>118.4</ele>
        <time>2024-08-18T09:51:25Z</time>
      </trkpt>
      <trkpt lat="46.50595" lon="0.36885">
        <ele>118.4</ele>
        <time>2024-08-18T09:51:31Z</time>
      </trkpt>
      <trkpt lat="46.50597" lon="0.3688">
        <ele>118.4</ele>
        <time>2024-08-18T09:51:32Z</time>
      </trkpt>
      <trkpt lat="46.50608" lon="0.36859">
        <ele>118.6</ele>
        <time>2024-08-18T09:51:36Z</time>
      </trkpt>
      <trkpt lat="46.5061" lon="0.36848">
        <ele>118.4</ele>
        <time>2024-08-18T09:51:38Z</time>
      </trkpt>
      <trkpt lat="46.50616" lon="0.36826">
        <ele>118</ele>
        <time>2024-08-18T09:51:42Z</time>
      </trkpt>
      <trkpt lat="46.50619" lon="0.3682">
        <ele>118</ele>
        <time>2024-08-18T09:51:43Z</time>
      </trkpt>
      <trkpt lat="46.50628" lon="0.36798">
        <ele>117.2</ele>
        <time>2024-08-18T09:51:47Z</time>
      </trkpt>
      <trkpt lat="46.50635" lon="0.36772">
        <ele>116.2</ele>
        <time>2024-08-18T09:51:51Z</time>
      </trkpt>
      <trkpt lat="46.50636" lon="0.36765">
        <ele>116</ele>
        <time>2024-08-18T09:51:52Z</time>
      </trkpt>
      <trkpt lat="46.5064" lon="0.36754">
        <ele>115.8</ele>
        <time>2024-08-18T09:51:54Z</time>
      </trkpt>
      <trkpt lat="46.50645" lon="0.36749">
        <ele>115.6</ele>
        <time>2024-08-18T09:51:56Z</time>
      </trkpt>
      <trkpt lat="46.50649" lon="0.36747">
        <ele>115.4</ele>
        <time>2024-08-18T09:51:58Z</time>
      </trkpt>
      <trkpt lat="46.50654" lon="0.36749">
        <ele>115.4</ele>
        <time>2024-08-18T09:52:00Z</time>
      </trkpt>
      <trkpt lat="46.50658" lon="0.36759">
        <ele>115.4</ele>
        <time>2024-08-18T09:52:04Z</time>
      </trkpt>
      <trkpt lat="46.50658" lon="0.36758">
        <ele>115.6</ele>
        <time>2024-08-18T09:52:06Z</time>
      </trkpt>
      <trkpt lat="46.50654" lon="0.36756">
        <ele>115.6</ele>
        <time>2024-08-18T09:52:08Z</time>
      </trkpt>
      <trkpt lat="46.50649" lon="0.36757">
        <ele>115.6</ele>
        <time>2024-08-18T09:52:11Z</time>
      </trkpt>
      <trkpt lat="46.50646" lon="0.36764">
        <ele>115.6</ele>
        <time>2024-08-18T09:52:13Z</time>
      </trkpt>
      <trkpt lat="46.50645" lon="0.36772">
        <ele>115.6</ele>
        <time>2024-08-18T09:52:15Z</time>
      </trkpt>
      <trkpt lat="46.50649" lon="0.3678">
        <ele>115.6</ele>
        <time>2024-08-18T09:52:17Z</time>
      </trkpt>
      <trkpt lat="46.50653" lon="0.36803">
        <ele>116.8</ele>
        <time>2024-08-18T09:52:22Z</time>
      </trkpt>
      <trkpt lat="46.50652" lon="0.36812">
        <ele>117.2</ele>
        <time>2024-08-18T09:52:24Z</time>
      </trkpt>
      <trkpt lat="46.50646" lon="0.36822">
        <ele>117.4</ele>
        <time>2024-08-18T09:52:27Z</time>
      </trkpt>
      <trkpt lat="46.50644" lon="0.36814">
        <ele>117.4</ele>
        <time>2024-08-18T09:52:30Z</time>
      </trkpt>
      <trkpt lat="46.50645" lon="0.36804">
        <ele>117.4</ele>
        <time>2024-08-18T09:52:33Z</time>
      </trkpt>
      <trkpt lat="46.50645" lon="0.36803">
        <ele>117.4</ele>
        <time>2024-08-18T09:52:34Z</time>
      </trkpt>
      <trkpt lat="46.50645" lon="0.36802">
        <ele>117.2</ele>
        <time>2024-08-18T09:52:35Z</time>
      </trkpt>
      <trkpt lat="46.50644" lon="0.36801">
        <ele>116.2</ele>
        <time>2024-08-18T09:52:39Z</time>
      </trkpt>
      <trkpt lat="46.50644" lon="0.36802">
        <ele>116.2</ele>
        <time>2024-08-18T09:52:40Z</time>
      </trkpt>
      <trkpt lat="46.50643" lon="0.36802">
        <ele>116.2</ele>
        <time>2024-08-18T09:52:41Z</time>
      </trkpt>
      <trkpt lat="46.50642" lon="0.36801">
        <ele>116.2</ele>
        <time>2024-08-18T09:52:43Z</time>
      </trkpt>
    </trkseg>
  </trk>
</gpx>